<?xml version='1.0' encoding='UTF-8'?><gpx version="1.1" creator="JPX - https://github.com/jenetics/jpx" xmlns="http://www.topografix.com/GPX/1/1"><trk><trkseg><trkpt lat="43.45012675503524" lon="11.85638080792459"><ele>251.0</ele><time>2026-04-19T05:34:25Z</time></trkpt><trkpt lat="43.450126179378124" lon="11.856280746864527"><ele>251.00000000000003</ele><time>2026-04-19T05:34:27Z</time></trkpt><trkpt lat="43.45014732100435" lon="11.856173201187747"><ele>251.00000000000003</ele><time>2026-04-19T05:34:29Z</time></trkpt><trkpt lat="43.45017792651268" lon="11.8560474023948"><ele>251.0</ele><time>2026-04-19T05:34:31Z</time></trkpt><trkpt lat="43.45020614847057" lon="11.855910418946378"><ele>251.0</ele><time>2026-04-19T05:34:33Z</time></trkpt><trkpt lat="43.450239235897264" lon="11.855766418114637"><ele>251.00000000000003</ele><time>2026-04-19T05:34:35Z</time></trkpt><trkpt lat="43.45027812599341" lon="11.855612484263812"><ele>251.0</ele><time>2026-04-19T05:34:37Z</time></trkpt><trkpt lat="43.45030282166016" lon="11.85553149937427"><ele>251.0</ele><time>2026-04-19T05:34:38Z</time></trkpt><trkpt lat="43.450334595598186" lon="11.855366135494785"><ele>251.0</ele><time>2026-04-19T05:34:40Z</time></trkpt><trkpt lat="43.45034643244424" lon="11.855279483118492"><ele>251.00000000000003</ele><time>2026-04-19T05:34:41Z</time></trkpt><trkpt lat="43.450361225782856" lon="11.855191282142291"><ele>251.0</ele><time>2026-04-19T05:34:42Z</time></trkpt><trkpt lat="43.45037720870563" lon="11.855106006944723"><ele>251.0</ele><time>2026-04-19T05:34:43Z</time></trkpt><trkpt lat="43.450410329329664" lon="11.854945509217712"><ele>251.0</ele><time>2026-04-19T05:34:45Z</time></trkpt><trkpt lat="43.450444257731874" lon="11.854787708536358"><ele>251.0</ele><time>2026-04-19T05:34:47Z</time></trkpt><trkpt lat="43.450462975758754" lon="11.854624395431689"><ele>251.0</ele><time>2026-04-19T05:34:49Z</time></trkpt><trkpt lat="43.45048286853347" lon="11.854467021578827"><ele>250.5</ele><time>2026-04-19T05:34:51Z</time></trkpt><trkpt lat="43.450506283754976" lon="11.854318244274902"><ele>250.0</ele><time>2026-04-19T05:34:53Z</time></trkpt><trkpt lat="43.45050721463508" lon="11.854155753292856"><ele>249.5</ele><time>2026-04-19T05:34:55Z</time></trkpt><trkpt lat="43.45050932389099" lon="11.853980520656767"><ele>249.0</ele><time>2026-04-19T05:34:57Z</time></trkpt><trkpt lat="43.4505121936266" lon="11.85381379194521"><ele>248.75</ele><time>2026-04-19T05:34:59Z</time></trkpt><trkpt lat="43.45051429329119" lon="11.853653438623983"><ele>248.5</ele><time>2026-04-19T05:35:01Z</time></trkpt><trkpt lat="43.450510381290236" lon="11.853481876348695"><ele>248.25</ele><time>2026-04-19T05:35:03Z</time></trkpt><trkpt lat="43.450510347952864" lon="11.85330990623609"><ele>248.0</ele><time>2026-04-19T05:35:05Z</time></trkpt><trkpt lat="43.45050531119486" lon="11.853140048076693"><ele>248.0</ele><time>2026-04-19T05:35:07Z</time></trkpt><trkpt lat="43.45049708368861" lon="11.852976067467589"><ele>248.0</ele><time>2026-04-19T05:35:09Z</time></trkpt><trkpt lat="43.45047644700751" lon="11.852806449832423"><ele>248.0</ele><time>2026-04-19T05:35:11Z</time></trkpt><trkpt lat="43.45045693083104" lon="11.85264690097003"><ele>248.0</ele><time>2026-04-19T05:35:13Z</time></trkpt><trkpt lat="43.45043317380326" lon="11.852478240445008"><ele>248.25</ele><time>2026-04-19T05:35:15Z</time></trkpt><trkpt lat="43.45042575860186" lon="11.852308639258855"><ele>248.5</ele><time>2026-04-19T05:35:17Z</time></trkpt><trkpt lat="43.45043068401485" lon="11.852142484021886"><ele>248.75</ele><time>2026-04-19T05:35:19Z</time></trkpt><trkpt lat="43.45044594290121" lon="11.851980291521103"><ele>249.0</ele><time>2026-04-19T05:35:21Z</time></trkpt><trkpt lat="43.45046963445705" lon="11.851827527865147"><ele>248.75</ele><time>2026-04-19T05:35:23Z</time></trkpt><trkpt lat="43.450485239318205" lon="11.851671136078998"><ele>248.5</ele><time>2026-04-19T05:35:25Z</time></trkpt><trkpt lat="43.45050583225744" lon="11.85151671515048"><ele>248.25</ele><time>2026-04-19T05:35:27Z</time></trkpt><trkpt lat="43.45052090507437" lon="11.851354849901968"><ele>248.0</ele><time>2026-04-19T05:35:29Z</time></trkpt><trkpt lat="43.45053744672439" lon="11.851193624942429"><ele>248.0</ele><time>2026-04-19T05:35:31Z</time></trkpt><trkpt lat="43.450550009377245" lon="11.851051814071573"><ele>248.0</ele><time>2026-04-19T05:35:33Z</time></trkpt><trkpt lat="43.45056556931543" lon="11.850904625360155"><ele>248.0</ele><time>2026-04-19T05:35:35Z</time></trkpt><trkpt lat="43.45059565755449" lon="11.85077251469481"><ele>248.0</ele><time>2026-04-19T05:35:37Z</time></trkpt><trkpt lat="43.45062457548393" lon="11.850637495852466"><ele>248.0</ele><time>2026-04-19T05:35:39Z</time></trkpt><trkpt lat="43.45064805253651" lon="11.850509139688604"><ele>248.16666666666669</ele><time>2026-04-19T05:35:41Z</time></trkpt><trkpt lat="43.450669831388936" lon="11.850385493176129"><ele>248.33333333333334</ele><time>2026-04-19T05:35:43Z</time></trkpt><trkpt lat="43.45069411349335" lon="11.850271353999142"><ele>248.5</ele><time>2026-04-19T05:35:45Z</time></trkpt><trkpt lat="43.45071393559983" lon="11.850160861027321"><ele>248.66666666666669</ele><time>2026-04-19T05:35:47Z</time></trkpt><trkpt lat="43.45073105228272" lon="11.850058837767438"><ele>248.83333333333334</ele><time>2026-04-19T05:35:49Z</time></trkpt><trkpt lat="43.45074604881971" lon="11.849960883784187"><ele>249.0</ele><time>2026-04-19T05:35:51Z</time></trkpt><trkpt lat="43.450762095095484" lon="11.849870329403492"><ele>249.0</ele><time>2026-04-19T05:35:53Z</time></trkpt><trkpt lat="43.45077924299073" lon="11.849772358166488"><ele>249.0</ele><time>2026-04-19T05:35:55Z</time></trkpt><trkpt lat="43.450796444417485" lon="11.849652899730028"><ele>249.0</ele><time>2026-04-19T05:35:57Z</time></trkpt><trkpt lat="43.45081718740051" lon="11.849528542271717"><ele>249.0</ele><time>2026-04-19T05:35:59Z</time></trkpt><trkpt lat="43.45084135846717" lon="11.849413281146752"><ele>249.0</ele><time>2026-04-19T05:36:01Z</time></trkpt><trkpt lat="43.45086495214147" lon="11.84928478042693"><ele>249.0</ele><time>2026-04-19T05:36:03Z</time></trkpt><trkpt lat="43.45088556588656" lon="11.849154886910107"><ele>249.0</ele><time>2026-04-19T05:36:05Z</time></trkpt><trkpt lat="43.45091117366021" lon="11.849021288181294"><ele>248.99999999999997</ele><time>2026-04-19T05:36:07Z</time></trkpt><trkpt lat="43.45093834132067" lon="11.84889429947045"><ele>248.99999999999997</ele><time>2026-04-19T05:36:09Z</time></trkpt><trkpt lat="43.45096616856063" lon="11.848766103099472"><ele>249.0</ele><time>2026-04-19T05:36:11Z</time></trkpt><trkpt lat="43.45099085226157" lon="11.848638736855031"><ele>249.0</ele><time>2026-04-19T05:36:13Z</time></trkpt><trkpt lat="43.45101525459299" lon="11.848520358578059"><ele>248.83333333333334</ele><time>2026-04-19T05:36:15Z</time></trkpt><trkpt lat="43.451040969063605" lon="11.848405346534177"><ele>248.66666666666669</ele><time>2026-04-19T05:36:17Z</time></trkpt><trkpt lat="43.451065352961486" lon="11.848292234453595"><ele>248.5</ele><time>2026-04-19T05:36:19Z</time></trkpt><trkpt lat="43.45108642751614" lon="11.8481886068887"><ele>248.33333333333334</ele><time>2026-04-19T05:36:21Z</time></trkpt><trkpt lat="43.45110763210542" lon="11.848089395729165"><ele>248.16666666666669</ele><time>2026-04-19T05:36:23Z</time></trkpt><trkpt lat="43.45112686620004" lon="11.847993554875265"><ele>248.0</ele><time>2026-04-19T05:36:25Z</time></trkpt><trkpt lat="43.4511495078975" lon="11.847891431811867"><ele>248.00000000000003</ele><time>2026-04-19T05:36:27Z</time></trkpt><trkpt lat="43.45117122326834" lon="11.847786710562314"><ele>248.0</ele><time>2026-04-19T05:36:29Z</time></trkpt><trkpt lat="43.45119193925671" lon="11.847679709059047"><ele>248.0</ele><time>2026-04-19T05:36:31Z</time></trkpt><trkpt lat="43.45120922029654" lon="11.847573941588799"><ele>248.0</ele><time>2026-04-19T05:36:33Z</time></trkpt><trkpt lat="43.45122744242213" lon="11.847472047714755"><ele>248.00000000000003</ele><time>2026-04-19T05:36:35Z</time></trkpt><trkpt lat="43.45124552281655" lon="11.847368848841782"><ele>248.0</ele><time>2026-04-19T05:36:36.999Z</time></trkpt><trkpt lat="43.45126179968419" lon="11.847271482716723"><ele>247.83333333333334</ele><time>2026-04-19T05:36:38.999Z</time></trkpt><trkpt lat="43.45127647987548" lon="11.847174811793922"><ele>247.66666666666669</ele><time>2026-04-19T05:36:40.999Z</time></trkpt><trkpt lat="43.45128946766305" lon="11.847082426787289"><ele>247.5</ele><time>2026-04-19T05:36:42.999Z</time></trkpt><trkpt lat="43.451311160922444" lon="11.846952589727277"><ele>247.33333333333331</ele><time>2026-04-19T05:36:45.999Z</time></trkpt><trkpt lat="43.45133060006349" lon="11.84685098270702"><ele>247.16666666666666</ele><time>2026-04-19T05:36:47.999Z</time></trkpt><trkpt lat="43.45135037662222" lon="11.846740603306378"><ele>247.0</ele><time>2026-04-19T05:36:49.999Z</time></trkpt><trkpt lat="43.45137106418777" lon="11.846628435378618"><ele>247.49999999999997</ele><time>2026-04-19T05:36:51.999Z</time></trkpt><trkpt lat="43.45138607564016" lon="11.846518550413037"><ele>248.0</ele><time>2026-04-19T05:36:53.999Z</time></trkpt><trkpt lat="43.45140909735571" lon="11.846414670160833"><ele>248.5</ele><time>2026-04-19T05:36:55.999Z</time></trkpt><trkpt lat="43.45142567341416" lon="11.84631802532963"><ele>249.0</ele><time>2026-04-19T05:36:57.999Z</time></trkpt><trkpt lat="43.45144438562186" lon="11.846215453282149"><ele>249.49999999999997</ele><time>2026-04-19T05:36:59.999Z</time></trkpt><trkpt lat="43.45146632875017" lon="11.84611450456076"><ele>250.0</ele><time>2026-04-19T05:37:01.999Z</time></trkpt><trkpt lat="43.451482739140786" lon="11.846023584136015"><ele>249.85714285714283</ele><time>2026-04-19T05:37:03.999Z</time></trkpt><trkpt lat="43.45149986202752" lon="11.84593440254006"><ele>249.71428571428572</ele><time>2026-04-19T05:37:05.999Z</time></trkpt><trkpt lat="43.45151689249631" lon="11.845846379978115"><ele>249.57142857142856</ele><time>2026-04-19T05:37:07.999Z</time></trkpt><trkpt lat="43.45153768805864" lon="11.845761901614793"><ele>249.42857142857142</ele><time>2026-04-19T05:37:09.999Z</time></trkpt><trkpt lat="43.45155314727707" lon="11.845665466991349"><ele>249.28571428571428</ele><time>2026-04-19T05:37:11.999Z</time></trkpt><trkpt lat="43.45156227472794" lon="11.845569437572355"><ele>249.14285714285714</ele><time>2026-04-19T05:37:13.999Z</time></trkpt><trkpt lat="43.451567736974994" lon="11.845470411806115"><ele>249.0</ele><time>2026-04-19T05:37:15.999Z</time></trkpt><trkpt lat="43.45158724237869" lon="11.84535906854044"><ele>249.0</ele><time>2026-04-19T05:37:17.999Z</time></trkpt><trkpt lat="43.45161154970581" lon="11.845249677739462"><ele>249.0</ele><time>2026-04-19T05:37:19.999Z</time></trkpt><trkpt lat="43.451631776746524" lon="11.845129873679308"><ele>249.0</ele><time>2026-04-19T05:37:21.999Z</time></trkpt><trkpt lat="43.45165325121897" lon="11.84501272603903"><ele>249.0</ele><time>2026-04-19T05:37:23.999Z</time></trkpt><trkpt lat="43.45167655874472" lon="11.844896340456561"><ele>249.0</ele><time>2026-04-19T05:37:25.999Z</time></trkpt><trkpt lat="43.45170176551659" lon="11.844783549887284"><ele>249.0</ele><time>2026-04-19T05:37:27.999Z</time></trkpt><trkpt lat="43.45172210971636" lon="11.844665251582384"><ele>249.0</ele><time>2026-04-19T05:37:29.999Z</time></trkpt><trkpt lat="43.45174445325417" lon="11.844549322039864"><ele>249.0</ele><time>2026-04-19T05:37:31.999Z</time></trkpt><trkpt lat="43.45176124669761" lon="11.844431582770035"><ele>249.0</ele><time>2026-04-19T05:37:33.999Z</time></trkpt><trkpt lat="43.45178036772515" lon="11.844312170648893"><ele>249.0</ele><time>2026-04-19T05:37:35.999Z</time></trkpt><trkpt lat="43.45180135359736" lon="11.844194326804049"><ele>249.0</ele><time>2026-04-19T05:37:37.999Z</time></trkpt><trkpt lat="43.451825226318306" lon="11.844077700891724"><ele>249.0</ele><time>2026-04-19T05:37:39.999Z</time></trkpt><trkpt lat="43.45184903280427" lon="11.843969235987707"><ele>249.0</ele><time>2026-04-19T05:37:41.999Z</time></trkpt><trkpt lat="43.4518736424145" lon="11.843859958972205"><ele>249.0</ele><time>2026-04-19T05:37:43.999Z</time></trkpt><trkpt lat="43.45190008084769" lon="11.843750575388825"><ele>249.0</ele><time>2026-04-19T05:37:45.999Z</time></trkpt><trkpt lat="43.45192978828929" lon="11.843644138006963"><ele>249.0</ele><time>2026-04-19T05:37:47.999Z</time></trkpt><trkpt lat="43.45195691147528" lon="11.84353725635018"><ele>249.0</ele><time>2026-04-19T05:37:49.999Z</time></trkpt><trkpt lat="43.45198316301412" lon="11.843430638956262"><ele>249.0</ele><time>2026-04-19T05:37:51.999Z</time></trkpt><trkpt lat="43.45200564415488" lon="11.843321096048982"><ele>249.0</ele><time>2026-04-19T05:37:53.999Z</time></trkpt><trkpt lat="43.452027384453345" lon="11.843211261622542"><ele>249.0</ele><time>2026-04-19T05:37:55.999Z</time></trkpt><trkpt lat="43.45204477487287" lon="11.843097412604813"><ele>249.0</ele><time>2026-04-19T05:37:57.999Z</time></trkpt><trkpt lat="43.45206042939635" lon="11.842978051936987"><ele>249.0</ele><time>2026-04-19T05:37:59.999Z</time></trkpt><trkpt lat="43.4520791634508" lon="11.84286519593556"><ele>249.0</ele><time>2026-04-19T05:38:01.999Z</time></trkpt><trkpt lat="43.45208878298983" lon="11.842739178739269"><ele>249.0</ele><time>2026-04-19T05:38:03.999Z</time></trkpt><trkpt lat="43.452098445741264" lon="11.842619722551898"><ele>248.83333333333334</ele><time>2026-04-19T05:38:05.999Z</time></trkpt><trkpt lat="43.452111090643314" lon="11.842500917720258"><ele>248.66666666666669</ele><time>2026-04-19T05:38:07.999Z</time></trkpt><trkpt lat="43.4521254055056" lon="11.842376775206038"><ele>248.5</ele><time>2026-04-19T05:38:09.999Z</time></trkpt><trkpt lat="43.45213654763964" lon="11.842258778206778"><ele>248.33333333333334</ele><time>2026-04-19T05:38:11.999Z</time></trkpt><trkpt lat="43.4521530244284" lon="11.84214608198077"><ele>248.16666666666669</ele><time>2026-04-19T05:38:13.999Z</time></trkpt><trkpt lat="43.45216721622759" lon="11.842035583950453"><ele>248.0</ele><time>2026-04-19T05:38:15.999Z</time></trkpt><trkpt lat="43.45217904572247" lon="11.841921296870835"><ele>248.00000000000003</ele><time>2026-04-19T05:38:17.999Z</time></trkpt><trkpt lat="43.452191592874065" lon="11.841820230319676"><ele>248.0</ele><time>2026-04-19T05:38:19.999Z</time></trkpt><trkpt lat="43.45219893602233" lon="11.84172007545795"><ele>248.0</ele><time>2026-04-19T05:38:21.999Z</time></trkpt><trkpt lat="43.452211377313915" lon="11.841610208395327"><ele>248.0</ele><time>2026-04-19T05:38:23.999Z</time></trkpt><trkpt lat="43.45222143339552" lon="11.84150592066483"><ele>248.00000000000003</ele><time>2026-04-19T05:38:25.999Z</time></trkpt><trkpt lat="43.45222743777111" lon="11.84139761813435"><ele>248.0</ele><time>2026-04-19T05:38:27.999Z</time></trkpt><trkpt lat="43.452236040382736" lon="11.84128813609929"><ele>248.00000000000003</ele><time>2026-04-19T05:38:29.999Z</time></trkpt><trkpt lat="43.45223950278346" lon="11.84117640333802"><ele>248.0</ele><time>2026-04-19T05:38:31.999Z</time></trkpt><trkpt lat="43.452241536768675" lon="11.841071534133572"><ele>248.0</ele><time>2026-04-19T05:38:33.999Z</time></trkpt><trkpt lat="43.45224125805228" lon="11.840961043670445"><ele>248.0</ele><time>2026-04-19T05:38:35.999Z</time></trkpt><trkpt lat="43.45224097449911" lon="11.840859444606307"><ele>248.00000000000003</ele><time>2026-04-19T05:38:37.999Z</time></trkpt><trkpt lat="43.452240388549406" lon="11.840752594616244"><ele>248.0</ele><time>2026-04-19T05:38:39.999Z</time></trkpt><trkpt lat="43.45223909733855" lon="11.840647175021036"><ele>248.00000000000003</ele><time>2026-04-19T05:38:41.999Z</time></trkpt><trkpt lat="43.45223448560287" lon="11.840542467630598"><ele>248.0</ele><time>2026-04-19T05:38:43.999Z</time></trkpt><trkpt lat="43.45222943283312" lon="11.840438024331558"><ele>248.0</ele><time>2026-04-19T05:38:45.999Z</time></trkpt><trkpt lat="43.45222417548086" lon="11.840327610354217"><ele>248.0</ele><time>2026-04-19T05:38:47.999Z</time></trkpt><trkpt lat="43.45221766983008" lon="11.840220632065021"><ele>248.00000000000003</ele><time>2026-04-19T05:38:49.999Z</time></trkpt><trkpt lat="43.4522099122703" lon="11.840115177660717"><ele>248.0</ele><time>2026-04-19T05:38:51.999Z</time></trkpt><trkpt lat="43.45219905357833" lon="11.84000139110618"><ele>247.83333333333334</ele><time>2026-04-19T05:38:53.999Z</time></trkpt><trkpt lat="43.45219016169425" lon="11.839889303162698"><ele>247.66666666666669</ele><time>2026-04-19T05:38:55.999Z</time></trkpt><trkpt lat="43.4521818452845" lon="11.839770764628478"><ele>247.5</ele><time>2026-04-19T05:38:57.999Z</time></trkpt><trkpt lat="43.452174475850555" lon="11.839651497391827"><ele>247.33333333333331</ele><time>2026-04-19T05:38:59.999Z</time></trkpt><trkpt lat="43.45216774769714" lon="11.83952647533368"><ele>247.16666666666666</ele><time>2026-04-19T05:39:01.999Z</time></trkpt><trkpt lat="43.45216215539098" lon="11.83940422292284"><ele>247.0</ele><time>2026-04-19T05:39:03.999Z</time></trkpt><trkpt lat="43.45215629691514" lon="11.839290035931276"><ele>246.83333333333331</ele><time>2026-04-19T05:39:05.999Z</time></trkpt><trkpt lat="43.4521540909971" lon="11.839177379239553"><ele>246.66666666666666</ele><time>2026-04-19T05:39:07.999Z</time></trkpt><trkpt lat="43.45215534049187" lon="11.839070734347676"><ele>246.5</ele><time>2026-04-19T05:39:09.999Z</time></trkpt><trkpt lat="43.45215015555073" lon="11.838958567392009"><ele>246.33333333333331</ele><time>2026-04-19T05:39:11.999Z</time></trkpt><trkpt lat="43.452148945014386" lon="11.838848181880364"><ele>246.16666666666666</ele><time>2026-04-19T05:39:13.999Z</time></trkpt><trkpt lat="43.45214556222717" lon="11.83873986250335"><ele>246.0</ele><time>2026-04-19T05:39:15.999Z</time></trkpt><trkpt lat="43.4521425284493" lon="11.838628473803865"><ele>246.0</ele><time>2026-04-19T05:39:17.999Z</time></trkpt><trkpt lat="43.452139504008734" lon="11.838519145602406"><ele>246.0</ele><time>2026-04-19T05:39:19.999Z</time></trkpt><trkpt lat="43.452135652916084" lon="11.838412724120145"><ele>246.0</ele><time>2026-04-19T05:39:21.999Z</time></trkpt><trkpt lat="43.452132369266074" lon="11.838299671593852"><ele>246.0</ele><time>2026-04-19T05:39:23.999Z</time></trkpt><trkpt lat="43.452129255263536" lon="11.838192742776352"><ele>246.0</ele><time>2026-04-19T05:39:25.999Z</time></trkpt><trkpt lat="43.45212538494289" lon="11.83808570311316"><ele>246.0</ele><time>2026-04-19T05:39:27.999Z</time></trkpt><trkpt lat="43.45212138267757" lon="11.837975695193872"><ele>246.0</ele><time>2026-04-19T05:39:29.999Z</time></trkpt><trkpt lat="43.452117140329705" lon="11.837855138440691"><ele>246.00000000000003</ele><time>2026-04-19T05:39:31.999Z</time></trkpt><trkpt lat="43.45211805677127" lon="11.837730090316951"><ele>246.00000000000003</ele><time>2026-04-19T05:39:33.999Z</time></trkpt><trkpt lat="43.45212129569844" lon="11.837607207900295"><ele>246.0</ele><time>2026-04-19T05:39:35.999Z</time></trkpt><trkpt lat="43.45212243957912" lon="11.83747907140421"><ele>246.0</ele><time>2026-04-19T05:39:37.999Z</time></trkpt><trkpt lat="43.45212270493168" lon="11.837353390655943"><ele>245.83333333333334</ele><time>2026-04-19T05:39:39.999Z</time></trkpt><trkpt lat="43.452127140624455" lon="11.837231457256937"><ele>245.66666666666669</ele><time>2026-04-19T05:39:41.999Z</time></trkpt><trkpt lat="43.45213417924557" lon="11.837109891466925"><ele>245.5</ele><time>2026-04-19T05:39:43.999Z</time></trkpt><trkpt lat="43.45214102968139" lon="11.83699464330544"><ele>245.33333333333334</ele><time>2026-04-19T05:39:45.999Z</time></trkpt><trkpt lat="43.45214801156887" lon="11.836878143630306"><ele>245.16666666666669</ele><time>2026-04-19T05:39:47.999Z</time></trkpt><trkpt lat="43.45215706006945" lon="11.83675628195623"><ele>245.0</ele><time>2026-04-19T05:39:49.999Z</time></trkpt><trkpt lat="43.45216512090432" lon="11.836630928486688"><ele>244.8</ele><time>2026-04-19T05:39:51.999Z</time></trkpt><trkpt lat="43.452174627252376" lon="11.83650321754026"><ele>244.6</ele><time>2026-04-19T05:39:53.999Z</time></trkpt><trkpt lat="43.45218902206484" lon="11.836377247604247"><ele>244.39999999999998</ele><time>2026-04-19T05:39:55.999Z</time></trkpt><trkpt lat="43.45220916265104" lon="11.836248475228865"><ele>244.2</ele><time>2026-04-19T05:39:57.999Z</time></trkpt><trkpt lat="43.45222807484041" lon="11.836122360559736"><ele>244.0</ele><time>2026-04-19T05:39:59.999Z</time></trkpt><trkpt lat="43.45224529660391" lon="11.835984428858842"><ele>244.39999999999998</ele><time>2026-04-19T05:40:01.999Z</time></trkpt><trkpt lat="43.45226277639738" lon="11.835857000758024"><ele>244.79999999999998</ele><time>2026-04-19T05:40:03.999Z</time></trkpt><trkpt lat="43.45228236494481" lon="11.835724196133164"><ele>245.20000000000002</ele><time>2026-04-19T05:40:05.999Z</time></trkpt><trkpt lat="43.45231594722669" lon="11.835590299859321"><ele>245.60000000000002</ele><time>2026-04-19T05:40:07.999Z</time></trkpt><trkpt lat="43.45235114904363" lon="11.835461385016709"><ele>246.0</ele><time>2026-04-19T05:40:09.999Z</time></trkpt><trkpt lat="43.452402208489644" lon="11.835341567232572"><ele>246.0</ele><time>2026-04-19T05:40:11.999Z</time></trkpt><trkpt lat="43.452452789114695" lon="11.835228743094905"><ele>246.00000000000003</ele><time>2026-04-19T05:40:13.999Z</time></trkpt><trkpt lat="43.4525035486019" lon="11.835118724426822"><ele>246.00000000000003</ele><time>2026-04-19T05:40:15.999Z</time></trkpt><trkpt lat="43.45255541858978" lon="11.835004044270049"><ele>246.0</ele><time>2026-04-19T05:40:17.999Z</time></trkpt><trkpt lat="43.45261136645939" lon="11.834889199779754"><ele>246.0</ele><time>2026-04-19T05:40:19.999Z</time></trkpt><trkpt lat="43.452664432558876" lon="11.83477343637749"><ele>246.0</ele><time>2026-04-19T05:40:21.998Z</time></trkpt><trkpt lat="43.45271715685996" lon="11.834661138492535"><ele>246.00000000000003</ele><time>2026-04-19T05:40:23.998Z</time></trkpt><trkpt lat="43.4527677866467" lon="11.834549025701964"><ele>246.00000000000003</ele><time>2026-04-19T05:40:25.998Z</time></trkpt><trkpt lat="43.45281787864344" lon="11.834433506995843"><ele>246.0</ele><time>2026-04-19T05:40:27.998Z</time></trkpt><trkpt lat="43.45286973549378" lon="11.83431977949892"><ele>246.0</ele><time>2026-04-19T05:40:29.998Z</time></trkpt><trkpt lat="43.45292029196994" lon="11.834207254540898"><ele>246.0</ele><time>2026-04-19T05:40:31.998Z</time></trkpt><trkpt lat="43.452965709667374" lon="11.83409670114411"><ele>246.00000000000003</ele><time>2026-04-19T05:40:33.998Z</time></trkpt><trkpt lat="43.45301462530591" lon="11.833984116817755"><ele>246.00000000000003</ele><time>2026-04-19T05:40:35.998Z</time></trkpt><trkpt lat="43.45306042593256" lon="11.833873869298081"><ele>246.0</ele><time>2026-04-19T05:40:37.998Z</time></trkpt><trkpt lat="43.45310486130836" lon="11.8337660731199"><ele>246.0</ele><time>2026-04-19T05:40:39.998Z</time></trkpt><trkpt lat="43.4531507069841" lon="11.833650908436143"><ele>246.0</ele><time>2026-04-19T05:40:41.998Z</time></trkpt><trkpt lat="43.45319471443983" lon="11.833536459094457"><ele>246.00000000000003</ele><time>2026-04-19T05:40:43.998Z</time></trkpt><trkpt lat="43.453228587877874" lon="11.83340987035714"><ele>246.00000000000003</ele><time>2026-04-19T05:40:45.998Z</time></trkpt><trkpt lat="43.45326543273258" lon="11.833284545626544"><ele>246.0</ele><time>2026-04-19T05:40:47.998Z</time></trkpt><trkpt lat="43.453302363447676" lon="11.833162208386076"><ele>246.0</ele><time>2026-04-19T05:40:49.998Z</time></trkpt><trkpt lat="43.45333763422164" lon="11.833040163504634"><ele>246.0</ele><time>2026-04-19T05:40:51.998Z</time></trkpt><trkpt lat="43.453373808758556" lon="11.83291238172391"><ele>246.00000000000003</ele><time>2026-04-19T05:40:53.998Z</time></trkpt><trkpt lat="43.45341016027475" lon="11.83279211444895"><ele>246.00000000000003</ele><time>2026-04-19T05:40:55.998Z</time></trkpt><trkpt lat="43.45344489305392" lon="11.832669918757976"><ele>246.0</ele><time>2026-04-19T05:40:57.998Z</time></trkpt><trkpt lat="43.45348205911338" lon="11.832544638480854"><ele>246.0</ele><time>2026-04-19T05:40:59.998Z</time></trkpt><trkpt lat="43.45351903664701" lon="11.83241914819358"><ele>245.8</ele><time>2026-04-19T05:41:01.998Z</time></trkpt><trkpt lat="43.45355422426539" lon="11.832290722800916"><ele>245.60000000000002</ele><time>2026-04-19T05:41:03.998Z</time></trkpt><trkpt lat="43.45358795435668" lon="11.832170736336261"><ele>245.4</ele><time>2026-04-19T05:41:05.998Z</time></trkpt><trkpt lat="43.453627557365415" lon="11.832047958141843"><ele>245.2</ele><time>2026-04-19T05:41:07.998Z</time></trkpt><trkpt lat="43.45366245869026" lon="11.831926878917516"><ele>245.0</ele><time>2026-04-19T05:41:09.998Z</time></trkpt><trkpt lat="43.4537008868662" lon="11.8318056114833"><ele>245.0</ele><time>2026-04-19T05:41:11.998Z</time></trkpt><trkpt lat="43.45373875135191" lon="11.831681664305554"><ele>245.0</ele><time>2026-04-19T05:41:13.998Z</time></trkpt><trkpt lat="43.45377744813535" lon="11.831563699085358"><ele>245.0</ele><time>2026-04-19T05:41:15.998Z</time></trkpt><trkpt lat="43.453813629901965" lon="11.831444667797046"><ele>245.0</ele><time>2026-04-19T05:41:17.998Z</time></trkpt><trkpt lat="43.453849940282105" lon="11.831328228697306"><ele>245.0</ele><time>2026-04-19T05:41:19.998Z</time></trkpt><trkpt lat="43.45388554757558" lon="11.831206445580241"><ele>245.0</ele><time>2026-04-19T05:41:21.998Z</time></trkpt><trkpt lat="43.45392119999408" lon="11.831089174601631"><ele>245.0</ele><time>2026-04-19T05:41:23.998Z</time></trkpt><trkpt lat="43.45395463178157" lon="11.830968017270433"><ele>245.0</ele><time>2026-04-19T05:41:25.998Z</time></trkpt><trkpt lat="43.453992273802264" lon="11.830849371318228"><ele>245.0</ele><time>2026-04-19T05:41:27.998Z</time></trkpt><trkpt lat="43.454031072997154" lon="11.830734260527455"><ele>245.0</ele><time>2026-04-19T05:41:29.998Z</time></trkpt><trkpt lat="43.454073644720324" lon="11.830620685270944"><ele>245.2</ele><time>2026-04-19T05:41:31.998Z</time></trkpt><trkpt lat="43.454115533229114" lon="11.83050613963015"><ele>245.4</ele><time>2026-04-19T05:41:33.998Z</time></trkpt><trkpt lat="43.45415730870576" lon="11.830391465842931"><ele>245.60000000000002</ele><time>2026-04-19T05:41:35.998Z</time></trkpt><trkpt lat="43.45420149209825" lon="11.830284692719697"><ele>245.8</ele><time>2026-04-19T05:41:37.998Z</time></trkpt><trkpt lat="43.45424565472003" lon="11.830171673339503"><ele>246.0</ele><time>2026-04-19T05:41:39.998Z</time></trkpt><trkpt lat="43.4542892741444" lon="11.830064071713402"><ele>246.0</ele><time>2026-04-19T05:41:41.998Z</time></trkpt><trkpt lat="43.45433392466831" lon="11.829955768457138"><ele>246.0</ele><time>2026-04-19T05:41:43.998Z</time></trkpt><trkpt lat="43.45437959332109" lon="11.829845411590817"><ele>246.0</ele><time>2026-04-19T05:41:45.998Z</time></trkpt><trkpt lat="43.454426211905464" lon="11.829739963485329"><ele>246.0</ele><time>2026-04-19T05:41:47.998Z</time></trkpt><trkpt lat="43.45447476529791" lon="11.829632710037451"><ele>246.0</ele><time>2026-04-19T05:41:49.998Z</time></trkpt><trkpt lat="43.45452291903256" lon="11.829541283381914"><ele>246.0</ele><time>2026-04-19T05:41:51.998Z</time></trkpt><trkpt lat="43.45457693417701" lon="11.829455571752426"><ele>245.83333333333334</ele><time>2026-04-19T05:41:53.998Z</time></trkpt><trkpt lat="43.45463026270379" lon="11.829367623505334"><ele>245.66666666666669</ele><time>2026-04-19T05:41:55.998Z</time></trkpt><trkpt lat="43.454686687022466" lon="11.829291289634101"><ele>245.5</ele><time>2026-04-19T05:41:57.998Z</time></trkpt><trkpt lat="43.454740616722404" lon="11.829217274224227"><ele>245.33333333333334</ele><time>2026-04-19T05:41:59.998Z</time></trkpt><trkpt lat="43.454792279776484" lon="11.829150778043584"><ele>245.16666666666669</ele><time>2026-04-19T05:42:01.998Z</time></trkpt><trkpt lat="43.454847197650544" lon="11.829079500530899"><ele>245.0</ele><time>2026-04-19T05:42:03.998Z</time></trkpt><trkpt lat="43.45490204590632" lon="11.82900952123195"><ele>245.0</ele><time>2026-04-19T05:42:05.998Z</time></trkpt><trkpt lat="43.454953875743534" lon="11.828940194915742"><ele>245.0</ele><time>2026-04-19T05:42:07.998Z</time></trkpt><trkpt lat="43.45500443234724" lon="11.828866597952652"><ele>245.0</ele><time>2026-04-19T05:42:09.998Z</time></trkpt><trkpt lat="43.45506222154503" lon="11.828792508659598"><ele>245.0</ele><time>2026-04-19T05:42:11.998Z</time></trkpt><trkpt lat="43.45511277730155" lon="11.828723733555037"><ele>245.0</ele><time>2026-04-19T05:42:13.998Z</time></trkpt><trkpt lat="43.45515767380021" lon="11.828657228641784"><ele>245.0</ele><time>2026-04-19T05:42:15.998Z</time></trkpt><trkpt lat="43.45520238043222" lon="11.828592255598458"><ele>245.0</ele><time>2026-04-19T05:42:17.998Z</time></trkpt><trkpt lat="43.4552422720958" lon="11.828512730308889"><ele>245.16666666666669</ele><time>2026-04-19T05:42:19.998Z</time></trkpt><trkpt lat="43.45528799158228" lon="11.828432067662131"><ele>245.33333333333334</ele><time>2026-04-19T05:42:21.998Z</time></trkpt><trkpt lat="43.45533386311929" lon="11.828341267369803"><ele>245.5</ele><time>2026-04-19T05:42:23.998Z</time></trkpt><trkpt lat="43.455385041640014" lon="11.828255078008695"><ele>245.66666666666669</ele><time>2026-04-19T05:42:25.998Z</time></trkpt><trkpt lat="43.455421958866275" lon="11.828167779932043"><ele>245.83333333333334</ele><time>2026-04-19T05:42:27.998Z</time></trkpt><trkpt lat="43.455466547397705" lon="11.828082736037283"><ele>246.0</ele><time>2026-04-19T05:42:29.998Z</time></trkpt><trkpt lat="43.455521238688675" lon="11.827998681862537"><ele>246.0</ele><time>2026-04-19T05:42:31.998Z</time></trkpt><trkpt lat="43.45557637396922" lon="11.827922236776823"><ele>246.0</ele><time>2026-04-19T05:42:33.998Z</time></trkpt><trkpt lat="43.45563170193084" lon="11.827847542303276"><ele>246.0</ele><time>2026-04-19T05:42:35.998Z</time></trkpt><trkpt lat="43.45569221812687" lon="11.827772398355512"><ele>246.0</ele><time>2026-04-19T05:42:37.998Z</time></trkpt><trkpt lat="43.45576134872126" lon="11.827706421434263"><ele>246.0</ele><time>2026-04-19T05:42:39.998Z</time></trkpt><trkpt lat="43.45582811103999" lon="11.827628992392405"><ele>246.0</ele><time>2026-04-19T05:42:41.998Z</time></trkpt><trkpt lat="43.45589812041112" lon="11.827551609852984"><ele>245.83333333333334</ele><time>2026-04-19T05:42:43.998Z</time></trkpt><trkpt lat="43.45596378205988" lon="11.827464739345999"><ele>245.66666666666669</ele><time>2026-04-19T05:42:45.998Z</time></trkpt><trkpt lat="43.45602576615609" lon="11.827384818211288"><ele>245.5</ele><time>2026-04-19T05:42:47.998Z</time></trkpt><trkpt lat="43.4560825784881" lon="11.827291895327091"><ele>245.33333333333334</ele><time>2026-04-19T05:42:49.998Z</time></trkpt><trkpt lat="43.45613922557403" lon="11.827204094721637"><ele>245.16666666666669</ele><time>2026-04-19T05:42:51.998Z</time></trkpt><trkpt lat="43.45619099151906" lon="11.827119792431978"><ele>245.0</ele><time>2026-04-19T05:42:53.998Z</time></trkpt><trkpt lat="43.456252110999884" lon="11.827036572274716"><ele>245.0</ele><time>2026-04-19T05:42:55.998Z</time></trkpt><trkpt lat="43.456314102513716" lon="11.826947682586466"><ele>245.0</ele><time>2026-04-19T05:42:57.998Z</time></trkpt><trkpt lat="43.45638431926843" lon="11.8268524082869"><ele>245.0</ele><time>2026-04-19T05:42:59.998Z</time></trkpt><trkpt lat="43.4564587123678" lon="11.826747711269357"><ele>245.0</ele><time>2026-04-19T05:43:01.998Z</time></trkpt><trkpt lat="43.45652926987938" lon="11.826655341686465"><ele>245.0</ele><time>2026-04-19T05:43:03.998Z</time></trkpt><trkpt lat="43.45660239322064" lon="11.826562321317661"><ele>245.0</ele><time>2026-04-19T05:43:05.998Z</time></trkpt><trkpt lat="43.45667711230813" lon="11.826474804469612"><ele>245.0</ele><time>2026-04-19T05:43:07.998Z</time></trkpt><trkpt lat="43.45674414938469" lon="11.826401254507964"><ele>245.0</ele><time>2026-04-19T05:43:09.998Z</time></trkpt><trkpt lat="43.45681690206138" lon="11.82631403643784"><ele>245.0</ele><time>2026-04-19T05:43:11.998Z</time></trkpt><trkpt lat="43.45689248027783" lon="11.826241173633846"><ele>245.0</ele><time>2026-04-19T05:43:13.998Z</time></trkpt><trkpt lat="43.45696404051217" lon="11.826176875836762"><ele>245.0</ele><time>2026-04-19T05:43:15.998Z</time></trkpt><trkpt lat="43.4570556161165" lon="11.826141990827773"><ele>245.0</ele><time>2026-04-19T05:43:17.998Z</time></trkpt><trkpt lat="43.45714977697987" lon="11.826103443698175"><ele>245.0</ele><time>2026-04-19T05:43:19.998Z</time></trkpt><trkpt lat="43.4572532089678" lon="11.8260619866979"><ele>245.0</ele><time>2026-04-19T05:43:21.998Z</time></trkpt><trkpt lat="43.45736696980424" lon="11.826015171752697"><ele>245.0</ele><time>2026-04-19T05:43:23.998Z</time></trkpt><trkpt lat="43.4574672405704" lon="11.825966547898679"><ele>244.8</ele><time>2026-04-19T05:43:25.998Z</time></trkpt><trkpt lat="43.45756257116975" lon="11.825923945996887"><ele>244.6</ele><time>2026-04-19T05:43:27.998Z</time></trkpt><trkpt lat="43.45766061726643" lon="11.825887539821666"><ele>244.39999999999998</ele><time>2026-04-19T05:43:29.998Z</time></trkpt><trkpt lat="43.45775796901377" lon="11.825847812144955"><ele>244.2</ele><time>2026-04-19T05:43:31.998Z</time></trkpt><trkpt lat="43.45786032109793" lon="11.825811007439793"><ele>244.0</ele><time>2026-04-19T05:43:33.998Z</time></trkpt><trkpt lat="43.45795976452125" lon="11.82576650435783"><ele>244.0</ele><time>2026-04-19T05:43:35.998Z</time></trkpt><trkpt lat="43.45805681573408" lon="11.825728491526794"><ele>243.99999999999997</ele><time>2026-04-19T05:43:37.998Z</time></trkpt><trkpt lat="43.45814682080984" lon="11.825695290548664"><ele>243.99999999999997</ele><time>2026-04-19T05:43:39.998Z</time></trkpt><trkpt lat="43.458233966051466" lon="11.825662093128598"><ele>244.0</ele><time>2026-04-19T05:43:41.998Z</time></trkpt><trkpt lat="43.4583165944499" lon="11.825619551354535"><ele>244.0</ele><time>2026-04-19T05:43:43.998Z</time></trkpt><trkpt lat="43.45840402641882" lon="11.825590782258823"><ele>243.99999999999997</ele><time>2026-04-19T05:43:45.998Z</time></trkpt><trkpt lat="43.45849067453973" lon="11.825576314034084"><ele>244.0</ele><time>2026-04-19T05:43:47.998Z</time></trkpt><trkpt lat="43.45857373871338" lon="11.825540088034417"><ele>244.0</ele><time>2026-04-19T05:43:49.998Z</time></trkpt><trkpt lat="43.45865160463548" lon="11.825509182376907"><ele>244.0</ele><time>2026-04-19T05:43:51.998Z</time></trkpt><trkpt lat="43.45873266448892" lon="11.825471439145474"><ele>243.99999999999997</ele><time>2026-04-19T05:43:53.998Z</time></trkpt><trkpt lat="43.45882241757111" lon="11.825432244491797"><ele>244.0</ele><time>2026-04-19T05:43:55.998Z</time></trkpt><trkpt lat="43.45890747938235" lon="11.82539954137643"><ele>244.2</ele><time>2026-04-19T05:43:57.998Z</time></trkpt><trkpt lat="43.4589969878916" lon="11.825365128810047"><ele>244.39999999999998</ele><time>2026-04-19T05:43:59.998Z</time></trkpt><trkpt lat="43.4590860126415" lon="11.825331483608366"><ele>244.6</ele><time>2026-04-19T05:44:01.998Z</time></trkpt><trkpt lat="43.45917348108276" lon="11.825299012317226"><ele>244.8</ele><time>2026-04-19T05:44:03.998Z</time></trkpt><trkpt lat="43.459259346640955" lon="11.82526655313186"><ele>245.0</ele><time>2026-04-19T05:44:05.997Z</time></trkpt><trkpt lat="43.45934941275396" lon="11.82523116617221"><ele>245.0</ele><time>2026-04-19T05:44:07.997Z</time></trkpt><trkpt lat="43.45944591776907" lon="11.825195432841921"><ele>245.0</ele><time>2026-04-19T05:44:09.997Z</time></trkpt><trkpt lat="43.45953517179452" lon="11.825161808857004"><ele>245.0</ele><time>2026-04-19T05:44:11.997Z</time></trkpt><trkpt lat="43.45963096061695" lon="11.825125459059201"><ele>245.0</ele><time>2026-04-19T05:44:13.997Z</time></trkpt><trkpt lat="43.45972121119902" lon="11.825091988745603"><ele>245.0</ele><time>2026-04-19T05:44:15.997Z</time></trkpt><trkpt lat="43.45980325357" lon="11.825041958302554"><ele>245.2</ele><time>2026-04-19T05:44:17.997Z</time></trkpt><trkpt lat="43.4598949216916" lon="11.825018947629902"><ele>245.4</ele><time>2026-04-19T05:44:19.997Z</time></trkpt><trkpt lat="43.45998494524009" lon="11.824992347778492"><ele>245.60000000000002</ele><time>2026-04-19T05:44:21.997Z</time></trkpt><trkpt lat="43.46008517730969" lon="11.824955014573089"><ele>245.8</ele><time>2026-04-19T05:44:23.997Z</time></trkpt><trkpt lat="43.460179104225446" lon="11.824922767347923"><ele>246.0</ele><time>2026-04-19T05:44:25.997Z</time></trkpt><trkpt lat="43.46027298016354" lon="11.824898843928311"><ele>246.0</ele><time>2026-04-19T05:44:27.997Z</time></trkpt><trkpt lat="43.46035995802321" lon="11.82488618559305"><ele>246.0</ele><time>2026-04-19T05:44:29.997Z</time></trkpt><trkpt lat="43.46044619186949" lon="11.824933268657986"><ele>246.0</ele><time>2026-04-19T05:44:31.997Z</time></trkpt><trkpt lat="43.46051848151967" lon="11.824989017930864"><ele>246.0</ele><time>2026-04-19T05:44:33.997Z</time></trkpt><trkpt lat="43.460587207216825" lon="11.824999359239436"><ele>246.0</ele><time>2026-04-19T05:44:36.997Z</time></trkpt><trkpt lat="43.46065439972397" lon="11.824919208837262"><ele>246.0</ele><time>2026-04-19T05:44:39.997Z</time></trkpt><trkpt lat="43.46065268397194" lon="11.824789585991768"><ele>246.20000000000002</ele><time>2026-04-19T05:44:41.997Z</time></trkpt><trkpt lat="43.46062474864984" lon="11.82464309787203"><ele>246.40000000000003</ele><time>2026-04-19T05:44:43.997Z</time></trkpt><trkpt lat="43.46059456800861" lon="11.824512901410433"><ele>246.6</ele><time>2026-04-19T05:44:45.997Z</time></trkpt><trkpt lat="43.460561916536555" lon="11.824385782953769"><ele>246.8</ele><time>2026-04-19T05:44:47.997Z</time></trkpt><trkpt lat="43.460531562613305" lon="11.824271618193078"><ele>247.0</ele><time>2026-04-19T05:44:49.997Z</time></trkpt><trkpt lat="43.460499198125426" lon="11.824163776246756"><ele>246.6</ele><time>2026-04-19T05:44:51.997Z</time></trkpt><trkpt lat="43.46046579141154" lon="11.824058730851128"><ele>246.2</ele><time>2026-04-19T05:44:53.997Z</time></trkpt><trkpt lat="43.460427013128246" lon="11.823946168340049"><ele>245.8</ele><time>2026-04-19T05:44:55.997Z</time></trkpt><trkpt lat="43.460381765587854" lon="11.823832256518394"><ele>245.4</ele><time>2026-04-19T05:44:57.997Z</time></trkpt><trkpt lat="43.460341639085506" lon="11.823719160236598"><ele>245.0</ele><time>2026-04-19T05:44:59.997Z</time></trkpt><trkpt lat="43.46029685171505" lon="11.823608051900395"><ele>245.00000000000003</ele><time>2026-04-19T05:45:01.997Z</time></trkpt><trkpt lat="43.460253760171035" lon="11.823499845284784"><ele>245.0</ele><time>2026-04-19T05:45:03.997Z</time></trkpt><trkpt lat="43.46020699663229" lon="11.823397769566151"><ele>245.0</ele><time>2026-04-19T05:45:05.997Z</time></trkpt><trkpt lat="43.46015600589704" lon="11.823302471350024"><ele>245.0</ele><time>2026-04-19T05:45:07.997Z</time></trkpt><trkpt lat="43.4601062710418" lon="11.823191003954243"><ele>245.00000000000003</ele><time>2026-04-19T05:45:09.997Z</time></trkpt><trkpt lat="43.46008712172232" lon="11.823073971391358"><ele>245.0</ele><time>2026-04-19T05:45:11.997Z</time></trkpt><trkpt lat="43.46006045494024" lon="11.82295850047324"><ele>244.8</ele><time>2026-04-19T05:45:13.997Z</time></trkpt><trkpt lat="43.46004253390005" lon="11.822841795086036"><ele>244.6</ele><time>2026-04-19T05:45:15.997Z</time></trkpt><trkpt lat="43.46003581879957" lon="11.822718774386693"><ele>244.39999999999998</ele><time>2026-04-19T05:45:17.997Z</time></trkpt><trkpt lat="43.46003676692439" lon="11.822590955634938"><ele>244.2</ele><time>2026-04-19T05:45:19.997Z</time></trkpt><trkpt lat="43.460038608363874" lon="11.822465538935493"><ele>244.0</ele><time>2026-04-19T05:45:21.997Z</time></trkpt><trkpt lat="43.46007112003924" lon="11.82234618237949"><ele>244.0</ele><time>2026-04-19T05:45:23.997Z</time></trkpt><trkpt lat="43.46010560319663" lon="11.82223151619906"><ele>243.99999999999997</ele><time>2026-04-19T05:45:25.997Z</time></trkpt><trkpt lat="43.460145133332325" lon="11.822117532884146"><ele>243.99999999999997</ele><time>2026-04-19T05:45:27.997Z</time></trkpt><trkpt lat="43.46019194825533" lon="11.82201131242309"><ele>244.0</ele><time>2026-04-19T05:45:29.997Z</time></trkpt><trkpt lat="43.46024100485253" lon="11.821910103576151"><ele>244.0</ele><time>2026-04-19T05:45:31.997Z</time></trkpt><trkpt lat="43.46028860046064" lon="11.821797425546261"><ele>244.0</ele><time>2026-04-19T05:45:33.997Z</time></trkpt><trkpt lat="43.46037646871661" lon="11.821744656845711"><ele>243.99999999999997</ele><time>2026-04-19T05:45:35.997Z</time></trkpt><trkpt lat="43.46047266230769" lon="11.821770249585363"><ele>243.99999999999997</ele><time>2026-04-19T05:45:37.997Z</time></trkpt><trkpt lat="43.46051900788012" lon="11.821898007040208"><ele>244.0</ele><time>2026-04-19T05:45:39.997Z</time></trkpt><trkpt lat="43.460603083501596" lon="11.821987678641479"><ele>244.0</ele><time>2026-04-19T05:45:41.997Z</time></trkpt><trkpt lat="43.460703619060766" lon="11.822036993016592"><ele>244.0</ele><time>2026-04-19T05:45:43.997Z</time></trkpt><trkpt lat="43.46079815223158" lon="11.822100803447169"><ele>243.99999999999997</ele><time>2026-04-19T05:45:45.997Z</time></trkpt><trkpt lat="43.4609016477577" lon="11.822046939377568"><ele>243.99999999999997</ele><time>2026-04-19T05:45:47.997Z</time></trkpt><trkpt lat="43.4609733772164" lon="11.821980944976135"><ele>244.0</ele><time>2026-04-19T05:45:49.997Z</time></trkpt><trkpt lat="43.461027199595094" lon="11.821934600619398"><ele>244.0</ele><time>2026-04-19T05:45:51.997Z</time></trkpt><trkpt lat="43.461006223341776" lon="11.821737384553767"><ele>243.75</ele><time>2026-04-19T05:45:53.997Z</time></trkpt><trkpt lat="43.46103824132273" lon="11.821647063671941"><ele>243.5</ele><time>2026-04-19T05:45:56.997Z</time></trkpt><trkpt lat="43.46087884243517" lon="11.821478161954614"><ele>243.25</ele><time>2026-04-19T05:45:58.997Z</time></trkpt><trkpt lat="43.46079393990533" lon="11.821400572339655"><ele>243.0</ele><time>2026-04-19T05:46:00.997Z</time></trkpt><trkpt lat="43.460713962134456" lon="11.82132631471772"><ele>243.0</ele><time>2026-04-19T05:46:02.997Z</time></trkpt><trkpt lat="43.46066037276163" lon="11.821214693630735"><ele>243.0</ele><time>2026-04-19T05:46:04.997Z</time></trkpt><trkpt lat="43.46062998103828" lon="11.821080469013273"><ele>243.0</ele><time>2026-04-19T05:46:06.997Z</time></trkpt><trkpt lat="43.46065091727569" lon="11.820949716141465"><ele>243.0</ele><time>2026-04-19T05:46:08.997Z</time></trkpt><trkpt lat="43.46068768847126" lon="11.820847254481542"><ele>243.0</ele><time>2026-04-19T05:46:10.997Z</time></trkpt><trkpt lat="43.460736319702725" lon="11.820734665349105"><ele>242.60000000000002</ele><time>2026-04-19T05:46:12.997Z</time></trkpt><trkpt lat="43.4607868876918" lon="11.820618489789904"><ele>242.20000000000002</ele><time>2026-04-19T05:46:14.997Z</time></trkpt><trkpt lat="43.460835171350965" lon="11.82049757772461"><ele>241.8</ele><time>2026-04-19T05:46:16.997Z</time></trkpt><trkpt lat="43.460882302134834" lon="11.820375746697396"><ele>241.4</ele><time>2026-04-19T05:46:18.997Z</time></trkpt><trkpt lat="43.46092972856517" lon="11.820258439873674"><ele>241.0</ele><time>2026-04-19T05:46:20.997Z</time></trkpt><trkpt lat="43.4609722940278" lon="11.820145736130979"><ele>241.0</ele><time>2026-04-19T05:46:22.997Z</time></trkpt><trkpt lat="43.46101493350211" lon="11.82003123677466"><ele>241.00000000000003</ele><time>2026-04-19T05:46:24.997Z</time></trkpt><trkpt lat="43.46105946604236" lon="11.819916123564814"><ele>241.00000000000003</ele><time>2026-04-19T05:46:26.997Z</time></trkpt><trkpt lat="43.46110727914289" lon="11.819807993885878"><ele>241.0</ele><time>2026-04-19T05:46:28.997Z</time></trkpt><trkpt lat="43.46116368400277" lon="11.819709145971286"><ele>241.0</ele><time>2026-04-19T05:46:30.997Z</time></trkpt><trkpt lat="43.461236956490524" lon="11.819644101372027"><ele>241.16666666666666</ele><time>2026-04-19T05:46:32.997Z</time></trkpt><trkpt lat="43.461329131644234" lon="11.819639480067062"><ele>241.33333333333331</ele><time>2026-04-19T05:46:34.997Z</time></trkpt><trkpt lat="43.46141300252775" lon="11.81961621141791"><ele>241.5</ele><time>2026-04-19T05:46:36.997Z</time></trkpt><trkpt lat="43.4614707714611" lon="11.819527176865426"><ele>241.66666666666669</ele><time>2026-04-19T05:46:38.997Z</time></trkpt><trkpt lat="43.461512907355946" lon="11.819427403355796"><ele>241.83333333333334</ele><time>2026-04-19T05:46:40.997Z</time></trkpt><trkpt lat="43.46152265697347" lon="11.819319610251933"><ele>242.0</ele><time>2026-04-19T05:46:42.997Z</time></trkpt><trkpt lat="43.46150566290579" lon="11.819210916027604"><ele>242.39999999999998</ele><time>2026-04-19T05:46:44.997Z</time></trkpt><trkpt lat="43.461463113492535" lon="11.819107787267086"><ele>242.79999999999998</ele><time>2026-04-19T05:46:46.997Z</time></trkpt><trkpt lat="43.46140064498887" lon="11.8190207144534"><ele>243.2</ele><time>2026-04-19T05:46:48.997Z</time></trkpt><trkpt lat="43.461297858543425" lon="11.81900913022925"><ele>243.6</ele><time>2026-04-19T05:46:50.997Z</time></trkpt><trkpt lat="43.461196270286926" lon="11.819026278934935"><ele>244.0</ele><time>2026-04-19T05:46:52.997Z</time></trkpt><trkpt lat="43.461107124066324" lon="11.819085314544795"><ele>244.0</ele><time>2026-04-19T05:46:54.997Z</time></trkpt><trkpt lat="43.46103974148549" lon="11.81899663751584"><ele>243.99999999999997</ele><time>2026-04-19T05:46:55.997Z</time></trkpt><trkpt lat="43.46095079627298" lon="11.818916470378873"><ele>243.99999999999997</ele><time>2026-04-19T05:46:57.997Z</time></trkpt><trkpt lat="43.46085457643895" lon="11.818852495663261"><ele>244.0</ele><time>2026-04-19T05:46:59.997Z</time></trkpt><trkpt lat="43.46076777336781" lon="11.81877405597899"><ele>244.0</ele><time>2026-04-19T05:47:01.997Z</time></trkpt><trkpt lat="43.460683104276825" lon="11.818697544668138"><ele>244.0</ele><time>2026-04-19T05:47:03.997Z</time></trkpt><trkpt lat="43.46061187747637" lon="11.818601167674434"><ele>243.99999999999997</ele><time>2026-04-19T05:47:05.997Z</time></trkpt><trkpt lat="43.46053318903703" lon="11.818532460472406"><ele>243.99999999999997</ele><time>2026-04-19T05:47:07.997Z</time></trkpt><trkpt lat="43.46046289337842" lon="11.818465734486315"><ele>244.0</ele><time>2026-04-19T05:47:09.997Z</time></trkpt><trkpt lat="43.46040650547725" lon="11.81836667072054"><ele>244.0</ele><time>2026-04-19T05:47:11.997Z</time></trkpt><trkpt lat="43.46034122383532" lon="11.818287570002255"><ele>244.1428571428571</ele><time>2026-04-19T05:47:13.997Z</time></trkpt><trkpt lat="43.46027265430557" lon="11.818226575267397"><ele>244.28571428571428</ele><time>2026-04-19T05:47:15.997Z</time></trkpt><trkpt lat="43.46020948888232" lon="11.818170004990336"><ele>244.42857142857142</ele><time>2026-04-19T05:47:17.997Z</time></trkpt><trkpt lat="43.460149541603585" lon="11.818137559526223"><ele>244.57142857142856</ele><time>2026-04-19T05:47:19.997Z</time></trkpt><trkpt lat="43.46008387935103" lon="11.818118005893588"><ele>244.71428571428572</ele><time>2026-04-19T05:47:21.997Z</time></trkpt><trkpt lat="43.46002325423454" lon="11.818058148008907"><ele>244.85714285714286</ele><time>2026-04-19T05:47:23.997Z</time></trkpt><trkpt lat="43.459973975979" lon="11.817979704251199"><ele>245.0</ele><time>2026-04-19T05:47:25.997Z</time></trkpt><trkpt lat="43.459962403498885" lon="11.817878734519113"><ele>245.00000000000003</ele><time>2026-04-19T05:47:27.997Z</time></trkpt><trkpt lat="43.459895100295675" lon="11.817794532247913"><ele>245.0</ele><time>2026-04-19T05:47:28.997Z</time></trkpt><trkpt lat="43.459906153937254" lon="11.817684311638512"><ele>245.0</ele><time>2026-04-19T05:47:31.997Z</time></trkpt><trkpt lat="43.45989016450627" lon="11.817583498371942"><ele>245.0</ele><time>2026-04-19T05:47:34.997Z</time></trkpt><trkpt lat="43.45984174924159" lon="11.817482980595392"><ele>245.00000000000003</ele><time>2026-04-19T05:47:37.997Z</time></trkpt><trkpt lat="43.45979010694713" lon="11.817426791067627"><ele>245.0</ele><time>2026-04-19T05:47:39.997Z</time></trkpt><trkpt lat="43.45972580528368" lon="11.817393828152595"><ele>245.16666666666669</ele><time>2026-04-19T05:47:41.997Z</time></trkpt><trkpt lat="43.45964883419368" lon="11.817366462877155"><ele>245.33333333333334</ele><time>2026-04-19T05:47:43.997Z</time></trkpt><trkpt lat="43.45959188089648" lon="11.81726909969207"><ele>245.5</ele><time>2026-04-19T05:47:45.997Z</time></trkpt><trkpt lat="43.4595315050811" lon="11.817201618742489"><ele>245.66666666666669</ele><time>2026-04-19T05:47:47.997Z</time></trkpt><trkpt lat="43.45947916482131" lon="11.817134788311016"><ele>245.83333333333334</ele><time>2026-04-19T05:47:49.997Z</time></trkpt><trkpt lat="43.45949472238741" lon="11.817045530756284"><ele>246.0</ele><time>2026-04-19T05:47:50.996Z</time></trkpt><trkpt lat="43.45946694724309" lon="11.816949081441251"><ele>246.0</ele><time>2026-04-19T05:47:52.996Z</time></trkpt><trkpt lat="43.45944151010182" lon="11.816853229878538"><ele>246.0</ele><time>2026-04-19T05:47:54.996Z</time></trkpt><trkpt lat="43.459410703792855" lon="11.816766553926806"><ele>246.0</ele><time>2026-04-19T05:47:56.996Z</time></trkpt><trkpt lat="43.45938281800268" lon="11.816676749953468"><ele>246.0</ele><time>2026-04-19T05:47:58.996Z</time></trkpt><trkpt lat="43.45935853588823" lon="11.816579104935146"><ele>246.0</ele><time>2026-04-19T05:48:00.996Z</time></trkpt><trkpt lat="43.45933671474432" lon="11.816465705747548"><ele>246.0</ele><time>2026-04-19T05:48:02.996Z</time></trkpt><trkpt lat="43.45931492638218" lon="11.816354830421005"><ele>246.33333333333334</ele><time>2026-04-19T05:48:04.996Z</time></trkpt><trkpt lat="43.45929226350375" lon="11.816241632390568"><ele>246.66666666666669</ele><time>2026-04-19T05:48:06.996Z</time></trkpt><trkpt lat="43.45926775152148" lon="11.816133386930419"><ele>247.0</ele><time>2026-04-19T05:48:08.996Z</time></trkpt><trkpt lat="43.45923885506918" lon="11.816026036630465"><ele>247.33333333333334</ele><time>2026-04-19T05:48:10.996Z</time></trkpt><trkpt lat="43.45920428344993" lon="11.815925499587205"><ele>247.66666666666669</ele><time>2026-04-19T05:48:12.996Z</time></trkpt><trkpt lat="43.45916812874639" lon="11.815820654627302"><ele>248.0</ele><time>2026-04-19T05:48:14.996Z</time></trkpt><trkpt lat="43.4591312139968" lon="11.815721456639421"><ele>248.16666666666669</ele><time>2026-04-19T05:48:16.996Z</time></trkpt><trkpt lat="43.459096123210784" lon="11.81562347720478"><ele>248.33333333333334</ele><time>2026-04-19T05:48:18.996Z</time></trkpt><trkpt lat="43.459055992481915" lon="11.815514427538997"><ele>248.5</ele><time>2026-04-19T05:48:20.996Z</time></trkpt><trkpt lat="43.45901674277158" lon="11.815406883026563"><ele>248.66666666666669</ele><time>2026-04-19T05:48:22.996Z</time></trkpt><trkpt lat="43.458976313277894" lon="11.815301833577617"><ele>248.83333333333334</ele><time>2026-04-19T05:48:24.996Z</time></trkpt><trkpt lat="43.458930606706666" lon="11.815187935960115"><ele>249.0</ele><time>2026-04-19T05:48:26.996Z</time></trkpt><trkpt lat="43.458886484107445" lon="11.81506311619863"><ele>249.39999999999998</ele><time>2026-04-19T05:48:28.996Z</time></trkpt><trkpt lat="43.45885690876701" lon="11.814943705853155"><ele>249.79999999999998</ele><time>2026-04-19T05:48:30.996Z</time></trkpt><trkpt lat="43.45883443484686" lon="11.814822053135355"><ele>250.20000000000002</ele><time>2026-04-19T05:48:32.996Z</time></trkpt><trkpt lat="43.45882664526386" lon="11.814701162026074"><ele>250.60000000000002</ele><time>2026-04-19T05:48:34.996Z</time></trkpt><trkpt lat="43.458818040500915" lon="11.81457584666414"><ele>251.0</ele><time>2026-04-19T05:48:36.996Z</time></trkpt><trkpt lat="43.45880985069737" lon="11.8144455257945"><ele>251.0</ele><time>2026-04-19T05:48:38.996Z</time></trkpt><trkpt lat="43.45880038105008" lon="11.814314818004675"><ele>251.00000000000003</ele><time>2026-04-19T05:48:40.996Z</time></trkpt><trkpt lat="43.458792488644676" lon="11.814183762108922"><ele>251.00000000000003</ele><time>2026-04-19T05:48:42.996Z</time></trkpt><trkpt lat="43.458789831579146" lon="11.814055554303215"><ele>251.0</ele><time>2026-04-19T05:48:44.996Z</time></trkpt><trkpt lat="43.45878412446121" lon="11.813920617090893"><ele>251.0</ele><time>2026-04-19T05:48:46.996Z</time></trkpt><trkpt lat="43.45877877921213" lon="11.813792893720645"><ele>250.20000000000002</ele><time>2026-04-19T05:48:48.996Z</time></trkpt><trkpt lat="43.458772463441505" lon="11.813659208382553"><ele>249.40000000000003</ele><time>2026-04-19T05:48:50.996Z</time></trkpt><trkpt lat="43.458762027729335" lon="11.813529957854628"><ele>248.6</ele><time>2026-04-19T05:48:52.996Z</time></trkpt><trkpt lat="43.458741011859395" lon="11.813397293414525"><ele>247.8</ele><time>2026-04-19T05:48:54.996Z</time></trkpt><trkpt lat="43.45872118185841" lon="11.813272423021967"><ele>247.0</ele><time>2026-04-19T05:48:56.996Z</time></trkpt><trkpt lat="43.45869995346175" lon="11.813144994958769"><ele>247.0</ele><time>2026-04-19T05:48:58.996Z</time></trkpt><trkpt lat="43.458678382683914" lon="11.813015316094594"><ele>247.0</ele><time>2026-04-19T05:49:00.996Z</time></trkpt><trkpt lat="43.45865863266318" lon="11.812885417865793"><ele>247.0</ele><time>2026-04-19T05:49:02.996Z</time></trkpt><trkpt lat="43.4586418052838" lon="11.812760952887954"><ele>247.0</ele><time>2026-04-19T05:49:04.996Z</time></trkpt><trkpt lat="43.458624287121175" lon="11.812635440018605"><ele>247.0</ele><time>2026-04-19T05:49:06.996Z</time></trkpt><trkpt lat="43.458609992876916" lon="11.812514778046447"><ele>247.39999999999998</ele><time>2026-04-19T05:49:08.996Z</time></trkpt><trkpt lat="43.45859364343981" lon="11.812376108751492"><ele>247.79999999999998</ele><time>2026-04-19T05:49:10.996Z</time></trkpt><trkpt lat="43.45858222272563" lon="11.812253825046824"><ele>248.2</ele><time>2026-04-19T05:49:12.996Z</time></trkpt><trkpt lat="43.45856110542593" lon="11.812142203667957"><ele>248.6</ele><time>2026-04-19T05:49:14.996Z</time></trkpt><trkpt lat="43.45854854741169" lon="11.812004566612973"><ele>249.0</ele><time>2026-04-19T05:49:16.996Z</time></trkpt><trkpt lat="43.45852917707708" lon="11.811871304246223"><ele>248.79999999999998</ele><time>2026-04-19T05:49:18.996Z</time></trkpt><trkpt lat="43.458506736561866" lon="11.811740574762604"><ele>248.59999999999997</ele><time>2026-04-19T05:49:20.996Z</time></trkpt><trkpt lat="43.458485601653614" lon="11.811605931947426"><ele>248.4</ele><time>2026-04-19T05:49:22.996Z</time></trkpt><trkpt lat="43.45846225999937" lon="11.81148289474097"><ele>248.2</ele><time>2026-04-19T05:49:24.996Z</time></trkpt><trkpt lat="43.458433366119024" lon="11.811354104140134"><ele>248.0</ele><time>2026-04-19T05:49:26.996Z</time></trkpt><trkpt lat="43.45840669823237" lon="11.811227510933351"><ele>248.0</ele><time>2026-04-19T05:49:28.996Z</time></trkpt><trkpt lat="43.45837475667359" lon="11.811102386863471"><ele>248.0</ele><time>2026-04-19T05:49:30.996Z</time></trkpt><trkpt lat="43.458333410379126" lon="11.810981053091345"><ele>248.0</ele><time>2026-04-19T05:49:32.996Z</time></trkpt><trkpt lat="43.458282952807465" lon="11.810861268113204"><ele>248.0</ele><time>2026-04-19T05:49:34.996Z</time></trkpt><trkpt lat="43.45823103567105" lon="11.810747641048058"><ele>248.0</ele><time>2026-04-19T05:49:36.996Z</time></trkpt><trkpt lat="43.458174535810436" lon="11.810646836231772"><ele>247.4</ele><time>2026-04-19T05:49:38.996Z</time></trkpt><trkpt lat="43.45811472969028" lon="11.810543736736282"><ele>246.8</ele><time>2026-04-19T05:49:40.996Z</time></trkpt><trkpt lat="43.458052001103084" lon="11.810442379544972"><ele>246.2</ele><time>2026-04-19T05:49:42.996Z</time></trkpt><trkpt lat="43.457990032705766" lon="11.810350518121366"><ele>245.6</ele><time>2026-04-19T05:49:44.996Z</time></trkpt><trkpt lat="43.4579318000857" lon="11.810250544068749"><ele>245.0</ele><time>2026-04-19T05:49:46.996Z</time></trkpt><trkpt lat="43.457868063843755" lon="11.810160797114174"><ele>245.2</ele><time>2026-04-19T05:49:48.996Z</time></trkpt><trkpt lat="43.4578015448975" lon="11.810067588488426"><ele>245.4</ele><time>2026-04-19T05:49:50.996Z</time></trkpt><trkpt lat="43.45773520436247" lon="11.809968861959419"><ele>245.60000000000002</ele><time>2026-04-19T05:49:52.996Z</time></trkpt><trkpt lat="43.45767167870217" lon="11.809874802959335"><ele>245.8</ele><time>2026-04-19T05:49:54.996Z</time></trkpt><trkpt lat="43.45760709300945" lon="11.809779376380083"><ele>246.0</ele><time>2026-04-19T05:49:56.996Z</time></trkpt><trkpt lat="43.4575365926507" lon="11.809685026491646"><ele>246.0</ele><time>2026-04-19T05:49:58.996Z</time></trkpt><trkpt lat="43.45747173698591" lon="11.809596459919305"><ele>246.0</ele><time>2026-04-19T05:50:00.996Z</time></trkpt><trkpt lat="43.45741614690818" lon="11.809498889812454"><ele>246.0</ele><time>2026-04-19T05:50:02.996Z</time></trkpt><trkpt lat="43.45736039010179" lon="11.809413993597042"><ele>246.0</ele><time>2026-04-19T05:50:04.996Z</time></trkpt><trkpt lat="43.45730150623904" lon="11.809335595716513"><ele>246.0</ele><time>2026-04-19T05:50:06.996Z</time></trkpt><trkpt lat="43.457241516757925" lon="11.809267561203306"><ele>246.0</ele><time>2026-04-19T05:50:08.996Z</time></trkpt><trkpt lat="43.457185975297854" lon="11.809209051123261"><ele>246.0</ele><time>2026-04-19T05:50:10.996Z</time></trkpt><trkpt lat="43.457129896386995" lon="11.809146970182757"><ele>246.0</ele><time>2026-04-19T05:50:12.996Z</time></trkpt><trkpt lat="43.457072387878746" lon="11.809078478900545"><ele>246.0</ele><time>2026-04-19T05:50:14.996Z</time></trkpt><trkpt lat="43.457007256043056" lon="11.809002126799863"><ele>246.0</ele><time>2026-04-19T05:50:16.996Z</time></trkpt><trkpt lat="43.45693022229767" lon="11.808927896010639"><ele>246.0</ele><time>2026-04-19T05:50:18.996Z</time></trkpt><trkpt lat="43.45685519775829" lon="11.808843848625589"><ele>246.0</ele><time>2026-04-19T05:50:20.996Z</time></trkpt><trkpt lat="43.456790067208615" lon="11.808763116111399"><ele>246.0</ele><time>2026-04-19T05:50:22.996Z</time></trkpt><trkpt lat="43.45672505312498" lon="11.80868013683426"><ele>246.00000000000003</ele><time>2026-04-19T05:50:24.996Z</time></trkpt><trkpt lat="43.45666029603621" lon="11.80858605419074"><ele>246.00000000000003</ele><time>2026-04-19T05:50:26.996Z</time></trkpt><trkpt lat="43.456599017660956" lon="11.808487641528846"><ele>246.0</ele><time>2026-04-19T05:50:28.996Z</time></trkpt><trkpt lat="43.45654484362914" lon="11.80839286538336"><ele>246.0</ele><time>2026-04-19T05:50:30.996Z</time></trkpt><trkpt lat="43.456478492703745" lon="11.808299377417717"><ele>246.0</ele><time>2026-04-19T05:50:32.996Z</time></trkpt><trkpt lat="43.456412935321595" lon="11.808210169843202"><ele>246.00000000000003</ele><time>2026-04-19T05:50:34.996Z</time></trkpt><trkpt lat="43.45634120188943" lon="11.8081253288365"><ele>246.00000000000003</ele><time>2026-04-19T05:50:36.996Z</time></trkpt><trkpt lat="43.45626695020038" lon="11.808033627166855"><ele>246.0</ele><time>2026-04-19T05:50:38.996Z</time></trkpt><trkpt lat="43.45619415848292" lon="11.807942868063382"><ele>246.0</ele><time>2026-04-19T05:50:40.996Z</time></trkpt><trkpt lat="43.45612444753372" lon="11.80785029733742"><ele>246.0</ele><time>2026-04-19T05:50:42.996Z</time></trkpt><trkpt lat="43.456049387117474" lon="11.807765312125973"><ele>246.00000000000003</ele><time>2026-04-19T05:50:44.996Z</time></trkpt><trkpt lat="43.45597310505039" lon="11.807669247468702"><ele>246.00000000000003</ele><time>2026-04-19T05:50:46.996Z</time></trkpt><trkpt lat="43.45590374124587" lon="11.807575583214382"><ele>246.0</ele><time>2026-04-19T05:50:48.996Z</time></trkpt><trkpt lat="43.45583805665223" lon="11.807479613747033"><ele>246.0</ele><time>2026-04-19T05:50:50.996Z</time></trkpt><trkpt lat="43.45577386749959" lon="11.807384995131743"><ele>246.0</ele><time>2026-04-19T05:50:52.996Z</time></trkpt><trkpt lat="43.45570714152345" lon="11.807291238275926"><ele>246.00000000000003</ele><time>2026-04-19T05:50:54.996Z</time></trkpt><trkpt lat="43.45564080249329" lon="11.807200304915593"><ele>246.00000000000003</ele><time>2026-04-19T05:50:56.996Z</time></trkpt><trkpt lat="43.455575064947475" lon="11.807117034314789"><ele>246.0</ele><time>2026-04-19T05:50:58.996Z</time></trkpt><trkpt lat="43.45550649842786" lon="11.807038927905081"><ele>246.0</ele><time>2026-04-19T05:51:00.996Z</time></trkpt><trkpt lat="43.45543127957276" lon="11.806960995974341"><ele>246.0</ele><time>2026-04-19T05:51:02.996Z</time></trkpt><trkpt lat="43.455356137334455" lon="11.806887796264643"><ele>246.00000000000003</ele><time>2026-04-19T05:51:04.996Z</time></trkpt><trkpt lat="43.45527690311956" lon="11.806824534228223"><ele>246.00000000000003</ele><time>2026-04-19T05:51:06.996Z</time></trkpt><trkpt lat="43.45519765361816" lon="11.806755974742618"><ele>246.0</ele><time>2026-04-19T05:51:08.996Z</time></trkpt><trkpt lat="43.45511684925232" lon="11.806686976098188"><ele>246.0</ele><time>2026-04-19T05:51:10.996Z</time></trkpt><trkpt lat="43.45503284973744" lon="11.806617692161874"><ele>246.4</ele><time>2026-04-19T05:51:12.996Z</time></trkpt><trkpt lat="43.454952550030896" lon="11.806550562780009"><ele>246.8</ele><time>2026-04-19T05:51:14.996Z</time></trkpt><trkpt lat="43.454869995490135" lon="11.80648944590739"><ele>247.20000000000002</ele><time>2026-04-19T05:51:16.996Z</time></trkpt><trkpt lat="43.454784059575395" lon="11.806430241230547"><ele>247.60000000000002</ele><time>2026-04-19T05:51:18.996Z</time></trkpt><trkpt lat="43.454702514298376" lon="11.806373357929335"><ele>248.0</ele><time>2026-04-19T05:51:20.996Z</time></trkpt><trkpt lat="43.454623067677986" lon="11.806318800738904"><ele>247.83333333333334</ele><time>2026-04-19T05:51:22.996Z</time></trkpt><trkpt lat="43.45454704446645" lon="11.806269021089104"><ele>247.66666666666669</ele><time>2026-04-19T05:51:24.996Z</time></trkpt><trkpt lat="43.45446887673564" lon="11.806223197474798"><ele>247.5</ele><time>2026-04-19T05:51:26.996Z</time></trkpt><trkpt lat="43.45439147289628" lon="11.806181433186723"><ele>247.33333333333331</ele><time>2026-04-19T05:51:28.996Z</time></trkpt><trkpt lat="43.45435132422456" lon="11.806086988717597"><ele>247.16666666666666</ele><time>2026-04-19T05:51:30.996Z</time></trkpt><trkpt lat="43.45438508627313" lon="11.80595831061881"><ele>247.0</ele><time>2026-04-19T05:51:33.996Z</time></trkpt><trkpt lat="43.45442045978816" lon="11.805856497532695"><ele>247.66666666666666</ele><time>2026-04-19T05:51:36.995Z</time></trkpt><trkpt lat="43.454432443358385" lon="11.80577132493568"><ele>248.33333333333331</ele><time>2026-04-19T05:51:38.995Z</time></trkpt><trkpt lat="43.45445518357536" lon="11.80566709872995"><ele>249.0</ele><time>2026-04-19T05:51:41.995Z</time></trkpt><trkpt lat="43.45449236671979" lon="11.80557540961891"><ele>249.66666666666669</ele><time>2026-04-19T05:51:45.995Z</time></trkpt><trkpt lat="43.45452524451318" lon="11.805488147738489"><ele>250.33333333333334</ele><time>2026-04-19T05:51:49.995Z</time></trkpt><trkpt lat="43.45455810557837" lon="11.805390659673291"><ele>251.0</ele><time>2026-04-19T05:51:54.995Z</time></trkpt><trkpt lat="43.45461644825153" lon="11.805181199159469"><ele>251.85714285714283</ele><time>2026-04-19T05:52:04.995Z</time></trkpt><trkpt lat="43.45465501265857" lon="11.805097307767022"><ele>252.71428571428572</ele><time>2026-04-19T05:52:08.995Z</time></trkpt><trkpt lat="43.45469349305711" lon="11.80502124527839"><ele>253.57142857142856</ele><time>2026-04-19T05:52:12.995Z</time></trkpt><trkpt lat="43.4546290022152" lon="11.805028001628253"><ele>254.42857142857142</ele><time>2026-04-19T05:56:41.989Z</time></trkpt><trkpt lat="43.454646087556135" lon="11.805121739823804"><ele>255.28571428571428</ele><time>2026-04-19T05:58:08.988Z</time></trkpt><trkpt lat="43.454704671691964" lon="11.805072439888358"><ele>256.1428571428571</ele><time>2026-04-19T05:58:12.988Z</time></trkpt><trkpt lat="43.45469867388404" lon="11.804980772230405"><ele>257.0</ele><time>2026-04-19T05:58:15.988Z</time></trkpt><trkpt lat="43.45472814229138" lon="11.804893771904327"><ele>257.0</ele><time>2026-04-19T05:58:18.988Z</time></trkpt><trkpt lat="43.45476341516121" lon="11.804803342970379"><ele>257.0</ele><time>2026-04-19T05:58:21.988Z</time></trkpt><trkpt lat="43.45479573487907" lon="11.804708408293648"><ele>257.0</ele><time>2026-04-19T05:58:24.988Z</time></trkpt><trkpt lat="43.454840263503264" lon="11.804608068970746"><ele>257.0</ele><time>2026-04-19T05:58:27.988Z</time></trkpt><trkpt lat="43.45488153891465" lon="11.804515652338395"><ele>257.0</ele><time>2026-04-19T05:58:30.988Z</time></trkpt><trkpt lat="43.45484873093497" lon="11.804434455302154"><ele>257.0</ele><time>2026-04-19T05:58:33.988Z</time></trkpt><trkpt lat="43.45478580990222" lon="11.804428259713767"><ele>257.0</ele><time>2026-04-19T05:58:35.988Z</time></trkpt><trkpt lat="43.454708360434395" lon="11.804440819665201"><ele>257.0</ele><time>2026-04-19T05:58:38.988Z</time></trkpt><trkpt lat="43.45462839372347" lon="11.804431918336478"><ele>257.0</ele><time>2026-04-19T05:58:41.988Z</time></trkpt><trkpt lat="43.45455030416159" lon="11.80440416117608"><ele>257.0</ele><time>2026-04-19T05:58:44.988Z</time></trkpt><trkpt lat="43.45448481723255" lon="11.804378238305896"><ele>257.0</ele><time>2026-04-19T05:58:47.988Z</time></trkpt><trkpt lat="43.45439880623401" lon="11.80434419963819"><ele>257.0</ele><time>2026-04-19T05:58:51.988Z</time></trkpt><trkpt lat="43.454311995802804" lon="11.804306998601257"><ele>257.0</ele><time>2026-04-19T05:58:54.988Z</time></trkpt><trkpt lat="43.45425094137103" lon="11.804265579562887"><ele>258.1666666666667</ele><time>2026-04-19T05:58:56.988Z</time></trkpt><trkpt lat="43.45416553734693" lon="11.804224061840245"><ele>259.33333333333337</ele><time>2026-04-19T05:58:59.988Z</time></trkpt><trkpt lat="43.45407915462484" lon="11.804171247518761"><ele>260.5</ele><time>2026-04-19T05:59:02.988Z</time></trkpt><trkpt lat="43.45402967304186" lon="11.804116053048352"><ele>261.6666666666667</ele><time>2026-04-19T05:59:04.988Z</time></trkpt><trkpt lat="43.45396616677015" lon="11.804059647635993"><ele>262.8333333333333</ele><time>2026-04-19T05:59:06.988Z</time></trkpt><trkpt lat="43.45391707525371" lon="11.803994896597821"><ele>264.0</ele><time>2026-04-19T05:59:08.988Z</time></trkpt><trkpt lat="43.45385986314699" lon="11.803933304903735"><ele>264.0</ele><time>2026-04-19T05:59:10.987Z</time></trkpt><trkpt lat="43.45379499755509" lon="11.803870356350384"><ele>264.0</ele><time>2026-04-19T05:59:12.987Z</time></trkpt><trkpt lat="43.45374468500222" lon="11.803786881570705"><ele>264.0</ele><time>2026-04-19T05:59:14.987Z</time></trkpt><trkpt lat="43.453685934327346" lon="11.803718341054322"><ele>264.0</ele><time>2026-04-19T05:59:16.987Z</time></trkpt><trkpt lat="43.45360028026312" lon="11.803674533948605"><ele>264.0</ele><time>2026-04-19T05:59:18.987Z</time></trkpt><trkpt lat="43.45352348508795" lon="11.80359645503969"><ele>264.0</ele><time>2026-04-19T05:59:20.987Z</time></trkpt><trkpt lat="43.45345288530954" lon="11.803506222627"><ele>263.0</ele><time>2026-04-19T05:59:22.986Z</time></trkpt><trkpt lat="43.45337734817203" lon="11.803416096296882"><ele>262.0</ele><time>2026-04-19T05:59:24.987Z</time></trkpt><trkpt lat="43.45329662772863" lon="11.80331455089839"><ele>261.0</ele><time>2026-04-19T05:59:26.987Z</time></trkpt><trkpt lat="43.4532143698392" lon="11.803228256141763"><ele>260.0</ele><time>2026-04-19T05:59:28.986Z</time></trkpt><trkpt lat="43.45313234587547" lon="11.803129030746481"><ele>259.0</ele><time>2026-04-19T05:59:30.986Z</time></trkpt><trkpt lat="43.453043045530194" lon="11.803024194031725"><ele>258.14285714285717</ele><time>2026-04-19T05:59:32.986Z</time></trkpt><trkpt lat="43.45294825960139" lon="11.80291492148064"><ele>257.2857142857143</ele><time>2026-04-19T05:59:34.986Z</time></trkpt><trkpt lat="43.45289965438496" lon="11.802858575510658"><ele>256.42857142857144</ele><time>2026-04-19T05:59:35.986Z</time></trkpt><trkpt lat="43.452846786195835" lon="11.80280552225808"><ele>255.57142857142858</ele><time>2026-04-19T05:59:36.986Z</time></trkpt><trkpt lat="43.45279832446886" lon="11.802745795458076"><ele>254.71428571428572</ele><time>2026-04-19T05:59:37.986Z</time></trkpt><trkpt lat="43.45275472570956" lon="11.802681749121838"><ele>253.8571428571429</ele><time>2026-04-19T05:59:38.986Z</time></trkpt><trkpt lat="43.452714654269116" lon="11.802613736248839"><ele>253.00000000000003</ele><time>2026-04-19T05:59:39.986Z</time></trkpt><trkpt lat="43.452734028974675" lon="11.80244129758796"><ele>252.99999999999997</ele><time>2026-04-19T05:59:40.986Z</time></trkpt><trkpt lat="43.45268357432624" lon="11.802381385099986"><ele>253.0</ele><time>2026-04-19T05:59:41.986Z</time></trkpt><trkpt lat="43.45263062449436" lon="11.802318509699537"><ele>253.0</ele><time>2026-04-19T05:59:42.986Z</time></trkpt><trkpt lat="43.45257469008728" lon="11.802252090262018"><ele>253.0</ele><time>2026-04-19T05:59:43.986Z</time></trkpt><trkpt lat="43.452524433749424" lon="11.802192413262516"><ele>252.99999999999997</ele><time>2026-04-19T05:59:44.986Z</time></trkpt><trkpt lat="43.45242622248952" lon="11.802234235626363"><ele>253.0</ele><time>2026-04-19T05:59:45.986Z</time></trkpt><trkpt lat="43.452338598059924" lon="11.802135317740696"><ele>252.99999999999997</ele><time>2026-04-19T05:59:47.986Z</time></trkpt><trkpt lat="43.452259299369956" lon="11.802044323383937"><ele>253.0</ele><time>2026-04-19T05:59:49.986Z</time></trkpt><trkpt lat="43.45217158731575" lon="11.801942240894393"><ele>253.0</ele><time>2026-04-19T05:59:51.986Z</time></trkpt><trkpt lat="43.452118067442846" lon="11.801889846401211"><ele>253.0</ele><time>2026-04-19T05:59:52.986Z</time></trkpt><trkpt lat="43.45207624267611" lon="11.801812581131037"><ele>252.99999999999997</ele><time>2026-04-19T05:59:53.986Z</time></trkpt><trkpt lat="43.45202778370594" lon="11.801750907657125"><ele>253.0</ele><time>2026-04-19T05:59:54.986Z</time></trkpt><trkpt lat="43.451976218817244" lon="11.801686406687182"><ele>252.4</ele><time>2026-04-19T05:59:55.986Z</time></trkpt><trkpt lat="43.4519253836564" lon="11.801631498094025"><ele>251.8</ele><time>2026-04-19T05:59:56.986Z</time></trkpt><trkpt lat="43.451822689402626" lon="11.80155415329892"><ele>251.2</ele><time>2026-04-19T05:59:58.986Z</time></trkpt><trkpt lat="43.45173586597268" lon="11.801477407072404"><ele>250.6</ele><time>2026-04-19T06:00:00.986Z</time></trkpt><trkpt lat="43.45163712258459" lon="11.801443569190589"><ele>250.0</ele><time>2026-04-19T06:00:02.986Z</time></trkpt><trkpt lat="43.45153814037178" lon="11.801435264309134"><ele>249.99999999999997</ele><time>2026-04-19T06:00:04.986Z</time></trkpt><trkpt lat="43.4514472420735" lon="11.801462857200768"><ele>250.0</ele><time>2026-04-19T06:00:06.986Z</time></trkpt><trkpt lat="43.45138031439034" lon="11.801492503102816"><ele>250.0</ele><time>2026-04-19T06:00:08.986Z</time></trkpt><trkpt lat="43.45130314847229" lon="11.801559337599114"><ele>250.0</ele><time>2026-04-19T06:00:11.986Z</time></trkpt><trkpt lat="43.45124440838347" lon="11.801593548095145"><ele>249.99999999999997</ele><time>2026-04-19T06:00:13.986Z</time></trkpt><trkpt lat="43.45118353042064" lon="11.801638594565166"><ele>250.0</ele><time>2026-04-19T06:00:15.986Z</time></trkpt><trkpt lat="43.45110893250878" lon="11.801691004432648"><ele>249.99999999999997</ele><time>2026-04-19T06:00:18.986Z</time></trkpt><trkpt lat="43.45103218994385" lon="11.801734515993745"><ele>250.0</ele><time>2026-04-19T06:00:21.986Z</time></trkpt><trkpt lat="43.450968444277215" lon="11.801736576216156"><ele>250.0</ele><time>2026-04-19T06:00:23.986Z</time></trkpt><trkpt lat="43.450907183757266" lon="11.801784431427816"><ele>250.0</ele><time>2026-04-19T06:00:26.986Z</time></trkpt><trkpt lat="43.45084783218685" lon="11.801635288061071"><ele>249.99999999999997</ele><time>2026-04-19T06:00:27.986Z</time></trkpt><trkpt lat="43.45080078771235" lon="11.801546979372105"><ele>250.0</ele><time>2026-04-19T06:00:29.986Z</time></trkpt><trkpt lat="43.45075633356531" lon="11.801461861343572"><ele>249.99999999999997</ele><time>2026-04-19T06:00:31.986Z</time></trkpt><trkpt lat="43.450709039134615" lon="11.801389750305932"><ele>250.0</ele><time>2026-04-19T06:00:33.986Z</time></trkpt><trkpt lat="43.4506756311231" lon="11.801306170573833"><ele>250.0</ele><time>2026-04-19T06:00:35.986Z</time></trkpt><trkpt lat="43.45065022804648" lon="11.801203614776984"><ele>250.0</ele><time>2026-04-19T06:00:37.986Z</time></trkpt><trkpt lat="43.45061516817336" lon="11.801108260916935"><ele>249.99999999999997</ele><time>2026-04-19T06:00:39.986Z</time></trkpt><trkpt lat="43.45058530903725" lon="11.801018748789435"><ele>250.0</ele><time>2026-04-19T06:00:41.986Z</time></trkpt><trkpt lat="43.45052542262186" lon="11.80093161226154"><ele>250.0</ele><time>2026-04-19T06:00:43.986Z</time></trkpt><trkpt lat="43.45048771018348" lon="11.800816148798406"><ele>250.0</ele><time>2026-04-19T06:00:45.986Z</time></trkpt><trkpt lat="43.450437437985364" lon="11.800705294965283"><ele>250.0</ele><time>2026-04-19T06:00:47.986Z</time></trkpt><trkpt lat="43.450380389387824" lon="11.800580121968924"><ele>250.0</ele><time>2026-04-19T06:00:49.986Z</time></trkpt><trkpt lat="43.45032468098836" lon="11.80045788957995"><ele>250.0</ele><time>2026-04-19T06:00:51.986Z</time></trkpt><trkpt lat="43.45027104659254" lon="11.800340207844648"><ele>250.0</ele><time>2026-04-19T06:00:53.986Z</time></trkpt><trkpt lat="43.45021482491706" lon="11.800217617217843"><ele>250.0</ele><time>2026-04-19T06:00:55.986Z</time></trkpt><trkpt lat="43.45015898876538" lon="11.800097477371029"><ele>250.0</ele><time>2026-04-19T06:00:57.986Z</time></trkpt><trkpt lat="43.4501036290395" lon="11.79997836263252"><ele>250.0</ele><time>2026-04-19T06:00:59.986Z</time></trkpt><trkpt lat="43.45005102711265" lon="11.799874050365013"><ele>250.0</ele><time>2026-04-19T06:01:01.986Z</time></trkpt><trkpt lat="43.44998252029211" lon="11.799774478726981"><ele>250.0</ele><time>2026-04-19T06:01:03.986Z</time></trkpt><trkpt lat="43.449912409406124" lon="11.799683332995633"><ele>250.0</ele><time>2026-04-19T06:01:05.986Z</time></trkpt><trkpt lat="43.44983415281821" lon="11.799613064086314"><ele>250.0</ele><time>2026-04-19T06:01:07.986Z</time></trkpt><trkpt lat="43.449762774818275" lon="11.799530953911349"><ele>250.0</ele><time>2026-04-19T06:01:09.986Z</time></trkpt><trkpt lat="43.44968879400196" lon="11.799444312652804"><ele>250.0</ele><time>2026-04-19T06:01:11.986Z</time></trkpt><trkpt lat="43.4496160018773" lon="11.799369543430522"><ele>249.6</ele><time>2026-04-19T06:01:13.986Z</time></trkpt><trkpt lat="43.44954540119438" lon="11.799296197410662"><ele>249.2</ele><time>2026-04-19T06:01:15.986Z</time></trkpt><trkpt lat="43.449472259901356" lon="11.79921166851485"><ele>248.8</ele><time>2026-04-19T06:01:17.985Z</time></trkpt><trkpt lat="43.449402089065366" lon="11.799121442908705"><ele>248.4</ele><time>2026-04-19T06:01:19.985Z</time></trkpt><trkpt lat="43.449342559877245" lon="11.799025662777126"><ele>248.0</ele><time>2026-04-19T06:01:21.985Z</time></trkpt><trkpt lat="43.44927923883171" lon="11.79894051862647"><ele>248.0</ele><time>2026-04-19T06:01:23.985Z</time></trkpt><trkpt lat="43.44921701952425" lon="11.798842210798842"><ele>248.0</ele><time>2026-04-19T06:01:25.985Z</time></trkpt><trkpt lat="43.44916258944435" lon="11.798715063144314"><ele>248.0</ele><time>2026-04-19T06:01:27.984Z</time></trkpt><trkpt lat="43.44911246436872" lon="11.79859056375131"><ele>248.0</ele><time>2026-04-19T06:01:29.985Z</time></trkpt><trkpt lat="43.449064770737095" lon="11.798464315066422"><ele>248.0</ele><time>2026-04-19T06:01:31.984Z</time></trkpt><trkpt lat="43.44901981141834" lon="11.79834081459199"><ele>248.0</ele><time>2026-04-19T06:01:33.984Z</time></trkpt><trkpt lat="43.448977544983826" lon="11.798217793902344"><ele>248.0</ele><time>2026-04-19T06:01:35.985Z</time></trkpt><trkpt lat="43.448924935199976" lon="11.798088210743101"><ele>248.0</ele><time>2026-04-19T06:01:37.985Z</time></trkpt><trkpt lat="43.44888016211527" lon="11.797959116330015"><ele>248.0</ele><time>2026-04-19T06:01:39.985Z</time></trkpt><trkpt lat="43.44883805878204" lon="11.797838122447756"><ele>248.0</ele><time>2026-04-19T06:01:41.985Z</time></trkpt><trkpt lat="43.44878508455002" lon="11.797717092421847"><ele>248.2</ele><time>2026-04-19T06:01:43.985Z</time></trkpt><trkpt lat="43.448712525217935" lon="11.797610182791107"><ele>248.4</ele><time>2026-04-19T06:01:45.985Z</time></trkpt><trkpt lat="43.448630491997484" lon="11.797520713001019"><ele>248.59999999999997</ele><time>2026-04-19T06:01:47.985Z</time></trkpt><trkpt lat="43.44853687573272" lon="11.797433162251544"><ele>248.79999999999998</ele><time>2026-04-19T06:01:49.985Z</time></trkpt><trkpt lat="43.448437029299974" lon="11.797355664626636"><ele>249.0</ele><time>2026-04-19T06:01:51.985Z</time></trkpt><trkpt lat="43.44833860884233" lon="11.797274418321672"><ele>249.0</ele><time>2026-04-19T06:01:53.985Z</time></trkpt><trkpt lat="43.448238953603095" lon="11.797195353465517"><ele>249.0</ele><time>2026-04-19T06:01:55.985Z</time></trkpt><trkpt lat="43.44814208538518" lon="11.797104112812354"><ele>249.0</ele><time>2026-04-19T06:01:57.985Z</time></trkpt><trkpt lat="43.44807837614604" lon="11.796972438309302"><ele>249.0</ele><time>2026-04-19T06:01:59.985Z</time></trkpt><trkpt lat="43.448024693378464" lon="11.796840467132924"><ele>249.75</ele><time>2026-04-19T06:02:01.985Z</time></trkpt><trkpt lat="43.44793604819492" lon="11.796739659344695"><ele>250.5</ele><time>2026-04-19T06:02:03.985Z</time></trkpt><trkpt lat="43.447829645493144" lon="11.796663673546146"><ele>251.25</ele><time>2026-04-19T06:02:05.984Z</time></trkpt><trkpt lat="43.44776292729225" lon="11.79654554338556"><ele>252.0</ele><time>2026-04-19T06:02:07.984Z</time></trkpt><trkpt lat="43.44768418782722" lon="11.796429494221663"><ele>252.0</ele><time>2026-04-19T06:02:09.984Z</time></trkpt><trkpt lat="43.447619366822664" lon="11.796326467274561"><ele>252.0</ele><time>2026-04-19T06:02:11.984Z</time></trkpt><trkpt lat="43.447555098879086" lon="11.796228181740387"><ele>252.0</ele><time>2026-04-19T06:02:13.984Z</time></trkpt><trkpt lat="43.447485749474325" lon="11.796126654137039"><ele>252.0</ele><time>2026-04-19T06:02:15.984Z</time></trkpt><trkpt lat="43.44741422868944" lon="11.796018602271086"><ele>252.0</ele><time>2026-04-19T06:02:17.984Z</time></trkpt><trkpt lat="43.447342170162706" lon="11.795918644471957"><ele>252.2</ele><time>2026-04-19T06:02:19.984Z</time></trkpt><trkpt lat="43.447285412510816" lon="11.795820049741224"><ele>252.39999999999998</ele><time>2026-04-19T06:02:21.984Z</time></trkpt><trkpt lat="43.44722562446539" lon="11.795709259102484"><ele>252.60000000000002</ele><time>2026-04-19T06:02:23.984Z</time></trkpt><trkpt lat="43.44716861151951" lon="11.795600952128105"><ele>252.8</ele><time>2026-04-19T06:02:25.984Z</time></trkpt><trkpt lat="43.447115896384176" lon="11.795483137630347"><ele>253.0</ele><time>2026-04-19T06:02:27.984Z</time></trkpt><trkpt lat="43.44705911459913" lon="11.795346950645191"><ele>252.99999999999997</ele><time>2026-04-19T06:02:29.984Z</time></trkpt><trkpt lat="43.447018138042424" lon="11.795228673575991"><ele>253.0</ele><time>2026-04-19T06:02:31.984Z</time></trkpt><trkpt lat="43.446985067981544" lon="11.79511614157771"><ele>253.0</ele><time>2026-04-19T06:02:33.984Z</time></trkpt><trkpt lat="43.44695466982429" lon="11.795001852884145"><ele>253.0</ele><time>2026-04-19T06:02:35.984Z</time></trkpt><trkpt lat="43.4469230907425" lon="11.794894232197697"><ele>252.99999999999997</ele><time>2026-04-19T06:02:37.984Z</time></trkpt><trkpt lat="43.44689805167489" lon="11.794780884412601"><ele>253.0</ele><time>2026-04-19T06:02:39.984Z</time></trkpt><trkpt lat="43.446876859312965" lon="11.794662535957093"><ele>253.0</ele><time>2026-04-19T06:02:41.984Z</time></trkpt><trkpt lat="43.44686414684439" lon="11.794543949389569"><ele>253.0</ele><time>2026-04-19T06:02:43.984Z</time></trkpt><trkpt lat="43.44685119903071" lon="11.79442125375503"><ele>253.0</ele><time>2026-04-19T06:02:45.984Z</time></trkpt><trkpt lat="43.44684513038948" lon="11.79429290206414"><ele>253.0</ele><time>2026-04-19T06:02:47.984Z</time></trkpt><trkpt lat="43.44683154923253" lon="11.794166182636657"><ele>253.0</ele><time>2026-04-19T06:02:49.984Z</time></trkpt><trkpt lat="43.44681545211896" lon="11.794042042017944"><ele>253.4</ele><time>2026-04-19T06:02:51.984Z</time></trkpt><trkpt lat="43.44679553041252" lon="11.793914567018499"><ele>253.8</ele><time>2026-04-19T06:02:53.984Z</time></trkpt><trkpt lat="43.446782936062185" lon="11.793792957264845"><ele>254.2</ele><time>2026-04-19T06:02:55.984Z</time></trkpt><trkpt lat="43.44676330565796" lon="11.793657510360434"><ele>254.6</ele><time>2026-04-19T06:02:57.984Z</time></trkpt><trkpt lat="43.44674925661385" lon="11.79352654423988"><ele>255.0</ele><time>2026-04-19T06:02:59.984Z</time></trkpt><trkpt lat="43.446730742590624" lon="11.793409501531759"><ele>255.0</ele><time>2026-04-19T06:03:01.984Z</time></trkpt><trkpt lat="43.44670776275858" lon="11.793296363776934"><ele>255.0</ele><time>2026-04-19T06:03:03.984Z</time></trkpt><trkpt lat="43.44668316452292" lon="11.79318890472075"><ele>255.0</ele><time>2026-04-19T06:03:05.984Z</time></trkpt><trkpt lat="43.44666765722212" lon="11.793047632174018"><ele>255.0</ele><time>2026-04-19T06:03:07.984Z</time></trkpt><trkpt lat="43.44665232553406" lon="11.792909061233042"><ele>255.0</ele><time>2026-04-19T06:03:09.984Z</time></trkpt><trkpt lat="43.44663006244714" lon="11.792776207257718"><ele>255.2</ele><time>2026-04-19T06:03:11.984Z</time></trkpt><trkpt lat="43.44659654491295" lon="11.792647685630158"><ele>255.4</ele><time>2026-04-19T06:03:13.984Z</time></trkpt><trkpt lat="43.44655142051674" lon="11.792522738767454"><ele>255.60000000000002</ele><time>2026-04-19T06:03:15.984Z</time></trkpt><trkpt lat="43.446493889303085" lon="11.79241644022816"><ele>255.8</ele><time>2026-04-19T06:03:17.984Z</time></trkpt><trkpt lat="43.44642025331674" lon="11.792325423366751"><ele>256.0</ele><time>2026-04-19T06:03:19.984Z</time></trkpt><trkpt lat="43.44634846935879" lon="11.792238111271754"><ele>255.60000000000002</ele><time>2026-04-19T06:03:21.984Z</time></trkpt><trkpt lat="43.44626244809375" lon="11.792157902741945"><ele>255.20000000000002</ele><time>2026-04-19T06:03:23.983Z</time></trkpt><trkpt lat="43.44617596615452" lon="11.792079764335252"><ele>254.79999999999998</ele><time>2026-04-19T06:03:25.983Z</time></trkpt><trkpt lat="43.44608668615508" lon="11.792025934619485"><ele>254.39999999999998</ele><time>2026-04-19T06:03:27.983Z</time></trkpt><trkpt lat="43.4460027559894" lon="11.791955063118564"><ele>254.0</ele><time>2026-04-19T06:03:29.983Z</time></trkpt><trkpt lat="43.44592359310425" lon="11.791885616926884"><ele>254.50000000000003</ele><time>2026-04-19T06:03:31.983Z</time></trkpt><trkpt lat="43.44584867478632" lon="11.791814293890171"><ele>255.0</ele><time>2026-04-19T06:03:33.983Z</time></trkpt><trkpt lat="43.44577357867955" lon="11.791741910789842"><ele>255.5</ele><time>2026-04-19T06:03:35.982Z</time></trkpt><trkpt lat="43.445704977849324" lon="11.791674037985718"><ele>256.0</ele><time>2026-04-19T06:03:37.983Z</time></trkpt><trkpt lat="43.445644987949244" lon="11.791601686697087"><ele>256.5</ele><time>2026-04-19T06:03:39.983Z</time></trkpt><trkpt lat="43.445590631165146" lon="11.791522138266494"><ele>257.0</ele><time>2026-04-19T06:03:41.983Z</time></trkpt><trkpt lat="43.44554484519944" lon="11.791442269879314"><ele>257.0</ele><time>2026-04-19T06:03:43.983Z</time></trkpt><trkpt lat="43.445504220605855" lon="11.7913626001187"><ele>257.0</ele><time>2026-04-19T06:03:45.983Z</time></trkpt><trkpt lat="43.44547126731032" lon="11.791280094266083"><ele>257.0</ele><time>2026-04-19T06:03:47.983Z</time></trkpt><trkpt lat="43.4454344160827" lon="11.791193800914561"><ele>257.0</ele><time>2026-04-19T06:03:49.983Z</time></trkpt><trkpt lat="43.44540077306425" lon="11.791089438717805"><ele>257.0</ele><time>2026-04-19T06:03:51.983Z</time></trkpt><trkpt lat="43.445365931666394" lon="11.790981803773903"><ele>257.0</ele><time>2026-04-19T06:03:53.983Z</time></trkpt><trkpt lat="43.445335547823014" lon="11.790874679423055"><ele>257.1666666666667</ele><time>2026-04-19T06:03:55.983Z</time></trkpt><trkpt lat="43.44530519896989" lon="11.79076278686329"><ele>257.33333333333337</ele><time>2026-04-19T06:03:57.983Z</time></trkpt><trkpt lat="43.44527535896441" lon="11.790650691185988"><ele>257.5</ele><time>2026-04-19T06:03:59.983Z</time></trkpt><trkpt lat="43.44525047796604" lon="11.790535696101504"><ele>257.6666666666667</ele><time>2026-04-19T06:04:01.983Z</time></trkpt><trkpt lat="43.44522912599574" lon="11.790422259456427"><ele>257.8333333333333</ele><time>2026-04-19T06:04:03.983Z</time></trkpt><trkpt lat="43.445196618177306" lon="11.790320108067522"><ele>258.0</ele><time>2026-04-19T06:04:05.983Z</time></trkpt><trkpt lat="43.44518699975625" lon="11.790205409743486"><ele>258.6666666666667</ele><time>2026-04-19T06:04:07.983Z</time></trkpt><trkpt lat="43.445177338512664" lon="11.790076305759676"><ele>259.3333333333333</ele><time>2026-04-19T06:04:09.983Z</time></trkpt><trkpt lat="43.44516489852581" lon="11.789953890351883"><ele>260.0</ele><time>2026-04-19T06:04:11.983Z</time></trkpt><trkpt lat="43.44515321126503" lon="11.789845666413026"><ele>260.66666666666663</ele><time>2026-04-19T06:04:13.983Z</time></trkpt><trkpt lat="43.44513545561557" lon="11.789734984455535"><ele>261.3333333333333</ele><time>2026-04-19T06:04:15.983Z</time></trkpt><trkpt lat="43.445122522712445" lon="11.78962420011969"><ele>262.0</ele><time>2026-04-19T06:04:17.983Z</time></trkpt><trkpt lat="43.44509784733464" lon="11.789508028109008"><ele>262.0</ele><time>2026-04-19T06:04:19.983Z</time></trkpt><trkpt lat="43.445082405176585" lon="11.789393334790612"><ele>262.0</ele><time>2026-04-19T06:04:21.983Z</time></trkpt><trkpt lat="43.44504037293515" lon="11.789290113072292"><ele>262.0</ele><time>2026-04-19T06:04:23.983Z</time></trkpt><trkpt lat="43.44501136097984" lon="11.789184449506239"><ele>262.0</ele><time>2026-04-19T06:04:25.983Z</time></trkpt><trkpt lat="43.44496311157881" lon="11.78905311180416"><ele>262.0</ele><time>2026-04-19T06:04:27.983Z</time></trkpt><trkpt lat="43.444927064238904" lon="11.788920251685447"><ele>262.4</ele><time>2026-04-19T06:04:29.983Z</time></trkpt><trkpt lat="43.444889993385225" lon="11.788791506576981"><ele>262.79999999999995</ele><time>2026-04-19T06:04:31.983Z</time></trkpt><trkpt lat="43.44485016291371" lon="11.78867972488512"><ele>263.2</ele><time>2026-04-19T06:04:33.983Z</time></trkpt><trkpt lat="43.444807464323205" lon="11.78856864015061"><ele>263.59999999999997</ele><time>2026-04-19T06:04:35.983Z</time></trkpt><trkpt lat="43.444767040611396" lon="11.788447014937773"><ele>264.0</ele><time>2026-04-19T06:04:37.983Z</time></trkpt><trkpt lat="43.4447377602681" lon="11.788325372048169"><ele>263.6666666666667</ele><time>2026-04-19T06:04:39.983Z</time></trkpt><trkpt lat="43.44468975047294" lon="11.788220282747641"><ele>263.3333333333333</ele><time>2026-04-19T06:04:41.983Z</time></trkpt><trkpt lat="43.44464996818754" lon="11.788111195435889"><ele>263.0</ele><time>2026-04-19T06:04:43.983Z</time></trkpt><trkpt lat="43.44460284920585" lon="11.788001603902645"><ele>262.66666666666663</ele><time>2026-04-19T06:04:45.983Z</time></trkpt><trkpt lat="43.444557813985014" lon="11.787896172567189"><ele>262.3333333333333</ele><time>2026-04-19T06:04:47.983Z</time></trkpt><trkpt lat="43.44450480352332" lon="11.787800249708756"><ele>262.0</ele><time>2026-04-19T06:04:49.983Z</time></trkpt><trkpt lat="43.4444460470352" lon="11.78770677609293"><ele>262.4</ele><time>2026-04-19T06:04:51.983Z</time></trkpt><trkpt lat="43.44438058192309" lon="11.787615779332267"><ele>262.79999999999995</ele><time>2026-04-19T06:04:53.983Z</time></trkpt><trkpt lat="43.444318658396156" lon="11.787515754880237"><ele>263.2</ele><time>2026-04-19T06:04:55.983Z</time></trkpt><trkpt lat="43.44424925454148" lon="11.78742854663082"><ele>263.59999999999997</ele><time>2026-04-19T06:04:57.983Z</time></trkpt><trkpt lat="43.444179474132696" lon="11.787339877046403"><ele>264.0</ele><time>2026-04-19T06:04:59.983Z</time></trkpt><trkpt lat="43.44411420054718" lon="11.787258755684656"><ele>264.0</ele><time>2026-04-19T06:05:01.983Z</time></trkpt><trkpt lat="43.44403625200015" lon="11.787179313198166"><ele>264.0</ele><time>2026-04-19T06:05:03.983Z</time></trkpt><trkpt lat="43.443955665038644" lon="11.787093089954283"><ele>264.0</ele><time>2026-04-19T06:05:05.983Z</time></trkpt><trkpt lat="43.44388680897697" lon="11.78699757744141"><ele>264.0</ele><time>2026-04-19T06:05:07.983Z</time></trkpt><trkpt lat="43.443802346677145" lon="11.78694637731549"><ele>264.0</ele><time>2026-04-19T06:05:09.983Z</time></trkpt><trkpt lat="43.4437291085172" lon="11.786879514097029"><ele>264.6666666666667</ele><time>2026-04-19T06:05:11.983Z</time></trkpt><trkpt lat="43.44366331963804" lon="11.786793041542085"><ele>265.3333333333333</ele><time>2026-04-19T06:05:13.983Z</time></trkpt><trkpt lat="43.443592702027544" lon="11.786721308622543"><ele>266.0</ele><time>2026-04-19T06:05:15.983Z</time></trkpt><trkpt lat="43.443521314330994" lon="11.786647067180965"><ele>266.66666666666663</ele><time>2026-04-19T06:05:17.983Z</time></trkpt><trkpt lat="43.44347097231448" lon="11.786569798890655"><ele>267.3333333333333</ele><time>2026-04-19T06:05:19.983Z</time></trkpt><trkpt lat="43.44341558248819" lon="11.786481973359393"><ele>268.0</ele><time>2026-04-19T06:05:21.983Z</time></trkpt><trkpt lat="43.443377416591574" lon="11.786403074516233"><ele>268.0</ele><time>2026-04-19T06:05:23.983Z</time></trkpt><trkpt lat="43.44333453212777" lon="11.786324224412363"><ele>268.0</ele><time>2026-04-19T06:05:25.983Z</time></trkpt><trkpt lat="43.44329841805732" lon="11.786253084560778"><ele>268.0</ele><time>2026-04-19T06:05:27.983Z</time></trkpt><trkpt lat="43.44324938893599" lon="11.786145640820207"><ele>268.0</ele><time>2026-04-19T06:05:30.98Z</time></trkpt><trkpt lat="43.44321426575183" lon="11.786060058074515"><ele>268.0</ele><time>2026-04-19T06:05:32.981Z</time></trkpt><trkpt lat="43.443175633041236" lon="11.785980156804502"><ele>268.0</ele><time>2026-04-19T06:05:34.98Z</time></trkpt><trkpt lat="43.4431501790716" lon="11.785897549000856"><ele>268.0</ele><time>2026-04-19T06:05:36.98Z</time></trkpt><trkpt lat="43.44311752741704" lon="11.785783540590687"><ele>268.5</ele><time>2026-04-19T06:05:39.981Z</time></trkpt><trkpt lat="43.44308562903769" lon="11.785670077547334"><ele>269.0</ele><time>2026-04-19T06:05:42.98Z</time></trkpt><trkpt lat="43.44307311947482" lon="11.785552266088311"><ele>269.5</ele><time>2026-04-19T06:05:45.98Z</time></trkpt><trkpt lat="43.44306064659483" lon="11.785458757533721"><ele>270.0</ele><time>2026-04-19T06:05:47.981Z</time></trkpt><trkpt lat="43.44305530235584" lon="11.785350761568775"><ele>270.5</ele><time>2026-04-19T06:05:50.981Z</time></trkpt><trkpt lat="43.44306415058469" lon="11.785257331287688"><ele>271.0</ele><time>2026-04-19T06:05:52.981Z</time></trkpt><trkpt lat="43.443050749851764" lon="11.785133156712073"><ele>271.8333333333333</ele><time>2026-04-19T06:05:55.981Z</time></trkpt><trkpt lat="43.44305328716303" lon="11.785035464328855"><ele>272.66666666666663</ele><time>2026-04-19T06:05:57.981Z</time></trkpt><trkpt lat="43.4430472636759" lon="11.784936834422814"><ele>273.5</ele><time>2026-04-19T06:05:59.981Z</time></trkpt><trkpt lat="43.443026789078026" lon="11.784812576184168"><ele>274.3333333333333</ele><time>2026-04-19T06:06:02.981Z</time></trkpt><trkpt lat="43.44301091769266" lon="11.784725472782984"><ele>275.1666666666667</ele><time>2026-04-19T06:06:04.981Z</time></trkpt><trkpt lat="43.44298120735251" lon="11.784641550547274"><ele>276.0</ele><time>2026-04-19T06:06:06.981Z</time></trkpt><trkpt lat="43.44294517782597" lon="11.784540500713696"><ele>276.5</ele><time>2026-04-19T06:06:09.981Z</time></trkpt><trkpt lat="43.44290911394431" lon="11.784436445890332"><ele>277.0</ele><time>2026-04-19T06:06:12.981Z</time></trkpt><trkpt lat="43.442886953175424" lon="11.78431578508397"><ele>277.5</ele><time>2026-04-19T06:06:15.981Z</time></trkpt><trkpt lat="43.44286273884413" lon="11.784208757975096"><ele>278.0</ele><time>2026-04-19T06:06:18.981Z</time></trkpt><trkpt lat="43.44284357694548" lon="11.784081387457022"><ele>278.5</ele><time>2026-04-19T06:06:21.981Z</time></trkpt><trkpt lat="43.44282174650337" lon="11.78399828707507"><ele>279.0</ele><time>2026-04-19T06:06:23.981Z</time></trkpt><trkpt lat="43.442765293044665" lon="11.783906883865827"><ele>279.2</ele><time>2026-04-19T06:06:26.98Z</time></trkpt><trkpt lat="43.442727926448214" lon="11.783802185982974"><ele>279.4</ele><time>2026-04-19T06:06:28.98Z</time></trkpt><trkpt lat="43.44265277195294" lon="11.783674535457926"><ele>279.6</ele><time>2026-04-19T06:06:30.98Z</time></trkpt><trkpt lat="43.442614799589066" lon="11.783604954351846"><ele>279.8</ele><time>2026-04-19T06:06:31.98Z</time></trkpt><trkpt lat="43.44252470748415" lon="11.783499881076422"><ele>280.0</ele><time>2026-04-19T06:06:33.98Z</time></trkpt><trkpt lat="43.44242683211221" lon="11.783396494315765"><ele>280.0</ele><time>2026-04-19T06:06:35.98Z</time></trkpt><trkpt lat="43.44237553774363" lon="11.7833179459841"><ele>280.0</ele><time>2026-04-19T06:06:36.98Z</time></trkpt><trkpt lat="43.44230513302639" lon="11.783274661800732"><ele>280.0</ele><time>2026-04-19T06:06:37.98Z</time></trkpt><trkpt lat="43.44224510524617" lon="11.783202523973724"><ele>280.0</ele><time>2026-04-19T06:06:38.98Z</time></trkpt><trkpt lat="43.44219469487576" lon="11.783114606880533"><ele>280.0</ele><time>2026-04-19T06:06:39.98Z</time></trkpt><trkpt lat="43.44214659504342" lon="11.783010993323987"><ele>280.0</ele><time>2026-04-19T06:06:40.98Z</time></trkpt><trkpt lat="43.44211172138587" lon="11.78289578641176"><ele>279.2</ele><time>2026-04-19T06:06:41.98Z</time></trkpt><trkpt lat="43.442074932380024" lon="11.782782066858948"><ele>278.4</ele><time>2026-04-19T06:06:42.98Z</time></trkpt><trkpt lat="43.44204870747424" lon="11.782664489010186"><ele>277.6</ele><time>2026-04-19T06:06:43.98Z</time></trkpt><trkpt lat="43.44202221890596" lon="11.782543050065405"><ele>276.8</ele><time>2026-04-19T06:06:44.98Z</time></trkpt><trkpt lat="43.44199271144601" lon="11.78242135658073"><ele>276.0</ele><time>2026-04-19T06:06:45.98Z</time></trkpt><trkpt lat="43.44196192794468" lon="11.782290031198086"><ele>275.0</ele><time>2026-04-19T06:06:46.98Z</time></trkpt><trkpt lat="43.44192572898468" lon="11.782170391552446"><ele>274.0</ele><time>2026-04-19T06:06:47.98Z</time></trkpt><trkpt lat="43.44188083653124" lon="11.78205085281738"><ele>273.0</ele><time>2026-04-19T06:06:48.98Z</time></trkpt><trkpt lat="43.441826144004935" lon="11.78193813138201"><ele>272.0</ele><time>2026-04-19T06:06:49.98Z</time></trkpt><trkpt lat="43.44178571572298" lon="11.781810167674026"><ele>271.0</ele><time>2026-04-19T06:06:50.98Z</time></trkpt><trkpt lat="43.44172977683721" lon="11.781693318939086"><ele>270.8333333333333</ele><time>2026-04-19T06:06:51.98Z</time></trkpt><trkpt lat="43.441658142161" lon="11.781591847176118"><ele>270.66666666666663</ele><time>2026-04-19T06:06:52.98Z</time></trkpt><trkpt lat="43.441618107222766" lon="11.781477066845218"><ele>270.5</ele><time>2026-04-19T06:06:53.98Z</time></trkpt><trkpt lat="43.441556117667034" lon="11.78140177584057"><ele>270.3333333333333</ele><time>2026-04-19T06:06:54.98Z</time></trkpt><trkpt lat="43.441499433914366" lon="11.781325072692189"><ele>270.1666666666667</ele><time>2026-04-19T06:06:55.98Z</time></trkpt><trkpt lat="43.4414461969173" lon="11.781243962768071"><ele>270.0</ele><time>2026-04-19T06:06:56.98Z</time></trkpt><trkpt lat="43.44136688667897" lon="11.781194463172334"><ele>269.2</ele><time>2026-04-19T06:06:57.98Z</time></trkpt><trkpt lat="43.44128228313938" lon="11.781145486654363"><ele>268.4</ele><time>2026-04-19T06:06:58.98Z</time></trkpt><trkpt lat="43.44120205743404" lon="11.781084507074928"><ele>267.6</ele><time>2026-04-19T06:06:59.98Z</time></trkpt><trkpt lat="43.44111589624248" lon="11.781044357262214"><ele>266.8</ele><time>2026-04-19T06:07:00.98Z</time></trkpt><trkpt lat="43.44103172281252" lon="11.781006248351602"><ele>266.0</ele><time>2026-04-19T06:07:01.98Z</time></trkpt><trkpt lat="43.440948069850734" lon="11.780968375002148"><ele>266.0</ele><time>2026-04-19T06:07:02.98Z</time></trkpt><trkpt lat="43.44086383812854" lon="11.780930239658401"><ele>266.0</ele><time>2026-04-19T06:07:03.98Z</time></trkpt><trkpt lat="43.440778148034994" lon="11.780891413603538"><ele>266.0</ele><time>2026-04-19T06:07:04.98Z</time></trkpt><trkpt lat="43.44070057822568" lon="11.78085624099165"><ele>266.0</ele><time>2026-04-19T06:07:05.98Z</time></trkpt><trkpt lat="43.44061778231443" lon="11.780842102563053"><ele>266.0</ele><time>2026-04-19T06:07:06.98Z</time></trkpt><trkpt lat="43.44053957266834" lon="11.780799628105894"><ele>266.0</ele><time>2026-04-19T06:07:07.98Z</time></trkpt><trkpt lat="43.440462553601144" lon="11.780765249874896"><ele>265.6666666666667</ele><time>2026-04-19T06:07:08.98Z</time></trkpt><trkpt lat="43.44038766731373" lon="11.780728939817653"><ele>265.33333333333337</ele><time>2026-04-19T06:07:09.98Z</time></trkpt><trkpt lat="43.44031345405651" lon="11.780692471432973"><ele>265.0</ele><time>2026-04-19T06:07:10.98Z</time></trkpt><trkpt lat="43.440239937198" lon="11.780654762364273"><ele>264.6666666666667</ele><time>2026-04-19T06:07:11.98Z</time></trkpt><trkpt lat="43.44016988318324" lon="11.78061901383977"><ele>264.3333333333333</ele><time>2026-04-19T06:07:12.98Z</time></trkpt><trkpt lat="43.44010683545717" lon="11.780574576611084"><ele>264.0</ele><time>2026-04-19T06:07:13.98Z</time></trkpt><trkpt lat="43.44004090756772" lon="11.780540281727715"><ele>264.0</ele><time>2026-04-19T06:07:14.98Z</time></trkpt><trkpt lat="43.4399775818794" lon="11.780502550777276"><ele>264.0</ele><time>2026-04-19T06:07:15.98Z</time></trkpt><trkpt lat="43.43991558896597" lon="11.780460259846521"><ele>264.0</ele><time>2026-04-19T06:07:16.98Z</time></trkpt><trkpt lat="43.4398083871239" lon="11.780382390852065"><ele>264.0</ele><time>2026-04-19T06:07:18.98Z</time></trkpt><trkpt lat="43.439700623528296" lon="11.78030018282838"><ele>264.0</ele><time>2026-04-19T06:07:20.98Z</time></trkpt><trkpt lat="43.439597717250344" lon="11.780219069819369"><ele>263.0</ele><time>2026-04-19T06:07:22.98Z</time></trkpt><trkpt lat="43.43949696724629" lon="11.780137038775235"><ele>262.0</ele><time>2026-04-19T06:07:24.98Z</time></trkpt><trkpt lat="43.43940682968614" lon="11.780031837616015"><ele>261.0</ele><time>2026-04-19T06:07:26.98Z</time></trkpt><trkpt lat="43.439308654118896" lon="11.779949808152434"><ele>260.0</ele><time>2026-04-19T06:07:28.98Z</time></trkpt><trkpt lat="43.43921573272093" lon="11.77985670012585"><ele>260.0</ele><time>2026-04-19T06:07:30.98Z</time></trkpt><trkpt lat="43.43912072279179" lon="11.779752927925367"><ele>260.0</ele><time>2026-04-19T06:07:32.98Z</time></trkpt><trkpt lat="43.43903579795743" lon="11.779620242331587"><ele>260.0</ele><time>2026-04-19T06:07:34.978Z</time></trkpt><trkpt lat="43.43894891407557" lon="11.779499987243566"><ele>260.0</ele><time>2026-04-19T06:07:36.979Z</time></trkpt><trkpt lat="43.43886829206508" lon="11.779384149527939"><ele>260.4</ele><time>2026-04-19T06:07:38.979Z</time></trkpt><trkpt lat="43.438822799684" lon="11.779318156329644"><ele>260.8</ele><time>2026-04-19T06:07:39.979Z</time></trkpt><trkpt lat="43.438740971740096" lon="11.779195205183104"><ele>261.2</ele><time>2026-04-19T06:07:41.978Z</time></trkpt><trkpt lat="43.438673751487926" lon="11.779091961383267"><ele>261.6</ele><time>2026-04-19T06:07:43.978Z</time></trkpt><trkpt lat="43.43861797492904" lon="11.778997534907395"><ele>262.0</ele><time>2026-04-19T06:07:45.978Z</time></trkpt><trkpt lat="43.43855911134073" lon="11.778912715397485"><ele>262.0</ele><time>2026-04-19T06:07:47.978Z</time></trkpt><trkpt lat="43.438496319287246" lon="11.778824020735607"><ele>262.0</ele><time>2026-04-19T06:07:49.979Z</time></trkpt><trkpt lat="43.43843529070966" lon="11.77874318187812"><ele>262.0</ele><time>2026-04-19T06:07:51.979Z</time></trkpt><trkpt lat="43.43839062283929" lon="11.778679023326363"><ele>262.0</ele><time>2026-04-19T06:07:53.978Z</time></trkpt><trkpt lat="43.43834418894572" lon="11.77861337820355"><ele>262.0</ele><time>2026-04-19T06:07:55.978Z</time></trkpt><trkpt lat="43.43829972568399" lon="11.778551682807738"><ele>262.0</ele><time>2026-04-19T06:07:57.978Z</time></trkpt><trkpt lat="43.43825879080483" lon="11.778481923307382"><ele>262.0</ele><time>2026-04-19T06:07:59.978Z</time></trkpt><trkpt lat="43.438216217651494" lon="11.778394917800824"><ele>262.16666666666663</ele><time>2026-04-19T06:08:01.978Z</time></trkpt><trkpt lat="43.438177996623764" lon="11.77828013465884"><ele>262.3333333333333</ele><time>2026-04-19T06:08:03.978Z</time></trkpt><trkpt lat="43.43812892102842" lon="11.778166133118932"><ele>262.5</ele><time>2026-04-19T06:08:05.978Z</time></trkpt><trkpt lat="43.43806440251716" lon="11.778088266337898"><ele>262.6666666666667</ele><time>2026-04-19T06:08:07.978Z</time></trkpt><trkpt lat="43.437992084544575" lon="11.778029533156797"><ele>262.83333333333337</ele><time>2026-04-19T06:08:09.978Z</time></trkpt><trkpt lat="43.43793267706558" lon="11.777959690657575"><ele>263.0</ele><time>2026-04-19T06:08:11.978Z</time></trkpt><trkpt lat="43.437878364570636" lon="11.77788902540164"><ele>263.0</ele><time>2026-04-19T06:08:13.978Z</time></trkpt><trkpt lat="43.43782128440909" lon="11.777801096201632"><ele>263.0</ele><time>2026-04-19T06:08:15.978Z</time></trkpt><trkpt lat="43.43776336873259" lon="11.777720136193217"><ele>263.0</ele><time>2026-04-19T06:08:17.978Z</time></trkpt><trkpt lat="43.43771825564829" lon="11.777636933214126"><ele>263.0</ele><time>2026-04-19T06:08:19.978Z</time></trkpt><trkpt lat="43.43766123664099" lon="11.777586167601765"><ele>263.0</ele><time>2026-04-19T06:08:21.978Z</time></trkpt><trkpt lat="43.43760285693049" lon="11.777510463127664"><ele>263.0</ele><time>2026-04-19T06:08:24.978Z</time></trkpt><trkpt lat="43.43753682202346" lon="11.777547493000494"><ele>263.0</ele><time>2026-04-19T06:08:26.978Z</time></trkpt><trkpt lat="43.437449252795815" lon="11.777587097327714"><ele>263.0</ele><time>2026-04-19T06:10:49.976Z</time></trkpt><trkpt lat="43.437450329393975" lon="11.77767398296317"><ele>263.0</ele><time>2026-04-19T06:12:06.974Z</time></trkpt><trkpt lat="43.43751469959734" lon="11.777660671429386"><ele>263.0</ele><time>2026-04-19T06:12:10.974Z</time></trkpt><trkpt lat="43.43757888779505" lon="11.777673560952527"><ele>263.0</ele><time>2026-04-19T06:12:14.974Z</time></trkpt><trkpt lat="43.4376325452787" lon="11.777723101137143"><ele>263.0</ele><time>2026-04-19T06:12:18.974Z</time></trkpt><trkpt lat="43.43764513156097" lon="11.777630048201704"><ele>263.0</ele><time>2026-04-19T06:12:25.974Z</time></trkpt><trkpt lat="43.437618235274535" lon="11.777544290170175"><ele>263.33333333333337</ele><time>2026-04-19T06:12:29.974Z</time></trkpt><trkpt lat="43.43759819583089" lon="11.777447275559181"><ele>263.6666666666667</ele><time>2026-04-19T06:13:51.974Z</time></trkpt><trkpt lat="43.43760348015015" lon="11.777344069271827"><ele>264.0</ele><time>2026-04-19T06:13:55.973Z</time></trkpt><trkpt lat="43.43760230805918" lon="11.777218644316072"><ele>264.3333333333333</ele><time>2026-04-19T06:13:58.973Z</time></trkpt><trkpt lat="43.43757580346405" lon="11.777119537276032"><ele>264.66666666666663</ele><time>2026-04-19T06:14:00.973Z</time></trkpt><trkpt lat="43.437544389202486" lon="11.777010520001298"><ele>265.0</ele><time>2026-04-19T06:14:02.973Z</time></trkpt><trkpt lat="43.437519301288305" lon="11.776887837916664"><ele>265.0</ele><time>2026-04-19T06:14:04.973Z</time></trkpt><trkpt lat="43.43748743281761" lon="11.776768661078991"><ele>265.0</ele><time>2026-04-19T06:14:06.973Z</time></trkpt><trkpt lat="43.43746563783682" lon="11.776641636698798"><ele>265.0</ele><time>2026-04-19T06:14:08.973Z</time></trkpt><trkpt lat="43.437439100631714" lon="11.776523896216652"><ele>265.0</ele><time>2026-04-19T06:14:10.972Z</time></trkpt><trkpt lat="43.437410640402845" lon="11.776397880409547"><ele>265.0</ele><time>2026-04-19T06:14:12.972Z</time></trkpt><trkpt lat="43.43738824264883" lon="11.776273837935042"><ele>265.0</ele><time>2026-04-19T06:14:14.972Z</time></trkpt><trkpt lat="43.43735818633458" lon="11.776157870869996"><ele>265.0</ele><time>2026-04-19T06:14:16.972Z</time></trkpt><trkpt lat="43.43733534212146" lon="11.776039769814446"><ele>265.0</ele><time>2026-04-19T06:14:18.972Z</time></trkpt><trkpt lat="43.43730401819845" lon="11.77591861731586"><ele>265.0</ele><time>2026-04-19T06:14:20.972Z</time></trkpt><trkpt lat="43.43727480205729" lon="11.77578751635395"><ele>265.0</ele><time>2026-04-19T06:14:22.972Z</time></trkpt><trkpt lat="43.437242880095326" lon="11.77566287116675"><ele>265.0</ele><time>2026-04-19T06:14:24.972Z</time></trkpt><trkpt lat="43.43720779686311" lon="11.775525941201922"><ele>265.0</ele><time>2026-04-19T06:14:26.972Z</time></trkpt><trkpt lat="43.43717480711562" lon="11.775386865891429"><ele>265.0</ele><time>2026-04-19T06:14:28.972Z</time></trkpt><trkpt lat="43.437145240811695" lon="11.775252957482147"><ele>265.0</ele><time>2026-04-19T06:14:30.972Z</time></trkpt><trkpt lat="43.43711612274008" lon="11.775122196031353"><ele>265.0</ele><time>2026-04-19T06:14:32.972Z</time></trkpt><trkpt lat="43.437094044974195" lon="11.774995959079105"><ele>265.6</ele><time>2026-04-19T06:14:34.972Z</time></trkpt><trkpt lat="43.43706203684588" lon="11.774849337572702"><ele>266.2</ele><time>2026-04-19T06:14:36.972Z</time></trkpt><trkpt lat="43.43703518933388" lon="11.77471307593965"><ele>266.8</ele><time>2026-04-19T06:14:38.972Z</time></trkpt><trkpt lat="43.437012680106335" lon="11.774584900121026"><ele>267.4</ele><time>2026-04-19T06:14:40.972Z</time></trkpt><trkpt lat="43.43697904547792" lon="11.774456549403617"><ele>268.0</ele><time>2026-04-19T06:14:42.972Z</time></trkpt><trkpt lat="43.43696512708625" lon="11.77433072576574"><ele>268.2857142857143</ele><time>2026-04-19T06:14:44.972Z</time></trkpt><trkpt lat="43.436948003784615" lon="11.77422649019236"><ele>268.57142857142856</ele><time>2026-04-19T06:14:46.972Z</time></trkpt><trkpt lat="43.436932766012674" lon="11.774128672038582"><ele>268.85714285714283</ele><time>2026-04-19T06:14:48.972Z</time></trkpt><trkpt lat="43.43690867996301" lon="11.774043841177107"><ele>269.1428571428571</ele><time>2026-04-19T06:14:50.972Z</time></trkpt><trkpt lat="43.43688052947223" lon="11.77395149009914"><ele>269.4285714285714</ele><time>2026-04-19T06:14:53.972Z</time></trkpt><trkpt lat="43.436868724257" lon="11.77385857266831"><ele>269.7142857142857</ele><time>2026-04-19T06:14:56.972Z</time></trkpt><trkpt lat="43.43687857285999" lon="11.773768820309828"><ele>270.0</ele><time>2026-04-19T06:14:58.972Z</time></trkpt><trkpt lat="43.4368693114155" lon="11.773676963206137"><ele>270.0</ele><time>2026-04-19T06:15:00.972Z</time></trkpt><trkpt lat="43.436877339894735" lon="11.773580063731853"><ele>270.0</ele><time>2026-04-19T06:15:02.972Z</time></trkpt><trkpt lat="43.43687502538575" lon="11.773479696809979"><ele>270.0</ele><time>2026-04-19T06:15:04.972Z</time></trkpt><trkpt lat="43.436866785590425" lon="11.773364937587887"><ele>270.0</ele><time>2026-04-19T06:15:06.972Z</time></trkpt><trkpt lat="43.43686413147798" lon="11.773264064681122"><ele>270.0</ele><time>2026-04-19T06:15:08.972Z</time></trkpt><trkpt lat="43.43686751007594" lon="11.773170934542993"><ele>270.0</ele><time>2026-04-19T06:15:10.972Z</time></trkpt><trkpt lat="43.43687054162062" lon="11.773068436491991"><ele>270.0</ele><time>2026-04-19T06:15:12.972Z</time></trkpt><trkpt lat="43.43687578474733" lon="11.772960483099968"><ele>270.1428571428571</ele><time>2026-04-19T06:15:14.972Z</time></trkpt><trkpt lat="43.43688618495619" lon="11.772862432736318"><ele>270.2857142857143</ele><time>2026-04-19T06:15:16.972Z</time></trkpt><trkpt lat="43.43688813437152" lon="11.77276947916029"><ele>270.42857142857144</ele><time>2026-04-19T06:15:18.972Z</time></trkpt><trkpt lat="43.436896575019894" lon="11.772672008915736"><ele>270.57142857142856</ele><time>2026-04-19T06:15:20.972Z</time></trkpt><trkpt lat="43.43690646371918" lon="11.772567410812256"><ele>270.7142857142857</ele><time>2026-04-19T06:15:22.972Z</time></trkpt><trkpt lat="43.43693516054157" lon="11.772485782657737"><ele>270.85714285714283</ele><time>2026-04-19T06:15:24.972Z</time></trkpt><trkpt lat="43.43694220340558" lon="11.77239594714302"><ele>271.0</ele><time>2026-04-19T06:15:26.972Z</time></trkpt><trkpt lat="43.43694771151829" lon="11.772259586223589"><ele>271.66666666666663</ele><time>2026-04-19T06:15:29.972Z</time></trkpt><trkpt lat="43.43695320530472" lon="11.772172556178012"><ele>272.3333333333333</ele><time>2026-04-19T06:15:31.972Z</time></trkpt><trkpt lat="43.43696578723524" lon="11.772046976132648"><ele>273.0</ele><time>2026-04-19T06:15:34.972Z</time></trkpt><trkpt lat="43.43696516404548" lon="11.77192518177594"><ele>273.6666666666667</ele><time>2026-04-19T06:15:37.972Z</time></trkpt><trkpt lat="43.436977698953406" lon="11.771812519907227"><ele>274.33333333333337</ele><time>2026-04-19T06:15:40.972Z</time></trkpt><trkpt lat="43.43700868011206" lon="11.771702364588467"><ele>275.0</ele><time>2026-04-19T06:15:43.972Z</time></trkpt><trkpt lat="43.43703599781086" lon="11.771592843284884"><ele>275.2857142857143</ele><time>2026-04-19T06:15:46.972Z</time></trkpt><trkpt lat="43.437071145546874" lon="11.77149374550566"><ele>275.57142857142856</ele><time>2026-04-19T06:15:49.972Z</time></trkpt><trkpt lat="43.4371225023673" lon="11.771403675421919"><ele>275.85714285714283</ele><time>2026-04-19T06:15:52.972Z</time></trkpt><trkpt lat="43.437146185693905" lon="11.771316710528245"><ele>276.1428571428571</ele><time>2026-04-19T06:15:54.972Z</time></trkpt><trkpt lat="43.43716890601337" lon="11.771212069468428"><ele>276.4285714285714</ele><time>2026-04-19T06:15:57.972Z</time></trkpt><trkpt lat="43.437182156819" lon="11.771119904103779"><ele>276.7142857142857</ele><time>2026-04-19T06:16:00.971Z</time></trkpt><trkpt lat="43.437188386297485" lon="11.77102708984551"><ele>277.0</ele><time>2026-04-19T06:16:03.971Z</time></trkpt><trkpt lat="43.43720973275823" lon="11.770915494852373"><ele>277.5</ele><time>2026-04-19T06:16:06.971Z</time></trkpt><trkpt lat="43.43717678419736" lon="11.770803204079208"><ele>278.0</ele><time>2026-04-19T06:16:09.97Z</time></trkpt><trkpt lat="43.43713913942345" lon="11.770694416022744"><ele>278.5</ele><time>2026-04-19T06:16:12.97Z</time></trkpt><trkpt lat="43.437101169449946" lon="11.770590664541952"><ele>279.0</ele><time>2026-04-19T06:16:15.97Z</time></trkpt><trkpt lat="43.43706420919091" lon="11.770489671642657"><ele>279.5</ele><time>2026-04-19T06:16:18.971Z</time></trkpt><trkpt lat="43.437026315732325" lon="11.770386128393294"><ele>280.0</ele><time>2026-04-19T06:16:21.971Z</time></trkpt><trkpt lat="43.43699309584728" lon="11.770279981226059"><ele>280.66666666666663</ele><time>2026-04-19T06:16:24.971Z</time></trkpt><trkpt lat="43.436957516691855" lon="11.770182133335176"><ele>281.3333333333333</ele><time>2026-04-19T06:16:27.971Z</time></trkpt><trkpt lat="43.436971040643684" lon="11.770068021324322"><ele>282.0</ele><time>2026-04-19T06:16:30.971Z</time></trkpt><trkpt lat="43.4369386595842" lon="11.769963194676158"><ele>282.6666666666667</ele><time>2026-04-19T06:16:34.971Z</time></trkpt><trkpt lat="43.43703113068763" lon="11.769873283585206"><ele>283.33333333333337</ele><time>2026-04-19T06:16:36.971Z</time></trkpt><trkpt lat="43.437075526178425" lon="11.769790768581199"><ele>284.0</ele><time>2026-04-19T06:16:39.971Z</time></trkpt><trkpt lat="43.43710444263436" lon="11.769701974946235"><ele>284.0</ele><time>2026-04-19T06:16:42.971Z</time></trkpt><trkpt lat="43.437126804278165" lon="11.769599531227266"><ele>284.0</ele><time>2026-04-19T06:16:45.971Z</time></trkpt><trkpt lat="43.4371535013762" lon="11.769506762022619"><ele>284.0</ele><time>2026-04-19T06:16:48.971Z</time></trkpt><trkpt lat="43.437177085018476" lon="11.76941948875123"><ele>284.0</ele><time>2026-04-19T06:16:51.971Z</time></trkpt><trkpt lat="43.43721358139813" lon="11.769332776986609"><ele>284.0</ele><time>2026-04-19T06:16:54.971Z</time></trkpt><trkpt lat="43.437234162734654" lon="11.769229245241357"><ele>284.0</ele><time>2026-04-19T06:16:57.971Z</time></trkpt><trkpt lat="43.43723575021555" lon="11.769127417638035"><ele>284.0</ele><time>2026-04-19T06:17:00.971Z</time></trkpt><trkpt lat="43.43724834513996" lon="11.769029105484453"><ele>285.1428571428571</ele><time>2026-04-19T06:17:03.971Z</time></trkpt><trkpt lat="43.43727090050234" lon="11.76893454024078"><ele>286.2857142857143</ele><time>2026-04-19T06:17:06.971Z</time></trkpt><trkpt lat="43.43726466639204" lon="11.768830974409648"><ele>287.42857142857144</ele><time>2026-04-19T06:17:09.971Z</time></trkpt><trkpt lat="43.43723586122322" lon="11.768744958261635"><ele>288.57142857142856</ele><time>2026-04-19T06:17:12.971Z</time></trkpt><trkpt lat="43.43721754788193" lon="11.768654040900914"><ele>289.7142857142857</ele><time>2026-04-19T06:17:15.97Z</time></trkpt><trkpt lat="43.437187273543834" lon="11.768577329252704"><ele>290.85714285714283</ele><time>2026-04-19T06:17:18.97Z</time></trkpt><trkpt lat="43.437155961322986" lon="11.768491305745558"><ele>292.0</ele><time>2026-04-19T06:17:21.97Z</time></trkpt><trkpt lat="43.43709604940354" lon="11.768424208595523"><ele>292.0</ele><time>2026-04-19T06:17:24.97Z</time></trkpt><trkpt lat="43.43702345013666" lon="11.768351387218793"><ele>292.0</ele><time>2026-04-19T06:17:27.97Z</time></trkpt><trkpt lat="43.43694759562186" lon="11.768280105561475"><ele>292.0</ele><time>2026-04-19T06:17:30.97Z</time></trkpt><trkpt lat="43.43690675313789" lon="11.768209544082946"><ele>292.0</ele><time>2026-04-19T06:17:33.97Z</time></trkpt><trkpt lat="43.436995576746305" lon="11.768033021386028"><ele>292.0</ele><time>2026-04-19T06:17:38.97Z</time></trkpt><trkpt lat="43.43705419139271" lon="11.767934177833014"><ele>292.0</ele><time>2026-04-19T06:17:41.97Z</time></trkpt><trkpt lat="43.437105945643154" lon="11.767857496788492"><ele>292.0</ele><time>2026-04-19T06:17:44.97Z</time></trkpt><trkpt lat="43.43715663263678" lon="11.767789518543916"><ele>292.0</ele><time>2026-04-19T06:17:47.97Z</time></trkpt><trkpt lat="43.43721455949829" lon="11.767715782608892"><ele>292.0</ele><time>2026-04-19T06:17:50.97Z</time></trkpt><trkpt lat="43.43726969622509" lon="11.767632375759014"><ele>292.0</ele><time>2026-04-19T06:17:53.97Z</time></trkpt><trkpt lat="43.43731791257937" lon="11.767562264700429"><ele>292.0</ele><time>2026-04-19T06:17:56.97Z</time></trkpt><trkpt lat="43.43736686744004" lon="11.767501277800111"><ele>292.0</ele><time>2026-04-19T06:17:59.97Z</time></trkpt><trkpt lat="43.43742191288182" lon="11.767456904319374"><ele>294.1428571428571</ele><time>2026-04-19T06:18:02.97Z</time></trkpt><trkpt lat="43.43749229544204" lon="11.767416404177075"><ele>296.2857142857143</ele><time>2026-04-19T06:18:06.968Z</time></trkpt><trkpt lat="43.437557415988095" lon="11.767388882564656"><ele>298.42857142857144</ele><time>2026-04-19T06:18:09.968Z</time></trkpt><trkpt lat="43.437620204216266" lon="11.767368425765781"><ele>300.57142857142856</ele><time>2026-04-19T06:18:12.967Z</time></trkpt><trkpt lat="43.437698296666866" lon="11.767335108707911"><ele>302.7142857142857</ele><time>2026-04-19T06:18:16.967Z</time></trkpt><trkpt lat="43.437771507184046" lon="11.767300495618093"><ele>304.85714285714283</ele><time>2026-04-19T06:18:20.968Z</time></trkpt><trkpt lat="43.437850414930594" lon="11.767276943276695"><ele>307.0</ele><time>2026-04-19T06:18:24.968Z</time></trkpt><trkpt lat="43.43792983504717" lon="11.767258788782414"><ele>309.3333333333333</ele><time>2026-04-19T06:18:28.968Z</time></trkpt><trkpt lat="43.43800419786969" lon="11.767251199482736"><ele>311.66666666666663</ele><time>2026-04-19T06:18:32.968Z</time></trkpt><trkpt lat="43.43808387620469" lon="11.767266952989537"><ele>314.0</ele><time>2026-04-19T06:18:36.968Z</time></trkpt><trkpt lat="43.43816396322059" lon="11.767287618278122"><ele>316.3333333333333</ele><time>2026-04-19T06:18:40.968Z</time></trkpt><trkpt lat="43.43823932702458" lon="11.767287001768613"><ele>318.6666666666667</ele><time>2026-04-19T06:18:44.968Z</time></trkpt><trkpt lat="43.43831413607146" lon="11.76729181121282"><ele>321.0</ele><time>2026-04-19T06:18:48.968Z</time></trkpt><trkpt lat="43.438390736538686" lon="11.767293267548181"><ele>321.0</ele><time>2026-04-19T06:18:52.968Z</time></trkpt><trkpt lat="43.43847005942924" lon="11.767289515604201"><ele>321.0</ele><time>2026-04-19T06:18:56.968Z</time></trkpt><trkpt lat="43.43854194454009" lon="11.767287336205618"><ele>321.0</ele><time>2026-04-19T06:18:59.968Z</time></trkpt><trkpt lat="43.43862169370031" lon="11.767256315909997"><ele>321.0</ele><time>2026-04-19T06:19:03.968Z</time></trkpt><trkpt lat="43.43868230307633" lon="11.76722865989281"><ele>321.0</ele><time>2026-04-19T06:19:06.968Z</time></trkpt><trkpt lat="43.43874963083459" lon="11.76715823765903"><ele>321.0</ele><time>2026-04-19T06:19:10.968Z</time></trkpt><trkpt lat="43.438801783240756" lon="11.76707222793383"><ele>322.1428571428571</ele><time>2026-04-19T06:19:14.968Z</time></trkpt><trkpt lat="43.43884789944861" lon="11.766992691762429"><ele>323.2857142857143</ele><time>2026-04-19T06:19:18.968Z</time></trkpt><trkpt lat="43.43890260554891" lon="11.766914721283"><ele>324.42857142857144</ele><time>2026-04-19T06:19:22.968Z</time></trkpt><trkpt lat="43.43895030008542" lon="11.766838043443663"><ele>325.57142857142856</ele><time>2026-04-19T06:19:26.968Z</time></trkpt><trkpt lat="43.43897787156628" lon="11.76674015179317"><ele>326.7142857142857</ele><time>2026-04-19T06:19:30.968Z</time></trkpt><trkpt lat="43.43900056772843" lon="11.766654702772977"><ele>327.85714285714283</ele><time>2026-04-19T06:19:33.968Z</time></trkpt><trkpt lat="43.43898204363059" lon="11.766563714970706"><ele>329.0</ele><time>2026-04-19T06:19:36.968Z</time></trkpt><trkpt lat="43.43896681814018" lon="11.766457118486723"><ele>330.14285714285717</ele><time>2026-04-19T06:19:40.968Z</time></trkpt><trkpt lat="43.43895466103625" lon="11.76637069627021"><ele>331.2857142857143</ele><time>2026-04-19T06:19:43.968Z</time></trkpt><trkpt lat="43.438922063793584" lon="11.766269373309736"><ele>332.42857142857144</ele><time>2026-04-19T06:19:47.968Z</time></trkpt><trkpt lat="43.43890085809971" lon="11.766166790623442"><ele>333.57142857142856</ele><time>2026-04-19T06:19:51.968Z</time></trkpt><trkpt lat="43.43887349063184" lon="11.766074015532134"><ele>334.7142857142857</ele><time>2026-04-19T06:19:55.968Z</time></trkpt><trkpt lat="43.438864937108626" lon="11.76598412429905"><ele>335.8571428571429</ele><time>2026-04-19T06:19:59.968Z</time></trkpt><trkpt lat="43.43884618189297" lon="11.765895221338546"><ele>337.0</ele><time>2026-04-19T06:20:03.968Z</time></trkpt><trkpt lat="43.43897210484063" lon="11.765812996164085"><ele>338.00000000000006</ele><time>2026-04-19T06:20:06.967Z</time></trkpt><trkpt lat="43.43903850744621" lon="11.765786957988897"><ele>339.0</ele><time>2026-04-19T06:20:09.967Z</time></trkpt><trkpt lat="43.439098861067635" lon="11.76575685495983"><ele>340.0</ele><time>2026-04-19T06:20:12.965Z</time></trkpt><trkpt lat="43.43915554612454" lon="11.765688890090258"><ele>341.0</ele><time>2026-04-19T06:20:16.965Z</time></trkpt><trkpt lat="43.4392004112842" lon="11.765610257575391"><ele>342.0</ele><time>2026-04-19T06:20:20.965Z</time></trkpt><trkpt lat="43.43924465292737" lon="11.765532677837479"><ele>343.00000000000006</ele><time>2026-04-19T06:20:24.965Z</time></trkpt><trkpt lat="43.439302127675205" lon="11.765464775385666"><ele>344.0</ele><time>2026-04-19T06:20:28.965Z</time></trkpt><trkpt lat="43.439377412762695" lon="11.765431301434976"><ele>344.0</ele><time>2026-04-19T06:20:33.965Z</time></trkpt><trkpt lat="43.43944691244676" lon="11.765394476073268"><ele>344.0</ele><time>2026-04-19T06:20:37.965Z</time></trkpt><trkpt lat="43.439515358893786" lon="11.765363783808441"><ele>344.0</ele><time>2026-04-19T06:20:41.965Z</time></trkpt><trkpt lat="43.439586950121665" lon="11.765342676027373"><ele>344.0</ele><time>2026-04-19T06:20:44.965Z</time></trkpt><trkpt lat="43.43967006298382" lon="11.765327173325494"><ele>344.0</ele><time>2026-04-19T06:20:48.965Z</time></trkpt><trkpt lat="43.439735224465" lon="11.765326608055085"><ele>344.0</ele><time>2026-04-19T06:20:51.965Z</time></trkpt><trkpt lat="43.43981928083788" lon="11.765335737434675"><ele>346.28571428571433</ele><time>2026-04-19T06:20:55.965Z</time></trkpt><trkpt lat="43.43989953131766" lon="11.765334577467408"><ele>348.57142857142856</ele><time>2026-04-19T06:20:59.965Z</time></trkpt><trkpt lat="43.43996249997932" lon="11.76532988524261"><ele>350.8571428571429</ele><time>2026-04-19T06:21:02.965Z</time></trkpt><trkpt lat="43.44003812475036" lon="11.765327150109105"><ele>353.14285714285717</ele><time>2026-04-19T06:21:06.965Z</time></trkpt><trkpt lat="43.440103575528944" lon="11.765326044956735"><ele>355.42857142857144</ele><time>2026-04-19T06:21:09.965Z</time></trkpt><trkpt lat="43.44017175208662" lon="11.765323766947004"><ele>357.7142857142857</ele><time>2026-04-19T06:21:12.965Z</time></trkpt><trkpt lat="43.440241790806475" lon="11.765313059205925"><ele>360.0</ele><time>2026-04-19T06:21:15.965Z</time></trkpt><trkpt lat="43.44032574040691" lon="11.76531178146566"><ele>360.0</ele><time>2026-04-19T06:21:19.965Z</time></trkpt><trkpt lat="43.44038906251836" lon="11.765300295894825"><ele>360.0</ele><time>2026-04-19T06:21:23.965Z</time></trkpt><trkpt lat="43.44045726247022" lon="11.76531251902378"><ele>360.0</ele><time>2026-04-19T06:21:27.965Z</time></trkpt><trkpt lat="43.44052660998988" lon="11.765360122840162"><ele>360.0</ele><time>2026-04-19T06:21:31.965Z</time></trkpt><trkpt lat="43.44060335207913" lon="11.76538282441643"><ele>360.0</ele><time>2026-04-19T06:21:35.965Z</time></trkpt><trkpt lat="43.440683752800844" lon="11.765359405025922"><ele>360.0</ele><time>2026-04-19T06:21:38.965Z</time></trkpt><trkpt lat="43.44075178136771" lon="11.765341152800442"><ele>360.0</ele><time>2026-04-19T06:21:41.965Z</time></trkpt><trkpt lat="43.44081259985497" lon="11.765317487153029"><ele>361.6666666666667</ele><time>2026-04-19T06:21:44.965Z</time></trkpt><trkpt lat="43.44088727615172" lon="11.765291986680909"><ele>363.3333333333333</ele><time>2026-04-19T06:21:48.965Z</time></trkpt><trkpt lat="43.44095999558761" lon="11.76523127445935"><ele>365.0</ele><time>2026-04-19T06:21:52.965Z</time></trkpt><trkpt lat="43.44100795206928" lon="11.765154027296473"><ele>366.66666666666663</ele><time>2026-04-19T06:21:56.965Z</time></trkpt><trkpt lat="43.44104813812701" lon="11.7650671042955"><ele>368.3333333333333</ele><time>2026-04-19T06:22:00.964Z</time></trkpt><trkpt lat="43.44108312632128" lon="11.764960390192435"><ele>370.0</ele><time>2026-04-19T06:22:04.964Z</time></trkpt><trkpt lat="43.44109530590098" lon="11.764867700133218"><ele>371.66666666666663</ele><time>2026-04-19T06:22:08.964Z</time></trkpt><trkpt lat="43.44103305987467" lon="11.764703906117154"><ele>373.3333333333333</ele><time>2026-04-19T06:22:13.964Z</time></trkpt><trkpt lat="43.4410577086667" lon="11.764620583367329"><ele>375.0</ele><time>2026-04-19T06:22:17.963Z</time></trkpt><trkpt lat="43.44112984227992" lon="11.764540224122284"><ele>376.6666666666667</ele><time>2026-04-19T06:22:22.962Z</time></trkpt><trkpt lat="43.4411744933448" lon="11.764466868206455"><ele>378.33333333333337</ele><time>2026-04-19T06:22:26.963Z</time></trkpt><trkpt lat="43.44123024013603" lon="11.764394774347702"><ele>380.0</ele><time>2026-04-19T06:22:30.962Z</time></trkpt><trkpt lat="43.441285449708595" lon="11.764313569213344"><ele>383.14285714285717</ele><time>2026-04-19T06:22:34.962Z</time></trkpt><trkpt lat="43.44132750960845" lon="11.76424172329049"><ele>386.28571428571433</ele><time>2026-04-19T06:22:38.962Z</time></trkpt><trkpt lat="43.44138149706033" lon="11.764190419631223"><ele>389.42857142857144</ele><time>2026-04-19T06:22:41.962Z</time></trkpt><trkpt lat="43.441450975509255" lon="11.76414264245005"><ele>392.57142857142856</ele><time>2026-04-19T06:22:45.962Z</time></trkpt><trkpt lat="43.44150552646941" lon="11.76408105478506"><ele>395.7142857142857</ele><time>2026-04-19T06:22:48.962Z</time></trkpt><trkpt lat="43.441566060199385" lon="11.76404232094388"><ele>398.85714285714283</ele><time>2026-04-19T06:22:51.962Z</time></trkpt><trkpt lat="43.4416262483999" lon="11.763966924378472"><ele>402.0</ele><time>2026-04-19T06:22:55.962Z</time></trkpt><trkpt lat="43.44167706618832" lon="11.76387612257506"><ele>402.0</ele><time>2026-04-19T06:22:59.962Z</time></trkpt><trkpt lat="43.44171047229643" lon="11.763766493087152"><ele>402.0</ele><time>2026-04-19T06:23:02.962Z</time></trkpt><trkpt lat="43.44171955238274" lon="11.763663259660524"><ele>402.0</ele><time>2026-04-19T06:23:05.962Z</time></trkpt><trkpt lat="43.441719944914176" lon="11.763571129031913"><ele>402.0</ele><time>2026-04-19T06:23:08.962Z</time></trkpt><trkpt lat="43.441722658624" lon="11.763472195900619"><ele>402.0</ele><time>2026-04-19T06:23:11.962Z</time></trkpt><trkpt lat="43.4417392632462" lon="11.763356032765126"><ele>402.0</ele><time>2026-04-19T06:23:14.962Z</time></trkpt><trkpt lat="43.441765015453555" lon="11.763253103388305"><ele>401.1666666666667</ele><time>2026-04-19T06:23:18.962Z</time></trkpt><trkpt lat="43.44181560396361" lon="11.763166620948917"><ele>400.33333333333337</ele><time>2026-04-19T06:23:22.962Z</time></trkpt><trkpt lat="43.441885207440286" lon="11.763156683766184"><ele>399.5</ele><time>2026-04-19T06:23:25.962Z</time></trkpt><trkpt lat="43.44196100144047" lon="11.76309997621421"><ele>398.6666666666667</ele><time>2026-04-19T06:23:28.962Z</time></trkpt><trkpt lat="43.442028060019574" lon="11.763092115152824"><ele>397.83333333333337</ele><time>2026-04-19T06:23:31.962Z</time></trkpt><trkpt lat="43.442117288921715" lon="11.763057605356863"><ele>397.0</ele><time>2026-04-19T06:23:34.962Z</time></trkpt><trkpt lat="43.442207322298934" lon="11.7630228952126"><ele>397.0</ele><time>2026-04-19T06:23:37.962Z</time></trkpt><trkpt lat="43.44227422745933" lon="11.762988695721821"><ele>397.0</ele><time>2026-04-19T06:23:39.962Z</time></trkpt><trkpt lat="43.442331299432084" lon="11.762950575673155"><ele>397.0</ele><time>2026-04-19T06:23:41.962Z</time></trkpt><trkpt lat="43.4424010211264" lon="11.76288979032494"><ele>397.0</ele><time>2026-04-19T06:23:44.962Z</time></trkpt><trkpt lat="43.44244967126773" lon="11.762827763359688"><ele>397.0</ele><time>2026-04-19T06:23:46.962Z</time></trkpt><trkpt lat="43.442487676544395" lon="11.762741151694769"><ele>397.0</ele><time>2026-04-19T06:23:48.962Z</time></trkpt><trkpt lat="43.44249906338166" lon="11.762635959824996"><ele>397.0</ele><time>2026-04-19T06:23:50.962Z</time></trkpt><trkpt lat="43.4424902090549" lon="11.76251304910534"><ele>396.83333333333337</ele><time>2026-04-19T06:23:53.962Z</time></trkpt><trkpt lat="43.44247808025967" lon="11.762414675626061"><ele>396.6666666666667</ele><time>2026-04-19T06:23:56.962Z</time></trkpt><trkpt lat="43.442457044796335" lon="11.762327580103948"><ele>396.5</ele><time>2026-04-19T06:23:59.962Z</time></trkpt><trkpt lat="43.442533014948566" lon="11.762293608494092"><ele>396.33333333333337</ele><time>2026-04-19T06:24:02.962Z</time></trkpt><trkpt lat="43.44261218659899" lon="11.76224482368645"><ele>396.1666666666667</ele><time>2026-04-19T06:24:05.962Z</time></trkpt><trkpt lat="43.44265997857585" lon="11.762131781647206"><ele>396.0</ele><time>2026-04-19T06:24:08.962Z</time></trkpt><trkpt lat="43.442669862757576" lon="11.762035430085605"><ele>396.0</ele><time>2026-04-19T06:24:10.962Z</time></trkpt><trkpt lat="43.44264575940355" lon="11.761923026986706"><ele>396.0</ele><time>2026-04-19T06:24:13.962Z</time></trkpt><trkpt lat="43.44261723141253" lon="11.761830445247067"><ele>396.0</ele><time>2026-04-19T06:24:16.962Z</time></trkpt><trkpt lat="43.442589666822535" lon="11.761737813462823"><ele>396.0</ele><time>2026-04-19T06:24:19.962Z</time></trkpt><trkpt lat="43.44255191475043" lon="11.761652821083763"><ele>396.0</ele><time>2026-04-19T06:24:22.96Z</time></trkpt><trkpt lat="43.44252486382374" lon="11.7615531990052"><ele>396.0</ele><time>2026-04-19T06:24:25.96Z</time></trkpt><trkpt lat="43.44250228568418" lon="11.761451902982753"><ele>396.5714285714286</ele><time>2026-04-19T06:24:28.96Z</time></trkpt><trkpt lat="43.44248320850226" lon="11.761354687785845"><ele>397.1428571428571</ele><time>2026-04-19T06:24:31.959Z</time></trkpt><trkpt lat="43.44247384541561" lon="11.761267574071441"><ele>397.7142857142857</ele><time>2026-04-19T06:24:33.959Z</time></trkpt><trkpt lat="43.44246475032983" lon="11.761162943396467"><ele>398.28571428571433</ele><time>2026-04-19T06:24:36.959Z</time></trkpt><trkpt lat="43.44245175658877" lon="11.761060273585086"><ele>398.8571428571429</ele><time>2026-04-19T06:24:39.959Z</time></trkpt><trkpt lat="43.44243630381828" lon="11.760968978637266"><ele>399.42857142857144</ele><time>2026-04-19T06:24:42.959Z</time></trkpt><trkpt lat="43.44243688452353" lon="11.760877299094677"><ele>400.0</ele><time>2026-04-19T06:24:45.958Z</time></trkpt><trkpt lat="43.44242671895317" lon="11.760777219030672"><ele>400.7142857142857</ele><time>2026-04-19T06:24:48.958Z</time></trkpt><trkpt lat="43.442405622243335" lon="11.760686983765684"><ele>401.42857142857144</ele><time>2026-04-19T06:24:51.958Z</time></trkpt><trkpt lat="43.44242020119025" lon="11.760589941623376"><ele>402.1428571428571</ele><time>2026-04-19T06:24:54.958Z</time></trkpt><trkpt lat="43.442445336981976" lon="11.76049176337942"><ele>402.8571428571429</ele><time>2026-04-19T06:24:57.958Z</time></trkpt><trkpt lat="43.442471756365926" lon="11.760399121805426"><ele>403.57142857142856</ele><time>2026-04-19T06:25:00.958Z</time></trkpt><trkpt lat="43.44250589616652" lon="11.760323868210358"><ele>404.2857142857143</ele><time>2026-04-19T06:25:03.958Z</time></trkpt><trkpt lat="43.442553402518286" lon="11.760247117991518"><ele>405.0</ele><time>2026-04-19T06:25:06.958Z</time></trkpt><trkpt lat="43.44258516023777" lon="11.760156582715886"><ele>405.0</ele><time>2026-04-19T06:25:09.958Z</time></trkpt><trkpt lat="43.44264137905101" lon="11.76008544521882"><ele>405.0</ele><time>2026-04-19T06:25:12.958Z</time></trkpt><trkpt lat="43.44267784019971" lon="11.759987846701602"><ele>405.0</ele><time>2026-04-19T06:25:15.958Z</time></trkpt><trkpt lat="43.44271077405534" lon="11.759874761497787"><ele>405.0</ele><time>2026-04-19T06:25:18.958Z</time></trkpt><trkpt lat="43.442759727965864" lon="11.75978880527467"><ele>405.0</ele><time>2026-04-19T06:25:20.958Z</time></trkpt><trkpt lat="43.44280559239477" lon="11.759714891451047"><ele>405.0</ele><time>2026-04-19T06:25:22.958Z</time></trkpt><trkpt lat="43.44285295007452" lon="11.759633882986998"><ele>405.0</ele><time>2026-04-19T06:25:24.958Z</time></trkpt><trkpt lat="43.442905471780186" lon="11.759544759501942"><ele>405.0</ele><time>2026-04-19T06:25:26.958Z</time></trkpt><trkpt lat="43.442946047802195" lon="11.759444845920045"><ele>405.0</ele><time>2026-04-19T06:25:28.958Z</time></trkpt><trkpt lat="43.442992929396645" lon="11.759380096761896"><ele>405.0</ele><time>2026-04-19T06:25:30.958Z</time></trkpt><trkpt lat="43.44301390507499" lon="11.759266221006689"><ele>405.0</ele><time>2026-04-19T06:25:32.958Z</time></trkpt><trkpt lat="43.44298842287188" lon="11.759141893968524"><ele>405.0</ele><time>2026-04-19T06:25:34.958Z</time></trkpt><trkpt lat="43.442939299631576" lon="11.75904163357308"><ele>404.6666666666667</ele><time>2026-04-19T06:25:36.958Z</time></trkpt><trkpt lat="43.442888415468154" lon="11.758956273641022"><ele>404.33333333333337</ele><time>2026-04-19T06:25:38.958Z</time></trkpt><trkpt lat="43.44281912429426" lon="11.758856629406294"><ele>404.0</ele><time>2026-04-19T06:25:40.958Z</time></trkpt><trkpt lat="43.44276430248925" lon="11.758792505219306"><ele>403.6666666666667</ele><time>2026-04-19T06:25:42.958Z</time></trkpt><trkpt lat="43.44271340395918" lon="11.758735445121836"><ele>403.33333333333337</ele><time>2026-04-19T06:25:44.958Z</time></trkpt><trkpt lat="43.44265616612854" lon="11.758671808356558"><ele>403.0</ele><time>2026-04-19T06:25:46.958Z</time></trkpt><trkpt lat="43.44256921781942" lon="11.758585048751588"><ele>405.6666666666667</ele><time>2026-04-19T06:25:49.958Z</time></trkpt><trkpt lat="43.44251445093236" lon="11.758521428753937"><ele>408.33333333333337</ele><time>2026-04-19T06:25:51.958Z</time></trkpt><trkpt lat="43.44245198889968" lon="11.758456751926264"><ele>411.0</ele><time>2026-04-19T06:25:53.958Z</time></trkpt><trkpt lat="43.44239089935811" lon="11.758389126584552"><ele>413.66666666666663</ele><time>2026-04-19T06:25:55.958Z</time></trkpt><trkpt lat="43.44234778912632" lon="11.758314993880699"><ele>416.3333333333333</ele><time>2026-04-19T06:25:57.958Z</time></trkpt><trkpt lat="43.442316549045714" lon="11.758239662583003"><ele>419.0</ele><time>2026-04-19T06:25:59.958Z</time></trkpt><trkpt lat="43.44228094632429" lon="11.7581227757585"><ele>418.99999999999994</ele><time>2026-04-19T06:26:02.958Z</time></trkpt><trkpt lat="43.442247730394286" lon="11.758041074326709"><ele>419.0</ele><time>2026-04-19T06:26:04.958Z</time></trkpt><trkpt lat="43.44223138377819" lon="11.75794209600346"><ele>419.0</ele><time>2026-04-19T06:26:06.958Z</time></trkpt><trkpt lat="43.442216334110576" lon="11.757848634771085"><ele>419.0</ele><time>2026-04-19T06:26:08.958Z</time></trkpt><trkpt lat="43.442205460075705" lon="11.757760445381528"><ele>418.99999999999994</ele><time>2026-04-19T06:26:10.958Z</time></trkpt><trkpt lat="43.44217972056009" lon="11.757635319442876"><ele>419.0</ele><time>2026-04-19T06:26:13.958Z</time></trkpt><trkpt lat="43.44217309189776" lon="11.757513254534548"><ele>419.8333333333333</ele><time>2026-04-19T06:26:16.958Z</time></trkpt><trkpt lat="43.442180402135726" lon="11.75739019196089"><ele>420.66666666666663</ele><time>2026-04-19T06:26:19.958Z</time></trkpt><trkpt lat="43.442179511979994" lon="11.757290637577809"><ele>421.5</ele><time>2026-04-19T06:26:21.958Z</time></trkpt><trkpt lat="43.44218977441555" lon="11.757192291927657"><ele>422.33333333333337</ele><time>2026-04-19T06:26:23.958Z</time></trkpt><trkpt lat="43.44219152186538" lon="11.757103085307866"><ele>423.1666666666667</ele><time>2026-04-19T06:26:25.958Z</time></trkpt><trkpt lat="43.44218963507831" lon="11.757001775649583"><ele>424.0</ele><time>2026-04-19T06:26:27.958Z</time></trkpt><trkpt lat="43.44218088310452" lon="11.756877775447927"><ele>423.5714285714286</ele><time>2026-04-19T06:26:30.956Z</time></trkpt><trkpt lat="43.4421677345026" lon="11.756775549085676"><ele>423.1428571428571</ele><time>2026-04-19T06:26:32.956Z</time></trkpt><trkpt lat="43.442146186442926" lon="11.756685470837567"><ele>422.7142857142857</ele><time>2026-04-19T06:26:34.956Z</time></trkpt><trkpt lat="43.442110038151654" lon="11.756592719443884"><ele>422.28571428571433</ele><time>2026-04-19T06:26:36.956Z</time></trkpt><trkpt lat="43.442053914711124" lon="11.75650813653229"><ele>421.8571428571429</ele><time>2026-04-19T06:26:38.956Z</time></trkpt><trkpt lat="43.44200378067397" lon="11.756450371324195"><ele>421.42857142857144</ele><time>2026-04-19T06:26:40.956Z</time></trkpt><trkpt lat="43.441954110229055" lon="11.756396565730432"><ele>421.0</ele><time>2026-04-19T06:26:42.955Z</time></trkpt><trkpt lat="43.441903210288636" lon="11.756338655429435"><ele>419.5714285714286</ele><time>2026-04-19T06:26:44.956Z</time></trkpt><trkpt lat="43.4418544224416" lon="11.756281501772891"><ele>418.14285714285717</ele><time>2026-04-19T06:26:46.956Z</time></trkpt><trkpt lat="43.44179519018777" lon="11.756222037020946"><ele>416.7142857142857</ele><time>2026-04-19T06:26:48.956Z</time></trkpt><trkpt lat="43.44173014464288" lon="11.756175434328222"><ele>415.28571428571433</ele><time>2026-04-19T06:26:50.956Z</time></trkpt><trkpt lat="43.44164881778534" lon="11.756156424494492"><ele>413.85714285714283</ele><time>2026-04-19T06:26:53.956Z</time></trkpt><trkpt lat="43.44157216198894" lon="11.756169700470267"><ele>412.42857142857144</ele><time>2026-04-19T06:26:56.956Z</time></trkpt><trkpt lat="43.44151042969864" lon="11.756135391936086"><ele>411.0</ele><time>2026-04-19T06:26:58.956Z</time></trkpt><trkpt lat="43.44144680110692" lon="11.756109910784057"><ele>411.0</ele><time>2026-04-19T06:27:00.956Z</time></trkpt><trkpt lat="43.44138050975728" lon="11.756081105293918"><ele>411.0</ele><time>2026-04-19T06:27:02.956Z</time></trkpt><trkpt lat="43.4413172016095" lon="11.756050676011563"><ele>411.0</ele><time>2026-04-19T06:27:04.956Z</time></trkpt><trkpt lat="43.44123001235943" lon="11.756009850431345"><ele>411.0</ele><time>2026-04-19T06:27:07.956Z</time></trkpt><trkpt lat="43.44117296630954" lon="11.75597255777944"><ele>411.0</ele><time>2026-04-19T06:27:09.956Z</time></trkpt><trkpt lat="43.441106980900756" lon="11.755952871897131"><ele>411.0</ele><time>2026-04-19T06:27:11.956Z</time></trkpt><trkpt lat="43.44101287654145" lon="11.7558994650091"><ele>411.8333333333333</ele><time>2026-04-19T06:27:14.956Z</time></trkpt><trkpt lat="43.44094786547743" lon="11.755884889268762"><ele>412.66666666666663</ele><time>2026-04-19T06:27:16.956Z</time></trkpt><trkpt lat="43.440881470123024" lon="11.755870003186406"><ele>413.5</ele><time>2026-04-19T06:27:18.956Z</time></trkpt><trkpt lat="43.440791385534524" lon="11.75586794160578"><ele>414.3333333333333</ele><time>2026-04-19T06:27:21.956Z</time></trkpt><trkpt lat="43.44070602030413" lon="11.755834350698546"><ele>415.16666666666663</ele><time>2026-04-19T06:27:24.956Z</time></trkpt><trkpt lat="43.440641470813866" lon="11.755801892130622"><ele>416.0</ele><time>2026-04-19T06:27:26.956Z</time></trkpt><trkpt lat="43.44057312410988" lon="11.755773377402967"><ele>415.99999999999994</ele><time>2026-04-19T06:27:28.956Z</time></trkpt><trkpt lat="43.44050545044254" lon="11.755735414011072"><ele>416.0</ele><time>2026-04-19T06:27:30.956Z</time></trkpt><trkpt lat="43.440430778838305" lon="11.755699055995214"><ele>416.0</ele><time>2026-04-19T06:27:32.956Z</time></trkpt><trkpt lat="43.44036331804606" lon="11.755659594066724"><ele>416.0</ele><time>2026-04-19T06:27:34.956Z</time></trkpt><trkpt lat="43.44028416154015" lon="11.755607949767642"><ele>415.99999999999994</ele><time>2026-04-19T06:27:37.956Z</time></trkpt><trkpt lat="43.44021979094032" lon="11.755580209117241"><ele>416.0</ele><time>2026-04-19T06:27:39.956Z</time></trkpt><trkpt lat="43.44013482586285" lon="11.755564990485356"><ele>416.49999999999994</ele><time>2026-04-19T06:27:42.956Z</time></trkpt><trkpt lat="43.44005448949192" lon="11.7555430535919"><ele>417.0</ele><time>2026-04-19T06:27:45.956Z</time></trkpt><trkpt lat="43.43997491750029" lon="11.755528592417626"><ele>417.5</ele><time>2026-04-19T06:27:48.956Z</time></trkpt><trkpt lat="43.43990028231209" lon="11.755505197283938"><ele>418.0</ele><time>2026-04-19T06:27:51.956Z</time></trkpt><trkpt lat="43.43981743751524" lon="11.755494297022597"><ele>418.49999999999994</ele><time>2026-04-19T06:27:54.956Z</time></trkpt><trkpt lat="43.43974861682007" lon="11.755459410682409"><ele>419.0</ele><time>2026-04-19T06:27:57.956Z</time></trkpt><trkpt lat="43.43970449302408" lon="11.755385154295425"><ele>418.99999999999994</ele><time>2026-04-19T06:28:00.956Z</time></trkpt><trkpt lat="43.43967835159929" lon="11.755301370422801"><ele>419.0</ele><time>2026-04-19T06:28:03.956Z</time></trkpt><trkpt lat="43.43963811323614" lon="11.755209045399747"><ele>419.0</ele><time>2026-04-19T06:28:07.956Z</time></trkpt><trkpt lat="43.439598745075855" lon="11.755134553615871"><ele>419.0</ele><time>2026-04-19T06:28:10.956Z</time></trkpt><trkpt lat="43.43955690596819" lon="11.755058429774085"><ele>419.0</ele><time>2026-04-19T06:28:13.956Z</time></trkpt><trkpt lat="43.43951179172431" lon="11.75498082062273"><ele>418.99999999999994</ele><time>2026-04-19T06:28:16.956Z</time></trkpt><trkpt lat="43.43946865868302" lon="11.754909222782965"><ele>419.0</ele><time>2026-04-19T06:28:19.956Z</time></trkpt><trkpt lat="43.4394280291534" lon="11.754839815963969"><ele>419.99999999999994</ele><time>2026-04-19T06:28:22.956Z</time></trkpt><trkpt lat="43.43938215702663" lon="11.754772930994317"><ele>421.0</ele><time>2026-04-19T06:28:25.956Z</time></trkpt><trkpt lat="43.43934003585449" lon="11.754693768248796"><ele>422.0</ele><time>2026-04-19T06:28:28.956Z</time></trkpt><trkpt lat="43.43930797844284" lon="11.754616907115185"><ele>423.0</ele><time>2026-04-19T06:28:31.955Z</time></trkpt><trkpt lat="43.43927129580288" lon="11.754538405555294"><ele>424.0</ele><time>2026-04-19T06:28:34.953Z</time></trkpt><trkpt lat="43.439242129549456" lon="11.754461199048544"><ele>424.99999999999994</ele><time>2026-04-19T06:28:37.953Z</time></trkpt><trkpt lat="43.43919358098761" lon="11.754370531099106"><ele>426.0</ele><time>2026-04-19T06:28:40.953Z</time></trkpt><trkpt lat="43.43916422731764" lon="11.754273574145108"><ele>429.3333333333333</ele><time>2026-04-19T06:28:44.952Z</time></trkpt><trkpt lat="43.4391132842795" lon="11.754185552689634"><ele>432.66666666666663</ele><time>2026-04-19T06:28:48.953Z</time></trkpt><trkpt lat="43.439078853051036" lon="11.754088042609796"><ele>436.0</ele><time>2026-04-19T06:28:52.953Z</time></trkpt><trkpt lat="43.43902669051497" lon="11.753999718422417"><ele>439.3333333333333</ele><time>2026-04-19T06:28:57.953Z</time></trkpt><trkpt lat="43.43896945258717" lon="11.753934202061576"><ele>442.66666666666663</ele><time>2026-04-19T06:29:01.953Z</time></trkpt><trkpt lat="43.4389065786139" lon="11.753847128356085"><ele>446.0</ele><time>2026-04-19T06:29:06.953Z</time></trkpt><trkpt lat="43.438860062358735" lon="11.753768824703217"><ele>445.99999999999994</ele><time>2026-04-19T06:29:10.953Z</time></trkpt><trkpt lat="43.438803955735246" lon="11.753691925630605"><ele>446.0</ele><time>2026-04-19T06:29:14.953Z</time></trkpt><trkpt lat="43.43875353542969" lon="11.753616795613391"><ele>446.0</ele><time>2026-04-19T06:29:18.953Z</time></trkpt><trkpt lat="43.43870447920262" lon="11.753555108776277"><ele>446.0</ele><time>2026-04-19T06:29:21.953Z</time></trkpt><trkpt lat="43.4386639825681" lon="11.753457601410133"><ele>445.99999999999994</ele><time>2026-04-19T06:29:25.953Z</time></trkpt><trkpt lat="43.43864744576355" lon="11.753347806638837"><ele>446.0</ele><time>2026-04-19T06:29:29.953Z</time></trkpt><trkpt lat="43.43860196107132" lon="11.753272515011219"><ele>448.0</ele><time>2026-04-19T06:29:32.953Z</time></trkpt><trkpt lat="43.43855600102809" lon="11.753194273607578"><ele>450.0</ele><time>2026-04-19T06:29:36.953Z</time></trkpt><trkpt lat="43.43849872004657" lon="11.753138943752786"><ele>452.0</ele><time>2026-04-19T06:29:39.953Z</time></trkpt><trkpt lat="43.438438094672975" lon="11.753078811511225"><ele>454.0</ele><time>2026-04-19T06:29:42.953Z</time></trkpt><trkpt lat="43.43837389662782" lon="11.753042323897134"><ele>456.0</ele><time>2026-04-19T06:29:45.953Z</time></trkpt><trkpt lat="43.438295286105756" lon="11.753017477466782"><ele>457.99999999999994</ele><time>2026-04-19T06:29:48.953Z</time></trkpt><trkpt lat="43.4382197008785" lon="11.752994109169158"><ele>459.99999999999994</ele><time>2026-04-19T06:29:51.953Z</time></trkpt><trkpt lat="43.438138980402535" lon="11.752979078852631"><ele>460.00000000000006</ele><time>2026-04-19T06:29:54.953Z</time></trkpt><trkpt lat="43.43805931598651" lon="11.752917122037257"><ele>460.0</ele><time>2026-04-19T06:29:57.953Z</time></trkpt><trkpt lat="43.437999278541675" lon="11.752852550085676"><ele>460.0</ele><time>2026-04-19T06:30:00.953Z</time></trkpt><trkpt lat="43.4379469676423" lon="11.75277277313732"><ele>460.0</ele><time>2026-04-19T06:30:03.953Z</time></trkpt><trkpt lat="43.43787710001112" lon="11.752712284560035"><ele>460.00000000000006</ele><time>2026-04-19T06:30:06.953Z</time></trkpt><trkpt lat="43.43780750714919" lon="11.752680398371272"><ele>460.0</ele><time>2026-04-19T06:30:09.953Z</time></trkpt><trkpt lat="43.43774259031307" lon="11.752657862873205"><ele>461.00000000000006</ele><time>2026-04-19T06:30:12.953Z</time></trkpt><trkpt lat="43.43766474780354" lon="11.752631657788339"><ele>462.0</ele><time>2026-04-19T06:30:15.953Z</time></trkpt><trkpt lat="43.43759763570229" lon="11.752606631249616"><ele>463.0</ele><time>2026-04-19T06:30:18.953Z</time></trkpt><trkpt lat="43.437517846902516" lon="11.752577027983303"><ele>464.0</ele><time>2026-04-19T06:30:21.953Z</time></trkpt><trkpt lat="43.43744251339006" lon="11.752566901270209"><ele>465.00000000000006</ele><time>2026-04-19T06:30:24.953Z</time></trkpt><trkpt lat="43.43737292294415" lon="11.752527400307391"><ele>466.0</ele><time>2026-04-19T06:30:27.953Z</time></trkpt><trkpt lat="43.43730531724259" lon="11.752497554668084"><ele>466.00000000000006</ele><time>2026-04-19T06:30:30.953Z</time></trkpt><trkpt lat="43.437243497026735" lon="11.752457743691405"><ele>466.0</ele><time>2026-04-19T06:30:33.953Z</time></trkpt><trkpt lat="43.43716533334041" lon="11.752421681386878"><ele>466.0</ele><time>2026-04-19T06:30:36.952Z</time></trkpt><trkpt lat="43.43708696748614" lon="11.752377947715106"><ele>466.0</ele><time>2026-04-19T06:30:39.952Z</time></trkpt><trkpt lat="43.43699956787594" lon="11.752332513618327"><ele>466.00000000000006</ele><time>2026-04-19T06:30:42.95Z</time></trkpt><trkpt lat="43.43692152865706" lon="11.752275024444147"><ele>466.0</ele><time>2026-04-19T06:30:45.95Z</time></trkpt><trkpt lat="43.43684684302272" lon="11.752212293843632"><ele>466.6666666666667</ele><time>2026-04-19T06:30:48.95Z</time></trkpt><trkpt lat="43.436793025637506" lon="11.752157513693964"><ele>467.33333333333337</ele><time>2026-04-19T06:30:51.95Z</time></trkpt><trkpt lat="43.43672034601227" lon="11.752123400306159"><ele>468.0</ele><time>2026-04-19T06:30:54.95Z</time></trkpt><trkpt lat="43.43670307527375" lon="11.752019267207258"><ele>468.66666666666663</ele><time>2026-04-19T06:30:56.949Z</time></trkpt><trkpt lat="43.43665018033301" lon="11.751930214113786"><ele>469.3333333333333</ele><time>2026-04-19T06:30:59.95Z</time></trkpt><trkpt lat="43.43660740655654" lon="11.751837472301943"><ele>470.0</ele><time>2026-04-19T06:31:02.95Z</time></trkpt><trkpt lat="43.43656688784052" lon="11.751738450582884"><ele>470.16666666666663</ele><time>2026-04-19T06:31:05.95Z</time></trkpt><trkpt lat="43.4365412287139" lon="11.751621982542513"><ele>470.3333333333333</ele><time>2026-04-19T06:31:08.95Z</time></trkpt><trkpt lat="43.436506635714004" lon="11.751515060952528"><ele>470.5</ele><time>2026-04-19T06:31:11.95Z</time></trkpt><trkpt lat="43.436474650003326" lon="11.751415128757918"><ele>470.66666666666663</ele><time>2026-04-19T06:31:14.95Z</time></trkpt><trkpt lat="43.43643893348522" lon="11.751306990373498"><ele>470.8333333333333</ele><time>2026-04-19T06:31:17.95Z</time></trkpt><trkpt lat="43.43639444041594" lon="11.751191833739306"><ele>471.0</ele><time>2026-04-19T06:31:20.95Z</time></trkpt><trkpt lat="43.43635074016238" lon="11.751092405878383"><ele>470.5</ele><time>2026-04-19T06:31:23.95Z</time></trkpt><trkpt lat="43.436308421888455" lon="11.751003130729977"><ele>470.0</ele><time>2026-04-19T06:31:26.95Z</time></trkpt><trkpt lat="43.43625897855828" lon="11.750902472756616"><ele>469.5</ele><time>2026-04-19T06:31:29.95Z</time></trkpt><trkpt lat="43.436222170290364" lon="11.75083076476059"><ele>469.0</ele><time>2026-04-19T06:31:31.95Z</time></trkpt><trkpt lat="43.43617236308637" lon="11.750768118037037"><ele>468.5</ele><time>2026-04-19T06:31:33.95Z</time></trkpt><trkpt lat="43.43612978201058" lon="11.750668869648976"><ele>468.0</ele><time>2026-04-19T06:31:35.95Z</time></trkpt><trkpt lat="43.43608326768059" lon="11.750558321983299"><ele>468.59999999999997</ele><time>2026-04-19T06:31:37.95Z</time></trkpt><trkpt lat="43.436022635183036" lon="11.750413061619755"><ele>469.19999999999993</ele><time>2026-04-19T06:31:39.95Z</time></trkpt><trkpt lat="43.435956525755635" lon="11.750283152271171"><ele>469.8</ele><time>2026-04-19T06:31:41.95Z</time></trkpt><trkpt lat="43.435886566623424" lon="11.750127432939658"><ele>470.4</ele><time>2026-04-19T06:31:43.95Z</time></trkpt><trkpt lat="43.435848138819765" lon="11.750041587626724"><ele>471.0</ele><time>2026-04-19T06:31:44.95Z</time></trkpt><trkpt lat="43.43581566644087" lon="11.749949234915233"><ele>471.0</ele><time>2026-04-19T06:31:45.95Z</time></trkpt><trkpt lat="43.43578349093587" lon="11.749831827385185"><ele>471.0</ele><time>2026-04-19T06:31:46.949Z</time></trkpt><trkpt lat="43.43575469911488" lon="11.749721613669493"><ele>471.0</ele><time>2026-04-19T06:31:47.949Z</time></trkpt><trkpt lat="43.43571943533848" lon="11.749608794121084"><ele>471.0</ele><time>2026-04-19T06:31:48.949Z</time></trkpt><trkpt lat="43.43567825755552" lon="11.74949926218965"><ele>471.0</ele><time>2026-04-19T06:31:49.949Z</time></trkpt><trkpt lat="43.435627052242445" lon="11.749382503115273"><ele>469.6</ele><time>2026-04-19T06:31:50.949Z</time></trkpt><trkpt lat="43.43559577531674" lon="11.749271499010904"><ele>468.20000000000005</ele><time>2026-04-19T06:31:51.949Z</time></trkpt><trkpt lat="43.435550793002534" lon="11.749158508331396"><ele>466.79999999999995</ele><time>2026-04-19T06:31:52.949Z</time></trkpt><trkpt lat="43.435506553359225" lon="11.749050414292999"><ele>465.4</ele><time>2026-04-19T06:31:53.949Z</time></trkpt><trkpt lat="43.43545105906106" lon="11.748929634068405"><ele>464.0</ele><time>2026-04-19T06:31:54.949Z</time></trkpt><trkpt lat="43.43538406330947" lon="11.748818459138006"><ele>463.2</ele><time>2026-04-19T06:31:55.949Z</time></trkpt><trkpt lat="43.43531810301178" lon="11.748708548804984"><ele>462.4</ele><time>2026-04-19T06:31:56.949Z</time></trkpt><trkpt lat="43.43525634265938" lon="11.748602011364552"><ele>461.6</ele><time>2026-04-19T06:31:57.949Z</time></trkpt><trkpt lat="43.43518726551165" lon="11.748499924678791"><ele>460.8</ele><time>2026-04-19T06:31:58.949Z</time></trkpt><trkpt lat="43.43511683272767" lon="11.748407099562865"><ele>460.0</ele><time>2026-04-19T06:31:59.949Z</time></trkpt><trkpt lat="43.43504871847658" lon="11.748312942255037"><ele>460.00000000000006</ele><time>2026-04-19T06:32:00.949Z</time></trkpt><trkpt lat="43.435003738803566" lon="11.748218349564414"><ele>460.0</ele><time>2026-04-19T06:32:01.949Z</time></trkpt><trkpt lat="43.43496380985822" lon="11.748112617264548"><ele>460.0</ele><time>2026-04-19T06:32:02.949Z</time></trkpt><trkpt lat="43.434920893828945" lon="11.748004697876631"><ele>460.0</ele><time>2026-04-19T06:32:03.949Z</time></trkpt><trkpt lat="43.43487979887907" lon="11.747897882448738"><ele>460.00000000000006</ele><time>2026-04-19T06:32:04.949Z</time></trkpt><trkpt lat="43.43484370108283" lon="11.747803599491359"><ele>460.0</ele><time>2026-04-19T06:32:05.949Z</time></trkpt><trkpt lat="43.43480655308132" lon="11.74771484331788"><ele>459.50000000000006</ele><time>2026-04-19T06:32:06.949Z</time></trkpt><trkpt lat="43.434774646184" lon="11.747626874113429"><ele>459.0</ele><time>2026-04-19T06:32:07.949Z</time></trkpt><trkpt lat="43.434739137612624" lon="11.747541903235282"><ele>458.5</ele><time>2026-04-19T06:32:08.949Z</time></trkpt><trkpt lat="43.43469981458256" lon="11.74744509913295"><ele>458.0</ele><time>2026-04-19T06:32:09.949Z</time></trkpt><trkpt lat="43.434662469300925" lon="11.747339876105231"><ele>457.50000000000006</ele><time>2026-04-19T06:32:10.949Z</time></trkpt><trkpt lat="43.43463507010209" lon="11.747247142479889"><ele>457.0</ele><time>2026-04-19T06:32:11.949Z</time></trkpt><trkpt lat="43.43460025697105" lon="11.747138777670944"><ele>456.33333333333337</ele><time>2026-04-19T06:32:12.949Z</time></trkpt><trkpt lat="43.434569331608316" lon="11.74703095984588"><ele>455.6666666666667</ele><time>2026-04-19T06:32:13.949Z</time></trkpt><trkpt lat="43.43454352531628" lon="11.746926098159753"><ele>455.0</ele><time>2026-04-19T06:32:14.949Z</time></trkpt><trkpt lat="43.43451997106179" lon="11.746821749817922"><ele>454.33333333333337</ele><time>2026-04-19T06:32:15.949Z</time></trkpt><trkpt lat="43.43449174589031" lon="11.746720588155311"><ele>453.6666666666667</ele><time>2026-04-19T06:32:16.949Z</time></trkpt><trkpt lat="43.434466568468885" lon="11.746619010459037"><ele>453.0</ele><time>2026-04-19T06:32:17.949Z</time></trkpt><trkpt lat="43.434443189238245" lon="11.746526053749204"><ele>453.0</ele><time>2026-04-19T06:32:18.949Z</time></trkpt><trkpt lat="43.43442158411128" lon="11.746439457313093"><ele>453.0</ele><time>2026-04-19T06:32:19.949Z</time></trkpt><trkpt lat="43.43440020211565" lon="11.74634578090666"><ele>453.0</ele><time>2026-04-19T06:32:20.949Z</time></trkpt><trkpt lat="43.43438523492226" lon="11.7462532884077"><ele>453.0</ele><time>2026-04-19T06:32:21.949Z</time></trkpt><trkpt lat="43.43437022068635" lon="11.746159225831947"><ele>453.0</ele><time>2026-04-19T06:32:22.949Z</time></trkpt><trkpt lat="43.434357583922086" lon="11.746064600895268"><ele>453.0</ele><time>2026-04-19T06:32:23.949Z</time></trkpt><trkpt lat="43.43435157916913" lon="11.745906268082036"><ele>452.75</ele><time>2026-04-19T06:32:25.949Z</time></trkpt><trkpt lat="43.43434018929643" lon="11.745747308783699"><ele>452.5</ele><time>2026-04-19T06:32:27.949Z</time></trkpt><trkpt lat="43.43432548029038" lon="11.74558394928966"><ele>452.25</ele><time>2026-04-19T06:32:29.949Z</time></trkpt><trkpt lat="43.43429685982383" lon="11.74543546673227"><ele>452.0</ele><time>2026-04-19T06:32:31.949Z</time></trkpt><trkpt lat="43.43425167976285" lon="11.745296877674125"><ele>452.40000000000003</ele><time>2026-04-19T06:32:33.949Z</time></trkpt><trkpt lat="43.434200833909436" lon="11.745173055376789"><ele>452.80000000000007</ele><time>2026-04-19T06:32:35.949Z</time></trkpt><trkpt lat="43.43413915507452" lon="11.745057116801338"><ele>453.2</ele><time>2026-04-19T06:32:37.949Z</time></trkpt><trkpt lat="43.43409131550189" lon="11.744941129624898"><ele>453.6</ele><time>2026-04-19T06:32:39.949Z</time></trkpt><trkpt lat="43.434035072548696" lon="11.744853851523583"><ele>454.0</ele><time>2026-04-19T06:32:41.949Z</time></trkpt><trkpt lat="43.43397500965218" lon="11.744770209679523"><ele>454.0</ele><time>2026-04-19T06:32:43.949Z</time></trkpt><trkpt lat="43.43392150123019" lon="11.744697707045491"><ele>454.0</ele><time>2026-04-19T06:32:45.949Z</time></trkpt><trkpt lat="43.4338487874293" lon="11.744635783909029"><ele>454.0</ele><time>2026-04-19T06:32:47.947Z</time></trkpt><trkpt lat="43.43378661186427" lon="11.744546063610384"><ele>454.0</ele><time>2026-04-19T06:32:49.947Z</time></trkpt><trkpt lat="43.43371815708359" lon="11.744464539773485"><ele>454.0</ele><time>2026-04-19T06:32:51.947Z</time></trkpt><trkpt lat="43.433634435515614" lon="11.74436780294503"><ele>453.6</ele><time>2026-04-19T06:32:53.947Z</time></trkpt><trkpt lat="43.433548784320514" lon="11.744276545344249"><ele>453.2</ele><time>2026-04-19T06:32:55.946Z</time></trkpt><trkpt lat="43.43345952482096" lon="11.744189344006802"><ele>452.80000000000007</ele><time>2026-04-19T06:32:57.946Z</time></trkpt><trkpt lat="43.43338376676693" lon="11.74410537748075"><ele>452.40000000000003</ele><time>2026-04-19T06:32:59.946Z</time></trkpt><trkpt lat="43.43331224017408" lon="11.744037369104097"><ele>452.0</ele><time>2026-04-19T06:33:01.947Z</time></trkpt><trkpt lat="43.433263048380525" lon="11.74397995709888"><ele>451.99999999999994</ele><time>2026-04-19T06:33:03.946Z</time></trkpt><trkpt lat="43.43321921897106" lon="11.743899894485876"><ele>452.0</ele><time>2026-04-19T06:33:05.947Z</time></trkpt><trkpt lat="43.433173463051006" lon="11.74382171546322"><ele>452.0</ele><time>2026-04-19T06:33:07.947Z</time></trkpt><trkpt lat="43.43313948902058" lon="11.743729120213747"><ele>452.0</ele><time>2026-04-19T06:33:09.947Z</time></trkpt><trkpt lat="43.43310009841855" lon="11.743650760699817"><ele>451.99999999999994</ele><time>2026-04-19T06:33:11.947Z</time></trkpt><trkpt lat="43.43306883384243" lon="11.743550767273373"><ele>452.0</ele><time>2026-04-19T06:33:13.947Z</time></trkpt><trkpt lat="43.43303234098091" lon="11.743446773186792"><ele>451.99999999999994</ele><time>2026-04-19T06:33:15.947Z</time></trkpt><trkpt lat="43.43300329154729" lon="11.743334795809599"><ele>452.0</ele><time>2026-04-19T06:33:17.947Z</time></trkpt><trkpt lat="43.432967658477565" lon="11.743232424572597"><ele>452.0</ele><time>2026-04-19T06:33:19.947Z</time></trkpt><trkpt lat="43.43295899776518" lon="11.743125178252106"><ele>452.0</ele><time>2026-04-19T06:33:21.947Z</time></trkpt><trkpt lat="43.43291736248116" lon="11.743034201821747"><ele>451.99999999999994</ele><time>2026-04-19T06:33:23.947Z</time></trkpt><trkpt lat="43.4328973945048" lon="11.742921285931311"><ele>452.0</ele><time>2026-04-19T06:33:26.947Z</time></trkpt><trkpt lat="43.43289267771213" lon="11.742822250448105"><ele>451.99999999999994</ele><time>2026-04-19T06:33:29.947Z</time></trkpt><trkpt lat="43.43288299190432" lon="11.742734262067081"><ele>452.0</ele><time>2026-04-19T06:33:31.947Z</time></trkpt><trkpt lat="43.43289684141663" lon="11.742608377822222"><ele>452.0</ele><time>2026-04-19T06:33:34.947Z</time></trkpt><trkpt lat="43.43288963585136" lon="11.742495908314403"><ele>452.0</ele><time>2026-04-19T06:33:37.947Z</time></trkpt><trkpt lat="43.432871920355026" lon="11.742407250377479"><ele>451.99999999999994</ele><time>2026-04-19T06:33:39.947Z</time></trkpt><trkpt lat="43.432843269770586" lon="11.742316492276935"><ele>452.0</ele><time>2026-04-19T06:33:41.947Z</time></trkpt><trkpt lat="43.43279878592588" lon="11.742209785588521"><ele>452.66666666666663</ele><time>2026-04-19T06:33:44.947Z</time></trkpt><trkpt lat="43.43274786866365" lon="11.742105766321428"><ele>453.3333333333333</ele><time>2026-04-19T06:33:46.947Z</time></trkpt><trkpt lat="43.43270504785192" lon="11.742019583760106"><ele>454.0</ele><time>2026-04-19T06:33:48.947Z</time></trkpt><trkpt lat="43.43265318741689" lon="11.74191299986576"><ele>454.66666666666663</ele><time>2026-04-19T06:33:50.947Z</time></trkpt><trkpt lat="43.43259213520353" lon="11.741781636345042"><ele>455.3333333333333</ele><time>2026-04-19T06:33:52.947Z</time></trkpt><trkpt lat="43.43253841984067" lon="11.741707459693163"><ele>456.0</ele><time>2026-04-19T06:33:54.947Z</time></trkpt><trkpt lat="43.43250776751448" lon="11.741628301300173"><ele>456.1428571428571</ele><time>2026-04-19T06:33:56.947Z</time></trkpt><trkpt lat="43.43246859145288" lon="11.741543898748507"><ele>456.2857142857142</ele><time>2026-04-19T06:33:58.947Z</time></trkpt><trkpt lat="43.43242020545252" lon="11.741458062793766"><ele>456.42857142857144</ele><time>2026-04-19T06:34:00.947Z</time></trkpt><trkpt lat="43.43239229600055" lon="11.741368150551015"><ele>456.57142857142856</ele><time>2026-04-19T06:34:02.947Z</time></trkpt><trkpt lat="43.43234767778029" lon="11.74129158270638"><ele>456.7142857142857</ele><time>2026-04-19T06:34:04.947Z</time></trkpt><trkpt lat="43.43230380365914" lon="11.741226689496798"><ele>456.8571428571429</ele><time>2026-04-19T06:34:06.947Z</time></trkpt><trkpt lat="43.432252613152066" lon="11.741156771031575"><ele>457.00000000000006</ele><time>2026-04-19T06:34:08.947Z</time></trkpt><trkpt lat="43.432198262777895" lon="11.74108852624153"><ele>458.6666666666667</ele><time>2026-04-19T06:34:10.947Z</time></trkpt><trkpt lat="43.43213849416358" lon="11.741032779597244"><ele>460.33333333333337</ele><time>2026-04-19T06:34:12.947Z</time></trkpt><trkpt lat="43.43208774773969" lon="11.740959711111312"><ele>462.0</ele><time>2026-04-19T06:34:14.947Z</time></trkpt><trkpt lat="43.43202813751637" lon="11.740868800553958"><ele>463.66666666666663</ele><time>2026-04-19T06:34:17.947Z</time></trkpt><trkpt lat="43.43197780491036" lon="11.74079478134768"><ele>465.3333333333333</ele><time>2026-04-19T06:34:19.947Z</time></trkpt><trkpt lat="43.43192982475155" lon="11.74072257061975"><ele>467.0</ele><time>2026-04-19T06:34:21.947Z</time></trkpt><trkpt lat="43.431871119660876" lon="11.740626171928172"><ele>466.99999999999994</ele><time>2026-04-19T06:34:24.947Z</time></trkpt><trkpt lat="43.431810547662245" lon="11.740540222224338"><ele>467.0</ele><time>2026-04-19T06:34:27.947Z</time></trkpt><trkpt lat="43.43174713913469" lon="11.74046078005936"><ele>467.0</ele><time>2026-04-19T06:34:30.947Z</time></trkpt><trkpt lat="43.43168954566519" lon="11.740376494906656"><ele>467.0</ele><time>2026-04-19T06:34:33.947Z</time></trkpt><trkpt lat="43.431624867807756" lon="11.740319299088618"><ele>466.99999999999994</ele><time>2026-04-19T06:34:36.947Z</time></trkpt><trkpt lat="43.43156075831131" lon="11.74026768317777"><ele>467.0</ele><time>2026-04-19T06:34:39.946Z</time></trkpt><trkpt lat="43.43148532254147" lon="11.740232995755916"><ele>467.42857142857133</ele><time>2026-04-19T06:34:42.946Z</time></trkpt><trkpt lat="43.43142561645903" lon="11.740194779047526"><ele>467.85714285714283</ele><time>2026-04-19T06:34:45.946Z</time></trkpt><trkpt lat="43.43136224671054" lon="11.740148763059896"><ele>468.2857142857142</ele><time>2026-04-19T06:34:48.946Z</time></trkpt><trkpt lat="43.43130050447767" lon="11.740109713237615"><ele>468.71428571428567</ele><time>2026-04-19T06:34:51.946Z</time></trkpt><trkpt lat="43.43123514549921" lon="11.740068463325866"><ele>469.1428571428571</ele><time>2026-04-19T06:34:54.944Z</time></trkpt><trkpt lat="43.43116897496744" lon="11.740025622411194"><ele>469.57142857142856</ele><time>2026-04-19T06:34:57.944Z</time></trkpt><trkpt lat="43.43111305584286" lon="11.739984973479212"><ele>470.0</ele><time>2026-04-19T06:35:00.944Z</time></trkpt><trkpt lat="43.431046703777085" lon="11.739936382843222"><ele>472.2857142857143</ele><time>2026-04-19T06:35:03.944Z</time></trkpt><trkpt lat="43.43098200900753" lon="11.73988571223843"><ele>474.57142857142856</ele><time>2026-04-19T06:35:06.944Z</time></trkpt><trkpt lat="43.430917630227995" lon="11.739835979640988"><ele>476.85714285714283</ele><time>2026-04-19T06:35:09.944Z</time></trkpt><trkpt lat="43.430854318476214" lon="11.73978875475904"><ele>479.1428571428571</ele><time>2026-04-19T06:35:12.943Z</time></trkpt><trkpt lat="43.43079549892312" lon="11.739735179992026"><ele>481.42857142857144</ele><time>2026-04-19T06:35:15.943Z</time></trkpt><trkpt lat="43.4307390416594" lon="11.739684075712228"><ele>483.71428571428567</ele><time>2026-04-19T06:35:18.943Z</time></trkpt><trkpt lat="43.430683621955595" lon="11.739624872710538"><ele>486.0</ele><time>2026-04-19T06:35:21.943Z</time></trkpt><trkpt lat="43.43063963435196" lon="11.739559888941923"><ele>486.0</ele><time>2026-04-19T06:35:24.943Z</time></trkpt><trkpt lat="43.43059200036867" lon="11.739502211318772"><ele>486.0</ele><time>2026-04-19T06:35:27.943Z</time></trkpt><trkpt lat="43.430543130386525" lon="11.739442625952966"><ele>486.0</ele><time>2026-04-19T06:35:30.943Z</time></trkpt><trkpt lat="43.43049260431759" lon="11.739387603030229"><ele>486.0</ele><time>2026-04-19T06:35:33.943Z</time></trkpt><trkpt lat="43.430444300824036" lon="11.739308222158098"><ele>486.0</ele><time>2026-04-19T06:35:36.943Z</time></trkpt><trkpt lat="43.43040011541155" lon="11.739206558927764"><ele>486.0</ele><time>2026-04-19T06:35:39.943Z</time></trkpt><trkpt lat="43.43037159167362" lon="11.739122305658146"><ele>486.0</ele><time>2026-04-19T06:35:42.943Z</time></trkpt><trkpt lat="43.430339415477576" lon="11.739029310828663"><ele>489.5</ele><time>2026-04-19T06:35:45.943Z</time></trkpt><trkpt lat="43.43029947703798" lon="11.738927327920958"><ele>493.0</ele><time>2026-04-19T06:35:49.943Z</time></trkpt><trkpt lat="43.430258492269246" lon="11.738836506479334"><ele>496.5</ele><time>2026-04-19T06:35:53.943Z</time></trkpt><trkpt lat="43.43022021470847" lon="11.738752232495507"><ele>500.0</ele><time>2026-04-19T06:35:56.943Z</time></trkpt><trkpt lat="43.4301916021244" lon="11.738670566590239"><ele>503.5</ele><time>2026-04-19T06:35:59.943Z</time></trkpt><trkpt lat="43.430167086296386" lon="11.738537112931285"><ele>507.0</ele><time>2026-04-19T06:36:03.943Z</time></trkpt><trkpt lat="43.43015044287589" lon="11.73842964585987"><ele>508.3333333333333</ele><time>2026-04-19T06:36:06.943Z</time></trkpt><trkpt lat="43.43014579815983" lon="11.738323561392242"><ele>509.66666666666663</ele><time>2026-04-19T06:36:09.943Z</time></trkpt><trkpt lat="43.430140642049714" lon="11.738206694333327"><ele>511.0</ele><time>2026-04-19T06:36:13.943Z</time></trkpt><trkpt lat="43.43013902096475" lon="11.738083514067705"><ele>512.3333333333333</ele><time>2026-04-19T06:36:16.943Z</time></trkpt><trkpt lat="43.43013729740545" lon="11.73798728774603"><ele>513.6666666666666</ele><time>2026-04-19T06:36:19.943Z</time></trkpt><trkpt lat="43.430130595106604" lon="11.737888343215111"><ele>515.0</ele><time>2026-04-19T06:36:22.943Z</time></trkpt><trkpt lat="43.430146199295365" lon="11.737796851543143"><ele>516.0</ele><time>2026-04-19T06:36:25.943Z</time></trkpt><trkpt lat="43.430131644036564" lon="11.73768576256509"><ele>517.0</ele><time>2026-04-19T06:36:28.943Z</time></trkpt><trkpt lat="43.430127029267794" lon="11.737572824635446"><ele>518.0</ele><time>2026-04-19T06:36:31.943Z</time></trkpt><trkpt lat="43.43013544738239" lon="11.737468796793303"><ele>519.0</ele><time>2026-04-19T06:36:34.943Z</time></trkpt><trkpt lat="43.4301228104701" lon="11.737341726271543"><ele>520.0</ele><time>2026-04-19T06:36:37.943Z</time></trkpt><trkpt lat="43.43010960513113" lon="11.737222109469075"><ele>521.0</ele><time>2026-04-19T06:36:40.943Z</time></trkpt><trkpt lat="43.430098062568455" lon="11.737133555726832"><ele>521.0</ele><time>2026-04-19T06:36:42.943Z</time></trkpt><trkpt lat="43.43008566970775" lon="11.737043050351819"><ele>521.0</ele><time>2026-04-19T06:36:44.943Z</time></trkpt><trkpt lat="43.430069179510475" lon="11.73692789309895"><ele>521.0</ele><time>2026-04-19T06:36:47.943Z</time></trkpt><trkpt lat="43.430049910417296" lon="11.736804029338607"><ele>521.0</ele><time>2026-04-19T06:36:50.943Z</time></trkpt><trkpt lat="43.43003195512075" lon="11.736702688417573"><ele>521.0</ele><time>2026-04-19T06:36:53.943Z</time></trkpt><trkpt lat="43.43001021157685" lon="11.736594152551678"><ele>521.0</ele><time>2026-04-19T06:36:56.943Z</time></trkpt><trkpt lat="43.42998872370376" lon="11.736486892983441"><ele>520.25</ele><time>2026-04-19T06:36:59.941Z</time></trkpt><trkpt lat="43.42996726049055" lon="11.736385459134732"><ele>519.5</ele><time>2026-04-19T06:37:02.94Z</time></trkpt><trkpt lat="43.42993338951933" lon="11.736226289997802"><ele>518.75</ele><time>2026-04-19T06:37:52.94Z</time></trkpt><trkpt lat="43.429930508044414" lon="11.736131237225315"><ele>518.0</ele><time>2026-04-19T06:39:10.938Z</time></trkpt><trkpt lat="43.43025051867893" lon="11.73598934762999"><ele>517.3333333333333</ele><time>2026-04-19T06:39:12.938Z</time></trkpt><trkpt lat="43.430317096767084" lon="11.735923063856127"><ele>516.6666666666666</ele><time>2026-04-19T06:39:15.938Z</time></trkpt><trkpt lat="43.43039404075392" lon="11.735838278594489"><ele>516.0</ele><time>2026-04-19T06:39:18.938Z</time></trkpt><trkpt lat="43.43046319193409" lon="11.735764725415276"><ele>515.3333333333334</ele><time>2026-04-19T06:39:21.938Z</time></trkpt><trkpt lat="43.430521004125175" lon="11.735704714418732"><ele>514.6666666666667</ele><time>2026-04-19T06:39:24.938Z</time></trkpt><trkpt lat="43.4305658001916" lon="11.73564340091392"><ele>514.0</ele><time>2026-04-19T06:39:26.938Z</time></trkpt><trkpt lat="43.4306052032977" lon="11.735571842780095"><ele>514.0</ele><time>2026-04-19T06:39:28.938Z</time></trkpt><trkpt lat="43.43063990207163" lon="11.735491706657001"><ele>514.0</ele><time>2026-04-19T06:39:30.938Z</time></trkpt><trkpt lat="43.430677628952196" lon="11.735412001046134"><ele>514.0</ele><time>2026-04-19T06:39:32.938Z</time></trkpt><trkpt lat="43.430701319243504" lon="11.735325990871385"><ele>514.0</ele><time>2026-04-19T06:39:34.938Z</time></trkpt><trkpt lat="43.430726030063646" lon="11.735244060981037"><ele>514.0</ele><time>2026-04-19T06:39:36.938Z</time></trkpt><trkpt lat="43.43075600930108" lon="11.735164968516123"><ele>514.0</ele><time>2026-04-19T06:39:38.938Z</time></trkpt><trkpt lat="43.430802028148705" lon="11.735051633665046"><ele>514.0</ele><time>2026-04-19T06:39:41.938Z</time></trkpt><trkpt lat="43.430828136491165" lon="11.7349661182449"><ele>514.0</ele><time>2026-04-19T06:39:43.938Z</time></trkpt><trkpt lat="43.43085939884775" lon="11.734884110052144"><ele>514.0</ele><time>2026-04-19T06:39:45.938Z</time></trkpt><trkpt lat="43.43088895620637" lon="11.734804493427463"><ele>514.0</ele><time>2026-04-19T06:39:47.938Z</time></trkpt><trkpt lat="43.43092259278037" lon="11.73472044266438"><ele>514.0</ele><time>2026-04-19T06:39:49.938Z</time></trkpt><trkpt lat="43.43095396747705" lon="11.734638001873853"><ele>514.0</ele><time>2026-04-19T06:39:51.938Z</time></trkpt><trkpt lat="43.43098431934231" lon="11.734556233001703"><ele>514.0</ele><time>2026-04-19T06:39:53.938Z</time></trkpt><trkpt lat="43.43101479747098" lon="11.734474227957675"><ele>514.0</ele><time>2026-04-19T06:39:55.938Z</time></trkpt><trkpt lat="43.431047566853856" lon="11.734390198711937"><ele>513.6666666666667</ele><time>2026-04-19T06:39:57.938Z</time></trkpt><trkpt lat="43.43108239373546" lon="11.73430358965466"><ele>513.3333333333334</ele><time>2026-04-19T06:39:59.938Z</time></trkpt><trkpt lat="43.43111971141262" lon="11.734217847906965"><ele>513.0</ele><time>2026-04-19T06:40:01.938Z</time></trkpt><trkpt lat="43.43116253759898" lon="11.734123729840212"><ele>512.6666666666666</ele><time>2026-04-19T06:40:03.938Z</time></trkpt><trkpt lat="43.43120011247448" lon="11.73403302578965"><ele>512.3333333333333</ele><time>2026-04-19T06:40:05.938Z</time></trkpt><trkpt lat="43.431239321775095" lon="11.733943417834487"><ele>512.0</ele><time>2026-04-19T06:40:07.938Z</time></trkpt><trkpt lat="43.431277182941805" lon="11.733852341417654"><ele>511.8</ele><time>2026-04-19T06:40:09.938Z</time></trkpt><trkpt lat="43.43132388259919" lon="11.733748527611722"><ele>511.6</ele><time>2026-04-19T06:40:11.938Z</time></trkpt><trkpt lat="43.431380581159466" lon="11.733594577386583"><ele>511.40000000000003</ele><time>2026-04-19T06:40:13.938Z</time></trkpt><trkpt lat="43.431411951119074" lon="11.733502173163725"><ele>511.20000000000005</ele><time>2026-04-19T06:40:14.938Z</time></trkpt><trkpt lat="43.431444865743885" lon="11.733401151531769"><ele>511.0</ele><time>2026-04-19T06:40:15.938Z</time></trkpt><trkpt lat="43.43148460140584" lon="11.733293284675794"><ele>510.6</ele><time>2026-04-19T06:40:16.938Z</time></trkpt><trkpt lat="43.43152897664719" lon="11.73317631170075"><ele>510.20000000000005</ele><time>2026-04-19T06:40:17.938Z</time></trkpt><trkpt lat="43.43158103151088" lon="11.733049198503265"><ele>509.79999999999995</ele><time>2026-04-19T06:40:18.938Z</time></trkpt><trkpt lat="43.43163197791263" lon="11.732909326669864"><ele>509.4</ele><time>2026-04-19T06:40:19.938Z</time></trkpt><trkpt lat="43.4316845718443" lon="11.732765568160126"><ele>509.0</ele><time>2026-04-19T06:40:20.938Z</time></trkpt><trkpt lat="43.43174955129612" lon="11.732628630935777"><ele>507.6</ele><time>2026-04-19T06:40:21.938Z</time></trkpt><trkpt lat="43.43178533298103" lon="11.732475400662164"><ele>506.2</ele><time>2026-04-19T06:40:22.938Z</time></trkpt><trkpt lat="43.43181463672781" lon="11.732340361774897"><ele>504.80000000000007</ele><time>2026-04-19T06:40:23.938Z</time></trkpt><trkpt lat="43.431862190987616" lon="11.732224901949621"><ele>503.40000000000003</ele><time>2026-04-19T06:40:24.938Z</time></trkpt><trkpt lat="43.43192475537753" lon="11.73212282698876"><ele>502.0</ele><time>2026-04-19T06:40:25.938Z</time></trkpt><trkpt lat="43.432002039810385" lon="11.732039811760409"><ele>502.00000000000006</ele><time>2026-04-19T06:40:26.938Z</time></trkpt><trkpt lat="43.43208167674508" lon="11.731974833942564"><ele>502.0</ele><time>2026-04-19T06:40:27.938Z</time></trkpt><trkpt lat="43.43214968454037" lon="11.731921362855564"><ele>502.0</ele><time>2026-04-19T06:40:28.938Z</time></trkpt><trkpt lat="43.43221659563407" lon="11.73186928540793"><ele>502.0</ele><time>2026-04-19T06:40:29.938Z</time></trkpt><trkpt lat="43.43227921233378" lon="11.731819799408262"><ele>502.00000000000006</ele><time>2026-04-19T06:40:30.937Z</time></trkpt><trkpt lat="43.43233558817893" lon="11.73177217605255"><ele>502.0</ele><time>2026-04-19T06:40:31.937Z</time></trkpt><trkpt lat="43.43243801339227" lon="11.73168851193368"><ele>503.20000000000005</ele><time>2026-04-19T06:40:33.937Z</time></trkpt><trkpt lat="43.43251652771649" lon="11.731625853213126"><ele>504.40000000000003</ele><time>2026-04-19T06:40:35.937Z</time></trkpt><trkpt lat="43.432599752598506" lon="11.731561156699376"><ele>505.59999999999997</ele><time>2026-04-19T06:40:37.937Z</time></trkpt><trkpt lat="43.43266444583682" lon="11.73148011259748"><ele>506.79999999999995</ele><time>2026-04-19T06:40:39.937Z</time></trkpt><trkpt lat="43.432731017097225" lon="11.731397572899546"><ele>508.0</ele><time>2026-04-19T06:40:41.937Z</time></trkpt><trkpt lat="43.43279631197983" lon="11.731307431396841"><ele>508.00000000000006</ele><time>2026-04-19T06:40:43.937Z</time></trkpt><trkpt lat="43.43284807391895" lon="11.731221420065657"><ele>508.0</ele><time>2026-04-19T06:40:45.937Z</time></trkpt><trkpt lat="43.432897329199015" lon="11.731133335604992"><ele>508.0</ele><time>2026-04-19T06:40:47.937Z</time></trkpt><trkpt lat="43.43294250516425" lon="11.731030558861756"><ele>508.0</ele><time>2026-04-19T06:40:49.937Z</time></trkpt><trkpt lat="43.432981166961824" lon="11.730926841045527"><ele>508.00000000000006</ele><time>2026-04-19T06:40:51.937Z</time></trkpt><trkpt lat="43.43301452267798" lon="11.730816442887612"><ele>508.0</ele><time>2026-04-19T06:40:53.937Z</time></trkpt><trkpt lat="43.43304621764226" lon="11.730711894108618"><ele>507.6666666666667</ele><time>2026-04-19T06:40:55.937Z</time></trkpt><trkpt lat="43.433073900124384" lon="11.73060749673115"><ele>507.33333333333337</ele><time>2026-04-19T06:40:57.937Z</time></trkpt><trkpt lat="43.43309230136671" lon="11.730522434080333"><ele>507.0</ele><time>2026-04-19T06:40:59.937Z</time></trkpt><trkpt lat="43.433112904271894" lon="11.730436124727808"><ele>506.66666666666663</ele><time>2026-04-19T06:41:01.937Z</time></trkpt><trkpt lat="43.43313365976122" lon="11.73031409493872"><ele>506.3333333333333</ele><time>2026-04-19T06:41:04.937Z</time></trkpt><trkpt lat="43.433159002288406" lon="11.73018268010667"><ele>506.0</ele><time>2026-04-19T06:41:07.937Z</time></trkpt><trkpt lat="43.433178425680076" lon="11.730071855605148"><ele>505.99999999999994</ele><time>2026-04-19T06:41:09.937Z</time></trkpt><trkpt lat="43.43320492530416" lon="11.729947807660672"><ele>506.0</ele><time>2026-04-19T06:41:11.936Z</time></trkpt><trkpt lat="43.433227512726866" lon="11.72984030032568"><ele>506.0</ele><time>2026-04-19T06:41:13.936Z</time></trkpt><trkpt lat="43.43324899710103" lon="11.729728546521908"><ele>506.0</ele><time>2026-04-19T06:41:15.936Z</time></trkpt><trkpt lat="43.43327561940221" lon="11.729612678340285"><ele>505.99999999999994</ele><time>2026-04-19T06:41:17.936Z</time></trkpt><trkpt lat="43.433305453971606" lon="11.729499416789395"><ele>506.0</ele><time>2026-04-19T06:41:19.936Z</time></trkpt><trkpt lat="43.433340063141145" lon="11.72938900916801"><ele>506.8</ele><time>2026-04-19T06:41:21.935Z</time></trkpt><trkpt lat="43.43338425440229" lon="11.729283367045284"><ele>507.6</ele><time>2026-04-19T06:41:23.935Z</time></trkpt><trkpt lat="43.43344453382136" lon="11.729168704102355"><ele>508.4</ele><time>2026-04-19T06:41:25.935Z</time></trkpt><trkpt lat="43.43351290738856" lon="11.729052824236822"><ele>509.2</ele><time>2026-04-19T06:41:27.935Z</time></trkpt><trkpt lat="43.43358482790775" lon="11.728946763899396"><ele>510.0</ele><time>2026-04-19T06:41:29.935Z</time></trkpt><trkpt lat="43.43365091192326" lon="11.728858927609837"><ele>510.0</ele><time>2026-04-19T06:41:31.935Z</time></trkpt><trkpt lat="43.433719179545896" lon="11.728765077570815"><ele>510.0</ele><time>2026-04-19T06:41:33.935Z</time></trkpt><trkpt lat="43.433786890503015" lon="11.728666284523925"><ele>510.0</ele><time>2026-04-19T06:41:35.935Z</time></trkpt><trkpt lat="43.43384903491556" lon="11.72856283752162"><ele>510.0</ele><time>2026-04-19T06:41:37.935Z</time></trkpt><trkpt lat="43.43390687685264" lon="11.728458959388051"><ele>510.0</ele><time>2026-04-19T06:41:39.935Z</time></trkpt><trkpt lat="43.43396621902961" lon="11.72835354037148"><ele>509.0</ele><time>2026-04-19T06:41:41.935Z</time></trkpt><trkpt lat="43.434024975088185" lon="11.728239362372667"><ele>508.0</ele><time>2026-04-19T06:41:43.935Z</time></trkpt><trkpt lat="43.43408375274361" lon="11.72812674618812"><ele>507.0</ele><time>2026-04-19T06:41:45.935Z</time></trkpt><trkpt lat="43.43414462326051" lon="11.728017523861034"><ele>506.0</ele><time>2026-04-19T06:41:47.935Z</time></trkpt><trkpt lat="43.434207632292676" lon="11.727922337036576"><ele>505.0</ele><time>2026-04-19T06:41:49.935Z</time></trkpt><trkpt lat="43.43428181898477" lon="11.727823246318678"><ele>504.8</ele><time>2026-04-19T06:41:51.935Z</time></trkpt><trkpt lat="43.43436604079757" lon="11.727721372883265"><ele>504.6</ele><time>2026-04-19T06:41:53.935Z</time></trkpt><trkpt lat="43.43445340153715" lon="11.727622316077085"><ele>504.4</ele><time>2026-04-19T06:41:55.935Z</time></trkpt><trkpt lat="43.43452696052256" lon="11.727521436112768"><ele>504.2</ele><time>2026-04-19T06:41:57.935Z</time></trkpt><trkpt lat="43.43459130275273" lon="11.727427214899976"><ele>504.0</ele><time>2026-04-19T06:41:59.935Z</time></trkpt><trkpt lat="43.434655785528115" lon="11.72733587414874"><ele>504.0</ele><time>2026-04-19T06:42:01.935Z</time></trkpt><trkpt lat="43.434721484757304" lon="11.727246004072308"><ele>504.0</ele><time>2026-04-19T06:42:03.935Z</time></trkpt><trkpt lat="43.43478346966525" lon="11.727173473190406"><ele>504.0</ele><time>2026-04-19T06:42:05.935Z</time></trkpt><trkpt lat="43.43483158880004" lon="11.727101731482472"><ele>504.0</ele><time>2026-04-19T06:42:07.935Z</time></trkpt><trkpt lat="43.43487188980018" lon="11.727031868301923"><ele>504.0</ele><time>2026-04-19T06:42:13.935Z</time></trkpt><trkpt lat="43.434768643000425" lon="11.726845726565058"><ele>504.5</ele><time>2026-04-19T06:42:14.935Z</time></trkpt><trkpt lat="43.4347115790911" lon="11.726760578080231"><ele>505.0</ele><time>2026-04-19T06:42:18.935Z</time></trkpt><trkpt lat="43.43464422636025" lon="11.726688998294877"><ele>505.5</ele><time>2026-04-19T06:42:21.935Z</time></trkpt><trkpt lat="43.434584403345895" lon="11.726603010130207"><ele>506.0</ele><time>2026-04-19T06:42:24.935Z</time></trkpt><trkpt lat="43.43451668838509" lon="11.72652736408129"><ele>506.5</ele><time>2026-04-19T06:42:27.935Z</time></trkpt><trkpt lat="43.43446846127861" lon="11.72646684156345"><ele>507.0</ele><time>2026-04-19T06:42:29.935Z</time></trkpt><trkpt lat="43.43439389475412" lon="11.726382898082365"><ele>507.3333333333333</ele><time>2026-04-19T06:42:32.935Z</time></trkpt><trkpt lat="43.434334051771756" lon="11.72631810803657"><ele>507.66666666666663</ele><time>2026-04-19T06:42:34.935Z</time></trkpt><trkpt lat="43.43426645330962" lon="11.72627163815303"><ele>508.0</ele><time>2026-04-19T06:42:36.935Z</time></trkpt><trkpt lat="43.43418961844354" lon="11.726240625970648"><ele>508.3333333333333</ele><time>2026-04-19T06:42:38.935Z</time></trkpt><trkpt lat="43.43411185328527" lon="11.726239799557558"><ele>508.66666666666663</ele><time>2026-04-19T06:42:40.935Z</time></trkpt><trkpt lat="43.4340381054662" lon="11.726245478850675"><ele>509.0</ele><time>2026-04-19T06:42:42.935Z</time></trkpt><trkpt lat="43.43396779430105" lon="11.726279344623855"><ele>508.99999999999994</ele><time>2026-04-19T06:42:44.935Z</time></trkpt><trkpt lat="43.433895525384976" lon="11.726323305594907"><ele>509.0</ele><time>2026-04-19T06:42:46.935Z</time></trkpt><trkpt lat="43.433824494628375" lon="11.726356631250434"><ele>509.0</ele><time>2026-04-19T06:42:48.935Z</time></trkpt><trkpt lat="43.433749116791226" lon="11.726384280515958"><ele>509.0</ele><time>2026-04-19T06:42:50.935Z</time></trkpt><trkpt lat="43.43366335368459" lon="11.726394779738051"><ele>508.99999999999994</ele><time>2026-04-19T06:42:52.935Z</time></trkpt><trkpt lat="43.433579089379805" lon="11.726388834173434"><ele>509.0</ele><time>2026-04-19T06:42:54.934Z</time></trkpt><trkpt lat="43.433476254674254" lon="11.726369761187605"><ele>509.0</ele><time>2026-04-19T06:42:56.934Z</time></trkpt><trkpt lat="43.43337719068264" lon="11.726374606947074"><ele>509.0</ele><time>2026-04-19T06:42:58.934Z</time></trkpt><trkpt lat="43.433278127382636" lon="11.726399073148938"><ele>509.0</ele><time>2026-04-19T06:43:00.934Z</time></trkpt><trkpt lat="43.43317583585452" lon="11.726430457617196"><ele>509.0</ele><time>2026-04-19T06:43:02.934Z</time></trkpt><trkpt lat="43.433084106859496" lon="11.726436501803846"><ele>509.0</ele><time>2026-04-19T06:43:04.934Z</time></trkpt><trkpt lat="43.432990599075964" lon="11.726422294269284"><ele>507.6</ele><time>2026-04-19T06:43:06.934Z</time></trkpt><trkpt lat="43.43287777425935" lon="11.7263829651169"><ele>506.2</ele><time>2026-04-19T06:43:08.934Z</time></trkpt><trkpt lat="43.43277271930536" lon="11.726298643407464"><ele>504.80000000000007</ele><time>2026-04-19T06:43:10.934Z</time></trkpt><trkpt lat="43.43265360131634" lon="11.726218986361971"><ele>503.40000000000003</ele><time>2026-04-19T06:43:12.934Z</time></trkpt><trkpt lat="43.4325828775991" lon="11.72618306542686"><ele>502.0</ele><time>2026-04-19T06:43:13.934Z</time></trkpt><trkpt lat="43.432509626330486" lon="11.726140661234558"><ele>502.00000000000006</ele><time>2026-04-19T06:43:14.934Z</time></trkpt><trkpt lat="43.43244779085009" lon="11.726087120087074"><ele>502.0</ele><time>2026-04-19T06:43:15.934Z</time></trkpt><trkpt lat="43.4323926879633" lon="11.726039371119272"><ele>502.0</ele><time>2026-04-19T06:43:16.933Z</time></trkpt><trkpt lat="43.43233597478435" lon="11.72599379730221"><ele>502.0</ele><time>2026-04-19T06:43:17.933Z</time></trkpt><trkpt lat="43.43222129264565" lon="11.725902643030237"><ele>502.00000000000006</ele><time>2026-04-19T06:43:19.933Z</time></trkpt><trkpt lat="43.43216021048669" lon="11.725874202221702"><ele>502.0</ele><time>2026-04-19T06:43:20.933Z</time></trkpt><trkpt lat="43.43204554682257" lon="11.725827912636145"><ele>498.6</ele><time>2026-04-19T06:43:22.933Z</time></trkpt><trkpt lat="43.43195552145161" lon="11.725786289104873"><ele>495.20000000000005</ele><time>2026-04-19T06:43:24.933Z</time></trkpt><trkpt lat="43.431875018920415" lon="11.725746285755294"><ele>491.8</ele><time>2026-04-19T06:43:26.932Z</time></trkpt><trkpt lat="43.43178498892693" lon="11.725715409287195"><ele>488.4</ele><time>2026-04-19T06:43:28.932Z</time></trkpt><trkpt lat="43.43170277423908" lon="11.72567195970265"><ele>485.0</ele><time>2026-04-19T06:43:30.932Z</time></trkpt><trkpt lat="43.43161955839155" lon="11.725621788780048"><ele>485.00000000000006</ele><time>2026-04-19T06:43:32.933Z</time></trkpt><trkpt lat="43.43155507275727" lon="11.725574291761172"><ele>485.0</ele><time>2026-04-19T06:43:34.933Z</time></trkpt><trkpt lat="43.431492245186284" lon="11.72553773186661"><ele>485.00000000000006</ele><time>2026-04-19T06:43:36.933Z</time></trkpt><trkpt lat="43.43142034336894" lon="11.725487749147163"><ele>485.00000000000006</ele><time>2026-04-19T06:43:39.933Z</time></trkpt><trkpt lat="43.431357690673906" lon="11.725453013712078"><ele>485.0</ele><time>2026-04-19T06:43:43.933Z</time></trkpt><trkpt lat="43.43129287214318" lon="11.725417309750474"><ele>485.00000000000006</ele><time>2026-04-19T06:43:47.933Z</time></trkpt><trkpt lat="43.43122984077647" lon="11.725377032764348"><ele>485.00000000000006</ele><time>2026-04-19T06:43:51.933Z</time></trkpt><trkpt lat="43.431172288672975" lon="11.725339749902403"><ele>483.8333333333333</ele><time>2026-04-19T06:43:54.933Z</time></trkpt><trkpt lat="43.4310929013987" lon="11.725307859156825"><ele>482.66666666666663</ele><time>2026-04-19T06:43:57.933Z</time></trkpt><trkpt lat="43.431037732707296" lon="11.72525393046112"><ele>481.5</ele><time>2026-04-19T06:44:00.933Z</time></trkpt><trkpt lat="43.430968800511295" lon="11.725214918496544"><ele>480.33333333333337</ele><time>2026-04-19T06:44:02.933Z</time></trkpt><trkpt lat="43.43089727704784" lon="11.725210219827902"><ele>479.1666666666667</ele><time>2026-04-19T06:44:04.933Z</time></trkpt><trkpt lat="43.430812269972044" lon="11.725163512263926"><ele>478.0</ele><time>2026-04-19T06:44:07.933Z</time></trkpt><trkpt lat="43.43073019719198" lon="11.725084848951267"><ele>478.00000000000006</ele><time>2026-04-19T06:44:10.933Z</time></trkpt><trkpt lat="43.4306977157236" lon="11.724996154487346"><ele>478.0</ele><time>2026-04-19T06:44:12.933Z</time></trkpt><trkpt lat="43.430720899331384" lon="11.724905869271865"><ele>478.0</ele><time>2026-04-19T06:44:14.933Z</time></trkpt><trkpt lat="43.4307523682827" lon="11.724824316217493"><ele>478.0</ele><time>2026-04-19T06:44:16.933Z</time></trkpt><trkpt lat="43.43082371389334" lon="11.724751976013483"><ele>478.00000000000006</ele><time>2026-04-19T06:44:19.933Z</time></trkpt><trkpt lat="43.43083785108904" lon="11.724639080082186"><ele>478.0</ele><time>2026-04-19T06:44:22.933Z</time></trkpt><trkpt lat="43.43077560321578" lon="11.72457736991468"><ele>478.00000000000006</ele><time>2026-04-19T06:44:24.933Z</time></trkpt><trkpt lat="43.430698818144805" lon="11.724569594365851"><ele>478.0</ele><time>2026-04-19T06:44:26.933Z</time></trkpt><trkpt lat="43.43060862946831" lon="11.72454630642307"><ele>478.0</ele><time>2026-04-19T06:44:28.933Z</time></trkpt><trkpt lat="43.430532907964334" lon="11.724506184069782"><ele>478.0</ele><time>2026-04-19T06:44:30.932Z</time></trkpt><trkpt lat="43.4304506971646" lon="11.724469321999862"><ele>478.00000000000006</ele><time>2026-04-19T06:44:32.932Z</time></trkpt><trkpt lat="43.43034794972277" lon="11.724442559626171"><ele>478.0</ele><time>2026-04-19T06:44:34.932Z</time></trkpt><trkpt lat="43.43024372423663" lon="11.724451433951673"><ele>474.59999999999997</ele><time>2026-04-19T06:44:36.932Z</time></trkpt><trkpt lat="43.430151371686996" lon="11.724482042447551"><ele>471.19999999999993</ele><time>2026-04-19T06:44:38.932Z</time></trkpt><trkpt lat="43.43006327699772" lon="11.724510647956649"><ele>467.8</ele><time>2026-04-19T06:44:40.932Z</time></trkpt><trkpt lat="43.429982638555614" lon="11.724586460869219"><ele>464.4</ele><time>2026-04-19T06:44:42.932Z</time></trkpt><trkpt lat="43.4298953333956" lon="11.724640440209802"><ele>461.0</ele><time>2026-04-19T06:44:44.933Z</time></trkpt><trkpt lat="43.429801124573586" lon="11.724691852404261"><ele>461.0</ele><time>2026-04-19T06:44:46.934Z</time></trkpt><trkpt lat="43.42973300601782" lon="11.724747935366095"><ele>461.0</ele><time>2026-04-19T06:44:48.934Z</time></trkpt><trkpt lat="43.429669228237024" lon="11.724802630807334"><ele>461.0</ele><time>2026-04-19T06:44:50.935Z</time></trkpt><trkpt lat="43.429575784007916" lon="11.724866978922586"><ele>461.0</ele><time>2026-04-19T06:44:52.935Z</time></trkpt><trkpt lat="43.429473423897726" lon="11.724919269249598"><ele>461.0</ele><time>2026-04-19T06:44:54.936Z</time></trkpt><trkpt lat="43.42937049343834" lon="11.724961788470855"><ele>458.16666666666663</ele><time>2026-04-19T06:44:56.936Z</time></trkpt><trkpt lat="43.429294872589956" lon="11.724998565477488"><ele>455.3333333333333</ele><time>2026-04-19T06:44:58.936Z</time></trkpt><trkpt lat="43.42922828409569" lon="11.725052938355217"><ele>452.5</ele><time>2026-04-19T06:45:00.937Z</time></trkpt><trkpt lat="43.429143034049225" lon="11.725058979812994"><ele>449.66666666666663</ele><time>2026-04-19T06:45:02.937Z</time></trkpt><trkpt lat="43.42905346088474" lon="11.725058033230509"><ele>446.8333333333333</ele><time>2026-04-19T06:45:04.937Z</time></trkpt><trkpt lat="43.42897215267882" lon="11.725049136264984"><ele>444.0</ele><time>2026-04-19T06:45:06.937Z</time></trkpt><trkpt lat="43.42890562911381" lon="11.725086996885388"><ele>444.0</ele><time>2026-04-19T06:45:09.937Z</time></trkpt><trkpt lat="43.428882042836264" lon="11.72517266169306"><ele>444.0</ele><time>2026-04-19T06:46:33.935Z</time></trkpt><trkpt lat="43.42890828057123" lon="11.72526873877548"><ele>444.0</ele><time>2026-04-19T06:46:37.935Z</time></trkpt><trkpt lat="43.4289474582889" lon="11.725373139055522"><ele>444.0</ele><time>2026-04-19T06:46:40.935Z</time></trkpt><trkpt lat="43.42899823253916" lon="11.725487039921566"><ele>444.0</ele><time>2026-04-19T06:46:43.935Z</time></trkpt><trkpt lat="43.42902204311639" lon="11.725567856675355"><ele>444.0</ele><time>2026-04-19T06:46:45.935Z</time></trkpt><trkpt lat="43.429057484140166" lon="11.725658292985537"><ele>442.8333333333333</ele><time>2026-04-19T06:46:47.935Z</time></trkpt><trkpt lat="43.42910002408802" lon="11.725762391866542"><ele>441.66666666666663</ele><time>2026-04-19T06:46:49.935Z</time></trkpt><trkpt lat="43.429137199629736" lon="11.725857554581768"><ele>440.5</ele><time>2026-04-19T06:46:51.935Z</time></trkpt><trkpt lat="43.429165688248474" lon="11.725946288042998"><ele>439.3333333333333</ele><time>2026-04-19T06:46:53.935Z</time></trkpt><trkpt lat="43.42919974919352" lon="11.726036666770693"><ele>438.16666666666663</ele><time>2026-04-19T06:46:55.935Z</time></trkpt><trkpt lat="43.42916476830683" lon="11.726147907899819"><ele>437.0</ele><time>2026-04-19T06:46:58.935Z</time></trkpt><trkpt lat="43.429090949275746" lon="11.726179288985941"><ele>436.0</ele><time>2026-04-19T06:47:01.935Z</time></trkpt><trkpt lat="43.42900081425149" lon="11.726199149806964"><ele>435.00000000000006</ele><time>2026-04-19T06:47:04.935Z</time></trkpt><trkpt lat="43.42893068909377" lon="11.726218145362218"><ele>434.00000000000006</ele><time>2026-04-19T06:47:06.935Z</time></trkpt><trkpt lat="43.428837219655705" lon="11.726236349775053"><ele>433.0</ele><time>2026-04-19T06:47:09.935Z</time></trkpt><trkpt lat="43.428725913099534" lon="11.726246576124547"><ele>432.0</ele><time>2026-04-19T06:47:12.935Z</time></trkpt><trkpt lat="43.42863025938632" lon="11.726241857866027"><ele>430.8</ele><time>2026-04-19T06:47:14.935Z</time></trkpt><trkpt lat="43.4285201990479" lon="11.726220205751082"><ele>429.6</ele><time>2026-04-19T06:47:16.935Z</time></trkpt><trkpt lat="43.42841611713176" lon="11.726187242876172"><ele>428.40000000000003</ele><time>2026-04-19T06:47:18.935Z</time></trkpt><trkpt lat="43.428320051329116" lon="11.726138018889891"><ele>427.20000000000005</ele><time>2026-04-19T06:47:20.935Z</time></trkpt><trkpt lat="43.428242610778376" lon="11.726085394778787"><ele>426.0</ele><time>2026-04-19T06:47:22.935Z</time></trkpt><trkpt lat="43.428167600230765" lon="11.726054309642178"><ele>426.0</ele><time>2026-04-19T06:47:25.935Z</time></trkpt><trkpt lat="43.42807261960339" lon="11.726048761266542"><ele>426.0</ele><time>2026-04-19T06:47:27.935Z</time></trkpt><trkpt lat="43.4279894515331" lon="11.726035893653089"><ele>426.0</ele><time>2026-04-19T06:47:29.935Z</time></trkpt><trkpt lat="43.42790418837146" lon="11.726000954153964"><ele>426.0</ele><time>2026-04-19T06:47:31.934Z</time></trkpt><trkpt lat="43.427817060912005" lon="11.725986044847101"><ele>426.0</ele><time>2026-04-19T06:47:33.935Z</time></trkpt><trkpt lat="43.427720908222284" lon="11.725979765108418"><ele>424.4</ele><time>2026-04-19T06:47:35.934Z</time></trkpt><trkpt lat="43.42761954517798" lon="11.72597587258176"><ele>422.8</ele><time>2026-04-19T06:47:37.934Z</time></trkpt><trkpt lat="43.42753281200483" lon="11.725971241904528"><ele>421.2</ele><time>2026-04-19T06:47:39.934Z</time></trkpt><trkpt lat="43.42743526685279" lon="11.725947703362891"><ele>419.59999999999997</ele><time>2026-04-19T06:47:41.934Z</time></trkpt><trkpt lat="43.42733578363172" lon="11.725964960517805"><ele>418.0</ele><time>2026-04-19T06:47:43.934Z</time></trkpt><trkpt lat="43.42725058189732" lon="11.725971414904688"><ele>418.0</ele><time>2026-04-19T06:47:45.934Z</time></trkpt><trkpt lat="43.427149567343854" lon="11.725951354377722"><ele>418.0</ele><time>2026-04-19T06:47:47.934Z</time></trkpt><trkpt lat="43.42706481922143" lon="11.725929168899526"><ele>418.0</ele><time>2026-04-19T06:47:49.934Z</time></trkpt><trkpt lat="43.42696713675312" lon="11.725933009253014"><ele>418.0</ele><time>2026-04-19T06:47:51.934Z</time></trkpt><trkpt lat="43.426864521485044" lon="11.725927115953834"><ele>418.0</ele><time>2026-04-19T06:47:53.934Z</time></trkpt><trkpt lat="43.4267745309494" lon="11.725982211535504"><ele>415.79999999999995</ele><time>2026-04-19T06:47:55.934Z</time></trkpt><trkpt lat="43.426692403939704" lon="11.725972321088694"><ele>413.6</ele><time>2026-04-19T06:47:57.934Z</time></trkpt><trkpt lat="43.42659200794837" lon="11.725965167150205"><ele>411.4</ele><time>2026-04-19T06:47:59.934Z</time></trkpt><trkpt lat="43.426497182374256" lon="11.725964211882793"><ele>409.20000000000005</ele><time>2026-04-19T06:48:01.934Z</time></trkpt><trkpt lat="43.42640136962872" lon="11.725970184903108"><ele>407.0</ele><time>2026-04-19T06:48:03.934Z</time></trkpt><trkpt lat="43.42630390704033" lon="11.725972303485506"><ele>405.49999999999994</ele><time>2026-04-19T06:48:05.934Z</time></trkpt><trkpt lat="43.42623981842735" lon="11.725972426384363"><ele>404.0</ele><time>2026-04-19T06:48:06.934Z</time></trkpt><trkpt lat="43.42615084142819" lon="11.725970870564025"><ele>402.5</ele><time>2026-04-19T06:48:08.934Z</time></trkpt><trkpt lat="43.42606040380727" lon="11.725978554122642"><ele>401.0</ele><time>2026-04-19T06:48:11.934Z</time></trkpt><trkpt lat="43.42599008427577" lon="11.725975636733553"><ele>399.49999999999994</ele><time>2026-04-19T06:48:13.934Z</time></trkpt><trkpt lat="43.42587875672555" lon="11.725973361410798"><ele>398.0</ele><time>2026-04-19T06:48:15.934Z</time></trkpt><trkpt lat="43.42579013049101" lon="11.725946823107629"><ele>397.99999999999994</ele><time>2026-04-19T06:48:17.934Z</time></trkpt><trkpt lat="43.42571334826597" lon="11.725948255713952"><ele>398.0</ele><time>2026-04-19T06:48:19.934Z</time></trkpt><trkpt lat="43.42563881295898" lon="11.725939104854245"><ele>398.0</ele><time>2026-04-19T06:48:21.934Z</time></trkpt><trkpt lat="43.425566434951804" lon="11.72587253775239"><ele>398.0</ele><time>2026-04-19T06:48:23.934Z</time></trkpt><trkpt lat="43.425480232431426" lon="11.725888511648"><ele>397.99999999999994</ele><time>2026-04-19T06:48:25.934Z</time></trkpt><trkpt lat="43.42537856326357" lon="11.725860585038387"><ele>398.0</ele><time>2026-04-19T06:48:27.934Z</time></trkpt><trkpt lat="43.425263029016435" lon="11.725862064904293"><ele>396.66666666666663</ele><time>2026-04-19T06:48:29.934Z</time></trkpt><trkpt lat="43.42514569481203" lon="11.725884235216745"><ele>395.3333333333333</ele><time>2026-04-19T06:48:31.934Z</time></trkpt><trkpt lat="43.425084787304954" lon="11.725914524393872"><ele>394.0</ele><time>2026-04-19T06:48:32.934Z</time></trkpt><trkpt lat="43.42499388383708" lon="11.725960940541169"><ele>392.66666666666663</ele><time>2026-04-19T06:48:34.934Z</time></trkpt><trkpt lat="43.4249149771124" lon="11.726002256563891"><ele>391.3333333333333</ele><time>2026-04-19T06:48:36.934Z</time></trkpt><trkpt lat="43.42484696692557" lon="11.726051936803984"><ele>390.0</ele><time>2026-04-19T06:49:24.934Z</time></trkpt><trkpt lat="43.42478405590893" lon="11.726064161295211"><ele>390.0</ele><time>2026-04-19T06:49:29.934Z</time></trkpt><trkpt lat="43.42471940997249" lon="11.725894935903076"><ele>390.0</ele><time>2026-04-19T06:49:30.934Z</time></trkpt><trkpt lat="43.424674075671824" lon="11.72582287405064"><ele>390.0</ele><time>2026-04-19T06:49:32.934Z</time></trkpt><trkpt lat="43.42458081637876" lon="11.725754600602952"><ele>390.0</ele><time>2026-04-19T06:49:34.932Z</time></trkpt><trkpt lat="43.424489546042885" lon="11.725698262352605"><ele>390.0</ele><time>2026-04-19T06:49:36.932Z</time></trkpt><trkpt lat="43.424373258342484" lon="11.725654280614247"><ele>389.0</ele><time>2026-04-19T06:49:38.933Z</time></trkpt><trkpt lat="43.424313549303164" lon="11.725624989282224"><ele>388.0</ele><time>2026-04-19T06:49:39.933Z</time></trkpt><trkpt lat="43.424196055794454" lon="11.725565922690155"><ele>387.0</ele><time>2026-04-19T06:49:41.932Z</time></trkpt><trkpt lat="43.42413010640115" lon="11.725530778425227"><ele>386.0</ele><time>2026-04-19T06:49:42.932Z</time></trkpt><trkpt lat="43.4240627150754" lon="11.725487620816056"><ele>385.0</ele><time>2026-04-19T06:49:43.932Z</time></trkpt><trkpt lat="43.42400328969124" lon="11.725438997876877"><ele>384.0</ele><time>2026-04-19T06:49:44.933Z</time></trkpt><trkpt lat="43.423942781752324" lon="11.725389762885527"><ele>384.0</ele><time>2026-04-19T06:49:45.933Z</time></trkpt><trkpt lat="43.42388155177499" lon="11.725343833794925"><ele>384.0</ele><time>2026-04-19T06:49:46.932Z</time></trkpt><trkpt lat="43.42381328338006" lon="11.725286337351939"><ele>384.0</ele><time>2026-04-19T06:49:47.932Z</time></trkpt><trkpt lat="43.42372884860111" lon="11.725242152013776"><ele>384.0</ele><time>2026-04-19T06:49:48.932Z</time></trkpt><trkpt lat="43.423648914013164" lon="11.725191431930059"><ele>384.0</ele><time>2026-04-19T06:49:49.932Z</time></trkpt><trkpt lat="43.423581944386214" lon="11.725135097079372"><ele>384.0</ele><time>2026-04-19T06:49:50.932Z</time></trkpt><trkpt lat="43.423498519392574" lon="11.72509126196525"><ele>383.5</ele><time>2026-04-19T06:49:51.932Z</time></trkpt><trkpt lat="43.423414897335256" lon="11.725071940265266"><ele>383.0</ele><time>2026-04-19T06:49:52.932Z</time></trkpt><trkpt lat="43.423328449108105" lon="11.725049431037908"><ele>382.5</ele><time>2026-04-19T06:49:53.932Z</time></trkpt><trkpt lat="43.42323923865787" lon="11.725024185589893"><ele>382.0</ele><time>2026-04-19T06:49:54.932Z</time></trkpt><trkpt lat="43.42315692196767" lon="11.7249995164143"><ele>381.5</ele><time>2026-04-19T06:49:55.932Z</time></trkpt><trkpt lat="43.4230699876034" lon="11.724969485383012"><ele>381.0</ele><time>2026-04-19T06:49:56.932Z</time></trkpt><trkpt lat="43.42298461689778" lon="11.72493996039847"><ele>380.4</ele><time>2026-04-19T06:49:57.932Z</time></trkpt><trkpt lat="43.42289302676373" lon="11.724903300665487"><ele>379.8</ele><time>2026-04-19T06:49:58.932Z</time></trkpt><trkpt lat="43.4228088380447" lon="11.724854357462563"><ele>379.2</ele><time>2026-04-19T06:49:59.932Z</time></trkpt><trkpt lat="43.42271868160849" lon="11.724805798220236"><ele>378.59999999999997</ele><time>2026-04-19T06:50:00.932Z</time></trkpt><trkpt lat="43.422645307597094" lon="11.724745805923767"><ele>378.0</ele><time>2026-04-19T06:50:01.932Z</time></trkpt><trkpt lat="43.422566524295995" lon="11.724687185550343"><ele>378.0</ele><time>2026-04-19T06:50:02.932Z</time></trkpt><trkpt lat="43.42250265502142" lon="11.724625955733533"><ele>378.0</ele><time>2026-04-19T06:50:03.932Z</time></trkpt><trkpt lat="43.422438334234265" lon="11.724551116793384"><ele>378.0</ele><time>2026-04-19T06:50:04.932Z</time></trkpt><trkpt lat="43.42238989359184" lon="11.724457954412678"><ele>378.0</ele><time>2026-04-19T06:50:05.932Z</time></trkpt><trkpt lat="43.42234967545087" lon="11.724351649390874"><ele>378.0</ele><time>2026-04-19T06:50:06.932Z</time></trkpt><trkpt lat="43.42232694973394" lon="11.724234546660881"><ele>378.0</ele><time>2026-04-19T06:50:07.932Z</time></trkpt><trkpt lat="43.42231733372342" lon="11.724112115551126"><ele>377.5</ele><time>2026-04-19T06:50:08.932Z</time></trkpt><trkpt lat="43.42231736208493" lon="11.723997137362971"><ele>377.0</ele><time>2026-04-19T06:50:09.932Z</time></trkpt><trkpt lat="43.42231703574004" lon="11.723883991882051"><ele>376.5</ele><time>2026-04-19T06:50:10.932Z</time></trkpt><trkpt lat="43.422340044566916" lon="11.723760928452466"><ele>376.0</ele><time>2026-04-19T06:50:11.932Z</time></trkpt><trkpt lat="43.42233510769453" lon="11.72364715619006"><ele>375.5</ele><time>2026-04-19T06:50:12.932Z</time></trkpt><trkpt lat="43.422332252117954" lon="11.723531589037002"><ele>375.0</ele><time>2026-04-19T06:50:13.932Z</time></trkpt><trkpt lat="43.422326579353964" lon="11.723423128140329"><ele>374.1666666666667</ele><time>2026-04-19T06:50:14.932Z</time></trkpt><trkpt lat="43.42232233919789" lon="11.723305456104761"><ele>373.3333333333333</ele><time>2026-04-19T06:50:15.932Z</time></trkpt><trkpt lat="43.42232172235968" lon="11.72318888364274"><ele>372.5</ele><time>2026-04-19T06:50:16.932Z</time></trkpt><trkpt lat="43.42232939668203" lon="11.723074754943712"><ele>371.66666666666663</ele><time>2026-04-19T06:50:17.932Z</time></trkpt><trkpt lat="43.42233631619008" lon="11.722963062275582"><ele>370.8333333333333</ele><time>2026-04-19T06:50:18.932Z</time></trkpt><trkpt lat="43.42234458093488" lon="11.722846894875339"><ele>370.0</ele><time>2026-04-19T06:50:19.932Z</time></trkpt><trkpt lat="43.4223512024079" lon="11.722733684666029"><ele>369.3333333333333</ele><time>2026-04-19T06:50:20.932Z</time></trkpt><trkpt lat="43.42235913463024" lon="11.722619882475438"><ele>368.66666666666663</ele><time>2026-04-19T06:50:21.932Z</time></trkpt><trkpt lat="43.422369015272594" lon="11.722510414623075"><ele>368.0</ele><time>2026-04-19T06:50:22.932Z</time></trkpt><trkpt lat="43.42237548487369" lon="11.722403501149792"><ele>367.3333333333333</ele><time>2026-04-19T06:50:23.932Z</time></trkpt><trkpt lat="43.42238051321399" lon="11.722299038064108"><ele>366.6666666666667</ele><time>2026-04-19T06:50:24.932Z</time></trkpt><trkpt lat="43.422392582343385" lon="11.722194386814964"><ele>366.0</ele><time>2026-04-19T06:50:25.932Z</time></trkpt><trkpt lat="43.422398420915236" lon="11.722100936593185"><ele>366.0</ele><time>2026-04-19T06:50:26.932Z</time></trkpt><trkpt lat="43.422405133721526" lon="11.722014496382405"><ele>366.0</ele><time>2026-04-19T06:50:27.932Z</time></trkpt><trkpt lat="43.42240814829776" lon="11.721912983975692"><ele>366.0</ele><time>2026-04-19T06:50:28.932Z</time></trkpt><trkpt lat="43.42242130740125" lon="11.721743845781777"><ele>366.0</ele><time>2026-04-19T06:50:30.932Z</time></trkpt><trkpt lat="43.42242094897615" lon="11.721576735782953"><ele>366.0</ele><time>2026-04-19T06:50:32.932Z</time></trkpt><trkpt lat="43.42239980938608" lon="11.721403383226226"><ele>365.75</ele><time>2026-04-19T06:50:34.932Z</time></trkpt><trkpt lat="43.4223765320803" lon="11.721245378502767"><ele>365.5</ele><time>2026-04-19T06:50:36.932Z</time></trkpt><trkpt lat="43.42235296868321" lon="11.721091747061951"><ele>365.25</ele><time>2026-04-19T06:50:38.932Z</time></trkpt><trkpt lat="43.42233341001106" lon="11.72094222261956"><ele>365.0</ele><time>2026-04-19T06:50:40.932Z</time></trkpt><trkpt lat="43.42232224637249" lon="11.720792363388302"><ele>365.1666666666667</ele><time>2026-04-19T06:50:42.932Z</time></trkpt><trkpt lat="43.42230719590279" lon="11.720619048059254"><ele>365.33333333333337</ele><time>2026-04-19T06:50:44.932Z</time></trkpt><trkpt lat="43.422301850059895" lon="11.720526690322908"><ele>365.5</ele><time>2026-04-19T06:50:45.932Z</time></trkpt><trkpt lat="43.422313338368184" lon="11.72043525444415"><ele>365.6666666666667</ele><time>2026-04-19T06:50:46.932Z</time></trkpt><trkpt lat="43.42231576054454" lon="11.720336830901058"><ele>365.8333333333333</ele><time>2026-04-19T06:50:47.932Z</time></trkpt><trkpt lat="43.42232474229219" lon="11.720234714703862"><ele>366.0</ele><time>2026-04-19T06:50:48.932Z</time></trkpt><trkpt lat="43.42233478684197" lon="11.720131666638272"><ele>366.0</ele><time>2026-04-19T06:50:49.932Z</time></trkpt><trkpt lat="43.42234704304532" lon="11.72003461211467"><ele>366.0</ele><time>2026-04-19T06:50:50.932Z</time></trkpt><trkpt lat="43.42235475987858" lon="11.719934821992727"><ele>366.0</ele><time>2026-04-19T06:50:51.932Z</time></trkpt><trkpt lat="43.4223632986394" lon="11.719829304557765"><ele>366.0</ele><time>2026-04-19T06:50:52.932Z</time></trkpt><trkpt lat="43.422372917321" lon="11.719735825280328"><ele>366.0</ele><time>2026-04-19T06:50:53.932Z</time></trkpt><trkpt lat="43.42240070855203" lon="11.719632529829124"><ele>366.0</ele><time>2026-04-19T06:50:54.932Z</time></trkpt><trkpt lat="43.422412927476415" lon="11.719532173864584"><ele>366.0</ele><time>2026-04-19T06:50:55.932Z</time></trkpt><trkpt lat="43.42242871723495" lon="11.719426353628505"><ele>364.6666666666667</ele><time>2026-04-19T06:50:56.932Z</time></trkpt><trkpt lat="43.42245284847372" lon="11.719328657450097"><ele>363.3333333333333</ele><time>2026-04-19T06:50:57.932Z</time></trkpt><trkpt lat="43.42247769128025" lon="11.719228464970795"><ele>362.0</ele><time>2026-04-19T06:50:58.932Z</time></trkpt><trkpt lat="43.42250621933998" lon="11.71912804388308"><ele>360.66666666666663</ele><time>2026-04-19T06:50:59.932Z</time></trkpt><trkpt lat="43.42253930051046" lon="11.719021482199746"><ele>359.3333333333333</ele><time>2026-04-19T06:51:00.932Z</time></trkpt><trkpt lat="43.422571354724546" lon="11.718910607306944"><ele>358.0</ele><time>2026-04-19T06:51:01.932Z</time></trkpt><trkpt lat="43.42260679722522" lon="11.718802186301332"><ele>358.0</ele><time>2026-04-19T06:51:02.932Z</time></trkpt><trkpt lat="43.422641064020574" lon="11.718694591853032"><ele>358.0</ele><time>2026-04-19T06:51:03.932Z</time></trkpt><trkpt lat="43.42267607646077" lon="11.718584368578599"><ele>358.0</ele><time>2026-04-19T06:51:04.932Z</time></trkpt><trkpt lat="43.422711626029596" lon="11.718466887697613"><ele>358.0</ele><time>2026-04-19T06:51:05.932Z</time></trkpt><trkpt lat="43.422738108790945" lon="11.718345072589955"><ele>358.0</ele><time>2026-04-19T06:51:06.932Z</time></trkpt><trkpt lat="43.42274808829112" lon="11.718215492470387"><ele>356.59999999999997</ele><time>2026-04-19T06:51:07.932Z</time></trkpt><trkpt lat="43.42274638498661" lon="11.71808215518146"><ele>355.2</ele><time>2026-04-19T06:51:08.932Z</time></trkpt><trkpt lat="43.42273523287679" lon="11.717941130194296"><ele>353.8</ele><time>2026-04-19T06:51:09.932Z</time></trkpt><trkpt lat="43.4227167594949" lon="11.717803601993511"><ele>352.4</ele><time>2026-04-19T06:51:10.932Z</time></trkpt><trkpt lat="43.42267950098333" lon="11.717675397341726"><ele>351.0</ele><time>2026-04-19T06:51:11.932Z</time></trkpt><trkpt lat="43.42262932940346" lon="11.717555191530716"><ele>350.6</ele><time>2026-04-19T06:51:12.932Z</time></trkpt><trkpt lat="43.42257824150519" lon="11.71743873328042"><ele>350.20000000000005</ele><time>2026-04-19T06:51:13.932Z</time></trkpt><trkpt lat="43.42252576319389" lon="11.717327273685395"><ele>349.79999999999995</ele><time>2026-04-19T06:51:14.932Z</time></trkpt><trkpt lat="43.422482425911525" lon="11.717216783740195"><ele>349.4</ele><time>2026-04-19T06:51:15.932Z</time></trkpt><trkpt lat="43.422435019039874" lon="11.717108381037535"><ele>349.0</ele><time>2026-04-19T06:51:16.932Z</time></trkpt><trkpt lat="43.42238603519619" lon="11.716998860826655"><ele>349.66666666666663</ele><time>2026-04-19T06:51:17.932Z</time></trkpt><trkpt lat="43.422341888738224" lon="11.716893989608604"><ele>350.3333333333333</ele><time>2026-04-19T06:51:18.932Z</time></trkpt><trkpt lat="43.42229787373458" lon="11.716785892417352"><ele>351.0</ele><time>2026-04-19T06:51:19.932Z</time></trkpt><trkpt lat="43.42225673782428" lon="11.716686921204262"><ele>351.6666666666667</ele><time>2026-04-19T06:51:20.932Z</time></trkpt><trkpt lat="43.42221656227148" lon="11.716591035121604"><ele>352.33333333333337</ele><time>2026-04-19T06:51:21.932Z</time></trkpt><trkpt lat="43.42217458495588" lon="11.716502054154693"><ele>353.0</ele><time>2026-04-19T06:51:22.932Z</time></trkpt><trkpt lat="43.42213306888912" lon="11.7164175465793"><ele>351.85714285714283</ele><time>2026-04-19T06:51:23.932Z</time></trkpt><trkpt lat="43.42209200959263" lon="11.716336152667946"><ele>350.7142857142857</ele><time>2026-04-19T06:51:24.932Z</time></trkpt><trkpt lat="43.422047860251595" lon="11.716255694802381"><ele>349.57142857142856</ele><time>2026-04-19T06:51:25.932Z</time></trkpt><trkpt lat="43.42200631051716" lon="11.71617714697954"><ele>348.42857142857144</ele><time>2026-04-19T06:51:26.932Z</time></trkpt><trkpt lat="43.42196096174873" lon="11.71609488686724"><ele>347.2857142857143</ele><time>2026-04-19T06:51:27.932Z</time></trkpt><trkpt lat="43.42191706437973" lon="11.716011658441232"><ele>346.14285714285717</ele><time>2026-04-19T06:51:28.932Z</time></trkpt><trkpt lat="43.42187334202997" lon="11.715932818657512"><ele>345.0</ele><time>2026-04-19T06:51:29.932Z</time></trkpt><trkpt lat="43.42183339146231" lon="11.715859501861225"><ele>344.8333333333333</ele><time>2026-04-19T06:51:30.932Z</time></trkpt><trkpt lat="43.42179384126979" lon="11.715785707547017"><ele>344.6666666666667</ele><time>2026-04-19T06:51:31.932Z</time></trkpt><trkpt lat="43.421756046052096" lon="11.715705923747933"><ele>344.5</ele><time>2026-04-19T06:51:32.932Z</time></trkpt><trkpt lat="43.421696092630064" lon="11.715544291296961"><ele>344.33333333333337</ele><time>2026-04-19T06:51:34.932Z</time></trkpt><trkpt lat="43.42167365063625" lon="11.715455389026742"><ele>344.1666666666667</ele><time>2026-04-19T06:51:35.932Z</time></trkpt><trkpt lat="43.42165450853333" lon="11.715369391423204"><ele>344.0</ele><time>2026-04-19T06:51:36.932Z</time></trkpt><trkpt lat="43.42164218734469" lon="11.715284175263921"><ele>344.00000000000006</ele><time>2026-04-19T06:51:37.932Z</time></trkpt><trkpt lat="43.42163010779358" lon="11.71519888867664"><ele>344.0</ele><time>2026-04-19T06:51:38.932Z</time></trkpt><trkpt lat="43.42162442081075" lon="11.715109903218941"><ele>344.0</ele><time>2026-04-19T06:51:39.932Z</time></trkpt><trkpt lat="43.42161745489085" lon="11.715019606736238"><ele>344.0</ele><time>2026-04-19T06:51:40.93Z</time></trkpt><trkpt lat="43.42161187664664" lon="11.714927362724882"><ele>344.0</ele><time>2026-04-19T06:51:41.93Z</time></trkpt><trkpt lat="43.42161657024348" lon="11.714835737803464"><ele>344.00000000000006</ele><time>2026-04-19T06:51:42.93Z</time></trkpt><trkpt lat="43.42162999692607" lon="11.714747160203"><ele>344.0</ele><time>2026-04-19T06:51:43.93Z</time></trkpt><trkpt lat="43.42164240632939" lon="11.714656398234741"><ele>344.00000000000006</ele><time>2026-04-19T06:51:44.93Z</time></trkpt><trkpt lat="43.42166741016649" lon="11.714573042175317"><ele>344.0</ele><time>2026-04-19T06:51:45.93Z</time></trkpt><trkpt lat="43.42169367569535" lon="11.714482799746245"><ele>344.0</ele><time>2026-04-19T06:51:46.93Z</time></trkpt><trkpt lat="43.42174227659179" lon="11.714415466217726"><ele>344.0</ele><time>2026-04-19T06:51:47.93Z</time></trkpt><trkpt lat="43.42176886333264" lon="11.714332175853718"><ele>344.0</ele><time>2026-04-19T06:51:48.929Z</time></trkpt><trkpt lat="43.42180728527932" lon="11.714260108182561"><ele>344.00000000000006</ele><time>2026-04-19T06:51:49.929Z</time></trkpt><trkpt lat="43.421849628303924" lon="11.714186017513743"><ele>344.0</ele><time>2026-04-19T06:51:50.93Z</time></trkpt><trkpt lat="43.42188974518712" lon="11.714113489768543"><ele>343.7142857142857</ele><time>2026-04-19T06:51:51.93Z</time></trkpt><trkpt lat="43.4219330640135" lon="11.714038570247824"><ele>343.42857142857144</ele><time>2026-04-19T06:51:52.93Z</time></trkpt><trkpt lat="43.42197465824344" lon="11.71396410158677"><ele>343.1428571428571</ele><time>2026-04-19T06:51:53.93Z</time></trkpt><trkpt lat="43.4220160105519" lon="11.713895424754977"><ele>342.8571428571429</ele><time>2026-04-19T06:51:54.93Z</time></trkpt><trkpt lat="43.42205966540073" lon="11.71382182538445"><ele>342.57142857142856</ele><time>2026-04-19T06:51:55.93Z</time></trkpt><trkpt lat="43.42210099515205" lon="11.713749692896558"><ele>342.2857142857143</ele><time>2026-04-19T06:51:56.93Z</time></trkpt><trkpt lat="43.42214247044652" lon="11.713674678079865"><ele>342.0</ele><time>2026-04-19T06:51:57.93Z</time></trkpt><trkpt lat="43.422184107249535" lon="11.713601356545539"><ele>342.4285714285714</ele><time>2026-04-19T06:51:58.93Z</time></trkpt><trkpt lat="43.42222456486764" lon="11.713529046550745"><ele>342.85714285714283</ele><time>2026-04-19T06:51:59.93Z</time></trkpt><trkpt lat="43.42226423757043" lon="11.713456365533629"><ele>343.2857142857143</ele><time>2026-04-19T06:52:00.93Z</time></trkpt><trkpt lat="43.42230412046055" lon="11.713382579918196"><ele>343.71428571428567</ele><time>2026-04-19T06:52:01.93Z</time></trkpt><trkpt lat="43.422345306893675" lon="11.71331369294737"><ele>344.1428571428571</ele><time>2026-04-19T06:52:02.93Z</time></trkpt><trkpt lat="43.42238617490019" lon="11.713238522474327"><ele>344.57142857142856</ele><time>2026-04-19T06:52:03.93Z</time></trkpt><trkpt lat="43.42242614715895" lon="11.713164829879954"><ele>345.0</ele><time>2026-04-19T06:52:04.93Z</time></trkpt><trkpt lat="43.422464673959695" lon="11.71309116176134"><ele>345.0</ele><time>2026-04-19T06:52:05.93Z</time></trkpt><trkpt lat="43.42250300193531" lon="11.713014113357806"><ele>345.0</ele><time>2026-04-19T06:52:06.93Z</time></trkpt><trkpt lat="43.42256271149356" lon="11.712867768944175"><ele>345.0</ele><time>2026-04-19T06:52:08.93Z</time></trkpt><trkpt lat="43.42260703356891" lon="11.712706074776055"><ele>345.0</ele><time>2026-04-19T06:52:10.93Z</time></trkpt><trkpt lat="43.42263515548184" lon="11.71254348404433"><ele>345.0</ele><time>2026-04-19T06:52:12.93Z</time></trkpt><trkpt lat="43.42264811186799" lon="11.712380800871987"><ele>344.75</ele><time>2026-04-19T06:52:14.929Z</time></trkpt><trkpt lat="43.422646547652406" lon="11.712219935753044"><ele>344.5</ele><time>2026-04-19T06:52:16.929Z</time></trkpt><trkpt lat="43.422638864287386" lon="11.712054264754727"><ele>344.25</ele><time>2026-04-19T06:52:18.929Z</time></trkpt><trkpt lat="43.42263213824315" lon="11.711887597276947"><ele>344.0</ele><time>2026-04-19T06:52:20.929Z</time></trkpt><trkpt lat="43.42262833771972" lon="11.711733832868028"><ele>344.0</ele><time>2026-04-19T06:52:22.929Z</time></trkpt><trkpt lat="43.42262229005726" lon="11.711570022989651"><ele>344.0</ele><time>2026-04-19T06:52:24.929Z</time></trkpt><trkpt lat="43.42261892598751" lon="11.711410319298514"><ele>344.0</ele><time>2026-04-19T06:52:26.929Z</time></trkpt><trkpt lat="43.42261502506281" lon="11.711322498015337"><ele>344.0</ele><time>2026-04-19T06:52:27.929Z</time></trkpt><trkpt lat="43.4226095567258" lon="11.711156962794465"><ele>344.0</ele><time>2026-04-19T06:52:29.929Z</time></trkpt><trkpt lat="43.42260802907875" lon="11.711070270319238"><ele>343.0</ele><time>2026-04-19T06:52:30.929Z</time></trkpt><trkpt lat="43.4226128440901" lon="11.710905582008145"><ele>342.0</ele><time>2026-04-19T06:52:32.929Z</time></trkpt><trkpt lat="43.42262851746826" lon="11.710751278410648"><ele>341.0</ele><time>2026-04-19T06:52:34.929Z</time></trkpt><trkpt lat="43.42264058004148" lon="11.710589503966002"><ele>340.0</ele><time>2026-04-19T06:52:36.929Z</time></trkpt><trkpt lat="43.4226536111052" lon="11.71044122459343"><ele>340.0</ele><time>2026-04-19T06:52:38.929Z</time></trkpt><trkpt lat="43.42268445282837" lon="11.710296109359678"><ele>340.0</ele><time>2026-04-19T06:52:40.929Z</time></trkpt><trkpt lat="43.422700841821666" lon="11.710142280873038"><ele>340.0</ele><time>2026-04-19T06:52:42.929Z</time></trkpt><trkpt lat="43.42270422506166" lon="11.710000242384094"><ele>340.0</ele><time>2026-04-19T06:52:44.929Z</time></trkpt><trkpt lat="43.422728440219586" lon="11.709900337818794"><ele>340.0</ele><time>2026-04-19T06:52:46.929Z</time></trkpt><trkpt lat="43.4226648975858" lon="11.70975632146667"><ele>339.4</ele><time>2026-04-19T06:52:48.929Z</time></trkpt><trkpt lat="43.42263566997645" lon="11.70960773532559"><ele>338.8</ele><time>2026-04-19T06:52:50.929Z</time></trkpt><trkpt lat="43.422560979841954" lon="11.70952043181554"><ele>338.20000000000005</ele><time>2026-04-19T06:52:52.929Z</time></trkpt><trkpt lat="43.42245215624757" lon="11.709383725622711"><ele>337.6</ele><time>2026-04-19T06:52:54.929Z</time></trkpt><trkpt lat="43.42237500817695" lon="11.709375659186032"><ele>337.0</ele><time>2026-04-19T06:52:55.929Z</time></trkpt><trkpt lat="43.42225678720827" lon="11.70941661226696"><ele>337.0</ele><time>2026-04-19T06:52:57.929Z</time></trkpt><trkpt lat="43.42217711202316" lon="11.709483437833748"><ele>337.0</ele><time>2026-04-19T06:52:59.929Z</time></trkpt><trkpt lat="43.42210735176744" lon="11.709542256358644"><ele>337.0</ele><time>2026-04-19T06:53:02.929Z</time></trkpt><trkpt lat="43.422045242057" lon="11.709589593841944"><ele>337.0</ele><time>2026-04-19T06:53:05.929Z</time></trkpt><trkpt lat="43.421976338086594" lon="11.709615406542147"><ele>337.0</ele><time>2026-04-19T06:53:08.929Z</time></trkpt><trkpt lat="43.42189614197282" lon="11.70962475414469"><ele>337.0</ele><time>2026-04-19T06:53:12.929Z</time></trkpt><trkpt lat="43.4218062320624" lon="11.709630136305602"><ele>338.0</ele><time>2026-04-19T06:53:15.929Z</time></trkpt><trkpt lat="43.42172086086122" lon="11.70963524677124"><ele>339.0</ele><time>2026-04-19T06:53:19.929Z</time></trkpt><trkpt lat="43.42165170482082" lon="11.709639386571014"><ele>340.0</ele><time>2026-04-19T06:53:22.929Z</time></trkpt><trkpt lat="43.421578084499046" lon="11.709649641759645"><ele>341.0</ele><time>2026-04-19T06:53:25.929Z</time></trkpt><trkpt lat="43.42151297243732" lon="11.70966770286603"><ele>342.0</ele><time>2026-04-19T06:53:28.929Z</time></trkpt><trkpt lat="43.42144422275794" lon="11.70971093367627"><ele>343.0</ele><time>2026-04-19T06:53:31.929Z</time></trkpt><trkpt lat="43.421377241199984" lon="11.709770740425013"><ele>345.66666666666663</ele><time>2026-04-19T06:53:34.929Z</time></trkpt><trkpt lat="43.421308872172354" lon="11.70984193898691"><ele>348.3333333333333</ele><time>2026-04-19T06:53:37.929Z</time></trkpt><trkpt lat="43.42125496852308" lon="11.709899088321576"><ele>351.0</ele><time>2026-04-19T06:53:40.929Z</time></trkpt><trkpt lat="43.421193741925514" lon="11.709964001531414"><ele>353.6666666666667</ele><time>2026-04-19T06:53:44.929Z</time></trkpt><trkpt lat="43.421135011174364" lon="11.710031857833116"><ele>356.33333333333337</ele><time>2026-04-19T06:53:48.928Z</time></trkpt><trkpt lat="43.42107247347066" lon="11.7101446221418"><ele>359.0</ele><time>2026-04-19T06:53:51.928Z</time></trkpt><trkpt lat="43.421048075092074" lon="11.710253433677646"><ele>360.7142857142857</ele><time>2026-04-19T06:53:54.928Z</time></trkpt><trkpt lat="43.421051049507184" lon="11.710347040465981"><ele>362.42857142857144</ele><time>2026-04-19T06:53:56.928Z</time></trkpt><trkpt lat="43.42106711474958" lon="11.710449149309813"><ele>364.1428571428571</ele><time>2026-04-19T06:53:59.928Z</time></trkpt><trkpt lat="43.42109722906398" lon="11.710552687399748"><ele>365.8571428571429</ele><time>2026-04-19T06:54:03.928Z</time></trkpt><trkpt lat="43.421089621568406" lon="11.710653294308369"><ele>367.57142857142856</ele><time>2026-04-19T06:54:06.928Z</time></trkpt><trkpt lat="43.42109580571935" lon="11.710744239033525"><ele>369.2857142857143</ele><time>2026-04-19T06:54:09.928Z</time></trkpt><trkpt lat="43.421100658524935" lon="11.710858774297222"><ele>371.0</ele><time>2026-04-19T06:54:13.928Z</time></trkpt><trkpt lat="43.421119692374496" lon="11.710970005924734"><ele>371.6666666666667</ele><time>2026-04-19T06:54:17.928Z</time></trkpt><trkpt lat="43.421118058914196" lon="11.711094196723367"><ele>372.33333333333337</ele><time>2026-04-19T06:54:21.928Z</time></trkpt><trkpt lat="43.421101056069034" lon="11.711210692561448"><ele>373.0</ele><time>2026-04-19T06:54:25.928Z</time></trkpt><trkpt lat="43.42111138929187" lon="11.711302966891763"><ele>373.6666666666667</ele><time>2026-04-19T06:54:28.928Z</time></trkpt><trkpt lat="43.421097154093914" lon="11.711416612213378"><ele>374.3333333333333</ele><time>2026-04-19T06:54:32.928Z</time></trkpt><trkpt lat="43.42108382860564" lon="11.711509524358863"><ele>375.0</ele><time>2026-04-19T06:54:35.928Z</time></trkpt><trkpt lat="43.42107631532772" lon="11.711596632737498"><ele>375.0</ele><time>2026-04-19T06:54:38.928Z</time></trkpt><trkpt lat="43.42106129963102" lon="11.711707230617181"><ele>375.0</ele><time>2026-04-19T06:54:42.928Z</time></trkpt><trkpt lat="43.42104970295476" lon="11.711804817933164"><ele>375.0</ele><time>2026-04-19T06:54:46.928Z</time></trkpt><trkpt lat="43.42103212343478" lon="11.711890675759555"><ele>375.0</ele><time>2026-04-19T06:54:49.928Z</time></trkpt><trkpt lat="43.421020381161334" lon="11.711991396461459"><ele>375.0</ele><time>2026-04-19T06:54:54.928Z</time></trkpt><trkpt lat="43.42100217302589" lon="11.712090384644084"><ele>375.0</ele><time>2026-04-19T06:55:00.928Z</time></trkpt><trkpt lat="43.42092185858415" lon="11.71210019707996"><ele>375.0</ele><time>2026-04-19T06:55:19.928Z</time></trkpt><trkpt lat="43.42084556508444" lon="11.71208662864674"><ele>372.5</ele><time>2026-04-19T06:55:22.928Z</time></trkpt><trkpt lat="43.42075186643048" lon="11.71206207410654"><ele>370.0</ele><time>2026-04-19T06:55:25.928Z</time></trkpt><trkpt lat="43.42067951539677" lon="11.712051221463073"><ele>367.5</ele><time>2026-04-19T06:55:27.928Z</time></trkpt><trkpt lat="43.42061017997119" lon="11.712037010056537"><ele>365.0</ele><time>2026-04-19T06:55:29.928Z</time></trkpt><trkpt lat="43.420391239676675" lon="11.711999272387104"><ele>368.00000000000006</ele><time>2026-04-19T06:55:32.928Z</time></trkpt><trkpt lat="43.4203263946168" lon="11.711992922772986"><ele>371.0</ele><time>2026-04-19T06:55:35.928Z</time></trkpt><trkpt lat="43.42025471199176" lon="11.711960133312521"><ele>374.0</ele><time>2026-04-19T06:55:39.928Z</time></trkpt><trkpt lat="43.42018766229416" lon="11.711929801291667"><ele>377.0</ele><time>2026-04-19T06:55:43.928Z</time></trkpt><trkpt lat="43.420121195478586" lon="11.711899775499784"><ele>380.0</ele><time>2026-04-19T06:55:47.928Z</time></trkpt><trkpt lat="43.42005572536491" lon="11.711872554379756"><ele>383.00000000000006</ele><time>2026-04-19T06:55:51.928Z</time></trkpt><trkpt lat="43.41997986875055" lon="11.711854377565247"><ele>386.0</ele><time>2026-04-19T06:55:55.926Z</time></trkpt><trkpt lat="43.41991673351791" lon="11.711844610768207"><ele>387.00000000000006</ele><time>2026-04-19T06:55:58.925Z</time></trkpt><trkpt lat="43.419841591147616" lon="11.711818493313254"><ele>388.0</ele><time>2026-04-19T06:56:02.926Z</time></trkpt><trkpt lat="43.41980230178635" lon="11.71171670987572"><ele>389.0</ele><time>2026-04-19T06:56:06.926Z</time></trkpt><trkpt lat="43.41976605521182" lon="11.711616054342562"><ele>390.0</ele><time>2026-04-19T06:56:10.926Z</time></trkpt><trkpt lat="43.41973004779178" lon="11.711539942082766"><ele>391.0</ele><time>2026-04-19T06:56:13.926Z</time></trkpt><trkpt lat="43.41969385247069" lon="11.711459910892092"><ele>392.00000000000006</ele><time>2026-04-19T06:56:16.926Z</time></trkpt><trkpt lat="43.41963398835097" lon="11.711407456783157"><ele>393.0</ele><time>2026-04-19T06:56:19.926Z</time></trkpt><trkpt lat="43.4195570861949" lon="11.71136930292479"><ele>394.28571428571433</ele><time>2026-04-19T06:56:23.926Z</time></trkpt><trkpt lat="43.41947544511074" lon="11.711338599803032"><ele>395.57142857142856</ele><time>2026-04-19T06:56:27.926Z</time></trkpt><trkpt lat="43.419405619773684" lon="11.71134974290009"><ele>396.8571428571429</ele><time>2026-04-19T06:56:30.926Z</time></trkpt><trkpt lat="43.4193262221791" lon="11.711382547574392"><ele>398.14285714285717</ele><time>2026-04-19T06:56:34.926Z</time></trkpt><trkpt lat="43.41926175856247" lon="11.7113901280295"><ele>399.42857142857144</ele><time>2026-04-19T06:56:37.926Z</time></trkpt><trkpt lat="43.41918172569926" lon="11.711391979169981"><ele>400.7142857142857</ele><time>2026-04-19T06:56:41.926Z</time></trkpt><trkpt lat="43.41911974486296" lon="11.711414711323483"><ele>402.0</ele><time>2026-04-19T06:56:44.926Z</time></trkpt><trkpt lat="43.41904254135923" lon="11.711441867270967"><ele>402.0</ele><time>2026-04-19T06:56:48.926Z</time></trkpt><trkpt lat="43.41897780878951" lon="11.71148470725734"><ele>402.0</ele><time>2026-04-19T06:56:52.926Z</time></trkpt><trkpt lat="43.41891770974099" lon="11.71154514723475"><ele>402.0</ele><time>2026-04-19T06:56:56.926Z</time></trkpt><trkpt lat="43.41886309447484" lon="11.711591521326586"><ele>402.0</ele><time>2026-04-19T06:56:59.926Z</time></trkpt><trkpt lat="43.41881335641153" lon="11.71164959198676"><ele>402.0</ele><time>2026-04-19T06:57:03.926Z</time></trkpt><trkpt lat="43.41875548821" lon="11.711710070679933"><ele>402.0</ele><time>2026-04-19T06:57:07.926Z</time></trkpt><trkpt lat="43.41869227034421" lon="11.711782677307673"><ele>402.0</ele><time>2026-04-19T06:57:11.926Z</time></trkpt><trkpt lat="43.418628628795496" lon="11.711860128040342"><ele>405.6666666666667</ele><time>2026-04-19T06:57:15.926Z</time></trkpt><trkpt lat="43.418581012066255" lon="11.711929077399517"><ele>409.33333333333337</ele><time>2026-04-19T06:57:19.926Z</time></trkpt><trkpt lat="43.41854810032802" lon="11.712008749790892"><ele>413.0</ele><time>2026-04-19T06:57:23.926Z</time></trkpt><trkpt lat="43.41851476400561" lon="11.712139158519937"><ele>416.6666666666667</ele><time>2026-04-19T06:57:27.926Z</time></trkpt><trkpt lat="43.418412313056805" lon="11.712135906740015"><ele>420.33333333333337</ele><time>2026-04-19T06:57:29.926Z</time></trkpt><trkpt lat="43.41837009992836" lon="11.712202399809064"><ele>424.0</ele><time>2026-04-19T06:57:33.926Z</time></trkpt><trkpt lat="43.41829050535822" lon="11.712181711244355"><ele>424.0</ele><time>2026-04-19T06:57:38.926Z</time></trkpt><trkpt lat="43.41821860116163" lon="11.712171368378018"><ele>424.0</ele><time>2026-04-19T06:57:42.926Z</time></trkpt><trkpt lat="43.418137340959504" lon="11.712196126575947"><ele>424.0</ele><time>2026-04-19T06:57:45.926Z</time></trkpt><trkpt lat="43.418063602651266" lon="11.71222350211929"><ele>424.0</ele><time>2026-04-19T06:57:48.926Z</time></trkpt><trkpt lat="43.41799226358719" lon="11.712244653476908"><ele>424.0</ele><time>2026-04-19T06:57:51.926Z</time></trkpt><trkpt lat="43.417925842862054" lon="11.712257958741745"><ele>424.0</ele><time>2026-04-19T06:57:54.926Z</time></trkpt><trkpt lat="43.41785711006471" lon="11.71225905922601"><ele>424.0</ele><time>2026-04-19T06:57:58.924Z</time></trkpt><trkpt lat="43.417788357577805" lon="11.712239246032283"><ele>427.0</ele><time>2026-04-19T06:58:02.924Z</time></trkpt><trkpt lat="43.41767380069348" lon="11.712196036106283"><ele>430.0</ele><time>2026-04-19T06:58:07.924Z</time></trkpt><trkpt lat="43.417582319963564" lon="11.712192010564278"><ele>433.0</ele><time>2026-04-19T06:58:10.924Z</time></trkpt><trkpt lat="43.417638772130125" lon="11.712251799566872"><ele>436.0</ele><time>2026-04-19T06:58:20.923Z</time></trkpt><trkpt lat="43.41796994563473" lon="11.712293972534788"><ele>437.33333333333337</ele><time>2026-04-19T06:59:01.923Z</time></trkpt><trkpt lat="43.417989475262516" lon="11.712385580358163"><ele>438.6666666666667</ele><time>2026-04-19T06:59:03.923Z</time></trkpt><trkpt lat="43.418014707398115" lon="11.712486294889972"><ele>440.0</ele><time>2026-04-19T06:59:05.923Z</time></trkpt><trkpt lat="43.41803746976259" lon="11.71259655558411"><ele>441.33333333333337</ele><time>2026-04-19T06:59:07.923Z</time></trkpt><trkpt lat="43.418065803906046" lon="11.712713803231416"><ele>442.6666666666667</ele><time>2026-04-19T06:59:09.923Z</time></trkpt><trkpt lat="43.418100565799136" lon="11.712838325888734"><ele>444.0</ele><time>2026-04-19T06:59:11.923Z</time></trkpt><trkpt lat="43.41820499234877" lon="11.713381462071748"><ele>444.0</ele><time>2026-04-19T06:59:14.923Z</time></trkpt><trkpt lat="43.41825982648964" lon="11.713447225366176"><ele>444.0</ele><time>2026-04-19T06:59:18.923Z</time></trkpt><trkpt lat="43.41830551724773" lon="11.713524803206289"><ele>444.0</ele><time>2026-04-19T06:59:22.923Z</time></trkpt><trkpt lat="43.418346392644736" lon="11.713592697168297"><ele>444.0</ele><time>2026-04-19T06:59:25.923Z</time></trkpt><trkpt lat="43.41840546580255" lon="11.713679207878766"><ele>444.0</ele><time>2026-04-19T06:59:29.923Z</time></trkpt><trkpt lat="43.41846307405726" lon="11.71375661948934"><ele>444.0</ele><time>2026-04-19T06:59:33.923Z</time></trkpt><trkpt lat="43.41851509062218" lon="11.713826832853847"><ele>444.0</ele><time>2026-04-19T06:59:36.923Z</time></trkpt><trkpt lat="43.418559323567216" lon="11.713900965663889"><ele>447.5</ele><time>2026-04-19T06:59:39.923Z</time></trkpt><trkpt lat="43.418609189823655" lon="11.713982749291938"><ele>451.0</ele><time>2026-04-19T06:59:43.923Z</time></trkpt><trkpt lat="43.41864740379075" lon="11.71407834648545"><ele>454.5</ele><time>2026-04-19T06:59:47.923Z</time></trkpt><trkpt lat="43.41868046730918" lon="11.714186095425383"><ele>458.0</ele><time>2026-04-19T06:59:51.923Z</time></trkpt><trkpt lat="43.418698991185394" lon="11.714269264112088"><ele>461.5</ele><time>2026-04-19T06:59:54.923Z</time></trkpt><trkpt lat="43.41872075365537" lon="11.714368820538162"><ele>465.0</ele><time>2026-04-19T06:59:58.923Z</time></trkpt><trkpt lat="43.41872811515409" lon="11.714463545206787"><ele>462.8333333333333</ele><time>2026-04-19T07:00:02.923Z</time></trkpt><trkpt lat="43.418738127417896" lon="11.714568393228545"><ele>460.66666666666663</ele><time>2026-04-19T07:00:06.922Z</time></trkpt><trkpt lat="43.41877090193931" lon="11.714645669143446"><ele>458.5</ele><time>2026-04-19T07:00:09.922Z</time></trkpt><trkpt lat="43.418844903559" lon="11.71466427694747"><ele>456.3333333333333</ele><time>2026-04-19T07:00:12.922Z</time></trkpt><trkpt lat="43.418917369490735" lon="11.71467592260067"><ele>454.16666666666663</ele><time>2026-04-19T07:00:15.922Z</time></trkpt><trkpt lat="43.41899520879805" lon="11.714741430389742"><ele>452.0</ele><time>2026-04-19T07:00:18.922Z</time></trkpt><trkpt lat="43.41905925131364" lon="11.714811224694225"><ele>451.99999999999994</ele><time>2026-04-19T07:00:21.921Z</time></trkpt><trkpt lat="43.419113760310196" lon="11.714888253938852"><ele>452.0</ele><time>2026-04-19T07:00:24.922Z</time></trkpt><trkpt lat="43.419149290049226" lon="11.714996155338977"><ele>452.0</ele><time>2026-04-19T07:00:27.922Z</time></trkpt><trkpt lat="43.41918334012766" lon="11.715112597861816"><ele>452.0</ele><time>2026-04-19T07:00:30.922Z</time></trkpt><trkpt lat="43.41919251812883" lon="11.715232798761786"><ele>451.99999999999994</ele><time>2026-04-19T07:00:33.922Z</time></trkpt><trkpt lat="43.41918382940366" lon="11.715338496923259"><ele>452.0</ele><time>2026-04-19T07:00:36.922Z</time></trkpt><trkpt lat="43.41917777880649" lon="11.715428716472443"><ele>452.14285714285717</ele><time>2026-04-19T07:00:39.922Z</time></trkpt><trkpt lat="43.41916368161211" lon="11.715527964941026"><ele>452.2857142857142</ele><time>2026-04-19T07:00:42.922Z</time></trkpt><trkpt lat="43.41914334534839" lon="11.715615205712467"><ele>452.4285714285714</ele><time>2026-04-19T07:00:45.922Z</time></trkpt><trkpt lat="43.419112603843146" lon="11.715706111054878"><ele>452.57142857142856</ele><time>2026-04-19T07:00:48.922Z</time></trkpt><trkpt lat="43.41907557279067" lon="11.715781605502048"><ele>452.71428571428567</ele><time>2026-04-19T07:00:51.922Z</time></trkpt><trkpt lat="43.419037651756106" lon="11.715865574083614"><ele>452.8571428571428</ele><time>2026-04-19T07:00:54.922Z</time></trkpt><trkpt lat="43.41899732472141" lon="11.715959730886043"><ele>452.99999999999994</ele><time>2026-04-19T07:00:57.922Z</time></trkpt><trkpt lat="43.41895772923021" lon="11.716034966553078"><ele>449.0</ele><time>2026-04-19T07:01:00.922Z</time></trkpt><trkpt lat="43.41892676259559" lon="11.71611576968111"><ele>444.99999999999994</ele><time>2026-04-19T07:01:03.922Z</time></trkpt><trkpt lat="43.41887358184061" lon="11.716209371413454"><ele>440.99999999999994</ele><time>2026-04-19T07:01:07.922Z</time></trkpt><trkpt lat="43.418832264577745" lon="11.716288418306334"><ele>437.0</ele><time>2026-04-19T07:01:11.922Z</time></trkpt><trkpt lat="43.41876965316505" lon="11.71637944898788"><ele>433.0</ele><time>2026-04-19T07:01:14.922Z</time></trkpt><trkpt lat="43.418606114611286" lon="11.716500262231818"><ele>441.0</ele><time>2026-04-19T07:01:19.922Z</time></trkpt><trkpt lat="43.41851086913277" lon="11.716513397650013"><ele>448.99999999999994</ele><time>2026-04-19T07:01:21.922Z</time></trkpt><trkpt lat="43.418395512783526" lon="11.716492497120656"><ele>456.99999999999994</ele><time>2026-04-19T07:01:23.922Z</time></trkpt><trkpt lat="43.41831915517831" lon="11.71647374146205"><ele>465.0</ele><time>2026-04-19T07:01:24.922Z</time></trkpt><trkpt lat="43.41824402378923" lon="11.716433002549968"><ele>473.0</ele><time>2026-04-19T07:01:25.922Z</time></trkpt><trkpt lat="43.41816139861494" lon="11.716412460416398"><ele>473.0</ele><time>2026-04-19T07:01:26.922Z</time></trkpt><trkpt lat="43.418431503312114" lon="11.716804046297387"><ele>473.0</ele><time>2026-04-19T07:01:27.922Z</time></trkpt><trkpt lat="43.418430470997876" lon="11.71691699265015"><ele>470.8333333333333</ele><time>2026-04-19T07:01:30.922Z</time></trkpt><trkpt lat="43.418430441358964" lon="11.717034838307699"><ele>468.66666666666663</ele><time>2026-04-19T07:01:33.922Z</time></trkpt><trkpt lat="43.41842634358619" lon="11.717138685698316"><ele>466.5</ele><time>2026-04-19T07:01:36.922Z</time></trkpt><trkpt lat="43.41840618287031" lon="11.71722430442976"><ele>464.33333333333337</ele><time>2026-04-19T07:01:39.922Z</time></trkpt><trkpt lat="43.418362584944525" lon="11.717328563786394"><ele>462.1666666666667</ele><time>2026-04-19T07:01:43.922Z</time></trkpt><trkpt lat="43.41832207533787" lon="11.717428476927488"><ele>460.0</ele><time>2026-04-19T07:01:47.922Z</time></trkpt><trkpt lat="43.41826719975758" lon="11.71747551828366"><ele>459.99999999999994</ele><time>2026-04-19T07:01:51.922Z</time></trkpt><trkpt lat="43.41821784527475" lon="11.71753616705603"><ele>460.0</ele><time>2026-04-19T07:01:54.922Z</time></trkpt><trkpt lat="43.41816308889124" lon="11.717608500299203"><ele>459.99999999999994</ele><time>2026-04-19T07:01:58.922Z</time></trkpt><trkpt lat="43.41811623454769" lon="11.71767287148309"><ele>459.99999999999994</ele><time>2026-04-19T07:02:01.922Z</time></trkpt><trkpt lat="43.418056478200626" lon="11.717757060980672"><ele>460.0</ele><time>2026-04-19T07:02:05.922Z</time></trkpt><trkpt lat="43.41800134154329" lon="11.717813138142715"><ele>459.99999999999994</ele><time>2026-04-19T07:02:08.922Z</time></trkpt><trkpt lat="43.41794516581004" lon="11.71788570499486"><ele>459.99999999999994</ele><time>2026-04-19T07:02:12.921Z</time></trkpt><trkpt lat="43.41789158418745" lon="11.71793897116784"><ele>463.00000000000006</ele><time>2026-04-19T07:02:15.921Z</time></trkpt><trkpt lat="43.417816172459055" lon="11.71807462739082"><ele>466.0</ele><time>2026-04-19T07:02:49.92Z</time></trkpt><trkpt lat="43.41772759022653" lon="11.718148123515743"><ele>469.0</ele><time>2026-04-19T07:03:19.92Z</time></trkpt><trkpt lat="43.41766689949502" lon="11.718177690056967"><ele>472.0</ele><time>2026-04-19T07:03:24.92Z</time></trkpt><trkpt lat="43.41759192719995" lon="11.718204932320532"><ele>475.00000000000006</ele><time>2026-04-19T07:03:29.92Z</time></trkpt><trkpt lat="43.417520614662195" lon="11.718225551201348"><ele>478.0</ele><time>2026-04-19T07:03:33.92Z</time></trkpt><trkpt lat="43.41745656327211" lon="11.71825042902333"><ele>478.00000000000006</ele><time>2026-04-19T07:03:36.92Z</time></trkpt><trkpt lat="43.41738085072343" lon="11.718290350619435"><ele>478.0</ele><time>2026-04-19T07:03:40.92Z</time></trkpt><trkpt lat="43.41730454939882" lon="11.718325460898896"><ele>478.0</ele><time>2026-04-19T07:03:44.92Z</time></trkpt><trkpt lat="43.41723109898692" lon="11.71836986792294"><ele>478.0</ele><time>2026-04-19T07:03:48.92Z</time></trkpt><trkpt lat="43.41715857807501" lon="11.718432142095638"><ele>478.00000000000006</ele><time>2026-04-19T07:03:52.92Z</time></trkpt><trkpt lat="43.41709864091626" lon="11.718476814863036"><ele>478.0</ele><time>2026-04-19T07:03:55.92Z</time></trkpt><trkpt lat="43.417016222687515" lon="11.718529086914513"><ele>478.5</ele><time>2026-04-19T07:03:58.92Z</time></trkpt><trkpt lat="43.416856231605315" lon="11.718363017360133"><ele>479.0</ele><time>2026-04-19T07:04:00.92Z</time></trkpt><trkpt lat="43.4167968585234" lon="11.718412380050465"><ele>479.5</ele><time>2026-04-19T07:04:02.92Z</time></trkpt><trkpt lat="43.41670830791661" lon="11.718493219695747"><ele>480.0</ele><time>2026-04-19T07:04:04.92Z</time></trkpt><trkpt lat="43.41660639391667" lon="11.718659996538486"><ele>480.0</ele><time>2026-04-19T07:04:05.92Z</time></trkpt><trkpt lat="43.416565419800534" lon="11.718778028503019"><ele>480.0</ele><time>2026-04-19T07:04:09.92Z</time></trkpt><trkpt lat="43.41647624734042" lon="11.718877699494447"><ele>480.0</ele><time>2026-04-19T07:04:11.92Z</time></trkpt><trkpt lat="43.41632887184755" lon="11.719048358300691"><ele>480.0</ele><time>2026-04-19T07:04:13.92Z</time></trkpt><trkpt lat="43.41628401718841" lon="11.719298271795362"><ele>481.8571428571429</ele><time>2026-04-19T07:04:14.92Z</time></trkpt><trkpt lat="43.41627123002202" lon="11.719388051072738"><ele>483.71428571428567</ele><time>2026-04-19T07:04:16.919Z</time></trkpt><trkpt lat="43.41625540154333" lon="11.719480930573448"><ele>485.57142857142856</ele><time>2026-04-19T07:04:19.919Z</time></trkpt><trkpt lat="43.41622592867236" lon="11.719576677685286"><ele>487.42857142857144</ele><time>2026-04-19T07:04:22.919Z</time></trkpt><trkpt lat="43.416193904711236" lon="11.719657940571578"><ele>489.28571428571433</ele><time>2026-04-19T07:04:24.919Z</time></trkpt><trkpt lat="43.41615810783749" lon="11.719741525897282"><ele>491.1428571428571</ele><time>2026-04-19T07:04:26.919Z</time></trkpt><trkpt lat="43.41611935202314" lon="11.719831758161403"><ele>493.0</ele><time>2026-04-19T07:04:28.918Z</time></trkpt><trkpt lat="43.41607240438267" lon="11.719936228712852"><ele>493.0</ele><time>2026-04-19T07:04:31.919Z</time></trkpt><trkpt lat="43.41602845846987" lon="11.720032550575468"><ele>492.99999999999994</ele><time>2026-04-19T07:04:33.919Z</time></trkpt><trkpt lat="43.415983529121675" lon="11.720133477728515"><ele>492.99999999999994</ele><time>2026-04-19T07:04:35.918Z</time></trkpt><trkpt lat="43.415929862491325" lon="11.720256279269105"><ele>493.0</ele><time>2026-04-19T07:04:37.918Z</time></trkpt><trkpt lat="43.4158714409556" lon="11.720396142164143"><ele>493.0</ele><time>2026-04-19T07:04:39.918Z</time></trkpt><trkpt lat="43.41584284215371" lon="11.720516535117515"><ele>489.4</ele><time>2026-04-19T07:04:41.918Z</time></trkpt><trkpt lat="43.41579659573524" lon="11.720613074942245"><ele>485.79999999999995</ele><time>2026-04-19T07:04:43.918Z</time></trkpt><trkpt lat="43.41576901879935" lon="11.720709386311459"><ele>482.2</ele><time>2026-04-19T07:04:45.918Z</time></trkpt><trkpt lat="43.415833172512755" lon="11.720899512483495"><ele>478.6</ele><time>2026-04-19T07:04:47.918Z</time></trkpt><trkpt lat="43.41589566674234" lon="11.720961273675046"><ele>475.0</ele><time>2026-04-19T07:04:49.918Z</time></trkpt><trkpt lat="43.415976456789274" lon="11.721040364179583"><ele>474.6666666666667</ele><time>2026-04-19T07:04:51.918Z</time></trkpt><trkpt lat="43.41603882744068" lon="11.721097921654879"><ele>474.33333333333337</ele><time>2026-04-19T07:04:53.918Z</time></trkpt><trkpt lat="43.4161089731761" lon="11.721169018009807"><ele>474.0</ele><time>2026-04-19T07:04:55.918Z</time></trkpt><trkpt lat="43.41618217684602" lon="11.721253414667208"><ele>473.66666666666663</ele><time>2026-04-19T07:04:58.918Z</time></trkpt><trkpt lat="43.41625180829893" lon="11.72131295905889"><ele>473.3333333333333</ele><time>2026-04-19T07:05:00.918Z</time></trkpt><trkpt lat="43.416309916296015" lon="11.72141571841419"><ele>473.0</ele><time>2026-04-19T07:05:03.918Z</time></trkpt><trkpt lat="43.41632640246786" lon="11.721546335085765"><ele>473.0</ele><time>2026-04-19T07:05:06.918Z</time></trkpt><trkpt lat="43.41631865044262" lon="11.721642678932104"><ele>473.0</ele><time>2026-04-19T07:05:08.918Z</time></trkpt><trkpt lat="43.41630353787873" lon="11.721771489618526"><ele>473.0</ele><time>2026-04-19T07:05:11.918Z</time></trkpt><trkpt lat="43.416292945597334" lon="11.721862809001145"><ele>473.0</ele><time>2026-04-19T07:05:13.918Z</time></trkpt><trkpt lat="43.41628161613644" lon="11.721960292808816"><ele>473.0</ele><time>2026-04-19T07:05:15.918Z</time></trkpt><trkpt lat="43.416270619543795" lon="11.722054912473412"><ele>473.0</ele><time>2026-04-19T07:05:17.917Z</time></trkpt><trkpt lat="43.41626113992015" lon="11.722147295098141"><ele>473.0</ele><time>2026-04-19T07:05:19.914Z</time></trkpt><trkpt lat="43.41626792660267" lon="11.722243770960137"><ele>472.99999999999994</ele><time>2026-04-19T07:05:21.911Z</time></trkpt><trkpt lat="43.41625295218541" lon="11.722337216658929"><ele>473.0</ele><time>2026-04-19T07:05:23.909Z</time></trkpt><trkpt lat="43.416244528839975" lon="11.722462494253492"><ele>473.0</ele><time>2026-04-19T07:05:26.905Z</time></trkpt><trkpt lat="43.41623734770559" lon="11.722550309154807"><ele>473.0</ele><time>2026-04-19T07:05:28.904Z</time></trkpt><trkpt lat="43.41621276450993" lon="11.72263253709561"><ele>472.99999999999994</ele><time>2026-04-19T07:05:30.902Z</time></trkpt><trkpt lat="43.41620044624546" lon="11.722755486270563"><ele>473.0</ele><time>2026-04-19T07:05:33.9Z</time></trkpt><trkpt lat="43.41620871611514" lon="11.722865284926185"><ele>472.59999999999997</ele><time>2026-04-19T07:05:36.898Z</time></trkpt><trkpt lat="43.4161936790056" lon="11.722987754268965"><ele>472.19999999999993</ele><time>2026-04-19T07:05:39.897Z</time></trkpt><trkpt lat="43.41618809247022" lon="11.723107735523588"><ele>471.8</ele><time>2026-04-19T07:05:42.896Z</time></trkpt><trkpt lat="43.416299269317435" lon="11.723183547341183"><ele>471.4</ele><time>2026-04-19T07:05:44.895Z</time></trkpt><trkpt lat="43.416361546998324" lon="11.723278437394152"><ele>471.0</ele><time>2026-04-19T07:05:47.894Z</time></trkpt><trkpt lat="43.4164303345638" lon="11.723361248861046"><ele>475.6666666666667</ele><time>2026-04-19T07:05:50.893Z</time></trkpt><trkpt lat="43.41647879738706" lon="11.723419700248396"><ele>480.33333333333337</ele><time>2026-04-19T07:05:52.893Z</time></trkpt><trkpt lat="43.416565048498356" lon="11.723460084584445"><ele>485.0</ele><time>2026-04-19T07:05:55.893Z</time></trkpt><trkpt lat="43.416650881227746" lon="11.723464969640697"><ele>489.6666666666667</ele><time>2026-04-19T07:05:58.892Z</time></trkpt><trkpt lat="43.416724583173824" lon="11.723448974037945"><ele>494.33333333333337</ele><time>2026-04-19T07:06:01.892Z</time></trkpt><trkpt lat="43.416799322850785" lon="11.723417134940272"><ele>499.0</ele><time>2026-04-19T07:06:04.891Z</time></trkpt><trkpt lat="43.41686499265002" lon="11.72335921808631"><ele>499.0</ele><time>2026-04-19T07:06:07.891Z</time></trkpt><trkpt lat="43.41691693381927" lon="11.723287466871582"><ele>499.0</ele><time>2026-04-19T07:06:10.891Z</time></trkpt><trkpt lat="43.41697897316974" lon="11.723210404534878"><ele>499.0</ele><time>2026-04-19T07:06:13.891Z</time></trkpt><trkpt lat="43.41707208226329" lon="11.72329599487325"><ele>499.0</ele><time>2026-04-19T07:06:16.891Z</time></trkpt><trkpt lat="43.4171504178959" lon="11.722893267162263"><ele>500.00000000000006</ele><time>2026-04-19T07:06:24.889Z</time></trkpt><trkpt lat="43.41718074175465" lon="11.722809411693659"><ele>501.0</ele><time>2026-04-19T07:06:27.889Z</time></trkpt><trkpt lat="43.41721671647003" lon="11.722727269343869"><ele>502.00000000000006</ele><time>2026-04-19T07:06:30.889Z</time></trkpt><trkpt lat="43.41725873741778" lon="11.722661401644613"><ele>503.00000000000006</ele><time>2026-04-19T07:06:33.888Z</time></trkpt><trkpt lat="43.41734649349284" lon="11.7226533804591"><ele>504.0</ele><time>2026-04-19T07:06:37.889Z</time></trkpt><trkpt lat="43.41740960360895" lon="11.72265827099442"><ele>505.00000000000006</ele><time>2026-04-19T07:06:39.889Z</time></trkpt><trkpt lat="43.41747440587601" lon="11.7226290874042"><ele>506.00000000000006</ele><time>2026-04-19T07:06:41.889Z</time></trkpt><trkpt lat="43.417550821616295" lon="11.722590231418824"><ele>505.99999999999994</ele><time>2026-04-19T07:06:44.889Z</time></trkpt><trkpt lat="43.41761347722524" lon="11.722633732607223"><ele>506.0</ele><time>2026-04-19T07:06:46.888Z</time></trkpt><trkpt lat="43.41770410657217" lon="11.722703244527265"><ele>506.0</ele><time>2026-04-19T07:06:48.888Z</time></trkpt><trkpt lat="43.417795714463196" lon="11.72276027112799"><ele>506.0</ele><time>2026-04-19T07:06:50.888Z</time></trkpt><trkpt lat="43.41787682610388" lon="11.722797294027462"><ele>505.99999999999994</ele><time>2026-04-19T07:06:52.888Z</time></trkpt><trkpt lat="43.417945210623934" lon="11.722859903256635"><ele>506.0</ele><time>2026-04-19T07:06:55.888Z</time></trkpt><trkpt lat="43.418014335495855" lon="11.722849667485187"><ele>505.99999999999994</ele><time>2026-04-19T07:08:05.888Z</time></trkpt><trkpt lat="43.41803989259175" lon="11.722989064473273"><ele>506.0</ele><time>2026-04-19T07:15:18.133Z</time></trkpt><trkpt lat="43.41800347603497" lon="11.72291377544072"><ele>506.0</ele><time>2026-04-19T07:15:29.88Z</time></trkpt><trkpt lat="43.41796177707305" lon="11.7228346757858"><ele>506.0</ele><time>2026-04-19T07:19:24.876Z</time></trkpt><trkpt lat="43.41789703521583" lon="11.722774542942398"><ele>505.99999999999994</ele><time>2026-04-19T07:19:29.876Z</time></trkpt><trkpt lat="43.41784195243346" lon="11.722726028177012"><ele>506.0</ele><time>2026-04-19T07:19:33.875Z</time></trkpt><trkpt lat="43.41779397983118" lon="11.722662107191873"><ele>506.16666666666663</ele><time>2026-04-19T07:19:37.876Z</time></trkpt><trkpt lat="43.41773577163703" lon="11.722604908595615"><ele>506.3333333333333</ele><time>2026-04-19T07:19:40.876Z</time></trkpt><trkpt lat="43.41766318456951" lon="11.722605355087616"><ele>506.5</ele><time>2026-04-19T07:19:42.876Z</time></trkpt><trkpt lat="43.41757378444109" lon="11.722614609496208"><ele>506.66666666666663</ele><time>2026-04-19T07:19:45.875Z</time></trkpt><trkpt lat="43.41750717211999" lon="11.722623880584935"><ele>506.8333333333333</ele><time>2026-04-19T07:19:48.875Z</time></trkpt><trkpt lat="43.41744794482991" lon="11.722662979820067"><ele>507.0</ele><time>2026-04-19T07:19:52.875Z</time></trkpt><trkpt lat="43.417367243549705" lon="11.722632259127838"><ele>507.0</ele><time>2026-04-19T07:19:56.875Z</time></trkpt><trkpt lat="43.41728772862999" lon="11.722647151201718"><ele>507.0</ele><time>2026-04-19T07:20:00.875Z</time></trkpt><trkpt lat="43.41722294455133" lon="11.722668510816547"><ele>507.0</ele><time>2026-04-19T07:20:02.875Z</time></trkpt><trkpt lat="43.417205372477575" lon="11.722759477080771"><ele>507.0</ele><time>2026-04-19T07:20:03.875Z</time></trkpt><trkpt lat="43.41715948046575" lon="11.722908408219947"><ele>507.0</ele><time>2026-04-19T07:20:05.875Z</time></trkpt><trkpt lat="43.417123262483415" lon="11.723032050329003"><ele>507.0</ele><time>2026-04-19T07:20:07.875Z</time></trkpt><trkpt lat="43.4170694647372" lon="11.723128828491499"><ele>505.40000000000003</ele><time>2026-04-19T07:20:09.875Z</time></trkpt><trkpt lat="43.41700479391425" lon="11.723193842441548"><ele>503.80000000000007</ele><time>2026-04-19T07:20:11.875Z</time></trkpt><trkpt lat="43.41690619734045" lon="11.723270402293094"><ele>502.2</ele><time>2026-04-19T07:20:13.875Z</time></trkpt><trkpt lat="43.41683480748863" lon="11.723342091796237"><ele>500.6</ele><time>2026-04-19T07:20:15.875Z</time></trkpt><trkpt lat="43.416717431945834" lon="11.723401224728496"><ele>499.0</ele><time>2026-04-19T07:20:17.875Z</time></trkpt><trkpt lat="43.416648358268894" lon="11.723396332372369"><ele>499.0</ele><time>2026-04-19T07:20:18.875Z</time></trkpt><trkpt lat="43.416533982994174" lon="11.723380610369347"><ele>499.0</ele><time>2026-04-19T07:20:20.875Z</time></trkpt><trkpt lat="43.41643775615854" lon="11.723276773238743"><ele>499.0</ele><time>2026-04-19T07:20:22.875Z</time></trkpt><trkpt lat="43.41635149227448" lon="11.723168815568238"><ele>499.0</ele><time>2026-04-19T07:20:24.875Z</time></trkpt><trkpt lat="43.41628612229634" lon="11.72304325538704"><ele>494.6666666666667</ele><time>2026-04-19T07:20:26.875Z</time></trkpt><trkpt lat="43.41625516696575" lon="11.722889964863073"><ele>490.33333333333337</ele><time>2026-04-19T07:20:28.875Z</time></trkpt><trkpt lat="43.41625768843361" lon="11.722794298914655"><ele>486.0</ele><time>2026-04-19T07:20:29.875Z</time></trkpt><trkpt lat="43.41626190970302" lon="11.722707626814373"><ele>481.66666666666663</ele><time>2026-04-19T07:20:30.876Z</time></trkpt><trkpt lat="43.41626734023436" lon="11.722616490347724"><ele>477.3333333333333</ele><time>2026-04-19T07:20:31.878Z</time></trkpt><trkpt lat="43.416275145087006" lon="11.722516813477903"><ele>473.0</ele><time>2026-04-19T07:20:32.879Z</time></trkpt><trkpt lat="43.4162807114529" lon="11.722417728299249"><ele>472.99999999999994</ele><time>2026-04-19T07:20:33.881Z</time></trkpt><trkpt lat="43.41628492009716" lon="11.722308808335814"><ele>473.0</ele><time>2026-04-19T07:20:34.882Z</time></trkpt><trkpt lat="43.41630035549382" lon="11.722196963267256"><ele>473.0</ele><time>2026-04-19T07:20:35.884Z</time></trkpt><trkpt lat="43.41631605863329" lon="11.722082872973472"><ele>473.0</ele><time>2026-04-19T07:20:36.885Z</time></trkpt><trkpt lat="43.41632954382203" lon="11.721971161520711"><ele>472.99999999999994</ele><time>2026-04-19T07:20:37.886Z</time></trkpt><trkpt lat="43.41633937744828" lon="11.721854981511584"><ele>473.0</ele><time>2026-04-19T07:20:38.888Z</time></trkpt><trkpt lat="43.41634795876859" lon="11.721741930382983"><ele>472.99999999999994</ele><time>2026-04-19T07:20:39.889Z</time></trkpt><trkpt lat="43.416369521420165" lon="11.721636487941291"><ele>473.0</ele><time>2026-04-19T07:20:40.89Z</time></trkpt><trkpt lat="43.41638647697564" lon="11.721535329517717"><ele>473.0</ele><time>2026-04-19T07:20:41.891Z</time></trkpt><trkpt lat="43.41636800275894" lon="11.72143357685791"><ele>473.0</ele><time>2026-04-19T07:20:42.892Z</time></trkpt><trkpt lat="43.416319670672536" lon="11.721335587665301"><ele>472.99999999999994</ele><time>2026-04-19T07:20:43.893Z</time></trkpt><trkpt lat="43.41623428536135" lon="11.72124362192432"><ele>473.0</ele><time>2026-04-19T07:20:44.893Z</time></trkpt><trkpt lat="43.416152528699286" lon="11.721166753597382"><ele>473.0</ele><time>2026-04-19T07:20:45.894Z</time></trkpt><trkpt lat="43.41608438213618" lon="11.7210790988031"><ele>472.99999999999994</ele><time>2026-04-19T07:20:46.895Z</time></trkpt><trkpt lat="43.41600042959274" lon="11.720985059115849"><ele>472.99999999999994</ele><time>2026-04-19T07:20:47.895Z</time></trkpt><trkpt lat="43.415911886621245" lon="11.720902707411943"><ele>473.0</ele><time>2026-04-19T07:20:48.896Z</time></trkpt><trkpt lat="43.41582249789235" lon="11.720823207335838"><ele>473.0</ele><time>2026-04-19T07:20:49.897Z</time></trkpt><trkpt lat="43.41573521887981" lon="11.720748321557586"><ele>473.4</ele><time>2026-04-19T07:20:50.897Z</time></trkpt><trkpt lat="43.41566533141992" lon="11.72069630093437"><ele>473.79999999999995</ele><time>2026-04-19T07:20:51.898Z</time></trkpt><trkpt lat="43.41557787607142" lon="11.720651010878642"><ele>474.2</ele><time>2026-04-19T07:20:53.899Z</time></trkpt><trkpt lat="43.41551205556729" lon="11.720598068345648"><ele>474.6</ele><time>2026-04-19T07:20:56.9Z</time></trkpt><trkpt lat="43.415605535328694" lon="11.720689530327599"><ele>475.0</ele><time>2026-04-19T07:21:08.903Z</time></trkpt><trkpt lat="43.415697385514946" lon="11.72075586280903"><ele>475.00000000000006</ele><time>2026-04-19T07:21:10.903Z</time></trkpt><trkpt lat="43.41578493619942" lon="11.720762044320429"><ele>475.0</ele><time>2026-04-19T07:21:12.903Z</time></trkpt><trkpt lat="43.41582634795201" lon="11.720661995214241"><ele>475.0</ele><time>2026-04-19T07:21:14.903Z</time></trkpt><trkpt lat="43.41586152718226" lon="11.72056022872603"><ele>475.0</ele><time>2026-04-19T07:21:17.904Z</time></trkpt><trkpt lat="43.41589585273064" lon="11.720474738808305"><ele>475.00000000000006</ele><time>2026-04-19T07:21:20.904Z</time></trkpt><trkpt lat="43.41593615155734" lon="11.720378605312634"><ele>475.0</ele><time>2026-04-19T07:21:23.904Z</time></trkpt><trkpt lat="43.41597142300173" lon="11.720289136174333"><ele>477.5714285714286</ele><time>2026-04-19T07:21:26.904Z</time></trkpt><trkpt lat="43.41600971794064" lon="11.720197222190398"><ele>480.1428571428572</ele><time>2026-04-19T07:21:29.904Z</time></trkpt><trkpt lat="43.41604850601534" lon="11.72009314250741"><ele>482.7142857142857</ele><time>2026-04-19T07:21:32.905Z</time></trkpt><trkpt lat="43.4160810122929" lon="11.720013493719955"><ele>485.28571428571433</ele><time>2026-04-19T07:21:35.905Z</time></trkpt><trkpt lat="43.41611529518496" lon="11.719908757129813"><ele>487.8571428571429</ele><time>2026-04-19T07:21:38.904Z</time></trkpt><trkpt lat="43.41614820569356" lon="11.719818527754542"><ele>490.42857142857144</ele><time>2026-04-19T07:21:41.903Z</time></trkpt><trkpt lat="43.41618132984456" lon="11.719742634731007"><ele>493.0</ele><time>2026-04-19T07:21:43.903Z</time></trkpt><trkpt lat="43.41623582352643" lon="11.719649152659773"><ele>493.00000000000006</ele><time>2026-04-19T07:21:46.904Z</time></trkpt><trkpt lat="43.41627238966144" lon="11.719545278734817"><ele>493.0</ele><time>2026-04-19T07:21:49.904Z</time></trkpt><trkpt lat="43.416293159596115" lon="11.719460588774606"><ele>493.0</ele><time>2026-04-19T07:21:51.904Z</time></trkpt><trkpt lat="43.416311969105955" lon="11.719346651932907"><ele>493.0</ele><time>2026-04-19T07:21:54.903Z</time></trkpt><trkpt lat="43.41632306561026" lon="11.719235050638932"><ele>493.00000000000006</ele><time>2026-04-19T07:21:57.903Z</time></trkpt><trkpt lat="43.41632416709315" lon="11.719130223609334"><ele>493.0</ele><time>2026-04-19T07:22:00.903Z</time></trkpt><trkpt lat="43.41636837062669" lon="11.719052325991052"><ele>490.83333333333337</ele><time>2026-04-19T07:22:03.903Z</time></trkpt><trkpt lat="43.41643201438588" lon="11.718996648095441"><ele>488.6666666666667</ele><time>2026-04-19T07:22:06.903Z</time></trkpt><trkpt lat="43.41650092134935" lon="11.718931691379849"><ele>486.5</ele><time>2026-04-19T07:22:09.903Z</time></trkpt><trkpt lat="43.41654477835393" lon="11.718850137008802"><ele>484.33333333333337</ele><time>2026-04-19T07:22:12.903Z</time></trkpt><trkpt lat="43.41660475966875" lon="11.718773708205495"><ele>482.1666666666667</ele><time>2026-04-19T07:22:15.903Z</time></trkpt><trkpt lat="43.41662527631648" lon="11.718663334336217"><ele>480.0</ele><time>2026-04-19T07:22:18.903Z</time></trkpt><trkpt lat="43.41667167625493" lon="11.71858796559171"><ele>484.6666666666667</ele><time>2026-04-19T07:22:21.903Z</time></trkpt><trkpt lat="43.41674197250202" lon="11.71852077958534"><ele>489.33333333333337</ele><time>2026-04-19T07:22:25.903Z</time></trkpt><trkpt lat="43.416801483298514" lon="11.718463918949537"><ele>494.0</ele><time>2026-04-19T07:22:28.903Z</time></trkpt><trkpt lat="43.416857223058706" lon="11.71841667649229"><ele>498.6666666666667</ele><time>2026-04-19T07:22:30.903Z</time></trkpt><trkpt lat="43.41691076873496" lon="11.718346409487047"><ele>503.33333333333337</ele><time>2026-04-19T07:22:33.903Z</time></trkpt><trkpt lat="43.41697957231734" lon="11.718279035811616"><ele>508.0</ele><time>2026-04-19T07:22:36.903Z</time></trkpt><trkpt lat="43.41704490818108" lon="11.718196181183622"><ele>508.00000000000006</ele><time>2026-04-19T07:22:39.903Z</time></trkpt><trkpt lat="43.41711036168918" lon="11.718122144030067"><ele>508.0</ele><time>2026-04-19T07:22:42.903Z</time></trkpt><trkpt lat="43.417183543282185" lon="11.718050443285321"><ele>508.0</ele><time>2026-04-19T07:22:45.903Z</time></trkpt><trkpt lat="43.41723439809395" lon="11.717994285339149"><ele>508.0</ele><time>2026-04-19T07:22:47.903Z</time></trkpt><trkpt lat="43.41728663095423" lon="11.71793882050295"><ele>508.00000000000006</ele><time>2026-04-19T07:22:49.903Z</time></trkpt><trkpt lat="43.4173572038254" lon="11.717884272536278"><ele>508.0</ele><time>2026-04-19T07:22:52.903Z</time></trkpt><trkpt lat="43.41742578060982" lon="11.717798047165108"><ele>506.50000000000006</ele><time>2026-04-19T07:22:55.903Z</time></trkpt><trkpt lat="43.417469705194385" lon="11.717728868422867"><ele>505.0</ele><time>2026-04-19T07:22:57.903Z</time></trkpt><trkpt lat="43.4175104118825" lon="11.717643391717049"><ele>503.5</ele><time>2026-04-19T07:22:59.903Z</time></trkpt><trkpt lat="43.4175403531346" lon="11.71755774276481"><ele>502.0</ele><time>2026-04-19T07:23:01.903Z</time></trkpt><trkpt lat="43.41757000048356" lon="11.717444719200019"><ele>500.50000000000006</ele><time>2026-04-19T07:23:04.903Z</time></trkpt><trkpt lat="43.41759348497842" lon="11.717336595966135"><ele>499.0</ele><time>2026-04-19T07:23:07.903Z</time></trkpt><trkpt lat="43.417611650666075" lon="11.71724168879977"><ele>499.00000000000006</ele><time>2026-04-19T07:23:10.903Z</time></trkpt><trkpt lat="43.41763056743568" lon="11.717142670342083"><ele>499.0</ele><time>2026-04-19T07:23:13.903Z</time></trkpt><trkpt lat="43.417649153184165" lon="11.717043587587101"><ele>499.0</ele><time>2026-04-19T07:23:16.903Z</time></trkpt><trkpt lat="43.417662506718976" lon="11.716931673811118"><ele>499.0</ele><time>2026-04-19T07:23:19.903Z</time></trkpt><trkpt lat="43.417690134168865" lon="11.716820748499764"><ele>499.00000000000006</ele><time>2026-04-19T07:23:22.903Z</time></trkpt><trkpt lat="43.41770867400349" lon="11.716706827681483"><ele>499.0</ele><time>2026-04-19T07:23:25.903Z</time></trkpt><trkpt lat="43.41772118491678" lon="11.716597959867407"><ele>500.50000000000006</ele><time>2026-04-19T07:23:28.903Z</time></trkpt><trkpt lat="43.41772980914894" lon="11.716474330668495"><ele>502.0</ele><time>2026-04-19T07:23:31.903Z</time></trkpt><trkpt lat="43.41772859466629" lon="11.716346925090042"><ele>503.5</ele><time>2026-04-19T07:23:34.903Z</time></trkpt><trkpt lat="43.41774452284659" lon="11.716231468636593"><ele>505.0</ele><time>2026-04-19T07:23:37.903Z</time></trkpt><trkpt lat="43.417780011444584" lon="11.71613199868918"><ele>506.50000000000006</ele><time>2026-04-19T07:23:40.903Z</time></trkpt><trkpt lat="43.417794838786705" lon="11.716047468938953"><ele>508.0</ele><time>2026-04-19T07:23:42.902Z</time></trkpt><trkpt lat="43.417802059411194" lon="11.715930357928974"><ele>508.00000000000006</ele><time>2026-04-19T07:23:45.902Z</time></trkpt><trkpt lat="43.417779965166766" lon="11.715801889450116"><ele>508.0</ele><time>2026-04-19T07:23:48.901Z</time></trkpt><trkpt lat="43.41773691700264" lon="11.715691046463427"><ele>508.0</ele><time>2026-04-19T07:23:51.901Z</time></trkpt><trkpt lat="43.417682612089784" lon="11.715592959774359"><ele>508.0</ele><time>2026-04-19T07:23:54.902Z</time></trkpt><trkpt lat="43.41762593629662" lon="11.715505796598666"><ele>508.00000000000006</ele><time>2026-04-19T07:23:57.902Z</time></trkpt><trkpt lat="43.41757178612206" lon="11.715429810697236"><ele>508.0</ele><time>2026-04-19T07:24:00.901Z</time></trkpt><trkpt lat="43.41751492406879" lon="11.715354834779413"><ele>508.0</ele><time>2026-04-19T07:24:03.901Z</time></trkpt><trkpt lat="43.41746650175906" lon="11.715299249158841"><ele>508.0</ele><time>2026-04-19T07:24:06.901Z</time></trkpt><trkpt lat="43.417403814827345" lon="11.715236737745977"><ele>508.0</ele><time>2026-04-19T07:24:10.901Z</time></trkpt><trkpt lat="43.41734999466078" lon="11.715188962648273"><ele>508.0</ele><time>2026-04-19T07:24:13.901Z</time></trkpt><trkpt lat="43.417291561951004" lon="11.715140936828172"><ele>508.0</ele><time>2026-04-19T07:24:16.901Z</time></trkpt><trkpt lat="43.41722613789792" lon="11.71508956346763"><ele>508.0</ele><time>2026-04-19T07:24:19.901Z</time></trkpt><trkpt lat="43.41715730703379" lon="11.715036340254617"><ele>508.0</ele><time>2026-04-19T07:24:22.901Z</time></trkpt><trkpt lat="43.41709050136995" lon="11.714988025857966"><ele>509.83333333333337</ele><time>2026-04-19T07:24:25.901Z</time></trkpt><trkpt lat="43.41702207856627" lon="11.714938541933982"><ele>511.6666666666667</ele><time>2026-04-19T07:24:28.901Z</time></trkpt><trkpt lat="43.416951966420854" lon="11.714912265995794"><ele>513.5</ele><time>2026-04-19T07:24:31.901Z</time></trkpt><trkpt lat="43.41688610246484" lon="11.714871114653818"><ele>515.3333333333334</ele><time>2026-04-19T07:24:34.901Z</time></trkpt><trkpt lat="43.41681134202413" lon="11.71483219129408"><ele>517.1666666666666</ele><time>2026-04-19T07:24:37.901Z</time></trkpt><trkpt lat="43.41672585858948" lon="11.714772056073063"><ele>519.0</ele><time>2026-04-19T07:24:40.901Z</time></trkpt><trkpt lat="43.4166543685761" lon="11.714737132705942"><ele>519.0</ele><time>2026-04-19T07:24:42.901Z</time></trkpt><trkpt lat="43.41657875905725" lon="11.714700196930673"><ele>519.0</ele><time>2026-04-19T07:24:44.901Z</time></trkpt><trkpt lat="43.416498832920325" lon="11.714660988435625"><ele>519.0</ele><time>2026-04-19T07:24:46.901Z</time></trkpt><trkpt lat="43.416409284525805" lon="11.714616702314157"><ele>519.0</ele><time>2026-04-19T07:24:48.901Z</time></trkpt><trkpt lat="43.41630784998392" lon="11.714533604820767"><ele>519.0</ele><time>2026-04-19T07:24:50.901Z</time></trkpt><trkpt lat="43.41625137441477" lon="11.714489941787473"><ele>519.0</ele><time>2026-04-19T07:24:51.901Z</time></trkpt><trkpt lat="43.41619441656072" lon="11.714448019561097"><ele>518.0</ele><time>2026-04-19T07:24:52.901Z</time></trkpt><trkpt lat="43.416136404555566" lon="11.714399622591081"><ele>517.0</ele><time>2026-04-19T07:24:53.901Z</time></trkpt><trkpt lat="43.41607549019708" lon="11.71435531214078"><ele>516.0</ele><time>2026-04-19T07:24:54.901Z</time></trkpt><trkpt lat="43.4160199962988" lon="11.714313803266494"><ele>515.0</ele><time>2026-04-19T07:24:55.901Z</time></trkpt><trkpt lat="43.41597796212271" lon="11.714243360947396"><ele>514.0</ele><time>2026-04-19T07:24:56.901Z</time></trkpt><trkpt lat="43.41593331695302" lon="11.714177339385143"><ele>513.0</ele><time>2026-04-19T07:24:57.901Z</time></trkpt><trkpt lat="43.415878667169004" lon="11.714106877166767"><ele>512.0</ele><time>2026-04-19T07:24:58.901Z</time></trkpt><trkpt lat="43.41583632759543" lon="11.71400872573549"><ele>511.99999999999994</ele><time>2026-04-19T07:24:59.901Z</time></trkpt><trkpt lat="43.41580058188727" lon="11.713910883041907"><ele>512.0</ele><time>2026-04-19T07:25:00.901Z</time></trkpt><trkpt lat="43.415746270772644" lon="11.713834345170374"><ele>512.0</ele><time>2026-04-19T07:25:01.901Z</time></trkpt><trkpt lat="43.415683673984546" lon="11.713780908621755"><ele>512.0</ele><time>2026-04-19T07:25:02.901Z</time></trkpt><trkpt lat="43.41562781287066" lon="11.713708904735974"><ele>511.99999999999994</ele><time>2026-04-19T07:25:03.901Z</time></trkpt><trkpt lat="43.41556553139678" lon="11.713668731506505"><ele>512.0</ele><time>2026-04-19T07:25:04.901Z</time></trkpt><trkpt lat="43.415493001175726" lon="11.713652052072815"><ele>510.49999999999994</ele><time>2026-04-19T07:25:05.901Z</time></trkpt><trkpt lat="43.415425069302785" lon="11.713609934889108"><ele>509.0</ele><time>2026-04-19T07:25:06.901Z</time></trkpt><trkpt lat="43.41535423617675" lon="11.713539282639518"><ele>507.5</ele><time>2026-04-19T07:25:07.901Z</time></trkpt><trkpt lat="43.415284961897726" lon="11.713489690162964"><ele>506.0</ele><time>2026-04-19T07:25:08.901Z</time></trkpt><trkpt lat="43.415208915202314" lon="11.713430180289404"><ele>504.49999999999994</ele><time>2026-04-19T07:25:09.901Z</time></trkpt><trkpt lat="43.415141496618595" lon="11.7133788310623"><ele>503.0</ele><time>2026-04-19T07:25:10.901Z</time></trkpt><trkpt lat="43.415059155594584" lon="11.713317613015455"><ele>502.99999999999994</ele><time>2026-04-19T07:25:11.901Z</time></trkpt><trkpt lat="43.4149843508347" lon="11.713280818364213"><ele>503.0</ele><time>2026-04-19T07:25:12.901Z</time></trkpt><trkpt lat="43.41490086851648" lon="11.713250062294618"><ele>503.0</ele><time>2026-04-19T07:25:13.901Z</time></trkpt><trkpt lat="43.41481994264686" lon="11.713239196401931"><ele>503.0</ele><time>2026-04-19T07:25:14.901Z</time></trkpt><trkpt lat="43.414730494703626" lon="11.713232263960228"><ele>502.99999999999994</ele><time>2026-04-19T07:25:15.901Z</time></trkpt><trkpt lat="43.41463922775511" lon="11.71322715289622"><ele>503.0</ele><time>2026-04-19T07:25:16.901Z</time></trkpt><trkpt lat="43.41455776570048" lon="11.713238299676346"><ele>503.8333333333333</ele><time>2026-04-19T07:25:17.9Z</time></trkpt><trkpt lat="43.414479231172635" lon="11.713244512474155"><ele>504.66666666666663</ele><time>2026-04-19T07:25:18.9Z</time></trkpt><trkpt lat="43.4144003021915" lon="11.713253591419448"><ele>505.5</ele><time>2026-04-19T07:25:19.9Z</time></trkpt><trkpt lat="43.41432922684022" lon="11.713260872479205"><ele>506.33333333333337</ele><time>2026-04-19T07:25:20.9Z</time></trkpt><trkpt lat="43.414258691661004" lon="11.713269835207203"><ele>507.1666666666667</ele><time>2026-04-19T07:25:21.9Z</time></trkpt><trkpt lat="43.41418012402745" lon="11.713280280879903"><ele>508.0</ele><time>2026-04-19T07:25:22.9Z</time></trkpt><trkpt lat="43.41410089971151" lon="11.713285355995652"><ele>508.0</ele><time>2026-04-19T07:25:23.9Z</time></trkpt><trkpt lat="43.41402914959116" lon="11.713280469984747"><ele>508.0</ele><time>2026-04-19T07:25:24.9Z</time></trkpt><trkpt lat="43.41395774548321" lon="11.713278008313964"><ele>508.0</ele><time>2026-04-19T07:25:25.9Z</time></trkpt><trkpt lat="43.41388756011225" lon="11.713263947672376"><ele>508.0</ele><time>2026-04-19T07:25:26.9Z</time></trkpt><trkpt lat="43.41381636370335" lon="11.713240034934138"><ele>508.0</ele><time>2026-04-19T07:25:27.9Z</time></trkpt><trkpt lat="43.41374619440286" lon="11.713206685524355"><ele>508.0</ele><time>2026-04-19T07:25:28.9Z</time></trkpt><trkpt lat="43.413683579291224" lon="11.713165665385326"><ele>508.0</ele><time>2026-04-19T07:25:29.9Z</time></trkpt><trkpt lat="43.41362994537886" lon="11.71311481440554"><ele>508.33333333333337</ele><time>2026-04-19T07:25:30.9Z</time></trkpt><trkpt lat="43.41355269619001" lon="11.71302194058299"><ele>508.6666666666667</ele><time>2026-04-19T07:25:32.9Z</time></trkpt><trkpt lat="43.41348511245101" lon="11.71291903951491"><ele>509.0</ele><time>2026-04-19T07:25:34.9Z</time></trkpt><trkpt lat="43.413438626255385" lon="11.712816451448395"><ele>509.33333333333337</ele><time>2026-04-19T07:25:36.9Z</time></trkpt><trkpt lat="43.41339657867771" lon="11.712729901023085"><ele>509.6666666666667</ele><time>2026-04-19T07:25:38.9Z</time></trkpt><trkpt lat="43.41336523485341" lon="11.712640332487748"><ele>510.0</ele><time>2026-04-19T07:25:40.9Z</time></trkpt><trkpt lat="43.41332950857406" lon="11.712557946551755"><ele>508.7142857142857</ele><time>2026-04-19T07:25:42.9Z</time></trkpt><trkpt lat="43.413293672907514" lon="11.712480920594178"><ele>507.42857142857144</ele><time>2026-04-19T07:25:44.9Z</time></trkpt><trkpt lat="43.41326098844239" lon="11.712403455083503"><ele>506.14285714285717</ele><time>2026-04-19T07:25:46.9Z</time></trkpt><trkpt lat="43.41322679512954" lon="11.712293592480034"><ele>504.8571428571429</ele><time>2026-04-19T07:25:49.9Z</time></trkpt><trkpt lat="43.41321257197353" lon="11.712197125271727"><ele>503.57142857142856</ele><time>2026-04-19T07:25:52.899Z</time></trkpt><trkpt lat="43.41320144396659" lon="11.712087184347016"><ele>502.28571428571433</ele><time>2026-04-19T07:25:55.9Z</time></trkpt><trkpt lat="43.41320372122652" lon="11.71199742181188"><ele>501.0</ele><time>2026-04-19T07:25:58.9Z</time></trkpt><trkpt lat="43.41321590596272" lon="11.7119090304311"><ele>502.57142857142856</ele><time>2026-04-19T07:26:01.899Z</time></trkpt><trkpt lat="43.4132410066932" lon="11.711818147480104"><ele>504.1428571428571</ele><time>2026-04-19T07:26:04.9Z</time></trkpt><trkpt lat="43.41325533472669" lon="11.711725205609008"><ele>505.71428571428567</ele><time>2026-04-19T07:26:07.899Z</time></trkpt><trkpt lat="43.41330007785376" lon="11.71165374471639"><ele>507.2857142857143</ele><time>2026-04-19T07:26:10.899Z</time></trkpt><trkpt lat="43.413324274386106" lon="11.711570361430057"><ele>508.8571428571428</ele><time>2026-04-19T07:26:13.899Z</time></trkpt><trkpt lat="43.413380648588046" lon="11.711503841161091"><ele>510.4285714285714</ele><time>2026-04-19T07:26:16.899Z</time></trkpt><trkpt lat="43.41344827502201" lon="11.711445916670693"><ele>512.0</ele><time>2026-04-19T07:26:19.899Z</time></trkpt><trkpt lat="43.41350884803301" lon="11.711379979404287"><ele>511.99999999999994</ele><time>2026-04-19T07:26:22.899Z</time></trkpt><trkpt lat="43.41355953592929" lon="11.711298526778178"><ele>512.0</ele><time>2026-04-19T07:26:25.899Z</time></trkpt><trkpt lat="43.41360124582754" lon="11.711208907238616"><ele>512.0</ele><time>2026-04-19T07:26:28.899Z</time></trkpt><trkpt lat="43.41366558064677" lon="11.71114615535574"><ele>512.0</ele><time>2026-04-19T07:26:31.899Z</time></trkpt><trkpt lat="43.41370377814799" lon="11.711044349447613"><ele>511.99999999999994</ele><time>2026-04-19T07:26:34.899Z</time></trkpt><trkpt lat="43.41377775478674" lon="11.710974784746053"><ele>512.0</ele><time>2026-04-19T07:26:38.899Z</time></trkpt><trkpt lat="43.41382034608328" lon="11.710878744122223"><ele>511.3333333333333</ele><time>2026-04-19T07:26:41.899Z</time></trkpt><trkpt lat="43.41388415932879" lon="11.71080276122063"><ele>510.66666666666663</ele><time>2026-04-19T07:26:44.899Z</time></trkpt><trkpt lat="43.413943930815414" lon="11.710716064018657"><ele>510.0</ele><time>2026-04-19T07:26:47.899Z</time></trkpt><trkpt lat="43.41400257221452" lon="11.710636003387753"><ele>509.33333333333337</ele><time>2026-04-19T07:26:50.899Z</time></trkpt><trkpt lat="43.41406157184015" lon="11.71055530895937"><ele>508.6666666666667</ele><time>2026-04-19T07:26:53.899Z</time></trkpt><trkpt lat="43.41411487865653" lon="11.710480023383147"><ele>508.0</ele><time>2026-04-19T07:26:56.899Z</time></trkpt><trkpt lat="43.414158107449225" lon="11.710385534453707"><ele>508.0</ele><time>2026-04-19T07:26:59.899Z</time></trkpt><trkpt lat="43.4142168125645" lon="11.710314631699786"><ele>508.0</ele><time>2026-04-19T07:27:02.899Z</time></trkpt><trkpt lat="43.41425566666115" lon="11.710226066456766"><ele>508.0</ele><time>2026-04-19T07:27:05.899Z</time></trkpt><trkpt lat="43.4142779841368" lon="11.710132560780607"><ele>508.0</ele><time>2026-04-19T07:27:08.899Z</time></trkpt><trkpt lat="43.41428295458581" lon="11.710038055387757"><ele>508.0</ele><time>2026-04-19T07:27:11.899Z</time></trkpt><trkpt lat="43.41427034289427" lon="11.709941358455392"><ele>508.0</ele><time>2026-04-19T07:27:14.899Z</time></trkpt><trkpt lat="43.414288742445294" lon="11.709847071335412"><ele>508.0</ele><time>2026-04-19T07:27:17.899Z</time></trkpt><trkpt lat="43.41427472040708" lon="11.709749465259195"><ele>508.00000000000006</ele><time>2026-04-19T07:27:20.899Z</time></trkpt><trkpt lat="43.41431601728069" lon="11.709668690036445"><ele>508.0</ele><time>2026-04-19T07:27:23.899Z</time></trkpt><trkpt lat="43.41439104882743" lon="11.709608203011198"><ele>508.0</ele><time>2026-04-19T07:27:26.899Z</time></trkpt><trkpt lat="43.41447601447874" lon="11.70960556123179"><ele>508.0</ele><time>2026-04-19T07:27:29.899Z</time></trkpt><trkpt lat="43.41454396091532" lon="11.709572134457877"><ele>508.00000000000006</ele><time>2026-04-19T07:27:32.899Z</time></trkpt><trkpt lat="43.41461775566712" lon="11.709541158667962"><ele>508.0</ele><time>2026-04-19T07:27:35.899Z</time></trkpt><trkpt lat="43.41470116718578" lon="11.709494798552143"><ele>508.00000000000006</ele><time>2026-04-19T07:27:38.899Z</time></trkpt><trkpt lat="43.41476908410705" lon="11.709480070438262"><ele>508.0</ele><time>2026-04-19T07:27:40.899Z</time></trkpt><trkpt lat="43.41483384051981" lon="11.709445528964018"><ele>508.0</ele><time>2026-04-19T07:27:42.899Z</time></trkpt><trkpt lat="43.41491334004858" lon="11.709396276429525"><ele>508.0</ele><time>2026-04-19T07:27:44.899Z</time></trkpt><trkpt lat="43.41499872499184" lon="11.70934658358997"><ele>508.00000000000006</ele><time>2026-04-19T07:27:46.899Z</time></trkpt><trkpt lat="43.41506626141234" lon="11.709272796725939"><ele>508.0</ele><time>2026-04-19T07:27:48.899Z</time></trkpt><trkpt lat="43.41511608177049" lon="11.709200859893949"><ele>511.50000000000006</ele><time>2026-04-19T07:27:50.899Z</time></trkpt><trkpt lat="43.41516159122158" lon="11.70912670559102"><ele>515.0</ele><time>2026-04-19T07:27:52.899Z</time></trkpt><trkpt lat="43.41520270920584" lon="11.709051503291045"><ele>518.5</ele><time>2026-04-19T07:27:54.898Z</time></trkpt><trkpt lat="43.41523439822225" lon="11.708965576965058"><ele>522.0</ele><time>2026-04-19T07:27:56.898Z</time></trkpt><trkpt lat="43.41529071015786" lon="11.708851584406395"><ele>525.5</ele><time>2026-04-19T07:27:59.898Z</time></trkpt><trkpt lat="43.415344282504805" lon="11.708743860073195"><ele>529.0</ele><time>2026-04-19T07:28:02.897Z</time></trkpt><trkpt lat="43.415400601622665" lon="11.708668613859324"><ele>528.0</ele><time>2026-04-19T07:28:04.897Z</time></trkpt><trkpt lat="43.41545065964762" lon="11.708570562314154"><ele>527.0</ele><time>2026-04-19T07:28:06.897Z</time></trkpt><trkpt lat="43.41550021866702" lon="11.708473488270277"><ele>526.0</ele><time>2026-04-19T07:28:08.898Z</time></trkpt><trkpt lat="43.41554016001635" lon="11.708370063543246"><ele>525.0</ele><time>2026-04-19T07:28:10.897Z</time></trkpt><trkpt lat="43.41558047888528" lon="11.70829086328906"><ele>524.0</ele><time>2026-04-19T07:28:12.897Z</time></trkpt><trkpt lat="43.41563129324572" lon="11.708215330667976"><ele>523.0</ele><time>2026-04-19T07:28:14.897Z</time></trkpt><trkpt lat="43.41567441302977" lon="11.708147654568002"><ele>523.0</ele><time>2026-04-19T07:28:16.897Z</time></trkpt><trkpt lat="43.41571081838504" lon="11.7080670346469"><ele>523.0</ele><time>2026-04-19T07:28:18.897Z</time></trkpt><trkpt lat="43.41574532910647" lon="11.707973845928032"><ele>523.0</ele><time>2026-04-19T07:28:20.897Z</time></trkpt><trkpt lat="43.41577935295294" lon="11.707879088334497"><ele>523.0</ele><time>2026-04-19T07:28:22.897Z</time></trkpt><trkpt lat="43.41579268232299" lon="11.707760789781936"><ele>523.0</ele><time>2026-04-19T07:28:24.897Z</time></trkpt><trkpt lat="43.41574710797376" lon="11.707621798274136"><ele>523.0</ele><time>2026-04-19T07:28:26.897Z</time></trkpt><trkpt lat="43.41564443354509" lon="11.707559377039106"><ele>523.3333333333334</ele><time>2026-04-19T07:28:28.897Z</time></trkpt><trkpt lat="43.415532775407485" lon="11.707576810599926"><ele>523.6666666666667</ele><time>2026-04-19T07:28:30.897Z</time></trkpt><trkpt lat="43.41545640669933" lon="11.707600603937244"><ele>524.0</ele><time>2026-04-19T07:28:32.897Z</time></trkpt><trkpt lat="43.4153928930155" lon="11.707620304454393"><ele>524.3333333333334</ele><time>2026-04-19T07:28:34.897Z</time></trkpt><trkpt lat="43.41531433456188" lon="11.707635238824567"><ele>524.6666666666666</ele><time>2026-04-19T07:28:36.897Z</time></trkpt><trkpt lat="43.415225114181524" lon="11.707643569754637"><ele>525.0</ele><time>2026-04-19T07:28:38.897Z</time></trkpt><trkpt lat="43.415131637921284" lon="11.70764325260212"><ele>525.0</ele><time>2026-04-19T07:28:40.897Z</time></trkpt><trkpt lat="43.415031508971445" lon="11.707628097009943"><ele>525.0</ele><time>2026-04-19T07:28:42.897Z</time></trkpt><trkpt lat="43.4149140071061" lon="11.707600767141765"><ele>525.0</ele><time>2026-04-19T07:28:44.897Z</time></trkpt><trkpt lat="43.41484527860918" lon="11.7075834826705"><ele>525.0</ele><time>2026-04-19T07:28:45.897Z</time></trkpt><trkpt lat="43.41477165919419" lon="11.70756116967722"><ele>525.0</ele><time>2026-04-19T07:28:46.897Z</time></trkpt><trkpt lat="43.41469642546736" lon="11.707541575808111"><ele>525.0</ele><time>2026-04-19T07:28:47.897Z</time></trkpt><trkpt lat="43.41461741388583" lon="11.707523630097244"><ele>524.6666666666666</ele><time>2026-04-19T07:28:48.897Z</time></trkpt><trkpt lat="43.41454404677485" lon="11.707483995259219"><ele>524.3333333333334</ele><time>2026-04-19T07:28:49.897Z</time></trkpt><trkpt lat="43.4144672454281" lon="11.707463096023147"><ele>524.0</ele><time>2026-04-19T07:28:50.897Z</time></trkpt><trkpt lat="43.414390497263" lon="11.707461091862399"><ele>523.6666666666667</ele><time>2026-04-19T07:28:51.897Z</time></trkpt><trkpt lat="43.4143124001088" lon="11.7074796506668"><ele>523.3333333333334</ele><time>2026-04-19T07:28:52.897Z</time></trkpt><trkpt lat="43.4142382136953" lon="11.707524855274553"><ele>523.0</ele><time>2026-04-19T07:28:53.897Z</time></trkpt><trkpt lat="43.41415252152547" lon="11.707541948270112"><ele>523.0</ele><time>2026-04-19T07:28:54.897Z</time></trkpt><trkpt lat="43.414082558222184" lon="11.707587907854496"><ele>523.0</ele><time>2026-04-19T07:28:55.897Z</time></trkpt><trkpt lat="43.414027304757845" lon="11.707636412728512"><ele>523.0</ele><time>2026-04-19T07:28:56.897Z</time></trkpt><trkpt lat="43.41392670485837" lon="11.707705108893473"><ele>523.0</ele><time>2026-04-19T07:28:58.897Z</time></trkpt><trkpt lat="43.41385542445208" lon="11.707683116685319"><ele>523.0</ele><time>2026-04-19T07:28:59.897Z</time></trkpt><trkpt lat="43.413795980764455" lon="11.707614663987403"><ele>523.0</ele><time>2026-04-19T07:29:00.897Z</time></trkpt><trkpt lat="43.41375711683762" lon="11.707532590707505"><ele>524.8333333333334</ele><time>2026-04-19T07:29:01.897Z</time></trkpt><trkpt lat="43.41373402895768" lon="11.70745163046561"><ele>526.6666666666667</ele><time>2026-04-19T07:29:02.897Z</time></trkpt><trkpt lat="43.41370397436827" lon="11.707362021033916"><ele>528.5</ele><time>2026-04-19T07:29:03.897Z</time></trkpt><trkpt lat="43.413667089518825" lon="11.70728627068463"><ele>530.3333333333334</ele><time>2026-04-19T07:29:04.897Z</time></trkpt><trkpt lat="43.41361533390715" lon="11.707218985022706"><ele>532.1666666666666</ele><time>2026-04-19T07:29:05.897Z</time></trkpt><trkpt lat="43.41356116732534" lon="11.707162807027697"><ele>534.0</ele><time>2026-04-19T07:29:06.897Z</time></trkpt><trkpt lat="43.413452094292126" lon="11.707048807250299"><ele>534.0</ele><time>2026-04-19T07:29:08.897Z</time></trkpt><trkpt lat="43.41340308269758" lon="11.706989003324573"><ele>534.0</ele><time>2026-04-19T07:29:09.897Z</time></trkpt><trkpt lat="43.41337209525239" lon="11.706909879396889"><ele>534.0</ele><time>2026-04-19T07:29:10.897Z</time></trkpt><trkpt lat="43.4133324663859" lon="11.706756049595127"><ele>534.0</ele><time>2026-04-19T07:29:12.897Z</time></trkpt><trkpt lat="43.41332540662908" lon="11.706626662902394"><ele>534.0</ele><time>2026-04-19T07:29:14.897Z</time></trkpt><trkpt lat="43.41330772991844" lon="11.70648472308699"><ele>534.0</ele><time>2026-04-19T07:29:16.897Z</time></trkpt><trkpt lat="43.4132818977095" lon="11.706405362713639"><ele>531.5</ele><time>2026-04-19T07:29:17.897Z</time></trkpt><trkpt lat="43.4132137116997" lon="11.706265005005209"><ele>529.0</ele><time>2026-04-19T07:29:19.897Z</time></trkpt><trkpt lat="43.413169622329214" lon="11.706184427412799"><ele>526.5</ele><time>2026-04-19T07:29:20.897Z</time></trkpt><trkpt lat="43.4131265973951" lon="11.706107047334298"><ele>524.0</ele><time>2026-04-19T07:29:21.897Z</time></trkpt><trkpt lat="43.41307886414505" lon="11.706022684542667"><ele>521.5</ele><time>2026-04-19T07:29:22.897Z</time></trkpt><trkpt lat="43.413026678919394" lon="11.705942215205873"><ele>519.0</ele><time>2026-04-19T07:29:23.897Z</time></trkpt><trkpt lat="43.41297299882617" lon="11.70585272370513"><ele>518.0</ele><time>2026-04-19T07:29:24.897Z</time></trkpt><trkpt lat="43.41292858871262" lon="11.705740546688434"><ele>517.0</ele><time>2026-04-19T07:29:25.897Z</time></trkpt><trkpt lat="43.412868842662405" lon="11.705633035110607"><ele>516.0</ele><time>2026-04-19T07:29:26.897Z</time></trkpt><trkpt lat="43.41280760285912" lon="11.705523175692974"><ele>515.0</ele><time>2026-04-19T07:29:27.897Z</time></trkpt><trkpt lat="43.41274372562398" lon="11.705410223969377"><ele>514.0</ele><time>2026-04-19T07:29:28.897Z</time></trkpt><trkpt lat="43.412682039595495" lon="11.70529010945436"><ele>512.2</ele><time>2026-04-19T07:29:29.897Z</time></trkpt><trkpt lat="43.412626263823995" lon="11.705165550888553"><ele>510.4</ele><time>2026-04-19T07:29:30.897Z</time></trkpt><trkpt lat="43.41257851181547" lon="11.705025305682183"><ele>508.6</ele><time>2026-04-19T07:29:31.897Z</time></trkpt><trkpt lat="43.41253851307765" lon="11.7048858016159"><ele>506.8</ele><time>2026-04-19T07:29:32.897Z</time></trkpt><trkpt lat="43.412498344575" lon="11.704743259160482"><ele>505.0</ele><time>2026-04-19T07:29:33.897Z</time></trkpt><trkpt lat="43.41246124591169" lon="11.704604150420629"><ele>505.0</ele><time>2026-04-19T07:29:34.897Z</time></trkpt><trkpt lat="43.41242220012481" lon="11.704465795199726"><ele>505.0</ele><time>2026-04-19T07:29:35.897Z</time></trkpt><trkpt lat="43.412374724139724" lon="11.704338019037662"><ele>505.0</ele><time>2026-04-19T07:29:36.897Z</time></trkpt><trkpt lat="43.412329174611244" lon="11.70420393139773"><ele>505.0</ele><time>2026-04-19T07:29:37.897Z</time></trkpt><trkpt lat="43.412276462676395" lon="11.704089605817456"><ele>505.0</ele><time>2026-04-19T07:29:38.897Z</time></trkpt><trkpt lat="43.41221556194769" lon="11.703996442767409"><ele>504.83333333333337</ele><time>2026-04-19T07:29:39.897Z</time></trkpt><trkpt lat="43.412167933319104" lon="11.703899336432283"><ele>504.6666666666667</ele><time>2026-04-19T07:29:40.897Z</time></trkpt><trkpt lat="43.41212033724184" lon="11.703820146959043"><ele>504.5</ele><time>2026-04-19T07:29:41.897Z</time></trkpt><trkpt lat="43.41206865091082" lon="11.7037564737224"><ele>504.33333333333337</ele><time>2026-04-19T07:29:42.897Z</time></trkpt><trkpt lat="43.41198930977276" lon="11.703675160769567"><ele>504.1666666666667</ele><time>2026-04-19T07:29:44.897Z</time></trkpt><trkpt lat="43.41191661052863" lon="11.703625052368217"><ele>504.0</ele><time>2026-04-19T07:29:46.897Z</time></trkpt><trkpt lat="43.41184824890992" lon="11.703565026766677"><ele>505.0</ele><time>2026-04-19T07:29:48.897Z</time></trkpt><trkpt lat="43.411815137815104" lon="11.703449242379364"><ele>506.0</ele><time>2026-04-19T07:29:50.897Z</time></trkpt><trkpt lat="43.41186101046253" lon="11.70335166640382"><ele>507.0</ele><time>2026-04-19T07:29:52.897Z</time></trkpt><trkpt lat="43.41190511337728" lon="11.703280692043622"><ele>508.0</ele><time>2026-04-19T07:29:54.897Z</time></trkpt><trkpt lat="43.411954399423486" lon="11.703211552416713"><ele>509.0</ele><time>2026-04-19T07:29:56.897Z</time></trkpt><trkpt lat="43.41200986770809" lon="11.70313924695732"><ele>510.0</ele><time>2026-04-19T07:29:58.897Z</time></trkpt><trkpt lat="43.41206270390114" lon="11.703071729011272"><ele>510.0</ele><time>2026-04-19T07:30:00.895Z</time></trkpt><trkpt lat="43.412111861918056" lon="11.703009010204521"><ele>510.0</ele><time>2026-04-19T07:30:02.896Z</time></trkpt><trkpt lat="43.41216068814518" lon="11.702952833458248"><ele>510.0</ele><time>2026-04-19T07:30:04.895Z</time></trkpt><trkpt lat="43.4122154222751" lon="11.702858155463579"><ele>510.0</ele><time>2026-04-19T07:30:07.895Z</time></trkpt><trkpt lat="43.41227548470304" lon="11.702771100569775"><ele>510.0</ele><time>2026-04-19T07:30:10.895Z</time></trkpt><trkpt lat="43.41232312136922" lon="11.702674879054486"><ele>510.0</ele><time>2026-04-19T07:30:13.896Z</time></trkpt><trkpt lat="43.41237578538593" lon="11.702578925004499"><ele>512.0</ele><time>2026-04-19T07:30:16.895Z</time></trkpt><trkpt lat="43.41241774802196" lon="11.702479866895102"><ele>514.0</ele><time>2026-04-19T07:30:19.895Z</time></trkpt><trkpt lat="43.412450398881695" lon="11.702381184788571"><ele>516.0</ele><time>2026-04-19T07:30:22.895Z</time></trkpt><trkpt lat="43.41248523396094" lon="11.702290020076429"><ele>518.0</ele><time>2026-04-19T07:30:25.895Z</time></trkpt><trkpt lat="43.41251979381541" lon="11.702187249792663"><ele>520.0</ele><time>2026-04-19T07:30:28.895Z</time></trkpt><trkpt lat="43.41256201988441" lon="11.702081676129445"><ele>522.0</ele><time>2026-04-19T07:30:31.895Z</time></trkpt><trkpt lat="43.41261037569852" lon="11.701989286887411"><ele>523.6666666666666</ele><time>2026-04-19T07:30:34.895Z</time></trkpt><trkpt lat="43.412649553401856" lon="11.701888356898136"><ele>525.3333333333334</ele><time>2026-04-19T07:30:37.895Z</time></trkpt><trkpt lat="43.41268924989708" lon="11.701787915439274"><ele>527.0</ele><time>2026-04-19T07:30:40.895Z</time></trkpt><trkpt lat="43.41273416749974" lon="11.701683851273193"><ele>528.6666666666667</ele><time>2026-04-19T07:30:43.895Z</time></trkpt><trkpt lat="43.412785142596384" lon="11.701580983434065"><ele>530.3333333333334</ele><time>2026-04-19T07:30:46.895Z</time></trkpt><trkpt lat="43.41283319562295" lon="11.701477732367218"><ele>532.0</ele><time>2026-04-19T07:30:49.895Z</time></trkpt><trkpt lat="43.41287790291097" lon="11.701382819496299"><ele>532.0</ele><time>2026-04-19T07:30:52.895Z</time></trkpt><trkpt lat="43.41292163905906" lon="11.701294924300841"><ele>532.0</ele><time>2026-04-19T07:30:55.895Z</time></trkpt><trkpt lat="43.41297015960616" lon="11.701199121029243"><ele>532.0</ele><time>2026-04-19T07:30:58.895Z</time></trkpt><trkpt lat="43.41301503338876" lon="11.701094150885659"><ele>532.0</ele><time>2026-04-19T07:31:01.895Z</time></trkpt><trkpt lat="43.41305613460329" lon="11.700991290664195"><ele>532.0</ele><time>2026-04-19T07:31:04.895Z</time></trkpt><trkpt lat="43.41310181018079" lon="11.700894621039351"><ele>532.0</ele><time>2026-04-19T07:31:07.895Z</time></trkpt><trkpt lat="43.41314839317635" lon="11.700795090041655"><ele>532.8571428571429</ele><time>2026-04-19T07:31:10.895Z</time></trkpt><trkpt lat="43.413193114821745" lon="11.700695988166014"><ele>533.7142857142858</ele><time>2026-04-19T07:31:13.895Z</time></trkpt><trkpt lat="43.4132287379895" lon="11.700619107435832"><ele>534.5714285714286</ele><time>2026-04-19T07:31:15.895Z</time></trkpt><trkpt lat="43.413268711202846" lon="11.700547733085314"><ele>535.4285714285714</ele><time>2026-04-19T07:31:17.895Z</time></trkpt><trkpt lat="43.41330226831744" lon="11.700472363790755"><ele>536.2857142857143</ele><time>2026-04-19T07:31:19.895Z</time></trkpt><trkpt lat="43.413336020219255" lon="11.700392565760218"><ele>537.1428571428571</ele><time>2026-04-19T07:31:21.895Z</time></trkpt><trkpt lat="43.41338005926693" lon="11.700289461871009"><ele>538.0</ele><time>2026-04-19T07:31:24.895Z</time></trkpt><trkpt lat="43.413415675686814" lon="11.700213423258651"><ele>539.1666666666667</ele><time>2026-04-19T07:31:26.895Z</time></trkpt><trkpt lat="43.41346025042053" lon="11.700116712172113"><ele>540.3333333333334</ele><time>2026-04-19T07:31:29.895Z</time></trkpt><trkpt lat="43.41348998640189" lon="11.700038523133166"><ele>541.5</ele><time>2026-04-19T07:31:31.895Z</time></trkpt><trkpt lat="43.41351449858521" lon="11.699932870611708"><ele>542.6666666666666</ele><time>2026-04-19T07:31:34.895Z</time></trkpt><trkpt lat="43.4135220152689" lon="11.699818522785337"><ele>543.8333333333333</ele><time>2026-04-19T07:31:37.895Z</time></trkpt><trkpt lat="43.41350396355436" lon="11.699727467418871"><ele>545.0</ele><time>2026-04-19T07:31:40.895Z</time></trkpt><trkpt lat="43.4131798602928" lon="11.700066123800307"><ele>545.0</ele><time>2026-04-19T07:32:44.892Z</time></trkpt><trkpt lat="43.41309739534966" lon="11.700123648903308"><ele>545.0</ele><time>2026-04-19T07:32:47.892Z</time></trkpt><trkpt lat="43.41301903556423" lon="11.700194398829266"><ele>545.0</ele><time>2026-04-19T07:32:50.892Z</time></trkpt><trkpt lat="43.4129499700218" lon="11.700270523084026"><ele>545.0</ele><time>2026-04-19T07:32:53.892Z</time></trkpt><trkpt lat="43.41286884776272" lon="11.70035176425946"><ele>545.0</ele><time>2026-04-19T07:32:56.892Z</time></trkpt><trkpt lat="43.412804169352256" lon="11.700417258077167"><ele>544.8333333333333</ele><time>2026-04-19T07:32:58.892Z</time></trkpt><trkpt lat="43.41273548397408" lon="11.700463074440496"><ele>544.6666666666666</ele><time>2026-04-19T07:33:00.892Z</time></trkpt><trkpt lat="43.41266703698288" lon="11.700499275420993"><ele>544.5</ele><time>2026-04-19T07:33:02.892Z</time></trkpt><trkpt lat="43.412589720566466" lon="11.700516114713611"><ele>544.3333333333334</ele><time>2026-04-19T07:33:04.892Z</time></trkpt><trkpt lat="43.41250948329954" lon="11.70052170985129"><ele>544.1666666666667</ele><time>2026-04-19T07:33:06.892Z</time></trkpt><trkpt lat="43.41242401837155" lon="11.700527006738723"><ele>544.0</ele><time>2026-04-19T07:33:08.892Z</time></trkpt><trkpt lat="43.41234269961512" lon="11.700534717229372"><ele>544.0</ele><time>2026-04-19T07:33:10.892Z</time></trkpt><trkpt lat="43.41225600486237" lon="11.70052038960837"><ele>544.0</ele><time>2026-04-19T07:33:12.892Z</time></trkpt><trkpt lat="43.41216748627075" lon="11.700498539291184"><ele>544.0</ele><time>2026-04-19T07:33:14.892Z</time></trkpt><trkpt lat="43.41209287371481" lon="11.700428495881724"><ele>544.0</ele><time>2026-04-19T07:33:16.892Z</time></trkpt><trkpt lat="43.4120442234196" lon="11.700330742536936"><ele>544.0</ele><time>2026-04-19T07:33:18.892Z</time></trkpt><trkpt lat="43.411989248820895" lon="11.700258529630716"><ele>544.0</ele><time>2026-04-19T07:33:21.892Z</time></trkpt><trkpt lat="43.412044227584154" lon="11.7000333447128"><ele>544.5</ele><time>2026-04-19T07:33:25.892Z</time></trkpt><trkpt lat="43.412053958823186" lon="11.699916417859606"><ele>545.0</ele><time>2026-04-19T07:33:28.892Z</time></trkpt><trkpt lat="43.412057042778414" lon="11.699796901225575"><ele>545.5</ele><time>2026-04-19T07:33:31.892Z</time></trkpt><trkpt lat="43.41206669445742" lon="11.699692277769591"><ele>546.0</ele><time>2026-04-19T07:33:34.892Z</time></trkpt><trkpt lat="43.41208262061858" lon="11.699586093717338"><ele>546.5</ele><time>2026-04-19T07:33:37.892Z</time></trkpt><trkpt lat="43.41209405252891" lon="11.69947688505004"><ele>547.0</ele><time>2026-04-19T07:33:40.892Z</time></trkpt><trkpt lat="43.412108384472" lon="11.69936026406203"><ele>547.0</ele><time>2026-04-19T07:33:43.892Z</time></trkpt><trkpt lat="43.41212558955282" lon="11.699242176703224"><ele>547.0</ele><time>2026-04-19T07:33:46.892Z</time></trkpt><trkpt lat="43.41215354799493" lon="11.69911670676993"><ele>547.0</ele><time>2026-04-19T07:33:49.892Z</time></trkpt><trkpt lat="43.41218617337515" lon="11.69899744720353"><ele>547.0</ele><time>2026-04-19T07:33:52.892Z</time></trkpt><trkpt lat="43.4122238620558" lon="11.698881482169575"><ele>547.0</ele><time>2026-04-19T07:33:55.892Z</time></trkpt><trkpt lat="43.412260894121765" lon="11.698761527984388"><ele>548.5714285714286</ele><time>2026-04-19T07:33:58.892Z</time></trkpt><trkpt lat="43.41228604433239" lon="11.69867775502495"><ele>550.1428571428571</ele><time>2026-04-19T07:34:00.892Z</time></trkpt><trkpt lat="43.41231764252616" lon="11.69856187970375"><ele>551.7142857142857</ele><time>2026-04-19T07:34:03.892Z</time></trkpt><trkpt lat="43.4123393850582" lon="11.698477013240822"><ele>553.2857142857142</ele><time>2026-04-19T07:34:05.892Z</time></trkpt><trkpt lat="43.412365664406785" lon="11.698392760010849"><ele>554.8571428571429</ele><time>2026-04-19T07:34:07.892Z</time></trkpt><trkpt lat="43.412389850277755" lon="11.698311211230433"><ele>556.4285714285713</ele><time>2026-04-19T07:34:09.892Z</time></trkpt><trkpt lat="43.412414509758364" lon="11.698230335606196"><ele>558.0</ele><time>2026-04-19T07:34:11.892Z</time></trkpt><trkpt lat="43.41243824359424" lon="11.698145950514217"><ele>558.6666666666666</ele><time>2026-04-19T07:34:13.891Z</time></trkpt><trkpt lat="43.412464428291436" lon="11.698059927856404"><ele>559.3333333333334</ele><time>2026-04-19T07:34:15.891Z</time></trkpt><trkpt lat="43.41248597443877" lon="11.69792987147314"><ele>560.0</ele><time>2026-04-19T07:34:18.891Z</time></trkpt><trkpt lat="43.41248835461686" lon="11.69783872780354"><ele>560.6666666666667</ele><time>2026-04-19T07:34:20.891Z</time></trkpt><trkpt lat="43.41247727040153" lon="11.69771228313959"><ele>561.3333333333334</ele><time>2026-04-19T07:34:23.891Z</time></trkpt><trkpt lat="43.41247032760282" lon="11.697624794812631"><ele>562.0</ele><time>2026-04-19T07:34:25.891Z</time></trkpt><trkpt lat="43.412465148473586" lon="11.697533639891107"><ele>563.4285714285714</ele><time>2026-04-19T07:34:27.891Z</time></trkpt><trkpt lat="43.41244902166544" lon="11.697438459522127"><ele>564.8571428571429</ele><time>2026-04-19T07:34:29.891Z</time></trkpt><trkpt lat="43.412434562069464" lon="11.697349560575285"><ele>566.2857142857142</ele><time>2026-04-19T07:34:31.89Z</time></trkpt><trkpt lat="43.41241371601571" lon="11.697262635128453"><ele>567.7142857142858</ele><time>2026-04-19T07:34:33.89Z</time></trkpt><trkpt lat="43.412384306956895" lon="11.69718429946504"><ele>569.1428571428571</ele><time>2026-04-19T07:34:35.89Z</time></trkpt><trkpt lat="43.41234904283041" lon="11.69708011203362"><ele>570.5714285714286</ele><time>2026-04-19T07:34:38.89Z</time></trkpt><trkpt lat="43.412310843591094" lon="11.696971411709763"><ele>572.0</ele><time>2026-04-19T07:34:41.89Z</time></trkpt><trkpt lat="43.4122741322443" lon="11.696862164952204"><ele>571.7142857142857</ele><time>2026-04-19T07:34:44.89Z</time></trkpt><trkpt lat="43.41224575508292" lon="11.696781917303845"><ele>571.4285714285714</ele><time>2026-04-19T07:34:46.89Z</time></trkpt><trkpt lat="43.41221557053998" lon="11.696702714298993"><ele>571.1428571428571</ele><time>2026-04-19T07:34:48.89Z</time></trkpt><trkpt lat="43.412176426677064" lon="11.696588020024405"><ele>570.8571428571429</ele><time>2026-04-19T07:34:51.89Z</time></trkpt><trkpt lat="43.41214722517503" lon="11.69650753983018"><ele>570.5714285714286</ele><time>2026-04-19T07:34:53.89Z</time></trkpt><trkpt lat="43.41211123499334" lon="11.696413322534916"><ele>570.2857142857142</ele><time>2026-04-19T07:34:55.89Z</time></trkpt><trkpt lat="43.412083440774" lon="11.696316012625005"><ele>570.0</ele><time>2026-04-19T07:34:57.89Z</time></trkpt><trkpt lat="43.41204976759752" lon="11.696221220794207"><ele>570.0</ele><time>2026-04-19T07:34:59.89Z</time></trkpt><trkpt lat="43.41202142544626" lon="11.696137236734945"><ele>570.0</ele><time>2026-04-19T07:35:01.89Z</time></trkpt><trkpt lat="43.411993200043945" lon="11.69605732284504"><ele>570.0</ele><time>2026-04-19T07:35:03.89Z</time></trkpt><trkpt lat="43.411955525443055" lon="11.695955965238419"><ele>570.0</ele><time>2026-04-19T07:35:06.89Z</time></trkpt><trkpt lat="43.41191687986768" lon="11.695846282718513"><ele>570.0</ele><time>2026-04-19T07:35:09.89Z</time></trkpt><trkpt lat="43.411887950505424" lon="11.695765148179525"><ele>570.0</ele><time>2026-04-19T07:35:11.89Z</time></trkpt><trkpt lat="43.41185769682594" lon="11.695677266610504"><ele>570.0</ele><time>2026-04-19T07:35:13.89Z</time></trkpt><trkpt lat="43.41181865487911" lon="11.695559475771006"><ele>571.3333333333334</ele><time>2026-04-19T07:35:16.89Z</time></trkpt><trkpt lat="43.411777170026156" lon="11.695447683518283"><ele>572.6666666666666</ele><time>2026-04-19T07:35:19.89Z</time></trkpt><trkpt lat="43.41175482111132" lon="11.695358529495547"><ele>574.0</ele><time>2026-04-19T07:35:21.89Z</time></trkpt><trkpt lat="43.4117260665733" lon="11.695256473867458"><ele>575.3333333333333</ele><time>2026-04-19T07:35:23.89Z</time></trkpt><trkpt lat="43.4117006132089" lon="11.695171442742204"><ele>576.6666666666666</ele><time>2026-04-19T07:35:25.89Z</time></trkpt><trkpt lat="43.411649710240525" lon="11.695047968852972"><ele>578.0</ele><time>2026-04-19T07:35:28.89Z</time></trkpt><trkpt lat="43.41159061260538" lon="11.694956495198628"><ele>578.7142857142858</ele><time>2026-04-19T07:35:31.89Z</time></trkpt><trkpt lat="43.411533434740456" lon="11.694891079597422"><ele>579.4285714285714</ele><time>2026-04-19T07:35:33.89Z</time></trkpt><trkpt lat="43.41148439424181" lon="11.694817851021892"><ele>580.1428571428571</ele><time>2026-04-19T07:35:35.89Z</time></trkpt><trkpt lat="43.411424041512404" lon="11.694777343457805"><ele>580.8571428571429</ele><time>2026-04-19T07:35:37.89Z</time></trkpt><trkpt lat="43.41136123242855" lon="11.694742823533549"><ele>581.5714285714286</ele><time>2026-04-19T07:35:39.89Z</time></trkpt><trkpt lat="43.411298140416356" lon="11.694714737252394"><ele>582.2857142857143</ele><time>2026-04-19T07:35:41.89Z</time></trkpt><trkpt lat="43.41123163580297" lon="11.694712486136327"><ele>583.0</ele><time>2026-04-19T07:35:43.89Z</time></trkpt><trkpt lat="43.41117013516071" lon="11.694686644419123"><ele>583.5714285714287</ele><time>2026-04-19T07:35:45.89Z</time></trkpt><trkpt lat="43.41109930091414" lon="11.694669954053976"><ele>584.1428571428571</ele><time>2026-04-19T07:35:47.89Z</time></trkpt><trkpt lat="43.41103138494072" lon="11.694650249624768"><ele>584.7142857142858</ele><time>2026-04-19T07:35:49.89Z</time></trkpt><trkpt lat="43.41096503626075" lon="11.69463065709482"><ele>585.2857142857143</ele><time>2026-04-19T07:35:51.89Z</time></trkpt><trkpt lat="43.410899444171484" lon="11.694611990344924"><ele>585.8571428571429</ele><time>2026-04-19T07:35:53.89Z</time></trkpt><trkpt lat="43.4108415552526" lon="11.69457538378577"><ele>586.4285714285714</ele><time>2026-04-19T07:35:55.89Z</time></trkpt><trkpt lat="43.41077933386647" lon="11.694555108144533"><ele>587.0</ele><time>2026-04-19T07:35:57.89Z</time></trkpt><trkpt lat="43.41071737830054" lon="11.694522824967128"><ele>587.0</ele><time>2026-04-19T07:35:59.89Z</time></trkpt><trkpt lat="43.41065373869591" lon="11.694486741419393"><ele>587.0</ele><time>2026-04-19T07:36:01.89Z</time></trkpt><trkpt lat="43.410566865420996" lon="11.694444826094967"><ele>587.0</ele><time>2026-04-19T07:36:04.89Z</time></trkpt><trkpt lat="43.4104788182274" lon="11.69439713284486"><ele>587.0</ele><time>2026-04-19T07:36:07.89Z</time></trkpt><trkpt lat="43.41040367441634" lon="11.694319485527526"><ele>587.0</ele><time>2026-04-19T07:36:10.889Z</time></trkpt><trkpt lat="43.41035214027347" lon="11.694263401097631"><ele>587.0</ele><time>2026-04-19T07:36:12.885Z</time></trkpt><trkpt lat="43.41027708741403" lon="11.694177337414216"><ele>587.6666666666666</ele><time>2026-04-19T07:36:15.88Z</time></trkpt><trkpt lat="43.41022514486568" lon="11.69411782979366"><ele>588.3333333333333</ele><time>2026-04-19T07:36:17.877Z</time></trkpt><trkpt lat="43.410155142334666" lon="11.694035342868123"><ele>589.0</ele><time>2026-04-19T07:36:20.872Z</time></trkpt><trkpt lat="43.41009973170324" lon="11.693978990225167"><ele>589.6666666666666</ele><time>2026-04-19T07:36:22.87Z</time></trkpt><trkpt lat="43.41003887805611" lon="11.693906496108276"><ele>590.3333333333334</ele><time>2026-04-19T07:36:24.868Z</time></trkpt><trkpt lat="43.40997239283354" lon="11.693825415279672"><ele>591.0</ele><time>2026-04-19T07:36:26.867Z</time></trkpt><trkpt lat="43.40990569889369" lon="11.693759447391905"><ele>591.0</ele><time>2026-04-19T07:36:28.865Z</time></trkpt><trkpt lat="43.409846635540944" lon="11.693684366725059"><ele>591.0</ele><time>2026-04-19T07:36:30.864Z</time></trkpt><trkpt lat="43.409781585374574" lon="11.69360727906494"><ele>591.0</ele><time>2026-04-19T07:36:32.862Z</time></trkpt><trkpt lat="43.409712380538544" lon="11.69353049754508"><ele>591.0</ele><time>2026-04-19T07:36:34.861Z</time></trkpt><trkpt lat="43.409659678783854" lon="11.693447783067484"><ele>591.0</ele><time>2026-04-19T07:36:36.861Z</time></trkpt><trkpt lat="43.40958685546016" lon="11.69336768531203"><ele>591.0</ele><time>2026-04-19T07:36:38.86Z</time></trkpt><trkpt lat="43.40951660197637" lon="11.693290725796267"><ele>590.5</ele><time>2026-04-19T07:36:40.859Z</time></trkpt><trkpt lat="43.40944937262318" lon="11.693220492777545"><ele>590.0</ele><time>2026-04-19T07:36:42.859Z</time></trkpt><trkpt lat="43.409376463665836" lon="11.693151173964122"><ele>589.5</ele><time>2026-04-19T07:36:44.858Z</time></trkpt><trkpt lat="43.4093096615801" lon="11.693089497076622"><ele>589.0</ele><time>2026-04-19T07:36:46.858Z</time></trkpt><trkpt lat="43.409237652559014" lon="11.693018441757072"><ele>588.5</ele><time>2026-04-19T07:36:48.857Z</time></trkpt><trkpt lat="43.4091691563532" lon="11.69295665225313"><ele>588.0</ele><time>2026-04-19T07:36:50.857Z</time></trkpt><trkpt lat="43.409098977072624" lon="11.692894880043974"><ele>588.0</ele><time>2026-04-19T07:36:52.856Z</time></trkpt><trkpt lat="43.40902568634354" lon="11.692834574145246"><ele>588.0</ele><time>2026-04-19T07:36:54.856Z</time></trkpt><trkpt lat="43.40895528345308" lon="11.6927795282552"><ele>588.0</ele><time>2026-04-19T07:36:56.856Z</time></trkpt><trkpt lat="43.40889058746815" lon="11.692702291999844"><ele>588.0</ele><time>2026-04-19T07:36:58.856Z</time></trkpt><trkpt lat="43.40881439873856" lon="11.692638615390832"><ele>588.0</ele><time>2026-04-19T07:37:00.855Z</time></trkpt><trkpt lat="43.40873881374289" lon="11.69258294158102"><ele>588.0</ele><time>2026-04-19T07:37:02.855Z</time></trkpt><trkpt lat="43.40866365316202" lon="11.692526447975698"><ele>588.8333333333334</ele><time>2026-04-19T07:37:04.855Z</time></trkpt><trkpt lat="43.40857984134601" lon="11.692465115301866"><ele>589.6666666666666</ele><time>2026-04-19T07:37:06.855Z</time></trkpt><trkpt lat="43.40849964309364" lon="11.69241567977761"><ele>590.5</ele><time>2026-04-19T07:37:08.855Z</time></trkpt><trkpt lat="43.40842416094099" lon="11.692378123935848"><ele>591.3333333333333</ele><time>2026-04-19T07:37:10.855Z</time></trkpt><trkpt lat="43.40834732112528" lon="11.69234117141292"><ele>592.1666666666666</ele><time>2026-04-19T07:37:12.855Z</time></trkpt><trkpt lat="43.40827345120673" lon="11.692304571788016"><ele>593.0</ele><time>2026-04-19T07:37:14.855Z</time></trkpt><trkpt lat="43.40819717503362" lon="11.69227763164328"><ele>592.9999999999999</ele><time>2026-04-19T07:37:16.854Z</time></trkpt><trkpt lat="43.40812507391469" lon="11.692245649940478"><ele>593.0</ele><time>2026-04-19T07:37:18.854Z</time></trkpt><trkpt lat="43.408052087127444" lon="11.692223058413388"><ele>593.0</ele><time>2026-04-19T07:37:20.854Z</time></trkpt><trkpt lat="43.40799309233852" lon="11.692179874819907"><ele>593.0</ele><time>2026-04-19T07:37:22.854Z</time></trkpt><trkpt lat="43.40792330768559" lon="11.69214794202787"><ele>593.0</ele><time>2026-04-19T07:37:24.854Z</time></trkpt><trkpt lat="43.4078559542031" lon="11.692134882176594"><ele>592.9999999999999</ele><time>2026-04-19T07:37:26.854Z</time></trkpt><trkpt lat="43.40778621967616" lon="11.692103396351479"><ele>593.0</ele><time>2026-04-19T07:37:28.854Z</time></trkpt><trkpt lat="43.40771627820771" lon="11.692045737165436"><ele>592.5714285714286</ele><time>2026-04-19T07:37:31.854Z</time></trkpt><trkpt lat="43.40765406477201" lon="11.69201894288448"><ele>592.1428571428571</ele><time>2026-04-19T07:37:33.854Z</time></trkpt><trkpt lat="43.40758961407873" lon="11.691984408790619"><ele>591.7142857142858</ele><time>2026-04-19T07:37:35.854Z</time></trkpt><trkpt lat="43.40754066543742" lon="11.691920679219729"><ele>591.2857142857142</ele><time>2026-04-19T07:37:37.854Z</time></trkpt><trkpt lat="43.40748130131409" lon="11.691880246014632"><ele>590.8571428571429</ele><time>2026-04-19T07:37:39.854Z</time></trkpt><trkpt lat="43.407414637333915" lon="11.691848934158111"><ele>590.4285714285714</ele><time>2026-04-19T07:37:41.854Z</time></trkpt><trkpt lat="43.40734163665417" lon="11.691811800944544"><ele>590.0</ele><time>2026-04-19T07:37:43.854Z</time></trkpt><trkpt lat="43.40726627058374" lon="11.691791571479758"><ele>591.1666666666666</ele><time>2026-04-19T07:37:45.854Z</time></trkpt><trkpt lat="43.40719321184831" lon="11.691767788532548"><ele>592.3333333333333</ele><time>2026-04-19T07:37:47.854Z</time></trkpt><trkpt lat="43.40712450493921" lon="11.691743550860918"><ele>593.5</ele><time>2026-04-19T07:37:49.854Z</time></trkpt><trkpt lat="43.40704922038794" lon="11.691728910956869"><ele>594.6666666666666</ele><time>2026-04-19T07:37:51.854Z</time></trkpt><trkpt lat="43.40697361708142" lon="11.691727173222679"><ele>595.8333333333334</ele><time>2026-04-19T07:37:53.854Z</time></trkpt><trkpt lat="43.40689172452917" lon="11.69172800706669"><ele>597.0</ele><time>2026-04-19T07:37:55.854Z</time></trkpt><trkpt lat="43.40681279209117" lon="11.691732260438297"><ele>597.0000000000001</ele><time>2026-04-19T07:37:57.854Z</time></trkpt><trkpt lat="43.40674168746473" lon="11.691733962695725"><ele>597.0</ele><time>2026-04-19T07:37:59.854Z</time></trkpt><trkpt lat="43.406675076138846" lon="11.691733987480358"><ele>597.0</ele><time>2026-04-19T07:38:01.854Z</time></trkpt><trkpt lat="43.40660882142521" lon="11.691715808663309"><ele>597.0</ele><time>2026-04-19T07:38:03.854Z</time></trkpt><trkpt lat="43.40654499230044" lon="11.691715808664332"><ele>597.0</ele><time>2026-04-19T07:38:05.854Z</time></trkpt><trkpt lat="43.406481206869834" lon="11.691715808664954"><ele>597.0000000000001</ele><time>2026-04-19T07:38:07.854Z</time></trkpt><trkpt lat="43.406417995768955" lon="11.691738249199107"><ele>597.0</ele><time>2026-04-19T07:38:09.853Z</time></trkpt><trkpt lat="43.40635430124484" lon="11.691715808665995"><ele>598.1666666666666</ele><time>2026-04-19T07:38:11.853Z</time></trkpt><trkpt lat="43.40626441935994" lon="11.691723805447074"><ele>599.3333333333334</ele><time>2026-04-19T07:38:14.853Z</time></trkpt><trkpt lat="43.406174393515" lon="11.691696073324755"><ele>600.5</ele><time>2026-04-19T07:38:17.853Z</time></trkpt><trkpt lat="43.40608846624885" lon="11.691656398257695"><ele>601.6666666666667</ele><time>2026-04-19T07:38:20.853Z</time></trkpt><trkpt lat="43.40600614471216" lon="11.691600809096151"><ele>602.8333333333334</ele><time>2026-04-19T07:38:23.853Z</time></trkpt><trkpt lat="43.4059494903914" lon="11.691514504917276"><ele>604.0</ele><time>2026-04-19T07:38:26.852Z</time></trkpt><trkpt lat="43.4059066672844" lon="11.691419048976904"><ele>604.0</ele><time>2026-04-19T07:38:29.852Z</time></trkpt><trkpt lat="43.405878841956515" lon="11.691327672452518"><ele>604.0</ele><time>2026-04-19T07:38:32.852Z</time></trkpt><trkpt lat="43.40583486045506" lon="11.691233933122634"><ele>604.0</ele><time>2026-04-19T07:38:35.852Z</time></trkpt><trkpt lat="43.405779712413704" lon="11.691133542780431"><ele>604.0</ele><time>2026-04-19T07:38:38.852Z</time></trkpt><trkpt lat="43.40571870636335" lon="11.69103742856076"><ele>604.0</ele><time>2026-04-19T07:38:41.852Z</time></trkpt><trkpt lat="43.405664110145466" lon="11.69098454634768"><ele>604.0</ele><time>2026-04-19T07:38:43.852Z</time></trkpt><trkpt lat="43.405584750988595" lon="11.69092816068931"><ele>604.1666666666667</ele><time>2026-04-19T07:38:46.852Z</time></trkpt><trkpt lat="43.40551176377344" lon="11.69086200691354"><ele>604.3333333333334</ele><time>2026-04-19T07:38:49.852Z</time></trkpt><trkpt lat="43.40543569699181" lon="11.690792658918033"><ele>604.5</ele><time>2026-04-19T07:38:52.852Z</time></trkpt><trkpt lat="43.40540626587371" lon="11.690683940603378"><ele>604.6666666666666</ele><time>2026-04-19T07:38:55.852Z</time></trkpt><trkpt lat="43.405400942191825" lon="11.6905568596191"><ele>604.8333333333333</ele><time>2026-04-19T07:38:58.852Z</time></trkpt><trkpt lat="43.40542327338018" lon="11.690433265722532"><ele>605.0</ele><time>2026-04-19T07:39:01.852Z</time></trkpt><trkpt lat="43.40545914964619" lon="11.690350974316258"><ele>605.0</ele><time>2026-04-19T07:39:03.852Z</time></trkpt><trkpt lat="43.40549886056134" lon="11.690276365821235"><ele>605.0</ele><time>2026-04-19T07:39:05.852Z</time></trkpt><trkpt lat="43.40553705393357" lon="11.69019819682418"><ele>605.0</ele><time>2026-04-19T07:39:07.852Z</time></trkpt><trkpt lat="43.40556535826524" lon="11.69010923882116"><ele>605.0</ele><time>2026-04-19T07:39:09.852Z</time></trkpt><trkpt lat="43.40559507960857" lon="11.690027944450547"><ele>605.0</ele><time>2026-04-19T07:39:11.852Z</time></trkpt><trkpt lat="43.40563218554213" lon="11.689915237646424"><ele>605.0</ele><time>2026-04-19T07:39:14.852Z</time></trkpt><trkpt lat="43.40565929914996" lon="11.68979582519781"><ele>605.1428571428571</ele><time>2026-04-19T07:39:17.852Z</time></trkpt><trkpt lat="43.405673993458926" lon="11.68970279753402"><ele>605.2857142857143</ele><time>2026-04-19T07:39:19.852Z</time></trkpt><trkpt lat="43.40567310046342" lon="11.689608913380884"><ele>605.4285714285714</ele><time>2026-04-19T07:39:21.852Z</time></trkpt><trkpt lat="43.40566318494268" lon="11.689516694225494"><ele>605.5714285714286</ele><time>2026-04-19T07:39:23.852Z</time></trkpt><trkpt lat="43.405643452592045" lon="11.689424142469582"><ele>605.7142857142857</ele><time>2026-04-19T07:39:25.852Z</time></trkpt><trkpt lat="43.405630921169895" lon="11.689331635717892"><ele>605.8571428571429</ele><time>2026-04-19T07:39:27.852Z</time></trkpt><trkpt lat="43.405613740541945" lon="11.689245911442647"><ele>606.0</ele><time>2026-04-19T07:39:29.852Z</time></trkpt><trkpt lat="43.405595854680115" lon="11.689156668335439"><ele>606.0</ele><time>2026-04-19T07:39:31.852Z</time></trkpt><trkpt lat="43.40549980073921" lon="11.689101207764535"><ele>606.0</ele><time>2026-04-19T07:39:33.852Z</time></trkpt><trkpt lat="43.405461681208806" lon="11.689017134423631"><ele>606.0</ele><time>2026-04-19T07:39:35.852Z</time></trkpt><trkpt lat="43.40542798522913" lon="11.688933830430276"><ele>606.0</ele><time>2026-04-19T07:39:37.851Z</time></trkpt><trkpt lat="43.405396150809345" lon="11.688851270880182"><ele>606.0</ele><time>2026-04-19T07:39:39.851Z</time></trkpt><trkpt lat="43.40536796656034" lon="11.688757324359738"><ele>606.0</ele><time>2026-04-19T07:39:41.851Z</time></trkpt><trkpt lat="43.40534310897324" lon="11.688659576564511"><ele>606.5</ele><time>2026-04-19T07:39:43.851Z</time></trkpt><trkpt lat="43.40532171470821" lon="11.688560763139911"><ele>607.0</ele><time>2026-04-19T07:39:45.851Z</time></trkpt><trkpt lat="43.40529998233856" lon="11.688460315370873"><ele>607.5</ele><time>2026-04-19T07:39:47.851Z</time></trkpt><trkpt lat="43.405278947470414" lon="11.688356992217583"><ele>608.0</ele><time>2026-04-19T07:39:49.851Z</time></trkpt><trkpt lat="43.40525780743835" lon="11.688249131436296"><ele>608.5</ele><time>2026-04-19T07:39:51.851Z</time></trkpt><trkpt lat="43.40523226053284" lon="11.688139306385983"><ele>609.0</ele><time>2026-04-19T07:39:53.851Z</time></trkpt><trkpt lat="43.405211654965214" lon="11.688020394851945"><ele>609.0</ele><time>2026-04-19T07:39:55.851Z</time></trkpt><trkpt lat="43.40519939313759" lon="11.687887330486744"><ele>609.0</ele><time>2026-04-19T07:39:57.851Z</time></trkpt><trkpt lat="43.40518774275675" lon="11.68775159755771"><ele>609.0</ele><time>2026-04-19T07:39:59.851Z</time></trkpt><trkpt lat="43.40519041385613" lon="11.687627617466253"><ele>609.0</ele><time>2026-04-19T07:40:01.851Z</time></trkpt><trkpt lat="43.40518492009071" lon="11.687511551559048"><ele>609.0</ele><time>2026-04-19T07:40:03.851Z</time></trkpt><trkpt lat="43.40518099013777" lon="11.687398795308674"><ele>608.5</ele><time>2026-04-19T07:40:05.851Z</time></trkpt><trkpt lat="43.40517797316919" lon="11.687290893118583"><ele>608.0</ele><time>2026-04-19T07:40:07.851Z</time></trkpt><trkpt lat="43.405171999826905" lon="11.687183381814558"><ele>607.5</ele><time>2026-04-19T07:40:09.851Z</time></trkpt><trkpt lat="43.40518643877546" lon="11.687083597331926"><ele>607.0</ele><time>2026-04-19T07:40:11.851Z</time></trkpt><trkpt lat="43.40518422929278" lon="11.686979495393565"><ele>606.5</ele><time>2026-04-19T07:40:13.851Z</time></trkpt><trkpt lat="43.40518143259045" lon="11.68687719636933"><ele>606.0</ele><time>2026-04-19T07:40:15.851Z</time></trkpt><trkpt lat="43.40517513740394" lon="11.686766108886369"><ele>605.5</ele><time>2026-04-19T07:40:17.851Z</time></trkpt><trkpt lat="43.40515466885092" lon="11.686657081691111"><ele>605.0</ele><time>2026-04-19T07:40:19.851Z</time></trkpt><trkpt lat="43.40511899155636" lon="11.686557663122993"><ele>604.5</ele><time>2026-04-19T07:40:21.851Z</time></trkpt><trkpt lat="43.4050758998328" lon="11.686463558696232"><ele>604.0</ele><time>2026-04-19T07:40:23.851Z</time></trkpt><trkpt lat="43.405023789826174" lon="11.686351751038453"><ele>603.5</ele><time>2026-04-19T07:40:25.851Z</time></trkpt><trkpt lat="43.40496512602388" lon="11.68625176953472"><ele>603.0</ele><time>2026-04-19T07:40:27.851Z</time></trkpt><trkpt lat="43.4049040278801" lon="11.686147639152127"><ele>603.0</ele><time>2026-04-19T07:40:29.851Z</time></trkpt><trkpt lat="43.4048248732798" lon="11.686151537077917"><ele>603.0</ele><time>2026-04-19T07:40:30.85Z</time></trkpt><trkpt lat="43.404748931093955" lon="11.686066396663572"><ele>603.0</ele><time>2026-04-19T07:40:32.85Z</time></trkpt><trkpt lat="43.404688154872446" lon="11.685954925778972"><ele>603.0</ele><time>2026-04-19T07:40:34.85Z</time></trkpt><trkpt lat="43.40461115887018" lon="11.685877133943"><ele>603.0</ele><time>2026-04-19T07:40:36.85Z</time></trkpt><trkpt lat="43.40453889201283" lon="11.685790166385056"><ele>601.6666666666666</ele><time>2026-04-19T07:40:38.85Z</time></trkpt><trkpt lat="43.404475796396" lon="11.685711623130027"><ele>600.3333333333334</ele><time>2026-04-19T07:40:40.849Z</time></trkpt><trkpt lat="43.404411714427795" lon="11.685637355986977"><ele>599.0</ele><time>2026-04-19T07:40:42.849Z</time></trkpt><trkpt lat="43.40434582154553" lon="11.68555253094611"><ele>597.6666666666667</ele><time>2026-04-19T07:40:44.85Z</time></trkpt><trkpt lat="43.40427472682966" lon="11.685470482781458"><ele>596.3333333333334</ele><time>2026-04-19T07:40:46.85Z</time></trkpt><trkpt lat="43.40420116321428" lon="11.685386204016705"><ele>595.0</ele><time>2026-04-19T07:40:48.85Z</time></trkpt><trkpt lat="43.40412888737356" lon="11.685306099830955"><ele>595.0</ele><time>2026-04-19T07:40:50.85Z</time></trkpt><trkpt lat="43.40405818417436" lon="11.685223823112768"><ele>595.0</ele><time>2026-04-19T07:40:52.85Z</time></trkpt><trkpt lat="43.403984865311706" lon="11.685140697011098"><ele>595.0</ele><time>2026-04-19T07:40:54.85Z</time></trkpt><trkpt lat="43.403924811047155" lon="11.685047024596903"><ele>595.0</ele><time>2026-04-19T07:40:56.85Z</time></trkpt><trkpt lat="43.40386232431948" lon="11.684966773258244"><ele>595.0</ele><time>2026-04-19T07:40:58.85Z</time></trkpt><trkpt lat="43.40381609592645" lon="11.68489860749236"><ele>595.0</ele><time>2026-04-19T07:41:00.85Z</time></trkpt><trkpt lat="43.403728131900905" lon="11.684928517602582"><ele>594.3333333333334</ele><time>2026-04-19T07:41:01.85Z</time></trkpt><trkpt lat="43.40365815151824" lon="11.68493007183453"><ele>593.6666666666667</ele><time>2026-04-19T07:41:03.85Z</time></trkpt><trkpt lat="43.40358828878501" lon="11.684925605611157"><ele>593.0</ele><time>2026-04-19T07:41:05.85Z</time></trkpt><trkpt lat="43.40351127453955" lon="11.68491701034428"><ele>592.3333333333334</ele><time>2026-04-19T07:41:07.85Z</time></trkpt><trkpt lat="43.40342330955683" lon="11.684930255550187"><ele>591.6666666666666</ele><time>2026-04-19T07:41:09.85Z</time></trkpt><trkpt lat="43.403325598562986" lon="11.684907784606047"><ele>591.0</ele><time>2026-04-19T07:41:11.85Z</time></trkpt><trkpt lat="43.40323355195438" lon="11.68490388925632"><ele>591.0</ele><time>2026-04-19T07:41:13.85Z</time></trkpt><trkpt lat="43.403149554413034" lon="11.684913249184072"><ele>591.0</ele><time>2026-04-19T07:41:15.85Z</time></trkpt><trkpt lat="43.403072237093205" lon="11.684925970113685"><ele>591.0</ele><time>2026-04-19T07:41:17.85Z</time></trkpt><trkpt lat="43.403006014488504" lon="11.684918607004427"><ele>591.0</ele><time>2026-04-19T07:41:19.85Z</time></trkpt><trkpt lat="43.40293221833668" lon="11.68495286485057"><ele>591.0</ele><time>2026-04-19T07:41:21.85Z</time></trkpt><trkpt lat="43.402854693989795" lon="11.685034898996388"><ele>591.0</ele><time>2026-04-19T07:41:23.85Z</time></trkpt><trkpt lat="43.402794779557354" lon="11.685166598059398"><ele>588.3333333333334</ele><time>2026-04-19T07:41:25.85Z</time></trkpt><trkpt lat="43.40269477766972" lon="11.68526974541297"><ele>585.6666666666666</ele><time>2026-04-19T07:41:27.85Z</time></trkpt><trkpt lat="43.40264306675148" lon="11.685340150569381"><ele>583.0</ele><time>2026-04-19T07:41:28.85Z</time></trkpt><trkpt lat="43.40258577887456" lon="11.685409450811333"><ele>580.3333333333333</ele><time>2026-04-19T07:41:29.85Z</time></trkpt><trkpt lat="43.40252320644943" lon="11.685484499967659"><ele>577.6666666666666</ele><time>2026-04-19T07:41:30.85Z</time></trkpt><trkpt lat="43.402467991875845" lon="11.685561550313025"><ele>575.0</ele><time>2026-04-19T07:41:31.85Z</time></trkpt><trkpt lat="43.402415330284164" lon="11.685640530914956"><ele>575.0</ele><time>2026-04-19T07:41:32.85Z</time></trkpt><trkpt lat="43.40236419963237" lon="11.685720443804057"><ele>575.0</ele><time>2026-04-19T07:41:33.85Z</time></trkpt><trkpt lat="43.40232005341074" lon="11.685797848110274"><ele>575.0</ele><time>2026-04-19T07:41:34.85Z</time></trkpt><trkpt lat="43.402208132308495" lon="11.685857401472841"><ele>575.0</ele><time>2026-04-19T07:41:36.85Z</time></trkpt><trkpt lat="43.40213948960301" lon="11.68583169959868"><ele>575.0</ele><time>2026-04-19T07:41:37.85Z</time></trkpt><trkpt lat="43.402067881898795" lon="11.685812886645497"><ele>575.0</ele><time>2026-04-19T07:41:38.85Z</time></trkpt><trkpt lat="43.40199244792776" lon="11.685797017988392"><ele>573.5</ele><time>2026-04-19T07:41:39.849Z</time></trkpt><trkpt lat="43.40192264204505" lon="11.685791826191204"><ele>572.0</ele><time>2026-04-19T07:41:40.849Z</time></trkpt><trkpt lat="43.40184792383957" lon="11.685820410081169"><ele>570.5</ele><time>2026-04-19T07:41:41.849Z</time></trkpt><trkpt lat="43.40177423650827" lon="11.68585536725139"><ele>569.0</ele><time>2026-04-19T07:41:42.849Z</time></trkpt><trkpt lat="43.40169763733427" lon="11.685897986814949"><ele>567.5</ele><time>2026-04-19T07:41:43.849Z</time></trkpt><trkpt lat="43.40162773375662" lon="11.685943651634805"><ele>566.0</ele><time>2026-04-19T07:41:44.849Z</time></trkpt><trkpt lat="43.401560758330476" lon="11.685983728683762"><ele>566.0</ele><time>2026-04-19T07:41:45.849Z</time></trkpt><trkpt lat="43.40149489319092" lon="11.686019273420436"><ele>566.0</ele><time>2026-04-19T07:41:46.849Z</time></trkpt><trkpt lat="43.401429727726764" lon="11.686059393580198"><ele>566.0</ele><time>2026-04-19T07:41:47.849Z</time></trkpt><trkpt lat="43.401356815838426" lon="11.686102512250008"><ele>566.0</ele><time>2026-04-19T07:41:48.849Z</time></trkpt><trkpt lat="43.40128279595635" lon="11.686148921675965"><ele>566.0</ele><time>2026-04-19T07:41:49.849Z</time></trkpt><trkpt lat="43.40120291916688" lon="11.686172255329053"><ele>566.0</ele><time>2026-04-19T07:41:50.849Z</time></trkpt><trkpt lat="43.40112702356899" lon="11.686238394414554"><ele>563.2</ele><time>2026-04-19T07:41:51.849Z</time></trkpt><trkpt lat="43.40104358050727" lon="11.686286293336314"><ele>560.4000000000001</ele><time>2026-04-19T07:41:52.849Z</time></trkpt><trkpt lat="43.40095383479854" lon="11.686334985863112"><ele>557.6</ele><time>2026-04-19T07:41:53.849Z</time></trkpt><trkpt lat="43.40086222442052" lon="11.68638623880425"><ele>554.8000000000001</ele><time>2026-04-19T07:41:54.849Z</time></trkpt><trkpt lat="43.40076547294307" lon="11.686436522560003"><ele>552.0</ele><time>2026-04-19T07:41:55.849Z</time></trkpt><trkpt lat="43.40067505493881" lon="11.68648288142589"><ele>552.0</ele><time>2026-04-19T07:41:56.849Z</time></trkpt><trkpt lat="43.40058945993585" lon="11.686523819907457"><ele>552.0</ele><time>2026-04-19T07:41:57.849Z</time></trkpt><trkpt lat="43.40051723277402" lon="11.686553729702979"><ele>552.0</ele><time>2026-04-19T07:41:58.849Z</time></trkpt><trkpt lat="43.40044535044934" lon="11.686584691374968"><ele>552.0</ele><time>2026-04-19T07:41:59.849Z</time></trkpt><trkpt lat="43.40037583891766" lon="11.686614992275905"><ele>552.0</ele><time>2026-04-19T07:42:00.849Z</time></trkpt><trkpt lat="43.40030846101161" lon="11.686648506086685"><ele>552.0</ele><time>2026-04-19T07:42:01.849Z</time></trkpt><trkpt lat="43.40024762610882" lon="11.686683499974716"><ele>550.5</ele><time>2026-04-19T07:42:02.849Z</time></trkpt><trkpt lat="43.400187296184605" lon="11.686753045634758"><ele>549.0</ele><time>2026-04-19T07:42:03.849Z</time></trkpt><trkpt lat="43.400123087253064" lon="11.686830156935951"><ele>547.5</ele><time>2026-04-19T07:42:04.849Z</time></trkpt><trkpt lat="43.4000657754308" lon="11.68690032508659"><ele>546.0</ele><time>2026-04-19T07:42:05.849Z</time></trkpt><trkpt lat="43.400022339363886" lon="11.686969251440221"><ele>544.5</ele><time>2026-04-19T07:42:06.849Z</time></trkpt><trkpt lat="43.39992910982209" lon="11.687057915648795"><ele>543.0</ele><time>2026-04-19T07:42:08.849Z</time></trkpt><trkpt lat="43.39985696042249" lon="11.686929401677494"><ele>543.0</ele><time>2026-04-19T07:42:18.849Z</time></trkpt><trkpt lat="43.39982900926931" lon="11.686838682282891"><ele>543.0</ele><time>2026-04-19T07:42:20.849Z</time></trkpt><trkpt lat="43.399823781418554" lon="11.686719844604049"><ele>543.0</ele><time>2026-04-19T07:42:22.849Z</time></trkpt><trkpt lat="43.39987215563747" lon="11.686573038458704"><ele>543.0</ele><time>2026-04-19T07:42:24.849Z</time></trkpt><trkpt lat="43.399901200831664" lon="11.686496137476379"><ele>543.0</ele><time>2026-04-19T07:42:25.849Z</time></trkpt><trkpt lat="43.39998034737163" lon="11.686385671280725"><ele>543.0</ele><time>2026-04-19T07:42:27.849Z</time></trkpt><trkpt lat="43.40005213174273" lon="11.686267131407142"><ele>543.0</ele><time>2026-04-19T07:42:29.849Z</time></trkpt><trkpt lat="43.40011088290974" lon="11.686171511054477"><ele>543.0</ele><time>2026-04-19T07:42:31.849Z</time></trkpt><trkpt lat="43.40016414760359" lon="11.68607712044602"><ele>543.0</ele><time>2026-04-19T07:42:33.849Z</time></trkpt><trkpt lat="43.400182156831136" lon="11.685954693393057"><ele>543.0</ele><time>2026-04-19T07:42:36.848Z</time></trkpt><trkpt lat="43.40012434779549" lon="11.685869497889257"><ele>541.3333333333334</ele><time>2026-04-19T07:42:38.848Z</time></trkpt><trkpt lat="43.40005652332929" lon="11.685882643017568"><ele>539.6666666666666</ele><time>2026-04-19T07:42:40.847Z</time></trkpt><trkpt lat="43.400001349698414" lon="11.6859540050984"><ele>538.0</ele><time>2026-04-19T07:42:42.848Z</time></trkpt><trkpt lat="43.39993459976108" lon="11.686046737349587"><ele>536.3333333333333</ele><time>2026-04-19T07:42:44.848Z</time></trkpt><trkpt lat="43.39986991414334" lon="11.686091664361035"><ele>534.6666666666666</ele><time>2026-04-19T07:42:47.848Z</time></trkpt><trkpt lat="43.399818771178964" lon="11.686025891434582"><ele>533.0</ele><time>2026-04-19T07:42:50.847Z</time></trkpt><trkpt lat="43.39984626209715" lon="11.685928072323335"><ele>533.0</ele><time>2026-04-19T07:42:53.847Z</time></trkpt><trkpt lat="43.399890812489076" lon="11.685839986606828"><ele>533.0</ele><time>2026-04-19T07:42:56.847Z</time></trkpt><trkpt lat="43.399943514346205" lon="11.685732680753352"><ele>533.0</ele><time>2026-04-19T07:42:58.847Z</time></trkpt><trkpt lat="43.3999609353021" lon="11.685604197096087"><ele>533.0</ele><time>2026-04-19T07:43:00.847Z</time></trkpt><trkpt lat="43.399907395773766" lon="11.685506489033907"><ele>533.0</ele><time>2026-04-19T07:43:02.847Z</time></trkpt><trkpt lat="43.39981037440401" lon="11.685482106967926"><ele>533.0</ele><time>2026-04-19T07:43:04.847Z</time></trkpt><trkpt lat="43.39971705120626" lon="11.685503953781112"><ele>533.0</ele><time>2026-04-19T07:43:06.847Z</time></trkpt><trkpt lat="43.39961498303701" lon="11.685556971680187"><ele>533.0</ele><time>2026-04-19T07:43:08.847Z</time></trkpt><trkpt lat="43.39951944495668" lon="11.68559172976501"><ele>533.0</ele><time>2026-04-19T07:43:10.847Z</time></trkpt><trkpt lat="43.39941579034427" lon="11.685640149612636"><ele>533.0</ele><time>2026-04-19T07:43:12.847Z</time></trkpt><trkpt lat="43.399350283763944" lon="11.685667794067536"><ele>531.1428571428571</ele><time>2026-04-19T07:43:14.847Z</time></trkpt><trkpt lat="43.399281527301355" lon="11.685691138254134"><ele>529.2857142857142</ele><time>2026-04-19T07:43:16.847Z</time></trkpt><trkpt lat="43.39921206471136" lon="11.685701915271276"><ele>527.4285714285714</ele><time>2026-04-19T07:43:18.847Z</time></trkpt><trkpt lat="43.39913213695084" lon="11.685699015884815"><ele>525.5714285714286</ele><time>2026-04-19T07:43:20.847Z</time></trkpt><trkpt lat="43.39906517626728" lon="11.685709156671958"><ele>523.7142857142858</ele><time>2026-04-19T07:43:22.847Z</time></trkpt><trkpt lat="43.399004613489765" lon="11.685669636205185"><ele>521.8571428571429</ele><time>2026-04-19T07:43:24.847Z</time></trkpt><trkpt lat="43.398933422390414" lon="11.685624333710352"><ele>520.0</ele><time>2026-04-19T07:43:26.847Z</time></trkpt><trkpt lat="43.398866764682076" lon="11.685591022502813"><ele>519.3333333333334</ele><time>2026-04-19T07:43:28.847Z</time></trkpt><trkpt lat="43.39880709717906" lon="11.685561205345865"><ele>518.6666666666667</ele><time>2026-04-19T07:43:30.847Z</time></trkpt><trkpt lat="43.398736502815275" lon="11.685541015906306"><ele>518.0</ele><time>2026-04-19T07:43:32.847Z</time></trkpt><trkpt lat="43.39865310109795" lon="11.685509363377314"><ele>517.3333333333334</ele><time>2026-04-19T07:43:35.847Z</time></trkpt><trkpt lat="43.39858847439875" lon="11.685496354088315"><ele>516.6666666666666</ele><time>2026-04-19T07:43:37.847Z</time></trkpt><trkpt lat="43.3985031703384" lon="11.685455779038204"><ele>516.0</ele><time>2026-04-19T07:43:40.847Z</time></trkpt><trkpt lat="43.39842826054714" lon="11.685448435069643"><ele>516.0</ele><time>2026-04-19T07:43:42.847Z</time></trkpt><trkpt lat="43.39833025169605" lon="11.685464893249815"><ele>516.0</ele><time>2026-04-19T07:43:44.847Z</time></trkpt><trkpt lat="43.39824057458719" lon="11.685486744716165"><ele>516.0</ele><time>2026-04-19T07:43:46.847Z</time></trkpt><trkpt lat="43.39813539622392" lon="11.68545122673864"><ele>516.0</ele><time>2026-04-19T07:43:48.847Z</time></trkpt><trkpt lat="43.39803735528678" lon="11.685442151187237"><ele>516.0</ele><time>2026-04-19T07:43:50.847Z</time></trkpt><trkpt lat="43.39793800982138" lon="11.68541805791782"><ele>515.5</ele><time>2026-04-19T07:43:52.847Z</time></trkpt><trkpt lat="43.39782467323771" lon="11.685441686581305"><ele>515.0</ele><time>2026-04-19T07:43:54.846Z</time></trkpt><trkpt lat="43.397733419500916" lon="11.685473065991793"><ele>514.5</ele><time>2026-04-19T07:43:56.846Z</time></trkpt><trkpt lat="43.39766459923344" lon="11.685495974843082"><ele>514.0</ele><time>2026-04-19T07:43:58.846Z</time></trkpt><trkpt lat="43.39758467930701" lon="11.68551511907701"><ele>513.5</ele><time>2026-04-19T07:44:00.846Z</time></trkpt><trkpt lat="43.39751023584429" lon="11.685527925929236"><ele>513.0</ele><time>2026-04-19T07:44:02.846Z</time></trkpt><trkpt lat="43.39744597599406" lon="11.685549262309815"><ele>513.0</ele><time>2026-04-19T07:44:04.846Z</time></trkpt><trkpt lat="43.39736738630214" lon="11.685560926946945"><ele>513.0</ele><time>2026-04-19T07:44:06.846Z</time></trkpt><trkpt lat="43.397278605198665" lon="11.685556910509868"><ele>513.0</ele><time>2026-04-19T07:44:08.846Z</time></trkpt><trkpt lat="43.397184634237405" lon="11.685553920976776"><ele>513.0</ele><time>2026-04-19T07:44:10.846Z</time></trkpt><trkpt lat="43.397078765929976" lon="11.685529950532539"><ele>513.0</ele><time>2026-04-19T07:44:12.846Z</time></trkpt><trkpt lat="43.39694602395555" lon="11.68549062100405"><ele>514.1666666666666</ele><time>2026-04-19T07:44:14.846Z</time></trkpt><trkpt lat="43.39687702336423" lon="11.685462906514548"><ele>515.3333333333334</ele><time>2026-04-19T07:44:15.846Z</time></trkpt><trkpt lat="43.39680796762198" lon="11.685432299713629"><ele>516.5</ele><time>2026-04-19T07:44:16.846Z</time></trkpt><trkpt lat="43.396745357979064" lon="11.685398150472997"><ele>517.6666666666667</ele><time>2026-04-19T07:44:17.846Z</time></trkpt><trkpt lat="43.39668951714833" lon="11.68534796908246"><ele>518.8333333333334</ele><time>2026-04-19T07:44:18.846Z</time></trkpt><trkpt lat="43.396600301320234" lon="11.68524041155163"><ele>520.0</ele><time>2026-04-19T07:44:20.846Z</time></trkpt><trkpt lat="43.396536442264185" lon="11.685112974511249"><ele>520.0</ele><time>2026-04-19T07:44:22.846Z</time></trkpt><trkpt lat="43.3964886893104" lon="11.684984270168284"><ele>520.0</ele><time>2026-04-19T07:44:24.846Z</time></trkpt><trkpt lat="43.39644254322657" lon="11.684843039596407"><ele>520.0</ele><time>2026-04-19T07:44:26.846Z</time></trkpt><trkpt lat="43.39639615894961" lon="11.684692163092436"><ele>520.0</ele><time>2026-04-19T07:44:28.846Z</time></trkpt><trkpt lat="43.396366988927646" lon="11.684613612980671"><ele>520.0</ele><time>2026-04-19T07:44:29.846Z</time></trkpt><trkpt lat="43.39633632042627" lon="11.684529305313427"><ele>519.2</ele><time>2026-04-19T07:44:30.846Z</time></trkpt><trkpt lat="43.396327732059014" lon="11.684443100265296"><ele>518.4</ele><time>2026-04-19T07:44:31.846Z</time></trkpt><trkpt lat="43.39630237819676" lon="11.684284404567116"><ele>517.6</ele><time>2026-04-19T07:44:33.846Z</time></trkpt><trkpt lat="43.396223913401855" lon="11.684149340271668"><ele>516.8</ele><time>2026-04-19T07:44:35.846Z</time></trkpt><trkpt lat="43.39616108962203" lon="11.684133744839501"><ele>516.0</ele><time>2026-04-19T07:44:36.846Z</time></trkpt><trkpt lat="43.39605995081431" lon="11.684145424157839"><ele>515.9999999999999</ele><time>2026-04-19T07:44:38.846Z</time></trkpt><trkpt lat="43.3959895529809" lon="11.68416235557475"><ele>516.0</ele><time>2026-04-19T07:44:40.846Z</time></trkpt><trkpt lat="43.395926831740496" lon="11.684175201715384"><ele>516.0</ele><time>2026-04-19T07:44:42.846Z</time></trkpt><trkpt lat="43.395858071010544" lon="11.684173408842623"><ele>516.0</ele><time>2026-04-19T07:44:44.846Z</time></trkpt><trkpt lat="43.39578479336889" lon="11.684158100594752"><ele>516.0</ele><time>2026-04-19T07:44:46.846Z</time></trkpt><trkpt lat="43.39571332324566" lon="11.684144312251783"><ele>515.9999999999999</ele><time>2026-04-19T07:44:48.846Z</time></trkpt><trkpt lat="43.395646071551475" lon="11.684097931509173"><ele>516.0</ele><time>2026-04-19T07:44:50.845Z</time></trkpt><trkpt lat="43.39558835413632" lon="11.684052851237002"><ele>516.0</ele><time>2026-04-19T07:44:52.846Z</time></trkpt><trkpt lat="43.39552292068888" lon="11.683987155751598"><ele>516.0</ele><time>2026-04-19T07:44:55.845Z</time></trkpt><trkpt lat="43.39546305582417" lon="11.68394927674371"><ele>516.0</ele><time>2026-04-19T07:44:57.845Z</time></trkpt><trkpt lat="43.39539391900539" lon="11.683910621282427"><ele>516.0</ele><time>2026-04-19T07:44:59.846Z</time></trkpt><trkpt lat="43.39531811936119" lon="11.683875861420228"><ele>516.0</ele><time>2026-04-19T07:45:01.845Z</time></trkpt><trkpt lat="43.39522964535808" lon="11.683842255301816"><ele>516.0</ele><time>2026-04-19T07:45:03.845Z</time></trkpt><trkpt lat="43.39514522157657" lon="11.683778209042313"><ele>516.4</ele><time>2026-04-19T07:45:05.845Z</time></trkpt><trkpt lat="43.395070606589286" lon="11.683699526045121"><ele>516.8</ele><time>2026-04-19T07:45:07.845Z</time></trkpt><trkpt lat="43.39499964671134" lon="11.68360209503958"><ele>517.1999999999999</ele><time>2026-04-19T07:45:09.845Z</time></trkpt><trkpt lat="43.394945166594205" lon="11.683511944378589"><ele>517.6</ele><time>2026-04-19T07:45:11.845Z</time></trkpt><trkpt lat="43.39488728471235" lon="11.68341681636509"><ele>518.0</ele><time>2026-04-19T07:45:13.845Z</time></trkpt><trkpt lat="43.39482681759728" lon="11.683305794130503"><ele>518.0</ele><time>2026-04-19T07:45:15.845Z</time></trkpt><trkpt lat="43.394760755173735" lon="11.683195232484994"><ele>518.0</ele><time>2026-04-19T07:45:17.845Z</time></trkpt><trkpt lat="43.39472026832215" lon="11.68306666929095"><ele>518.0</ele><time>2026-04-19T07:45:19.845Z</time></trkpt><trkpt lat="43.39472134486049" lon="11.682946834720028"><ele>518.0</ele><time>2026-04-19T07:45:21.845Z</time></trkpt><trkpt lat="43.39470330028798" lon="11.682836440794151"><ele>518.0</ele><time>2026-04-19T07:45:23.845Z</time></trkpt><trkpt lat="43.394692594361274" lon="11.682696457568769"><ele>519.0</ele><time>2026-04-19T07:45:25.845Z</time></trkpt><trkpt lat="43.39470394070518" lon="11.682610689981832"><ele>520.0</ele><time>2026-04-19T07:45:26.845Z</time></trkpt><trkpt lat="43.39470584164974" lon="11.682432031888904"><ele>521.0</ele><time>2026-04-19T07:45:28.845Z</time></trkpt><trkpt lat="43.394705221671785" lon="11.68232789231813"><ele>522.0</ele><time>2026-04-19T07:45:29.845Z</time></trkpt><trkpt lat="43.394702337746644" lon="11.682218720549429"><ele>523.0</ele><time>2026-04-19T07:45:30.845Z</time></trkpt><trkpt lat="43.394705512017104" lon="11.682117218053493"><ele>524.0</ele><time>2026-04-19T07:45:31.845Z</time></trkpt><trkpt lat="43.39469706597251" lon="11.68199706773746"><ele>523.1666666666666</ele><time>2026-04-19T07:45:33.845Z</time></trkpt><trkpt lat="43.39462093711166" lon="11.681894564081489"><ele>522.3333333333333</ele><time>2026-04-19T07:45:35.845Z</time></trkpt><trkpt lat="43.394553852485" lon="11.68190313211099"><ele>521.5</ele><time>2026-04-19T07:45:36.845Z</time></trkpt><trkpt lat="43.394455583796805" lon="11.681943142003048"><ele>520.6666666666666</ele><time>2026-04-19T07:45:38.845Z</time></trkpt><trkpt lat="43.39437138161812" lon="11.681977244004639"><ele>519.8333333333334</ele><time>2026-04-19T07:45:40.845Z</time></trkpt><trkpt lat="43.39430079151704" lon="11.68200819349162"><ele>519.0</ele><time>2026-04-19T07:45:42.845Z</time></trkpt><trkpt lat="43.39421228597784" lon="11.682024923878242"><ele>519.0</ele><time>2026-04-19T07:45:45.845Z</time></trkpt><trkpt lat="43.39412398581008" lon="11.682005297931653"><ele>519.0</ele><time>2026-04-19T07:45:48.845Z</time></trkpt><trkpt lat="43.39406065212204" lon="11.681943178848663"><ele>519.0</ele><time>2026-04-19T07:45:51.845Z</time></trkpt><trkpt lat="43.393982704185056" lon="11.681913608557366"><ele>519.0</ele><time>2026-04-19T07:45:54.845Z</time></trkpt><trkpt lat="43.39390863313888" lon="11.681882967381734"><ele>519.0</ele><time>2026-04-19T07:45:57.845Z</time></trkpt><trkpt lat="43.39383991342545" lon="11.681847811640663"><ele>519.0</ele><time>2026-04-19T07:46:00.845Z</time></trkpt><trkpt lat="43.39378377389288" lon="11.68179372378767"><ele>517.0</ele><time>2026-04-19T07:46:03.845Z</time></trkpt><trkpt lat="43.39374282984864" lon="11.681722256233645"><ele>515.0</ele><time>2026-04-19T07:46:06.845Z</time></trkpt><trkpt lat="43.393703603707685" lon="11.681638273281829"><ele>513.0</ele><time>2026-04-19T07:46:09.845Z</time></trkpt><trkpt lat="43.39367367501856" lon="11.681560796055669"><ele>511.0</ele><time>2026-04-19T07:46:12.845Z</time></trkpt><trkpt lat="43.39364802976335" lon="11.681478847507126"><ele>508.99999999999994</ele><time>2026-04-19T07:46:15.845Z</time></trkpt><trkpt lat="43.39362175086145" lon="11.681392459185926"><ele>507.0</ele><time>2026-04-19T07:46:18.845Z</time></trkpt><trkpt lat="43.393597444497026" lon="11.681304300062703"><ele>505.0</ele><time>2026-04-19T07:46:21.845Z</time></trkpt><trkpt lat="43.39357213992881" lon="11.68121652236138"><ele>505.00000000000006</ele><time>2026-04-19T07:46:24.845Z</time></trkpt><trkpt lat="43.39356214859036" lon="11.681126849093998"><ele>505.0</ele><time>2026-04-19T07:46:27.845Z</time></trkpt><trkpt lat="43.39355169617749" lon="11.681027892735155"><ele>505.0</ele><time>2026-04-19T07:46:30.845Z</time></trkpt><trkpt lat="43.39354075922689" lon="11.680919423208213"><ele>505.0</ele><time>2026-04-19T07:46:33.845Z</time></trkpt><trkpt lat="43.39351006709202" lon="11.68079788130693"><ele>505.00000000000006</ele><time>2026-04-19T07:46:36.844Z</time></trkpt><trkpt lat="43.393442335913186" lon="11.680732608555598"><ele>505.0</ele><time>2026-04-19T07:46:39.844Z</time></trkpt><trkpt lat="43.393367624671676" lon="11.680666675413404"><ele>507.57142857142856</ele><time>2026-04-19T07:46:42.844Z</time></trkpt><trkpt lat="43.39330168011941" lon="11.680619726450514"><ele>510.1428571428571</ele><time>2026-04-19T07:46:45.844Z</time></trkpt><trkpt lat="43.393264443322835" lon="11.680521985933717"><ele>512.7142857142857</ele><time>2026-04-19T07:46:48.843Z</time></trkpt><trkpt lat="43.3932412618681" lon="11.680432657671519"><ele>515.2857142857142</ele><time>2026-04-19T07:46:51.844Z</time></trkpt><trkpt lat="43.39319328302908" lon="11.680329808917179"><ele>517.8571428571429</ele><time>2026-04-19T07:46:54.844Z</time></trkpt><trkpt lat="43.39317762140449" lon="11.680233136760265"><ele>520.4285714285713</ele><time>2026-04-19T07:46:56.844Z</time></trkpt><trkpt lat="43.39318449514354" lon="11.680143731888181"><ele>523.0</ele><time>2026-04-19T07:46:58.844Z</time></trkpt><trkpt lat="43.393194130333754" lon="11.68002888150981"><ele>523.0</ele><time>2026-04-19T07:47:01.843Z</time></trkpt><trkpt lat="43.39321033998188" lon="11.679912937895445"><ele>523.0</ele><time>2026-04-19T07:47:04.844Z</time></trkpt><trkpt lat="43.3932310228987" lon="11.679792884588514"><ele>523.0</ele><time>2026-04-19T07:47:07.843Z</time></trkpt><trkpt lat="43.393256908242556" lon="11.679674230126201"><ele>523.0</ele><time>2026-04-19T07:47:10.843Z</time></trkpt><trkpt lat="43.39328667538066" lon="11.6795536413955"><ele>523.0</ele><time>2026-04-19T07:47:13.843Z</time></trkpt><trkpt lat="43.39329590672152" lon="11.679464485226692"><ele>523.0</ele><time>2026-04-19T07:47:15.843Z</time></trkpt><trkpt lat="43.39332770741897" lon="11.679388608286935"><ele>523.0</ele><time>2026-04-19T07:47:17.843Z</time></trkpt><trkpt lat="43.39338413008179" lon="11.679282827658168"><ele>523.0</ele><time>2026-04-19T07:47:20.843Z</time></trkpt><trkpt lat="43.393452290528955" lon="11.679220080477817"><ele>523.0</ele><time>2026-04-19T07:47:22.843Z</time></trkpt><trkpt lat="43.39352755547649" lon="11.679137044113274"><ele>523.0</ele><time>2026-04-19T07:47:24.843Z</time></trkpt><trkpt lat="43.393623454788646" lon="11.679070416654834"><ele>523.0</ele><time>2026-04-19T07:47:26.843Z</time></trkpt><trkpt lat="43.39367297493148" lon="11.678969208484618"><ele>523.0</ele><time>2026-04-19T07:47:28.843Z</time></trkpt><trkpt lat="43.39367138943082" lon="11.678851275009395"><ele>523.0</ele><time>2026-04-19T07:47:30.843Z</time></trkpt><trkpt lat="43.39362581982773" lon="11.678736104884361"><ele>523.0</ele><time>2026-04-19T07:47:32.843Z</time></trkpt><trkpt lat="43.39358784957625" lon="11.678651209567699"><ele>523.0</ele><time>2026-04-19T07:47:34.843Z</time></trkpt><trkpt lat="43.393534451063886" lon="11.67857109923192"><ele>523.0</ele><time>2026-04-19T07:47:36.843Z</time></trkpt><trkpt lat="43.393488087923636" lon="11.678472344963465"><ele>523.0</ele><time>2026-04-19T07:47:38.843Z</time></trkpt><trkpt lat="43.393435612182735" lon="11.678372066022817"><ele>523.4</ele><time>2026-04-19T07:47:40.843Z</time></trkpt><trkpt lat="43.393385612229174" lon="11.678253014870311"><ele>523.8</ele><time>2026-04-19T07:47:42.843Z</time></trkpt><trkpt lat="43.39333041210349" lon="11.678125765616768"><ele>524.2</ele><time>2026-04-19T07:47:44.843Z</time></trkpt><trkpt lat="43.39328258490972" lon="11.67798755539508"><ele>524.6</ele><time>2026-04-19T07:47:46.843Z</time></trkpt><trkpt lat="43.393245579343485" lon="11.677860809897624"><ele>525.0</ele><time>2026-04-19T07:47:48.843Z</time></trkpt><trkpt lat="43.393196527932176" lon="11.677745976432885"><ele>524.3333333333334</ele><time>2026-04-19T07:47:50.843Z</time></trkpt><trkpt lat="43.39313119008698" lon="11.677669942093239"><ele>523.6666666666666</ele><time>2026-04-19T07:47:52.843Z</time></trkpt><trkpt lat="43.393069440087466" lon="11.677639743725537"><ele>523.0</ele><time>2026-04-19T07:47:54.843Z</time></trkpt><trkpt lat="43.39300036225505" lon="11.6775853897142"><ele>522.3333333333333</ele><time>2026-04-19T07:47:57.843Z</time></trkpt><trkpt lat="43.3929112779452" lon="11.677536948756016"><ele>521.6666666666666</ele><time>2026-04-19T07:48:00.843Z</time></trkpt><trkpt lat="43.39280972882909" lon="11.677509220434635"><ele>521.0</ele><time>2026-04-19T07:48:03.843Z</time></trkpt><trkpt lat="43.392727156497095" lon="11.677508036325893"><ele>521.0</ele><time>2026-04-19T07:48:05.843Z</time></trkpt><trkpt lat="43.39266146240661" lon="11.677502660367372"><ele>521.0</ele><time>2026-04-19T07:48:07.843Z</time></trkpt><trkpt lat="43.392594895376966" lon="11.677456064002428"><ele>521.0</ele><time>2026-04-19T07:48:12.843Z</time></trkpt><trkpt lat="43.3925246394261" lon="11.677371099442007"><ele>521.0</ele><time>2026-04-19T07:48:15.843Z</time></trkpt><trkpt lat="43.39247018498737" lon="11.677308651794277"><ele>521.0</ele><time>2026-04-19T07:48:17.843Z</time></trkpt><trkpt lat="43.39240149207192" lon="11.677246165398628"><ele>521.0</ele><time>2026-04-19T07:48:19.843Z</time></trkpt><trkpt lat="43.39232785439884" lon="11.677163298694854"><ele>521.0</ele><time>2026-04-19T07:48:21.843Z</time></trkpt><trkpt lat="43.39226725525001" lon="11.67709407671171"><ele>521.0</ele><time>2026-04-19T07:48:23.843Z</time></trkpt><trkpt lat="43.39218598703617" lon="11.677015107145097"><ele>521.0</ele><time>2026-04-19T07:48:25.843Z</time></trkpt><trkpt lat="43.39211157630673" lon="11.676911861908861"><ele>521.0</ele><time>2026-04-19T07:48:27.843Z</time></trkpt><trkpt lat="43.392020430393124" lon="11.676835771025413"><ele>521.0</ele><time>2026-04-19T07:48:29.843Z</time></trkpt><trkpt lat="43.39193728204801" lon="11.676780747784452"><ele>517.6</ele><time>2026-04-19T07:48:31.843Z</time></trkpt><trkpt lat="43.39189422464199" lon="11.676672158542553"><ele>514.2</ele><time>2026-04-19T07:48:33.843Z</time></trkpt><trkpt lat="43.391899255214476" lon="11.676527886139693"><ele>510.79999999999995</ele><time>2026-04-19T07:48:35.843Z</time></trkpt><trkpt lat="43.39197375241011" lon="11.676417806418284"><ele>507.4</ele><time>2026-04-19T07:48:37.843Z</time></trkpt><trkpt lat="43.39200732782823" lon="11.676304596403185"><ele>504.0</ele><time>2026-04-19T07:48:39.843Z</time></trkpt><trkpt lat="43.39200260960633" lon="11.676163774128216"><ele>504.0</ele><time>2026-04-19T07:48:41.843Z</time></trkpt></trkseg><trkseg><trkpt lat="43.44857589108487" lon="11.859156000514568"><ele>252.0</ele><time>2026-04-19T11:01:34.001Z</time></trkpt><trkpt lat="43.44851299702306" lon="11.859094113786965"><ele>252.0</ele><time>2026-04-19T11:01:35.001Z</time></trkpt></trkseg></trk></gpx>